# Wetter Temperatur Luftdruck Luftfeuchtigkeit Sichtweite Windgeschwindigkeit Windrichtung Zeit
1 Clouds 24 1017 57 10000 2.57 150 10:27 14.08.2022
2 Clouds 22 1016 62 10000 2.06 170 08:50 14.08.2022
3 Clouds 15 1017 92 10000 1.54 120 06:21 14.08.2022
4 Clouds 15 1018 88 10000 1.54 140 02:47 14.08.2022
5 Clouds 17 1018 78 10000 1.54 140 23:49 13.08.2022
6 Clouds 19 1018 71 10000 2.06 150 22:52 13.08.2022
7 Clouds 22 1017 57 10000 3.09 150 20:58 13.08.2022
8 Clouds 23 1017 53 10000 3.09 160 20:28 13.08.2022
9 Clouds 25 1018 49 10000 3.09 160 19:24 13.08.2022
10 Clouds 27 1019 48 10000 4.12 220 17:36 13.08.2022
11 Clear 27 1019 49 10000 4.63 210 15:23 13.08.2022
12 Clear 27 1019 53 10000 4.63 200 14:26 13.08.2022
13 Clear 27 1019 55 10000 4.12 140 13:38 13.08.2022
14 Clear 26 1020 59 10000 3.6 140 11:52 13.08.2022
15 Clear 23 1020 69 10000 3.09 150 09:58 13.08.2022
16 Clouds 19 1020 88 10000 3.09 110 07:51 13.08.2022
17 Clouds 16 1021 90 10000 3.6 120 04:21 13.08.2022
18 Clouds 17 1021 84 10000 3.6 90 23:47 12.08.2022
19 Clear 19 1021 79 10000 4.63 90 21:42 12.08.2022
20 Clear 20 1021 76 10000 4.63 80 20:40 12.08.2022
21 Clear 21 1022 72 10000 4.63 80 19:36 12.08.2022
22 Clear 23 1022 68 10000 5.14 60 18:38 12.08.2022
23 Clear 27 1020 50 10000 3.09 300 16:37 12.08.2022
24 Clear 27 1020 53 10000 2.57 280 15:40 12.08.2022
25 Clear 25 1022 57 10000 4.12 280 14:27 12.08.2022
26 Clear 24 1022 60 10000 3.09 240 12:53 12.08.2022
27 Clear 21 1021 63 10000 3.6 270 09:52 12.08.2022
28 Clear 18 1021 72 10000 3.09 240 07:47 12.08.2022
29 Clear 15 1021 80 10000 1.54 220 06:31 12.08.2022
30 Clear 16 1018 80 10000 1.54 220 02:33 12.08.2022
31 Clear 18 1018 69 10000 2.57 260 00:24 12.08.2022
32 Clear 19 1018 65 10000 2.57 240 23:35 11.08.2022
33 Clear 19 1018 61 10000 2.06 240 22:24 11.08.2022
34 Clear 21 1018 54 10000 2.57 250 21:39 11.08.2022
35 Clear 23 1020 44 10000 3.6 270 20:45 11.08.2022
36 Clear 24 1017 42 10000 4.12 270 20:18 11.08.2022
37 Clear 26 1017 35 10000 4.12 260 19:32 11.08.2022
38 Clear 27 1017 35 10000 5.14 270 17:48 11.08.2022
39 Clear 27 1017 37 10000 5.66 260 16:34 11.08.2022
40 Clear 27 1017 41 10000 5.14 270 15:21 11.08.2022
41 Clear 25 1018 53 10000 6.17 250 12:41 11.08.2022
42 Clear 22 1018 67 10000 4.63 240 10:18 11.08.2022
43 Clear 18 1018 81 10000 3.6 240 07:19 11.08.2022
44 Clouds 17 1018 80 10000 3.09 230 03:46 11.08.2022
45 Clouds 17 1019 78 10000 2.06 220 00:35 11.08.2022
46 Clear 19 1019 71 10000 3.09 210 22:32 10.08.2022
47 Clear 20 1019 66 10000 3.09 190 21:25 10.08.2022
48 Clear 21 1019 65 10000 3.09 200 20:54 10.08.2022
49 Clear 24 1020 54 10000 4.63 200 19:24 10.08.2022
50 Clear 25 1020 51 10000 4.12 200 17:55 10.08.2022
51 Clear 25 1020 53 10000 4.12 220 16:35 10.08.2022
52 Clear 22 1022 58 10000 3.6 220 13:35 10.08.2022
53 Clear 22 1022 60 10000 3.09 210 12:41 10.08.2022
54 Clear 18 1023 74 10000 3.6 230 09:25 10.08.2022
55 Clear 17 1023 78 10000 2.57 220 08:33 10.08.2022
56 Clear 16 1023 82 10000 2.57 210 07:18 10.08.2022
57 Clouds 14 1023 84 10000 2.06 210 03:25 10.08.2022
58 Clouds 16 1024 73 10000 2.57 200 23:34 09.08.2022
59 Clouds 16 1024 73 10000 2.06 190 22:56 09.08.2022
60 Clear 18 1024 69 10000 2.57 200 21:36 09.08.2022
61 Clear 20 1024 63 10000 3.6 200 20:30 09.08.2022
62 Clear 22 1024 56 10000 4.63 220 18:44 09.08.2022
63 Clear 23 1024 50 10000 2.57 270 17:28 09.08.2022
64 Clear 24 1024 46 10000 1.54 190 16:40 09.08.2022
65 Clear 24 1024 47 10000 3.09 290 15:58 09.08.2022
66 Clear 23 1025 47 10000 1.54 0 12:52 09.08.2022
67 Clear 20 1025 67 10000 0.51 0 09:39 09.08.2022
68 Clear 19 1025 73 10000 0 0 08:50 09.08.2022
69 Clear 17 1025 80 10000 0 0 07:52 09.08.2022
70 Clear 11 1024 92 10000 0 0 04:22 09.08.2022
71 Clouds 14 1023 81 10000 1.03 250 23:27 08.08.2022
72 Clouds 15 1023 76 10000 1.54 210 22:55 08.08.2022
73 Clear 16 1022 71 10000 2.57 220 22:18 08.08.2022
74 Clear 17 1022 63 10000 2.06 230 21:18 08.08.2022
75 Clear 21 1023 40 10000 2.57 280 19:51 08.08.2022
76 Clear 22 1021 41 10000 3.09 240 18:45 08.08.2022
77 Clear 22 1020 47 10000 3.6 250 16:40 08.08.2022
78 Clear 22 1020 45 10000 4.12 260 15:40 08.08.2022
79 Clear 21 1020 50 10000 2.57 270 13:50 08.08.2022
80 Clear 20 1020 54 10000 3.09 300 12:19 08.08.2022
81 Clear 18 1019 71 10000 3.09 250 09:46 08.08.2022
82 Clouds 13 1018 87 10000 1.54 250 05:54 08.08.2022
83 Clouds 13 1018 80 10000 2.06 220 02:55 08.08.2022
84 Clouds 13 1019 72 10000 2.06 230 22:32 07.08.2022
85 Clear 16 1018 62 10000 2.06 260 21:39 07.08.2022
86 Clear 18 1018 52 10000 4.12 270 20:26 07.08.2022
87 Clear 18 1018 52 10000 4.12 270 20:26 07.08.2022
88 Clear 19 1018 51 10000 4.12 260 19:55 07.08.2022
89 Clear 19 1018 50 10000 4.12 260 19:34 07.08.2022
90 Clear 20 1018 50 10000 4.63 280 18:23 07.08.2022
91 Clouds 21 1018 52 10000 5.14 280 16:54 07.08.2022
92 Clouds 21 1018 52 10000 5.14 280 16:35 07.08.2022
93 Clouds 20 1016 54 10000 4.12 260 15:20 07.08.2022
94 Clouds 20 1017 64 10000 4.63 270 13:24 07.08.2022
95 Clouds 19 1017 68 10000 3.6 240 11:27 07.08.2022
96 Clouds 19 1017 69 10000 2.06 230 10:34 07.08.2022
97 Clouds 13 1017 85 10000 2.57 240 06:52 07.08.2022
98 Clouds 10 1016 87 10000 1.54 210 03:20 07.08.2022
99 Clouds 12 1016 82 10000 2.57 230 00:31 07.08.2022
100 Clouds 13 1015 79 10000 1.03 0 22:24 06.08.2022
101 Clouds 15 1014 73 10000 1.54 220 20:42 06.08.2022
102 Clouds 17 1014 64 10000 2.57 260 19:41 06.08.2022
103 Clouds 17 1014 60 10000 6.69 310 18:28 06.08.2022
104 Clear 18 1013 58 10000 3.6 310 17:31 06.08.2022
105 Clouds 19 1011 56 10000 6.69 290 14:35 06.08.2022
106 Clouds 19 1011 57 10000 7.2 270 13:44 06.08.2022
107 Clouds 19 1009 58 10000 8.75 260 11:33 06.08.2022
108 Clouds 17 1009 78 10000 5.66 220 09:51 06.08.2022
109 Clouds 15 1008 85 10000 4.63 220 08:32 06.08.2022
110 Clear 13 1007 87 10000 3.09 230 03:52 06.08.2022
111 Rain 17 1007 92 10000 2.06 230 23:36 05.08.2022
112 Drizzle 17 1008 91 10000 2.06 240 22:23 05.08.2022
113 Clouds 19 1008 91 10000 3.09 180 19:33 05.08.2022
114 Clouds 19 1007 92 10000 3.09 160 18:46 05.08.2022
115 Rain 19 1008 92 10000 3.09 160 18:22 05.08.2022
116 Rain 19 1007 93 3300 2.57 230 16:49 05.08.2022
117 Rain 20 1007 89 8000 2.57 200 15:22 05.08.2022
118 Rain 22 1007 78 10000 2.57 200 14:31 05.08.2022
119 Clouds 25 1008 67 10000 3.09 220 13:24 05.08.2022
120 Clouds 26 1008 63 10000 5.66 200 12:29 05.08.2022
121 Clouds 24 1009 75 10000 2.57 200 10:51 05.08.2022
122 Clouds 19 1009 91 10000 3.09 120 08:27 05.08.2022
123 Rain 19 1009 89 10000 1.54 0 06:56 05.08.2022
124 Rain 19 1009 89 10000 1.54 0 06:56 05.08.2022
125 Clouds 20 1011 78 10000 2.06 250 00:46 05.08.2022
126 Clouds 22 1010 71 10000 5.66 160 22:32 04.08.2022
127 Clear 22 1010 73 10000 4.63 140 21:27 04.08.2022
128 Clear 23 1011 70 10000 4.12 140 20:44 04.08.2022
129 Clear 24 1010 61 10000 4.63 140 19:48 04.08.2022
130 Clear 26 1011 55 10000 6.17 140 18:42 04.08.2022
131 Clear 26 1012 56 10000 4.63 130 18:23 04.08.2022
132 Clear 26 1013 49 10000 4.63 230 14:38 04.08.2022
133 Clear 25 1012 51 10000 5.14 240 13:18 04.08.2022
134 Clouds 24 1012 61 10000 5.14 270 11:20 04.08.2022
135 Clouds 21 1012 81 10000 3.09 230 07:55 04.08.2022
136 Clouds 20 1012 85 10000 2.57 220 06:41 04.08.2022
137 Clear 20 1011 82 10000 2.06 200 02:35 04.08.2022
138 Clouds 20 1010 76 10000 1.54 180 23:46 03.08.2022
139 Clouds 20 1010 75 10000 2.06 150 23:27 03.08.2022
140 Clear 22 1010 67 10000 4.12 200 20:57 03.08.2022
141 Clouds 22 1010 64 10000 5.14 180 19:56 03.08.2022
142 Clouds 23 1010 65 10000 6.17 180 18:40 03.08.2022
143 Clouds 24 1011 68 10000 5.14 210 16:26 03.08.2022
144 Clouds 24 1012 66 10000 5.14 190 15:47 03.08.2022
145 Clouds 23 1012 66 10000 5.14 190 13:24 03.08.2022
146 Clouds 19 1013 75 10000 3.09 180 09:51 03.08.2022
147 Clouds 15 1012 79 10000 3.6 190 06:29 03.08.2022
148 Clouds 15 1013 81 10000 4.12 220 04:22 03.08.2022
149 Clouds 15 1013 84 10000 1.03 170 02:35 03.08.2022
150 Rain 17 1013 82 10000 1.54 170 23:54 02.08.2022
151 Clear 18 1013 69 10000 3.6 170 21:59 02.08.2022
152 Clear 18 1013 68 10000 3.6 170 21:41 02.08.2022
153 Clear 19 1013 62 10000 3.6 200 20:25 02.08.2022
154 Clear 22 1012 52 10000 2.06 270 16:51 02.08.2022
155 Clear 21 1013 53 10000 3.09 240 13:55 02.08.2022
156 Clouds 18 1012 71 10000 2.06 290 10:44 02.08.2022
157 Clouds 14 1012 84 10000 3.09 300 08:36 02.08.2022
158 Clouds 14 1011 86 10000 2.57 340 07:51 02.08.2022
159 Clouds 13 1010 91 10000 0.51 0 04:56 02.08.2022
160 Clouds 14 1009 86 10000 1.54 220 02:30 02.08.2022
161 Clouds 16 1009 74 10000 1.54 170 23:25 01.08.2022
162 Clear 18 1009 63 10000 2.06 190 21:48 01.08.2022
163 Clouds 20 1008 58 10000 3.47 179 20:27 01.08.2022
164 Clear 22 1008 50 10000 3.09 200 18:56 01.08.2022
165 Clear 23 1009 49 10000 4.12 200 17:22 01.08.2022
166 Clear 23 1008 46 10000 3.09 170 16:48 01.08.2022
167 Clear 24 1008 45 10000 3.6 200 15:45 01.08.2022
168 Clear 23 1009 50 10000 4.12 220 14:57 01.08.2022
169 Clouds 23 1009 54 10000 3.09 220 13:32 01.08.2022
170 Clear 22 1009 56 10000 3.6 150 11:18 01.08.2022
171 Clear 20 1010 65 10000 3.09 150 09:34 01.08.2022
172 Clear 18 1010 78 10000 3.09 150 07:37 01.08.2022
173 Clouds 14 1011 85 10000 2.57 150 04:37 01.08.2022
174 Clouds 15 1011 83 10000 2.06 140 02:24 01.08.2022
175 Clouds 17 1012 73 10000 3.09 160 22:54 31.07.2022
176 Clouds 17 1012 71 10000 3.09 160 22:35 31.07.2022
177 Clear 19 1013 55 10000 3.09 170 20:44 31.07.2022
178 Clear 22 1013 40 10000 4.63 210 18:42 31.07.2022
179 Clear 23 1013 36 10000 5.14 190 17:29 31.07.2022
180 Clear 24 1014 35 10000 4.63 180 14:44 31.07.2022
181 Clear 24 1014 40 10000 5.14 180 13:19 31.07.2022
182 Clear 24 1014 47 10000 4.63 190 11:44 31.07.2022
183 Clouds 20 1015 61 10000 2.06 180 08:47 31.07.2022
184 Clear 14 1015 71 10000 0.51 0 05:38 31.07.2022
185 Clear 15 1015 63 10000 3.6 220 02:31 31.07.2022
186 Clouds 18 1017 50 10000 3.6 210 22:50 30.07.2022
187 Clouds 19 1017 53 10000 3.09 190 21:55 30.07.2022
188 Clouds 19 1017 53 10000 3.09 190 21:37 30.07.2022
189 Clouds 21 1017 51 10000 3.6 200 20:38 30.07.2022
190 Clouds 22 1017 47 10000 4.12 190 19:57 30.07.2022
191 Clouds 24 1017 45 10000 5.14 190 18:23 30.07.2022
192 Clear 24 1017 51 10000 1.54 0 16:44 30.07.2022
193 Clear 23 1018 51 10000 2.57 210 15:34 30.07.2022
194 Clear 24 1018 49 10000 4.12 240 14:26 30.07.2022
195 Clear 22 1019 49 10000 1.03 0 12:33 30.07.2022
196 Clear 22 1019 49 10000 1.03 0 11:55 30.07.2022
197 Clear 19 1019 63 10000 2.06 160 10:20 30.07.2022
198 Clear 19 1020 69 10000 1.54 0 09:42 30.07.2022
199 Clouds 17 1020 76 10000 1.03 0 07:44 30.07.2022
200 Clouds 13 1019 81 10000 0 0 02:34 30.07.2022
201 Clouds 16 1019 72 10000 2.57 220 00:32 30.07.2022
202 Clear 17 1021 56 10000 2.06 190 21:39 29.07.2022
203 Clear 18 1021 56 10000 2.57 190 20:57 29.07.2022
204 Clear 20 1019 51 10000 4.12 190 19:48 29.07.2022
205 Clear 22 1020 47 10000 3.6 290 17:39 29.07.2022
206 Clear 21 1020 46 10000 2.06 30 14:51 29.07.2022
207 Clear 21 1021 45 10000 2.57 330 12:58 29.07.2022
208 Clear 19 1021 53 10000 1.03 0 09:35 29.07.2022
209 Clear 17 1021 60 10000 1.03 0 08:46 29.07.2022
210 Clear 15 1021 77 10000 0 0 07:30 29.07.2022
211 Clouds 11 1022 84 10000 1.54 70 01:46 29.07.2022
212 Clear 15 1020 72 10000 4.12 130 21:55 28.07.2022
213 Clear 17 1019 63 10000 3.6 0 20:55 28.07.2022
214 Clear 18 1019 58 10000 3.09 280 20:22 28.07.2022
215 Clear 18 1019 52 10000 2.06 250 19:41 28.07.2022
216 Clear 19 1019 53 10000 1.54 0 18:26 28.07.2022
217 Clear 19 1018 50 10000 2.57 330 17:42 28.07.2022
218 Clear 18 1018 46 10000 3.09 300 16:41 28.07.2022
219 Clear 18 1018 51 10000 4.12 330 14:58 28.07.2022
220 Clouds 18 1018 55 10000 4.12 310 12:49 28.07.2022
221 Clear 15 1015 65 10000 3.6 330 09:45 28.07.2022
222 Rain 12 1014 73 10000 4.12 340 06:21 28.07.2022
223 Clouds 12 1013 73 10000 3.6 330 05:26 28.07.2022
224 Clouds 11 1013 89 10000 1.03 0 00:44 28.07.2022
225 Clear 14 1010 81 10000 0.51 0 22:31 27.07.2022
226 Clouds 17 1009 68 10000 4.12 360 20:25 27.07.2022
227 Clouds 17 1008 66 10000 3.09 320 19:34 27.07.2022
228 Clouds 18 1008 65 10000 4.12 330 17:23 27.07.2022
229 Clouds 19 1007 61 10000 3.09 340 15:52 27.07.2022
230 Clouds 19 1006 64 10000 3.6 320 14:48 27.07.2022
231 Clouds 19 1006 63 10000 3.6 300 14:30 27.07.2022
232 Clouds 19 1005 65 10000 4.63 300 12:48 27.07.2022
233 Clouds 15 1002 82 10000 4.12 250 07:53 27.07.2022
234 Clouds 15 1002 81 10000 3.6 240 06:18 27.07.2022
235 Clouds 16 1001 75 10000 3.6 220 00:46 27.07.2022
236 Clouds 17 1000 68 10000 5.14 240 22:25 26.07.2022
237 Clouds 18 999 64 10000 5.66 230 21:20 26.07.2022
238 Clouds 19 999 62 10000 6.17 250 19:59 26.07.2022
239 Clouds 20 999 61 10000 6.17 240 18:41 26.07.2022
240 Clouds 20 999 64 10000 5.14 230 17:57 26.07.2022
241 Clouds 21 998 73 10000 4.63 190 15:50 26.07.2022
242 Rain 20 999 75 10000 5.66 220 14:49 26.07.2022
243 Clouds 20 998 75 10000 4.63 240 12:50 26.07.2022
244 Clouds 19 998 85 10000 5.14 250 10:58 26.07.2022
245 Clouds 18 997 93 10000 3.6 200 08:43 26.07.2022
246 Rain 18 998 93 10000 3.6 160 05:30 26.07.2022
247 Clouds 19 1003 82 10000 4.12 170 00:27 26.07.2022
248 Clouds 19 1004 80 10000 3.6 150 22:51 25.07.2022
249 Rain 19 1004 81 10000 3.09 150 22:22 25.07.2022
250 Clear 19 1005 82 10000 2.06 190 21:38 25.07.2022
251 Clear 21 1005 71 10000 5.14 190 20:40 25.07.2022
252 Clear 21 1004 73 10000 2.57 160 19:27 25.07.2022
253 Clear 22 1004 71 10000 5.14 170 18:18 25.07.2022
254 Clear 22 1005 72 10000 4.63 180 17:27 25.07.2022
255 Clouds 21 1005 73 10000 4.12 210 14:32 25.07.2022
256 Clouds 21 1006 70 10000 3.6 190 11:50 25.07.2022
257 Clouds 20 1008 74 10000 3.6 180 09:18 25.07.2022
258 Clouds 15 1010 81 10000 2.06 160 03:23 25.07.2022
259 Clouds 16 1011 79 10000 1.54 230 23:54 24.07.2022
260 Clouds 17 1011 72 10000 2.57 250 22:56 24.07.2022
261 Clear 18 1011 70 10000 3.6 250 22:26 24.07.2022
262 Clear 19 1011 70 10000 4.63 260 21:19 24.07.2022
263 Clouds 20 1011 68 10000 7.2 250 20:47 24.07.2022
264 Clear 21 1011 65 10000 6.17 270 20:19 24.07.2022
265 Clear 23 1010 53 10000 4.63 250 18:38 24.07.2022
266 Clear 24 1011 46 10000 3.6 250 16:29 24.07.2022
267 Clear 24 1011 47 10000 3.09 300 15:45 24.07.2022
268 Clear 23 1011 50 10000 4.63 290 14:19 24.07.2022
269 Clouds 22 1012 55 10000 3.09 320 12:54 24.07.2022
270 Clouds 22 1012 48 10000 3.6 280 11:40 24.07.2022
271 Clouds 21 1011 58 10000 2.06 280 11:00 24.07.2022
272 Clouds 18 1011 77 10000 3.09 320 08:32 24.07.2022
273 Clouds 17 1011 79 10000 4.12 300 07:52 24.07.2022
274 Clouds 15 1011 85 10000 2.57 270 05:44 24.07.2022
275 Clouds 15 1011 83 10000 2.57 310 00:28 24.07.2022
276 Clouds 16 1011 80 10000 1.54 280 21:37 23.07.2022
277 Clouds 16 1011 84 10000 2.57 280 20:19 23.07.2022
278 Clouds 17 1011 80 10000 1.03 0 18:50 23.07.2022
279 Clouds 17 1011 80 10000 2.06 20 17:28 23.07.2022
280 Clouds 17 1011 79 10000 2.06 20 16:35 23.07.2022
281 Clouds 17 1011 80 10000 3.09 20 15:22 23.07.2022
282 Clouds 16 1011 82 10000 4.12 350 14:59 23.07.2022
283 Clouds 16 1011 83 10000 3.09 360 14:28 23.07.2022
284 Clouds 17 1010 80 10000 3.09 360 13:26 23.07.2022
285 Clouds 17 1010 80 10000 3.6 340 10:49 23.07.2022
286 Clouds 17 1010 80 10000 3.6 340 10:21 23.07.2022
287 Clouds 15 1009 85 10000 2.57 320 08:39 23.07.2022
288 Clouds 16 1009 88 6000 3.09 330 03:39 23.07.2022
289 Clouds 17 1010 90 10000 2.06 350 01:27 23.07.2022
290 Clouds 18 1010 85 10000 4.12 80 22:42 22.07.2022
291 Clouds 19 1011 83 10000 4.12 70 20:52 22.07.2022
292 Clouds 19 1010 82 10000 3.6 50 19:35 22.07.2022
293 Clouds 20 1010 81 10000 0.45 45 18:28 22.07.2022
294 Clouds 20 1011 79 10000 4.63 60 16:49 22.07.2022
295 Clouds 21 1011 78 10000 4.63 30 14:54 22.07.2022
296 Clear 23 1011 70 10000 4.12 360 11:22 22.07.2022
297 Clear 23 1011 71 10000 3.09 20 09:26 22.07.2022
298 Clear 22 1010 75 10000 1.54 0 08:32 22.07.2022
299 Clouds 19 1009 83 10000 1.03 310 05:19 22.07.2022
300 Clouds 21 1008 75 10000 2.06 140 00:48 22.07.2022
301 Clear 23 1009 66 10000 3.09 130 22:25 21.07.2022
302 Clear 25 1009 59 10000 4.12 140 21:29 21.07.2022
303 Clear 30 1011 42 10000 5.14 180 19:27 21.07.2022
304 Clear 31 1012 42 10000 4.63 170 17:41 21.07.2022
305 Clear 32 1011 41 10000 4.63 210 17:19 21.07.2022
306 Clear 32 1012 36 10000 4.63 190 14:55 21.07.2022
307 Clear 31 1012 37 10000 5.14 200 14:31 21.07.2022
308 Clear 31 1012 47 10000 3.09 240 12:28 21.07.2022
309 Clear 29 1013 52 10000 2.06 180 11:19 21.07.2022
310 Clear 26 1013 62 10000 1.54 200 09:33 21.07.2022
311 Clear 25 1012 62 10000 2.06 210 08:50 21.07.2022
312 Clear 22 1012 73 10000 1.03 0 07:42 21.07.2022
313 Clouds 17 1014 90 10000 0 0 05:47 21.07.2022
314 Clouds 19 1015 77 10000 2.06 170 00:43 21.07.2022
315 Clear 21 1016 71 10000 1.54 180 22:22 20.07.2022
316 Clear 23 1016 61 10000 2.57 170 20:55 20.07.2022
317 Clear 25 1016 55 10000 3.6 170 19:52 20.07.2022
318 Clear 25 1016 55 10000 4.12 170 19:24 20.07.2022
319 Clear 26 1016 54 10000 3.6 190 18:34 20.07.2022
320 Clear 26 1017 52 10000 4.63 200 18:00 20.07.2022
321 Clear 27 1017 49 10000 5.14 180 16:45 20.07.2022
322 Clear 27 1018 52 10000 4.12 190 15:32 20.07.2022
323 Clear 27 1018 57 10000 3.6 170 14:20 20.07.2022
324 Clear 27 1018 57 10000 3.6 170 14:20 20.07.2022
325 Clear 27 1018 57 10000 3.6 170 14:20 20.07.2022
326 Clear 25 1019 60 10000 2.57 180 11:34 20.07.2022
327 Clear 22 1019 73 10000 2.06 210 09:41 20.07.2022
328 Clouds 13 1018 89 10000 0 0 03:49 20.07.2022
329 Clouds 14 1018 76 10000 1.03 160 00:51 20.07.2022
330 Clouds 15 1018 66 10000 2.06 150 23:41 19.07.2022
331 Clouds 16 1018 61 10000 2.57 140 22:33 19.07.2022
332 Clouds 17 1017 58 10000 2.7 143 21:35 19.07.2022
333 Clear 19 1017 51 10000 5.14 110 20:33 19.07.2022
334 Clear 21 1017 53 10000 4.12 110 18:58 19.07.2022
335 Clear 21 1017 55 10000 4.63 100 18:28 19.07.2022
336 Clear 22 1016 58 10000 4.12 100 17:46 19.07.2022
337 Clouds 23 1016 60 10000 2.57 310 14:57 19.07.2022
338 Clear 22 1015 67 10000 3.09 350 11:44 19.07.2022
339 Clouds 21 1014 70 10000 3.6 30 10:55 19.07.2022
340 Clear 20 1014 75 10000 2.57 350 09:25 19.07.2022
341 Clear 19 1014 78 10000 2.06 330 08:39 19.07.2022
342 Clear 17 1013 86 10000 2.57 290 07:19 19.07.2022
343 Clouds 14 1013 92 10000 0.51 230 05:30 19.07.2022
344 Clouds 14 1013 92 10000 0 0 04:56 19.07.2022
345 Clouds 15 1012 88 10000 1.54 240 01:50 19.07.2022
346 Clouds 17 1012 82 10000 2.06 250 23:49 18.07.2022
347 Clouds 18 1013 78 10000 2.06 260 23:18 18.07.2022
348 Clear 19 1013 78 10000 4.12 270 22:18 18.07.2022
349 Clouds 19 1012 83 10000 1.54 200 20:51 18.07.2022
350 Clear 20 1012 81 10000 1.03 150 19:33 18.07.2022
351 Clouds 20 1013 73 10000 4.63 260 17:52 18.07.2022
352 Clouds 22 1013 60 10000 5.14 230 15:57 18.07.2022
353 Clouds 21 1012 57 10000 3.6 220 15:18 18.07.2022
354 Clouds 21 1014 63 10000 4.63 260 13:24 18.07.2022
355 Clouds 21 1014 67 10000 4.63 250 11:31 18.07.2022
356 Clear 20 1014 72 10000 3.6 240 09:43 18.07.2022
357 Clear 17 1014 80 10000 3.6 250 07:45 18.07.2022
358 Clouds 13 1015 78 10000 0 0 02:21 18.07.2022
359 Clouds 16 1015 62 10000 2.06 260 22:52 17.07.2022
360 Clear 17 1014 56 10000 2.57 260 22:25 17.07.2022
361 Clear 18 1015 53 10000 4.63 280 21:26 17.07.2022
362 Clear 19 1016 46 10000 6.17 280 20:44 17.07.2022
363 Clear 20 1014 49 10000 5.14 270 19:49 17.07.2022
364 Clear 20 1014 47 10000 6.17 290 19:19 17.07.2022
365 Clear 20 1014 46 10000 5.66 270 17:39 17.07.2022
366 Clear 21 1014 44 10000 5.14 270 16:51 17.07.2022
367 Clear 20 1015 44 10000 4.63 270 16:27 17.07.2022
368 Clear 20 1015 47 10000 5.14 300 15:27 17.07.2022
369 Clear 18 1015 51 10000 5.66 280 13:34 17.07.2022
370 Clear 18 1015 52 10000 5.14 260 12:22 17.07.2022
371 Clouds 16 1015 60 10000 4.63 280 09:31 17.07.2022
372 Clouds 13 1014 68 10000 3.09 290 06:37 17.07.2022
373 Clouds 13 1014 65 10000 3.6 300 02:33 17.07.2022
374 Clouds 14 1012 63 10000 2.57 300 23:22 16.07.2022
375 Clouds 14 1012 63 10000 2.57 300 23:22 16.07.2022
376 Clouds 15 1012 62 10000 4.63 300 21:57 16.07.2022
377 Clouds 15 1011 64 10000 4.63 300 20:28 16.07.2022
378 Clouds 15 1011 65 10000 5.66 310 18:42 16.07.2022
379 Clouds 16 1009 54 10000 7.2 300 17:24 16.07.2022
380 Clouds 15 1010 48 10000 6.69 280 15:41 16.07.2022
381 Clouds 15 1008 55 10000 6.69 280 11:55 16.07.2022
382 Clouds 15 1006 60 10000 5.14 280 09:37 16.07.2022
383 Clear 14 1006 64 10000 5.14 300 08:58 16.07.2022
384 Clear 13 1006 65 10000 5.14 300 08:33 16.07.2022
385 Clouds 12 1006 74 10000 4.12 280 06:47 16.07.2022
386 Clouds 12 1006 72 10000 3.09 260 03:31 16.07.2022
387 Clouds 11 1006 77 10000 3.09 260 23:52 15.07.2022
388 Clouds 11 1006 76 10000 2.57 250 22:44 15.07.2022
389 Clear 12 1006 71 10000 4.12 290 21:52 15.07.2022
390 Clear 14 1006 71 10000 4.12 270 20:32 15.07.2022
391 Rain 14 1006 62 10000 7.72 280 18:46 15.07.2022
392 Clear 15 1005 59 10000 7.2 290 17:51 15.07.2022
393 Clouds 16 1005 57 10000 8.75 290 16:23 15.07.2022
394 Clouds 16 1004 56 10000 7.72 290 13:48 15.07.2022
395 Clouds 15 1003 58 10000 7.2 290 12:22 15.07.2022
396 Clouds 15 1004 63 10000 6.17 290 10:52 15.07.2022
397 Clear 13 1003 70 10000 5.14 300 07:47 15.07.2022
398 Clouds 12 1002 87 10000 3.6 290 02:47 15.07.2022
399 Clouds 13 1002 89 10000 2.57 260 00:39 15.07.2022
400 Clouds 13 1002 88 10000 3.09 230 22:56 14.07.2022
401 Clear 14 1002 84 10000 2.06 260 21:59 14.07.2022
402 Clear 14 1002 84 10000 2.06 250 21:37 14.07.2022
403 Clear 15 1002 83 10000 2.06 250 21:18 14.07.2022
404 Clear 15 1002 83 10000 5.66 290 20:41 14.07.2022
405 Clear 15 1003 79 10000 4.63 270 20:18 14.07.2022
406 Clouds 17 1004 79 10000 1.03 0 17:25 14.07.2022
407 Rain 16 1004 73 10000 1.03 0 16:18 14.07.2022
408 Rain 19 1002 58 10000 5.66 220 14:44 14.07.2022
409 Rain 19 1002 58 10000 5.66 220 14:44 14.07.2022
410 Clear 20 1002 51 10000 5.14 250 13:39 14.07.2022
411 Clouds 19 1003 52 10000 5.14 260 12:23 14.07.2022
412 Clear 19 1003 54 10000 6.17 270 11:26 14.07.2022
413 Clear 18 1003 57 10000 5.14 270 10:49 14.07.2022
414 Clear 15 1003 65 10000 5.66 330 08:28 14.07.2022
415 Clear 14 1002 77 10000 2.06 280 03:42 14.07.2022
416 Clear 16 1002 72 10000 6.17 270 00:55 14.07.2022
417 Clear 17 1002 72 10000 6.17 260 23:41 13.07.2022
418 Clear 18 1002 72 10000 5.14 240 22:27 13.07.2022
419 Clear 19 1002 70 10000 2.57 230 21:37 13.07.2022
420 Rain 19 1002 67 10000 3.6 240 20:38 13.07.2022
421 Clear 22 1003 56 10000 5.14 240 18:22 13.07.2022
422 Clouds 23 1003 60 10000 7.72 280 17:22 13.07.2022
423 Clouds 24 1003 60 10000 6.69 270 15:59 13.07.2022
424 Clear 24 1004 60 10000 4.12 270 13:50 13.07.2022
425 Clear 24 1006 63 10000 3.09 260 11:30 13.07.2022
426 Clear 23 1006 67 10000 4.12 270 10:44 13.07.2022
427 Clear 21 1007 73 10000 3.09 240 09:29 13.07.2022
428 Clear 19 1007 77 10000 3.09 270 08:23 13.07.2022
429 Clouds 16 1009 82 10000 1.54 0 04:36 13.07.2022
430 Clouds 17 1011 66 10000 2.57 270 00:47 13.07.2022
431 Clouds 18 1012 69 10000 1.54 190 22:46 12.07.2022
432 Clear 20 1014 49 10000 1.54 80 21:49 12.07.2022
433 Clear 23 1014 42 10000 2.57 330 20:53 12.07.2022
434 Clear 25 1014 37 10000 3.6 310 19:54 12.07.2022
435 Clear 26 1013 38 10000 4.63 320 18:43 12.07.2022
436 Clear 26 1013 38 10000 4.63 300 17:23 12.07.2022
437 Clear 25 1014 42 10000 3.09 340 15:32 12.07.2022
438 Clear 24 1017 45 10000 4.12 340 13:43 12.07.2022
439 Clear 23 1016 49 10000 5.14 340 11:55 12.07.2022
440 Clear 22 1016 53 10000 4.63 340 10:45 12.07.2022
441 Clear 20 1017 62 10000 2.57 340 08:59 12.07.2022
442 Clear 17 1017 71 10000 2.06 330 07:55 12.07.2022
443 Clouds 12 1017 91 10000 1.54 300 05:53 12.07.2022
444 Clouds 11 1017 92 10000 1.54 290 05:34 12.07.2022
445 Clear 12 1017 93 8000 0 0 01:32 12.07.2022
446 Clear 14 1017 89 250 0 0 22:48 11.07.2022
447 Clear 16 1018 89 10000 1.54 240 21:34 11.07.2022
448 Clear 18 1018 77 10000 0 0 20:33 11.07.2022
449 Clouds 19 1016 74 10000 0.51 0 19:28 11.07.2022
450 Rain 18 1016 78 10000 2.57 70 18:30 11.07.2022
451 Clouds 19 1016 73 10000 2.57 340 16:34 11.07.2022
452 Rain 21 1014 61 10000 5.14 320 15:33 11.07.2022
453 Clouds 21 1015 56 10000 3.09 320 13:37 11.07.2022
454 Clouds 20 1015 60 10000 4.12 330 11:33 11.07.2022
455 Clouds 19 1014 66 10000 3.6 340 10:18 11.07.2022
456 Clouds 18 1014 69 10000 3.6 10 09:40 11.07.2022
457 Clouds 16 1014 79 10000 3.6 330 08:33 11.07.2022
458 Clouds 11 1013 92 10000 1.54 300 02:59 11.07.2022
459 Clear 12 1013 92 10000 1.54 290 00:20 11.07.2022
460 Clouds 14 1012 90 10000 1.03 0 22:55 10.07.2022
461 Clouds 15 1012 83 10000 2.06 280 21:39 10.07.2022
462 Clouds 16 1012 82 10000 2.06 270 20:41 10.07.2022
463 Clouds 16 1011 80 10000 2.06 290 19:48 10.07.2022
464 Clouds 16 1011 77 10000 1.03 0 18:43 10.07.2022
465 Rain 17 1011 68 10000 2.57 290 17:37 10.07.2022
466 Rain 18 1010 65 10000 3.09 330 16:45 10.07.2022
467 Clouds 17 1010 64 10000 3.6 330 15:25 10.07.2022
468 Clouds 17 1010 64 10000 4.12 310 14:21 10.07.2022
469 Clouds 16 1009 64 10000 4.63 290 12:27 10.07.2022
470 Clouds 16 1008 64 10000 4.12 310 10:20 10.07.2022
471 Clouds 15 1008 73 10000 1.54 330 08:45 10.07.2022
472 Clouds 14 1008 77 10000 2.06 340 07:30 10.07.2022
473 Clouds 13 1008 76 10000 1.03 0 01:33 10.07.2022
474 Clouds 15 1009 61 10000 2.57 300 22:43 09.07.2022
475 Clouds 15 1009 61 10000 4.12 290 22:24 09.07.2022
476 Clouds 18 1006 53 10000 4.63 280 20:46 09.07.2022
477 Clouds 19 1007 48 10000 3.6 290 18:38 09.07.2022
478 Clouds 19 1007 52 10000 5.66 310 17:45 09.07.2022
479 Clear 21 1006 44 10000 5.66 290 16:44 09.07.2022
480 Clear 21 1006 43 10000 5.66 280 15:41 09.07.2022
481 Clear 21 1007 46 10000 4.63 280 14:43 09.07.2022
482 Clear 21 1007 50 10000 6.17 280 13:50 09.07.2022
483 Clouds 20 1007 54 10000 5.14 260 12:47 09.07.2022
484 Clouds 19 1007 61 10000 5.14 270 11:31 09.07.2022
485 Clouds 18 1007 76 10000 4.63 270 10:22 09.07.2022
486 Clouds 16 1008 82 10000 2.57 230 07:53 09.07.2022
487 Clouds 15 1009 86 10000 1.54 210 05:24 09.07.2022
488 Clouds 15 1011 84 10000 2.06 180 02:34 09.07.2022
489 Clouds 15 1013 83 10000 1.03 150 22:59 08.07.2022
490 Clear 17 1013 77 10000 1.54 180 21:59 08.07.2022
491 Clear 18 1015 71 10000 2.06 220 20:55 08.07.2022
492 Clear 19 1016 71 10000 3.6 210 20:24 08.07.2022
493 Clear 19 1016 67 10000 3.09 120 18:29 08.07.2022
494 Clear 19 1016 67 10000 3.09 120 18:29 08.07.2022
495 Clouds 19 1016 68 10000 3.6 110 17:21 08.07.2022
496 Clouds 19 1016 68 10000 3.6 110 17:21 08.07.2022
497 Clouds 19 1014 72 10000 0.45 158 14:54 08.07.2022
498 Clouds 19 1015 64 10000 3.6 120 13:45 08.07.2022
499 Rain 20 1015 67 10000 3.6 320 12:28 08.07.2022
500 Clear 20 1014 67 10000 0.89 293 10:37 08.07.2022
501 Clear 17 1014 81 10000 1.03 0 08:44 08.07.2022
502 Clear 14 1014 93 10000 0 0 06:50 08.07.2022
503 Fog 10 1014 92 2100 0.51 290 01:49 08.07.2022
504 Clear 12 1013 91 10000 0 0 23:41 07.07.2022
505 Clear 13 1013 90 10000 1.03 260 22:38 07.07.2022
506 Clear 16 1012 83 10000 2.57 70 20:40 07.07.2022
507 Clouds 16 1011 86 10000 2.06 60 18:23 07.07.2022
508 Clouds 16 1011 89 10000 3.09 30 17:19 07.07.2022
509 Rain 14 1010 90 8000 1.54 40 15:18 07.07.2022
510 Rain 14 1009 91 4000 2.06 20 13:25 07.07.2022
511 Rain 14 1008 89 3600 2.57 350 12:37 07.07.2022
512 Rain 14 1008 90 2900 1.54 340 12:18 07.07.2022
513 Drizzle 14 1008 88 4800 1.54 0 11:29 07.07.2022
514 Drizzle 14 1006 88 6000 1.54 200 10:42 07.07.2022
515 Clouds 14 1006 88 10000 2.06 210 10:24 07.07.2022
516 Rain 13 1008 84 10000 2.57 240 07:22 07.07.2022
517 Clouds 13 1008 71 10000 4.12 240 02:55 07.07.2022
518 Clear 15 1009 68 10000 3.12 251 23:37 06.07.2022
519 Clear 16 1008 63 10000 3.6 250 23:18 06.07.2022
520 Clear 16 1008 63 10000 3.6 250 22:56 06.07.2022
521 Clear 17 1008 63 10000 3.6 250 22:38 06.07.2022
522 Clear 18 1008 72 10000 2.06 150 20:54 06.07.2022
523 Clear 19 1009 72 10000 3.6 150 19:35 06.07.2022
524 Clouds 19 1009 67 10000 2.06 180 17:32 06.07.2022
525 Rain 19 1010 66 10000 4.63 200 15:59 06.07.2022
526 Clouds 21 1010 58 10000 5.14 250 14:33 06.07.2022
527 Clouds 20 1010 61 10000 4.12 240 12:35 06.07.2022
528 Clouds 19 1010 61 10000 3.6 220 11:48 06.07.2022
529 Clouds 18 1011 69 10000 3.6 220 10:18 06.07.2022
530 Clouds 15 1011 79 10000 3.6 230 07:44 06.07.2022
531 Clouds 15 1011 80 10000 4.63 230 07:20 06.07.2022
532 Clouds 13 1011 82 10000 3.09 220 02:55 06.07.2022
533 Clouds 16 1011 69 10000 3.09 240 22:45 05.07.2022
534 Clear 17 1011 65 10000 4.12 240 21:36 05.07.2022
535 Clear 18 1011 62 10000 5.14 250 20:38 05.07.2022
536 Clouds 19 1011 60 10000 5.66 250 19:41 05.07.2022
537 Clear 19 1011 61 10000 5.14 250 19:21 05.07.2022
538 Clouds 19 1009 63 10000 5.66 240 17:46 05.07.2022
539 Clouds 19 1009 63 10000 5.66 240 16:39 05.07.2022
540 Clouds 17 1010 72 10000 4.12 240 15:24 05.07.2022
541 Clouds 19 1010 60 10000 5.14 210 13:47 05.07.2022
542 Clouds 19 1010 61 10000 5.66 230 12:42 05.07.2022
543 Clouds 18 1009 63 10000 5.66 250 11:24 05.07.2022
544 Clouds 18 1009 64 10000 5.66 250 10:31 05.07.2022
545 Clouds 16 1009 77 10000 5.14 240 08:25 05.07.2022
546 Clear 15 1009 82 10000 4.63 240 07:31 05.07.2022
547 Clouds 13 1009 91 10000 3.09 220 04:46 05.07.2022
548 Clouds 13 1009 90 10000 2.06 230 02:48 05.07.2022
549 Clouds 15 1009 91 10000 0 0 23:42 04.07.2022
550 Clouds 16 1009 91 10000 1.03 0 22:59 04.07.2022
551 Clouds 16 1009 91 10000 1.54 160 22:20 04.07.2022
552 Clear 17 1009 87 10000 1.54 170 21:18 04.07.2022
553 Clear 18 1009 86 10000 1.54 150 20:50 04.07.2022
554 Clear 18 1009 86 10000 1.54 150 20:50 04.07.2022
555 Clear 18 1009 86 10000 1.54 150 20:32 04.07.2022
556 Clear 17 1009 88 10000 1.03 0 19:44 04.07.2022
557 Clear 17 1009 88 10000 2.57 170 19:25 04.07.2022
558 Rain 16 1010 87 10000 2.57 210 17:42 04.07.2022
559 Clear 20 1008 76 10000 2.57 150 15:44 04.07.2022
560 Rain 17 1012 82 10000 4.63 120 14:42 04.07.2022
561 Rain 18 1013 79 10000 4.12 170 13:27 04.07.2022
562 Rain 20 1011 69 10000 4.63 160 11:43 04.07.2022
563 Rain 20 1011 69 10000 5.66 140 10:33 04.07.2022
564 Clouds 21 1012 70 10000 5.14 150 09:40 04.07.2022
565 Clear 18 1013 84 10000 4.12 150 06:53 04.07.2022
566 Clear 15 1014 88 10000 3.6 140 03:30 04.07.2022
567 Clouds 16 1015 81 10000 2.57 130 00:27 04.07.2022
568 Clouds 18 1016 72 10000 3.09 160 22:58 03.07.2022
569 Clouds 21 1018 63 10000 3.19 188 20:47 03.07.2022
570 Clouds 21 1018 58 10000 3.2 197 20:21 03.07.2022
571 Clear 22 1017 52 10000 4.63 180 19:26 03.07.2022
572 Clear 22 1016 54 10000 3.6 180 18:32 03.07.2022
573 Clear 22 1017 53 10000 4.63 190 17:43 03.07.2022
574 Clear 24 1017 49 10000 4.63 240 15:28 03.07.2022
575 Clear 23 1017 49 10000 4.63 250 14:57 03.07.2022
576 Clear 23 1017 47 10000 4.12 240 13:50 03.07.2022
577 Clear 23 1017 50 10000 4.63 260 13:27 03.07.2022
578 Clear 22 1017 52 10000 4.63 210 12:22 03.07.2022
579 Clouds 21 1017 57 10000 4.63 220 10:55 03.07.2022
580 Clouds 22 1017 56 10000 4.63 220 10:36 03.07.2022
581 Clouds 20 1018 64 10000 3.6 210 08:48 03.07.2022
582 Clear 18 1018 73 10000 3.6 230 07:34 03.07.2022
583 Clear 13 1017 85 10000 2.06 220 01:39 03.07.2022
584 Clear 16 1017 73 10000 1.54 250 23:50 02.07.2022
585 Clear 18 1018 64 10000 3.6 260 22:32 02.07.2022
586 Clouds 21 1017 58 10000 4.63 240 20:37 02.07.2022
587 Clouds 22 1015 54 10000 5.14 250 19:50 02.07.2022
588 Clouds 22 1015 54 10000 5.14 240 19:19 02.07.2022
589 Clouds 22 1015 55 10000 5.66 260 17:40 02.07.2022
590 Clear 22 1015 59 10000 6.17 250 16:35 02.07.2022
591 Clouds 20 1014 74 10000 6.17 250 13:51 02.07.2022
592 Clouds 21 1014 78 10000 5.66 260 11:52 02.07.2022
593 Clouds 23 1013 77 10000 4.63 170 10:53 02.07.2022
594 Clouds 23 1012 81 10000 4.63 170 10:32 02.07.2022
595 Clouds 21 1012 87 10000 6.69 150 08:39 02.07.2022
596 Clouds 21 1010 88 10000 6.69 150 08:19 02.07.2022
597 Clouds 20 1010 93 10000 4.12 100 05:59 02.07.2022
598 Clouds 19 1012 90 10000 1.54 100 00:47 02.07.2022
599 Clear 20 1012 89 10000 2.06 130 23:31 01.07.2022
600 Clear 20 1013 88 10000 3.09 120 22:36 01.07.2022
601 Clear 22 1013 84 10000 4.63 130 21:39 01.07.2022
602 Clear 23 1013 82 10000 6.17 110 20:59 01.07.2022
603 Clear 23 1012 82 10000 6.17 110 20:37 01.07.2022
604 Clouds 23 1013 79 10000 6.17 130 19:41 01.07.2022
605 Clouds 24 1012 76 10000 4.63 160 17:45 01.07.2022
606 Clouds 23 1013 80 10000 5.66 130 15:21 01.07.2022
607 Clouds 23 1013 85 10000 3.09 160 13:54 01.07.2022
608 Clouds 20 1014 94 10000 5.14 150 11:49 01.07.2022
609 Clouds 20 1013 94 8000 6.69 130 10:19 01.07.2022
610 Drizzle 20 1012 93 10000 6.17 120 08:46 01.07.2022
611 Clouds 19 1016 89 10000 2.57 150 02:49 01.07.2022
612 Clouds 20 1016 87 10000 4.12 110 00:25 01.07.2022
613 Clouds 21 1016 83 10000 3.6 110 22:54 30.06.2022
614 Clouds 21 1013 82 10000 3.6 110 22:32 30.06.2022
615 Clouds 22 1016 83 10000 4.63 110 21:59 30.06.2022
616 Clouds 22 1016 83 10000 4.63 110 21:34 30.06.2022
617 Clouds 23 1014 80 10000 5.14 110 20:22 30.06.2022
618 Clouds 24 1016 73 10000 5.14 110 19:53 30.06.2022
619 Clouds 24 1013 76 10000 6.17 110 19:18 30.06.2022
620 Clouds 25 1014 74 10000 7.72 120 18:35 30.06.2022
621 Clouds 26 1016 71 10000 5.14 110 17:38 30.06.2022
622 Clouds 25 1015 71 10000 5.66 70 16:48 30.06.2022
623 Clouds 27 1016 63 10000 4.63 100 14:47 30.06.2022
624 Clouds 27 1017 54 10000 4.63 70 13:30 30.06.2022
625 Clouds 26 1017 69 10000 3.09 100 12:35 30.06.2022
626 Clouds 25 1016 71 10000 2.57 70 11:28 30.06.2022
627 Clouds 24 1016 78 10000 2.06 80 09:53 30.06.2022
628 Clouds 23 1016 79 10000 2.06 80 09:32 30.06.2022
629 Clouds 21 1016 87 10000 2.57 70 07:51 30.06.2022
630 Clouds 20 1016 92 8000 1.54 0 05:57 30.06.2022
631 Clouds 20 1017 83 10000 2.57 100 00:32 30.06.2022
632 Clouds 21 1015 81 10000 1.54 0 23:21 29.06.2022
633 Clouds 21 1017 78 10000 1.03 240 22:39 29.06.2022
634 Clouds 22 1016 76 10000 2.06 280 21:34 29.06.2022
635 Clouds 23 1015 76 10000 2.06 250 20:33 29.06.2022
636 Clouds 23 1015 74 10000 0.51 0 19:37 29.06.2022
637 Clouds 23 1015 75 10000 1.03 0 17:45 29.06.2022
638 Clouds 23 1016 72 10000 1.03 0 16:38 29.06.2022
639 Clouds 23 1016 71 10000 1.03 0 14:56 29.06.2022
640 Clouds 23 1016 69 10000 2.57 300 12:40 29.06.2022
641 Clouds 21 1015 77 10000 3.6 340 11:19 29.06.2022
642 Clouds 18 1015 88 10000 3.09 280 09:33 29.06.2022
643 Clouds 18 1016 88 10000 2.57 320 07:44 29.06.2022
644 Clouds 18 1016 88 10000 3.6 290 04:55 29.06.2022
645 Clouds 18 1015 84 10000 4.12 270 00:58 29.06.2022
646 Clouds 19 1015 83 10000 4.12 270 00:36 29.06.2022
647 Clouds 19 1014 81 10000 4.12 270 22:54 28.06.2022
648 Clouds 20 1017 77 10000 4.12 270 22:34 28.06.2022
649 Rain 20 1016 78 10000 5.14 280 21:55 28.06.2022
650 Clear 20 1016 77 10000 5.14 280 21:33 28.06.2022
651 Clear 21 1013 73 10000 5.66 280 20:44 28.06.2022
652 Clear 25 1014 66 10000 6.17 280 19:34 28.06.2022
653 Clear 27 1015 58 10000 5.14 130 18:53 28.06.2022
654 Clear 28 1013 55 10000 5.14 140 17:40 28.06.2022
655 Clear 28 1014 52 10000 7.2 140 15:59 28.06.2022
656 Clear 28 1014 51 10000 7.2 140 15:38 28.06.2022
657 Clear 30 1014 49 10000 7.72 130 14:21 28.06.2022
658 Clear 30 1014 49 10000 7.72 130 14:21 28.06.2022
659 Clear 29 1014 50 10000 8.75 140 13:52 28.06.2022
660 Clear 30 1014 48 10000 7.2 120 12:57 28.06.2022
661 Clear 29 1014 53 10000 7.72 120 11:18 28.06.2022
662 Clear 28 1014 58 10000 5.14 120 09:30 28.06.2022
663 Clear 26 1014 61 10000 5.66 110 08:44 28.06.2022
664 Clear 24 1015 71 10000 4.63 120 07:42 28.06.2022
665 Clear 23 1015 78 10000 3.09 120 06:56 28.06.2022
666 Clear 20 1015 77 10000 3.6 130 00:58 28.06.2022
667 Clouds 21 1016 75 10000 3.6 130 23:37 27.06.2022
668 Clouds 22 1015 70 10000 3.6 130 22:52 27.06.2022
669 Clear 25 1017 53 10000 4.12 140 21:38 27.06.2022
670 Clear 26 1017 52 10000 5.66 140 20:52 27.06.2022
671 Clear 27 1016 55 10000 5.66 140 19:33 27.06.2022
672 Clear 28 1016 53 10000 6.69 140 18:25 27.06.2022
673 Clear 29 1017 50 10000 7.72 140 16:20 27.06.2022
674 Clear 30 1017 49 10000 6.69 140 15:23 27.06.2022
675 Clear 30 1017 49 10000 5.66 130 13:37 27.06.2022
676 Clear 29 1017 50 10000 6.17 140 12:56 27.06.2022
677 Clear 28 1018 50 10000 5.14 150 10:34 27.06.2022
678 Clear 27 1018 59 10000 4.12 150 09:20 27.06.2022
679 Clear 24 1018 66 10000 3.09 150 08:29 27.06.2022
680 Clear 22 1018 75 10000 1.54 140 06:38 27.06.2022
681 Clouds 18 1018 86 10000 1.54 0 03:55 27.06.2022
682 Clear 20 1018 82 10000 2.06 140 00:56 27.06.2022
683 Clear 23 1016 71 10000 3.09 150 22:18 26.06.2022
684 Clear 26 1018 50 10000 4.12 140 20:44 26.06.2022
685 Clear 27 1018 55 10000 4.63 150 19:40 26.06.2022
686 Clear 28 1016 52 10000 5.14 150 18:31 26.06.2022
687 Clear 29 1018 49 10000 4.12 170 16:47 26.06.2022
688 Clear 29 1017 49 10000 5.14 140 15:26 26.06.2022
689 Clear 29 1017 49 10000 5.14 150 13:41 26.06.2022
690 Clear 29 1017 47 10000 5.14 140 13:20 26.06.2022
691 Clouds 27 1017 51 10000 2.57 90 11:26 26.06.2022
692 Clouds 27 1018 49 10000 1.54 0 10:27 26.06.2022
693 Clouds 26 1018 53 10000 1.54 120 09:34 26.06.2022
694 Clouds 23 1017 65 10000 1.54 130 07:44 26.06.2022
695 Clear 16 1017 83 10000 1.03 150 02:28 26.06.2022
696 Clear 18 1016 74 10000 2.06 140 00:21 26.06.2022
697 Clear 19 1016 72 10000 2.57 150 23:49 25.06.2022
698 Clear 19 1016 70 10000 3.09 140 23:23 25.06.2022
699 Clear 21 1015 64 10000 3.6 150 22:27 25.06.2022
700 Clear 23 1017 53 10000 3.6 150 21:41 25.06.2022
701 Clear 23 1017 60 10000 4.12 140 21:18 25.06.2022
702 Clouds 24 1015 56 10000 4.12 140 20:28 25.06.2022
703 Clouds 26 1015 51 10000 4.12 160 19:21 25.06.2022
704 Clouds 27 1015 48 10000 5.14 150 17:57 25.06.2022
705 Clear 27 1015 48 10000 5.14 160 17:22 25.06.2022
706 Clear 27 1015 47 10000 7.2 140 15:36 25.06.2022
707 Clear 27 1015 47 10000 6.17 140 13:41 25.06.2022
708 Clear 27 1015 46 10000 5.14 150 12:38 25.06.2022
709 Clear 26 1015 54 10000 5.14 130 10:45 25.06.2022
710 Clear 24 1015 61 10000 4.12 140 09:20 25.06.2022
711 Clear 23 1015 66 10000 3.6 140 08:41 25.06.2022
712 Clear 22 1015 68 10000 3.6 140 08:19 25.06.2022
713 Clear 15 1014 89 10000 1.03 120 04:18 25.06.2022
714 Clear 17 1013 84 10000 2.06 140 00:38 25.06.2022
715 Clear 18 1013 74 10000 3.09 150 22:55 24.06.2022
716 Clear 20 1012 68 10000 3.6 150 21:44 24.06.2022
717 Clear 22 1014 57 10000 5.14 150 20:57 24.06.2022
718 Clear 22 1012 60 10000 4.63 160 20:19 24.06.2022
719 Clear 24 1012 54 10000 5.14 160 19:22 24.06.2022
720 Clear 24 1012 53 10000 5.66 140 18:49 24.06.2022
721 Clear 25 1012 53 10000 5.14 150 18:30 24.06.2022
722 Clear 26 1012 51 10000 4.63 210 17:21 24.06.2022
723 Clear 26 1012 47 10000 4.12 190 15:51 24.06.2022
724 Clear 26 1012 49 10000 3.6 240 14:28 24.06.2022
725 Clear 26 1013 49 10000 3.6 210 13:55 24.06.2022
726 Clear 25 1013 54 10000 3.09 210 11:44 24.06.2022
727 Clear 24 1013 57 10000 3.6 180 11:22 24.06.2022
728 Clear 23 1013 60 10000 3.09 190 10:19 24.06.2022
729 Clear 23 1013 62 10000 3.09 220 09:40 24.06.2022
730 Clear 20 1013 71 10000 3.09 250 08:52 24.06.2022
731 Clear 17 1013 81 10000 2.57 240 06:49 24.06.2022
732 Clouds 17 1013 83 10000 2.06 240 06:31 24.06.2022
733 Clouds 16 1013 84 10000 2.06 220 05:55 24.06.2022
734 Clouds 16 1012 83 10000 1.54 230 01:36 24.06.2022
735 Clear 19 1011 71 10000 2.06 220 22:55 23.06.2022
736 Clear 20 1012 68 10000 2.06 220 22:33 23.06.2022
737 Clear 24 1011 50 10000 3.6 210 20:56 23.06.2022
738 Clear 24 1011 52 10000 3.6 210 20:32 23.06.2022
739 Clear 25 1011 56 10000 4.63 190 18:59 23.06.2022
740 Clear 25 1009 53 10000 5.14 200 17:50 23.06.2022
741 Clear 25 1009 55 10000 6.17 240 16:50 23.06.2022
742 Clear 25 1009 55 10000 5.66 240 15:43 23.06.2022
743 Clear 25 1009 55 10000 4.63 240 15:23 23.06.2022
744 Clear 23 1009 58 10000 4.63 220 13:32 23.06.2022
745 Clear 20 1009 66 10000 4.12 210 11:23 23.06.2022
746 Clear 18 1009 71 10000 3.6 200 10:31 23.06.2022
747 Clear 16 1009 79 10000 4.12 220 08:35 23.06.2022
748 Clouds 13 1008 89 10000 1.54 200 02:38 23.06.2022
749 Clouds 15 1008 84 10000 3.09 230 00:26 23.06.2022
750 Clouds 16 1007 84 10000 2.06 180 23:27 22.06.2022
751 Clear 16 1007 79 10000 2.06 180 22:31 22.06.2022
752 Clear 18 1006 75 10000 2.57 200 21:21 22.06.2022
753 Clear 19 1006 72 10000 2.57 180 20:34 22.06.2022
754 Clouds 20 1007 72 10000 3.09 190 19:52 22.06.2022
755 Clear 21 1008 60 10000 2.57 200 18:21 22.06.2022
756 Clear 21 1006 64 10000 3.09 270 17:26 22.06.2022
757 Clouds 21 1006 65 10000 3.6 250 16:18 22.06.2022
758 Clouds 20 1005 64 10000 3.6 280 15:26 22.06.2022
759 Clouds 20 1006 65 10000 3.09 270 14:18 22.06.2022
760 Clouds 20 1005 65 10000 2.57 280 13:37 22.06.2022
761 Clouds 20 1005 60 10000 3.6 270 13:18 22.06.2022
762 Clouds 19 1008 63 10000 1.54 260 11:48 22.06.2022
763 Clouds 18 1008 72 10000 1.54 0 10:54 22.06.2022
764 Clouds 17 1006 79 10000 1.03 0 09:54 22.06.2022
765 Clouds 15 1006 89 10000 1.03 0 07:58 22.06.2022
766 Rain 15 1005 79 10000 1.54 210 03:40 22.06.2022
767 Clouds 16 1006 71 10000 2.06 180 01:23 22.06.2022
768 Clouds 16 1006 69 10000 4.63 220 23:42 21.06.2022
769 Clear 17 1005 58 10000 3.09 180 21:49 21.06.2022
770 Clear 21 1006 49 10000 4.12 200 19:50 21.06.2022
771 Clear 22 1006 49 10000 5.14 200 18:32 21.06.2022
772 Clear 23 1005 47 10000 4.63 220 17:25 21.06.2022
773 Clear 21 1006 46 10000 3.09 280 13:45 21.06.2022
774 Clear 20 1006 52 10000 2.57 200 11:31 21.06.2022
775 Clear 19 1006 59 10000 1.03 0 09:48 21.06.2022
776 Clear 17 1006 71 10000 1.54 0 08:37 21.06.2022
777 Clear 13 1006 87 10000 0 0 06:35 21.06.2022
778 Clear 10 1006 89 10000 1.03 260 00:44 21.06.2022
779 Clear 12 1006 85 10000 0 0 23:18 20.06.2022
780 Clear 15 1005 75 10000 2.57 90 21:52 20.06.2022
781 Clear 16 1008 70 10000 2.57 100 20:50 20.06.2022
782 Clear 17 1007 67 10000 3.6 120 19:39 20.06.2022
783 Clouds 17 1006 67 10000 2.57 100 18:46 20.06.2022
784 Clouds 17 1007 69 10000 3.09 100 17:59 20.06.2022
785 Clouds 17 1007 70 10000 3.09 70 17:32 20.06.2022
786 Clouds 17 1007 73 10000 2.06 70 15:57 20.06.2022
787 Rain 15 1008 77 10000 3.6 360 12:56 20.06.2022
788 Clouds 15 1007 77 10000 4.12 280 11:18 20.06.2022
789 Clouds 15 1008 77 10000 4.63 340 09:41 20.06.2022
790 Clouds 14 1008 79 10000 2.06 330 08:44 20.06.2022
791 Clear 13 1007 83 10000 2.57 350 06:37 20.06.2022
792 Clear 10 1007 83 10000 1.03 340 02:56 20.06.2022
793 Clear 12 1005 69 10000 2.06 50 00:32 20.06.2022
794 Clouds 15 1007 48 10000 2.57 40 23:18 19.06.2022
795 Clear 18 1006 42 10000 2.06 250 21:59 19.06.2022
796 Clear 18 1006 42 10000 2.06 250 21:40 19.06.2022
797 Clear 20 1006 32 10000 4.12 260 20:44 19.06.2022
798 Clear 20 1004 38 10000 4.12 260 19:48 19.06.2022
799 Clear 20 1004 38 10000 4.12 260 19:23 19.06.2022
800 Clear 20 1004 37 10000 5.14 290 18:31 19.06.2022
801 Clear 20 1004 37 10000 5.14 280 17:34 19.06.2022
802 Clear 20 1004 39 10000 5.14 280 16:38 19.06.2022
803 Clear 20 1004 42 10000 6.17 300 15:44 19.06.2022
804 Clear 20 1004 42 10000 5.14 250 15:25 19.06.2022
805 Clear 19 1004 48 10000 5.66 280 14:20 19.06.2022
806 Clouds 19 1004 51 10000 5.66 290 13:43 19.06.2022
807 Clear 18 1004 54 10000 3.09 240 11:52 19.06.2022
808 Clouds 18 1004 53 10000 2.57 260 10:49 19.06.2022
809 Clouds 16 1004 58 10000 3.6 280 08:55 19.06.2022
810 Clouds 15 1004 59 10000 3.09 290 08:30 19.06.2022
811 Clouds 13 1004 70 10000 3.09 310 06:41 19.06.2022
812 Clouds 12 1003 75 10000 1.54 360 03:19 19.06.2022
813 Clouds 15 1002 58 10000 7.2 250 00:27 19.06.2022
814 Clouds 16 1002 55 10000 6.69 260 23:37 18.06.2022
815 Clouds 16 1002 54 10000 6.69 260 23:19 18.06.2022
816 Clear 18 1001 51 10000 6.17 270 21:54 18.06.2022
817 Clear 19 1001 50 10000 5.66 270 20:50 18.06.2022
818 Clouds 20 1001 43 10000 7.72 260 19:50 18.06.2022
819 Clouds 21 1001 45 10000 7.2 260 18:54 18.06.2022
820 Clouds 21 1001 48 10000 6.69 250 18:30 18.06.2022
821 Clouds 21 1001 59 10000 6.69 250 17:28 18.06.2022
822 Clouds 19 1004 69 10000 5.14 240 15:39 18.06.2022
823 Clouds 18 1004 68 10000 6.17 250 14:50 18.06.2022
824 Clouds 18 1004 76 10000 6.17 250 13:54 18.06.2022
825 Clouds 17 1002 87 10000 3.6 230 12:25 18.06.2022
826 Clouds 16 1004 88 9000 4.12 220 10:59 18.06.2022
827 Clouds 15 1004 92 6000 4.12 210 09:31 18.06.2022
828 Clouds 15 1005 92 10000 3.6 210 08:37 18.06.2022
829 Drizzle 15 1005 92 8000 3.09 200 07:33 18.06.2022
830 Rain 14 1007 91 10000 3.09 190 05:19 18.06.2022
831 Clouds 17 1010 71 10000 3.6 240 01:47 18.06.2022
832 Clouds 17 1010 70 10000 3.6 250 01:21 18.06.2022
833 Clouds 18 1011 68 10000 4.63 250 00:23 18.06.2022
834 Clouds 18 1012 69 10000 5.14 250 23:36 17.06.2022
835 Clear 18 1012 72 10000 3.6 210 22:27 17.06.2022
836 Clear 19 1012 65 10000 5.14 170 20:29 17.06.2022
837 Clouds 20 1013 60 10000 3.6 200 19:20 17.06.2022
838 Clear 22 1012 48 10000 3.09 190 17:56 17.06.2022
839 Clear 23 1013 44 10000 2.57 220 16:44 17.06.2022
840 Clear 22 1015 35 10000 3.6 260 16:25 17.06.2022
841 Clear 22 1016 43 10000 3.6 220 15:37 17.06.2022
842 Clear 22 1015 49 10000 4.12 290 14:23 17.06.2022
843 Clear 22 1015 49 10000 4.12 290 14:23 17.06.2022
844 Clear 23 1015 47 10000 2.57 270 13:58 17.06.2022
845 Clear 23 1015 49 10000 2.57 270 13:38 17.06.2022
846 Clear 22 1015 51 10000 3.09 290 12:24 17.06.2022
847 Clouds 22 1015 57 10000 2.06 280 11:55 17.06.2022
848 Clouds 21 1015 58 10000 2.06 280 11:33 17.06.2022
849 Clear 18 1015 76 10000 1.54 0 08:58 17.06.2022
850 Clear 17 1015 79 10000 2.06 300 08:25 17.06.2022
851 Clear 14 1015 93 10000 1.54 280 06:44 17.06.2022
852 Clouds 11 1014 94 3100 1.03 250 03:45 17.06.2022
853 Fog 12 1016 92 2600 0.51 210 01:56 17.06.2022
854 Clouds 13 1014 91 10000 1.54 250 23:35 16.06.2022
855 Clouds 14 1014 88 10000 0.51 240 22:42 16.06.2022
856 Clear 16 1014 83 10000 1.54 230 21:22 16.06.2022
857 Clouds 16 1014 86 10000 1.54 0 20:51 16.06.2022
858 Clouds 16 1014 86 10000 1.54 200 20:32 16.06.2022
859 Thunderstorm 16 1014 83 10000 3.09 100 19:32 16.06.2022
860 Rain 18 1012 61 10000 5.66 210 18:24 16.06.2022
861 Rain 20 1014 46 10000 3.6 140 17:35 16.06.2022
862 Clouds 20 1014 58 10000 4.12 260 16:30 16.06.2022
863 Clouds 20 1014 53 10000 4.12 300 15:21 16.06.2022
864 Clouds 21 1013 55 10000 5.66 300 14:30 16.06.2022
865 Clouds 21 1012 51 10000 5.14 330 13:19 16.06.2022
866 Clouds 21 1012 57 10000 4.12 350 12:35 16.06.2022
867 Clouds 20 1012 62 10000 3.09 300 11:49 16.06.2022
868 Clouds 20 1012 66 10000 2.57 260 10:54 16.06.2022
869 Clear 19 1012 68 10000 2.06 320 09:43 16.06.2022
870 Clear 18 1012 70 10000 2.57 270 09:20 16.06.2022
871 Clear 17 1012 74 10000 2.06 260 07:57 16.06.2022
872 Clear 16 1012 79 10000 2.06 310 07:24 16.06.2022
873 Clouds 14 1012 87 10000 0 0 04:33 16.06.2022
874 Drizzle 14 1012 86 10000 1.03 220 02:19 16.06.2022
875 Clouds 14 1012 85 10000 0 0 01:34 16.06.2022
876 Clouds 14 1012 85 10000 0 0 01:34 16.06.2022
877 Clouds 15 1012 82 10000 1.03 260 00:38 16.06.2022
878 Clouds 15 1012 80 10000 2.06 220 23:33 15.06.2022
879 Clouds 16 1013 77 10000 2.06 230 22:35 15.06.2022
880 Clear 17 1013 71 10000 0.51 0 21:21 15.06.2022
881 Clear 17 1012 71 10000 1.54 210 20:38 15.06.2022
882 Clear 17 1012 69 10000 3.09 230 20:19 15.06.2022
883 Clouds 19 1013 66 10000 5.66 230 19:19 15.06.2022
884 Clouds 22 1012 42 10000 3.6 240 17:55 15.06.2022
885 Clear 22 1013 48 10000 4.12 300 16:40 15.06.2022
886 Clear 21 1013 51 10000 6.17 300 15:36 15.06.2022
887 Clear 21 1013 51 10000 4.12 280 13:44 15.06.2022
888 Clear 20 1014 50 10000 3.6 270 12:54 15.06.2022
889 Clear 19 1014 52 10000 4.12 300 11:52 15.06.2022
890 Clear 19 1014 51 10000 2.06 330 10:24 15.06.2022
891 Clear 18 1013 55 10000 2.06 20 09:39 15.06.2022
892 Clear 16 1013 64 10000 3.09 30 08:30 15.06.2022
893 Clear 14 1013 81 10000 1.54 0 06:33 15.06.2022
894 Clouds 9 1012 92 10000 0 0 03:59 15.06.2022
895 Clouds 10 1012 91 10000 1.03 290 01:54 15.06.2022
896 Clouds 11 1012 90 10000 1.54 270 00:50 15.06.2022
897 Clouds 12 1012 89 10000 2.06 240 23:39 14.06.2022
898 Clouds 12 1012 89 10000 1.03 0 23:18 14.06.2022
899 Clouds 13 1012 82 10000 0 0 22:18 14.06.2022
900 Clouds 15 1012 78 10000 0 0 21:33 14.06.2022
901 Rain 16 1012 64 10000 1.54 310 20:48 14.06.2022
902 Clouds 18 1011 61 10000 2.57 290 20:28 14.06.2022
903 Clouds 19 1010 60 10000 1.54 0 18:54 14.06.2022
904 Clouds 19 1010 64 10000 0 0 17:40 14.06.2022
905 Clouds 17 1010 78 10000 1.54 0 16:43 14.06.2022
906 Clouds 18 1010 68 10000 2.57 40 15:50 14.06.2022
907 Clouds 18 1010 67 10000 3.09 40 15:22 14.06.2022
908 Clouds 18 1009 71 10000 3.09 110 14:32 14.06.2022
909 Clouds 17 1010 75 10000 1.54 110 13:41 14.06.2022
910 Thunderstorm 16 1011 77 10000 1.54 60 12:42 14.06.2022
911 Clouds 19 1009 63 10000 5.66 310 11:31 14.06.2022
912 Clouds 19 1009 63 10000 5.14 310 10:47 14.06.2022
913 Clouds 18 1008 63 10000 4.12 310 09:48 14.06.2022
914 Clear 17 1008 69 10000 2.57 310 08:46 14.06.2022
915 Clear 15 1007 76 10000 2.57 300 07:33 14.06.2022
916 Clouds 12 1007 83 10000 1.54 260 05:19 14.06.2022
917 Clouds 11 1006 85 10000 0 0 02:49 14.06.2022
918 Clouds 12 1006 77 10000 0.51 240 00:32 14.06.2022
919 Clouds 14 1006 70 10000 2.06 270 23:27 13.06.2022
920 Clear 15 1006 67 10000 2.06 220 22:26 13.06.2022
921 Clear 15 1006 67 10000 2.06 210 21:49 13.06.2022
922 Clear 17 1005 59 10000 3.09 240 20:31 13.06.2022
923 Clear 18 1005 55 10000 4.63 240 19:34 13.06.2022
924 Clear 18 1005 57 10000 3.6 240 18:25 13.06.2022
925 Clear 18 1005 58 10000 4.12 260 17:46 13.06.2022
926 Clouds 18 1005 54 10000 5.66 250 16:52 13.06.2022
927 Clouds 18 1005 56 10000 7.72 260 15:38 13.06.2022
928 Clouds 18 1005 62 10000 4.12 270 14:43 13.06.2022
929 Clouds 19 1005 57 10000 5.66 240 13:53 13.06.2022
930 Clouds 19 1005 59 10000 5.14 230 12:48 13.06.2022
931 Clouds 17 1006 64 10000 5.14 240 11:26 13.06.2022
932 Clouds 16 1006 69 10000 5.14 250 10:27 13.06.2022
933 Clouds 16 1006 72 10000 4.63 260 09:38 13.06.2022
934 Clouds 14 1006 78 10000 5.14 230 07:51 13.06.2022
935 Clouds 13 1006 82 10000 3.6 230 06:28 13.06.2022
936 Clouds 12 1006 84 10000 3.09 220 03:18 13.06.2022
937 Clouds 13 1006 82 10000 2.57 220 01:38 13.06.2022
938 Clouds 13 1007 80 10000 3.6 220 00:22 13.06.2022
939 Clouds 14 1007 79 10000 3.6 220 23:25 12.06.2022
940 Clear 14 1007 78 10000 3.09 220 22:22 12.06.2022
941 Clear 15 1007 74 10000 4.12 210 21:28 12.06.2022
942 Clouds 16 1007 74 10000 3.6 200 20:34 12.06.2022
943 Clear 17 1007 71 10000 5.14 210 19:36 12.06.2022
944 Rain 18 1008 61 10000 6.17 210 18:39 12.06.2022
945 Clear 20 1008 52 10000 6.17 250 16:42 12.06.2022
946 Clear 20 1009 49 10000 5.14 250 15:24 12.06.2022
947 Clear 20 1009 50 10000 5.14 240 14:31 12.06.2022
948 Clear 20 1010 53 10000 5.66 260 13:55 12.06.2022
949 Clouds 19 1010 55 10000 6.69 260 12:46 12.06.2022
950 Clouds 19 1011 59 10000 5.66 240 11:40 12.06.2022
951 Clouds 18 1011 61 10000 6.17 260 10:45 12.06.2022
952 Clouds 17 1011 67 10000 6.17 250 09:25 12.06.2022
953 Clouds 16 1012 71 10000 6.17 240 08:48 12.06.2022
954 Clouds 14 1012 75 10000 5.14 250 07:39 12.06.2022
955 Clouds 13 1013 76 10000 4.63 240 05:38 12.06.2022
956 Clouds 11 1014 82 10000 1.54 220 03:38 12.06.2022
957 Clear 13 1014 78 10000 1.54 230 01:43 12.06.2022
958 Clouds 12 1014 78 10000 1.54 200 00:58 12.06.2022
959 Clouds 12 1014 76 10000 1.03 200 00:26 12.06.2022
960 Clouds 13 1014 74 10000 1.54 210 23:53 11.06.2022
961 Clouds 16 1013 66 10000 2.06 240 22:40 11.06.2022
962 Clouds 16 1013 62 10000 2.06 260 22:21 11.06.2022
963 Clouds 19 1014 54 10000 4.63 260 20:50 11.06.2022
964 Clouds 20 1012 52 10000 5.14 270 20:21 11.06.2022
965 Clouds 21 1012 56 10000 3.6 210 19:26 11.06.2022
966 Clouds 20 1012 66 10000 3.6 200 18:36 11.06.2022
967 Clouds 21 1012 66 10000 4.12 200 17:52 11.06.2022
968 Clear 21 1012 65 10000 4.63 200 17:29 11.06.2022
969 Clear 21 1012 65 10000 4.63 210 16:58 11.06.2022
970 Clouds 20 1013 66 10000 5.14 210 16:30 11.06.2022
971 Clear 20 1013 65 10000 5.66 200 15:43 11.06.2022
972 Clouds 19 1013 72 10000 4.12 190 13:53 11.06.2022
973 Clouds 19 1015 72 10000 4.12 210 13:24 11.06.2022
974 Clouds 19 1013 67 10000 3.6 220 10:58 11.06.2022
975 Clear 19 1013 68 10000 3.6 220 10:20 11.06.2022
976 Clouds 18 1013 73 10000 2.06 210 09:29 11.06.2022
977 Clouds 16 1015 79 10000 3.6 250 07:46 11.06.2022
978 Clear 14 1015 84 10000 2.57 240 06:30 11.06.2022
979 Clear 12 1015 86 10000 2.57 230 05:21 11.06.2022
980 Clouds 14 1014 86 10000 1.54 230 01:53 11.06.2022
981 Clouds 14 1014 86 10000 1.54 230 01:33 11.06.2022
982 Clouds 15 1014 84 10000 2.06 260 00:22 11.06.2022
983 Clouds 17 1014 83 10000 4.12 270 22:33 10.06.2022
984 Clouds 18 1013 79 10000 5.14 280 21:53 10.06.2022
985 Clouds 19 1013 80 10000 2.06 190 20:43 10.06.2022
986 Rain 19 1013 77 10000 2.06 250 20:23 10.06.2022
987 Clouds 19 1013 77 10000 4.12 260 19:48 10.06.2022
988 Clouds 20 1013 73 10000 4.12 230 19:18 10.06.2022
989 Clouds 21 1013 68 10000 4.12 210 18:19 10.06.2022
990 Clouds 22 1013 67 10000 4.12 210 17:36 10.06.2022
991 Clouds 22 1013 64 10000 4.63 160 16:56 10.06.2022
992 Clouds 22 1013 61 10000 4.12 140 15:48 10.06.2022
993 Clear 23 1013 60 10000 2.57 140 15:19 10.06.2022
994 Clouds 23 1013 61 10000 2.57 150 13:44 10.06.2022
995 Clear 19 1015 59 10000 2.57 130 12:28 10.06.2022
996 Clear 19 1015 67 10000 1.54 0 11:40 10.06.2022
997 Clear 19 1014 70 10000 1.03 0 10:40 10.06.2022
998 Clouds 17 1014 74 10000 2.57 140 09:43 10.06.2022
999 Clear 17 1014 75 10000 2.06 160 08:23 10.06.2022
1000 Clouds 15 1013 81 10000 2.06 130 06:52 10.06.2022
1001 Clouds 15 1013 81 10000 2.06 130 06:32 10.06.2022
1002 Clouds 13 1013 86 10000 2.06 150 05:45 10.06.2022
1003 Clouds 12 1013 85 10000 1.03 150 02:55 10.06.2022
1004 Clouds 13 1013 83 10000 1.03 150 01:37 10.06.2022
1005 Clouds 14 1012 81 10000 1.03 0 23:58 09.06.2022
1006 Clouds 15 1012 78 10000 0 0 23:25 09.06.2022
1007 Clear 17 1011 70 10000 2.57 220 21:47 09.06.2022
1008 Clear 18 1011 68 10000 1.54 240 21:29 09.06.2022
1009 Clear 19 1012 64 10000 2.06 260 20:47 09.06.2022
1010 Clear 20 1012 61 10000 3.09 290 19:55 09.06.2022
1011 Clear 21 1010 59 10000 3.6 290 18:47 09.06.2022
1012 Clouds 21 1010 59 10000 3.09 270 18:21 09.06.2022
1013 Clouds 21 1010 58 10000 4.63 250 16:46 09.06.2022
1014 Clouds 21 1009 60 10000 4.12 240 15:47 09.06.2022
1015 Clear 20 1009 62 10000 5.14 270 14:35 09.06.2022
1016 Clouds 19 1009 64 10000 5.14 280 13:47 09.06.2022
1017 Clouds 19 1009 65 10000 5.14 270 13:26 09.06.2022
1018 Clouds 19 1009 65 10000 5.14 270 11:53 09.06.2022
1019 Clouds 18 1008 70 10000 5.66 270 10:51 09.06.2022
1020 Clouds 16 1008 73 10000 5.66 250 09:42 09.06.2022
1021 Clouds 16 1007 74 10000 5.66 250 09:23 09.06.2022
1022 Clouds 15 1007 80 10000 5.14 270 07:44 09.06.2022
1023 Clear 13 1006 84 10000 2.57 220 05:47 09.06.2022
1024 Clouds 14 1005 83 10000 3.09 210 01:59 09.06.2022
1025 Clouds 15 1005 79 10000 2.57 190 23:34 08.06.2022
1026 Clouds 15 1005 77 10000 3.6 210 22:51 08.06.2022
1027 Clear 15 1004 75 10000 3.09 190 22:26 08.06.2022
1028 Clear 16 1004 74 10000 3.6 190 21:52 08.06.2022
1029 Clear 17 1004 69 10000 3.09 200 20:57 08.06.2022
1030 Clear 17 1004 67 10000 3.6 190 19:50 08.06.2022
1031 Clear 18 1004 65 10000 4.12 200 19:18 08.06.2022
1032 Clear 18 1004 64 10000 5.14 190 18:42 08.06.2022
1033 Clouds 18 1004 64 10000 4.63 200 16:34 08.06.2022
1034 Clear 20 1003 59 10000 5.66 180 15:27 08.06.2022
1035 Clear 20 1004 55 10000 6.17 190 13:36 08.06.2022
1036 Clouds 20 1004 61 10000 4.63 170 11:51 08.06.2022
1037 Clouds 20 1004 64 10000 3.6 190 11:24 08.06.2022
1038 Clouds 19 1005 79 10000 3.6 150 09:47 08.06.2022
1039 Clouds 18 1005 83 10000 3.6 130 09:20 08.06.2022
1040 Clouds 15 1005 88 10000 3.6 140 08:18 08.06.2022
1041 Clouds 13 1006 92 10000 3.09 130 05:36 08.06.2022
1042 Clouds 13 1007 90 10000 1.54 100 02:39 08.06.2022
1043 Clouds 13 1007 86 10000 2.06 100 00:21 08.06.2022
1044 Clouds 13 1007 86 10000 0.45 90 23:25 07.06.2022
1045 Clouds 14 1008 85 10000 2.57 100 22:42 07.06.2022
1046 Clear 14 1008 83 10000 3.6 110 21:59 07.06.2022
1047 Clear 14 1009 83 10000 3.6 110 21:28 07.06.2022
1048 Clear 14 1009 83 10000 3.6 90 20:52 07.06.2022
1049 Clear 14 1009 83 10000 3.09 80 20:31 07.06.2022
1050 Clear 15 1009 84 10000 3.09 80 19:24 07.06.2022
1051 Clear 15 1010 83 10000 3.09 80 17:57 07.06.2022
1052 Clouds 16 1010 82 10000 3.09 90 17:19 07.06.2022
1053 Rain 17 1010 76 10000 4.12 130 16:39 07.06.2022
1054 Clear 19 1011 62 10000 3.6 100 15:43 07.06.2022
1055 Clear 19 1011 61 10000 3.09 80 15:23 07.06.2022
1056 Clear 19 1011 61 10000 4.12 70 14:46 07.06.2022
1057 Rain 19 1011 57 10000 4.12 70 13:58 07.06.2022
1058 Rain 18 1011 58 10000 3.6 70 13:29 07.06.2022
1059 Clear 19 1011 57 10000 4.63 60 12:44 07.06.2022
1060 Clear 18 1012 54 10000 4.12 110 11:31 07.06.2022
1061 Clear 17 1012 55 10000 3.6 90 10:19 07.06.2022
1062 Clear 17 1012 60 10000 3.6 100 08:49 07.06.2022
1063 Clear 17 1012 60 10000 3.6 100 08:49 07.06.2022
1064 Clear 14 1014 71 10000 2.06 80 07:23 07.06.2022
1065 Clouds 11 1015 81 10000 2.06 80 05:56 07.06.2022
1066 Clouds 9 1016 81 10000 2.06 80 03:18 07.06.2022
1067 Clouds 10 1017 74 10000 1.03 0 00:35 07.06.2022
1068 Clouds 11 1017 71 10000 1.54 130 23:35 06.06.2022
1069 Clouds 12 1018 68 10000 1.54 100 22:45 06.06.2022
1070 Clear 13 1018 63 10000 3.09 120 21:43 06.06.2022
1071 Clear 14 1018 58 10000 4.12 110 20:19 06.06.2022
1072 Clear 16 1018 52 10000 4.12 110 19:23 06.06.2022
1073 Clear 16 1018 47 10000 4.63 100 18:46 06.06.2022
1074 Clear 17 1019 45 10000 5.66 110 17:51 06.06.2022
1075 Clear 17 1019 40 10000 5.66 100 16:39 06.06.2022
1076 Clear 17 1020 41 10000 5.14 100 15:40 06.06.2022
1077 Clear 17 1020 43 10000 4.63 110 14:57 06.06.2022
1078 Clear 17 1020 44 10000 6.17 100 13:37 06.06.2022
1079 Clear 17 1021 46 10000 6.69 110 12:44 06.06.2022
1080 Clear 17 1021 47 10000 7.2 110 12:26 06.06.2022
1081 Clear 17 1021 46 10000 6.69 110 11:45 06.06.2022
1082 Clear 16 1021 50 10000 5.66 110 09:43 06.06.2022
1083 Clear 14 1021 55 10000 5.66 110 08:36 06.06.2022
1084 Clear 13 1021 59 10000 5.14 100 07:43 06.06.2022
1085 Clear 13 1021 62 10000 4.12 100 06:43 06.06.2022
1086 Clouds 11 1021 72 10000 3.6 80 04:28 06.06.2022
1087 Clouds 11 1022 75 10000 3.07 110 01:30 06.06.2022
1088 Clouds 11 1022 75 10000 3.04 107 00:47 06.06.2022
1089 Clouds 12 1021 75 10000 3.01 103 00:28 06.06.2022
1090 Clouds 13 1020 62 10000 3.09 70 22:58 05.06.2022
1091 Clear 15 1020 41 10000 4.12 90 21:59 05.06.2022
1092 Clear 16 1019 56 10000 4.63 90 20:23 05.06.2022
1093 Clear 18 1019 55 10000 5.66 90 18:51 05.06.2022
1094 Clouds 19 1018 56 10000 4.63 80 17:59 05.06.2022
1095 Clouds 19 1018 56 10000 4.63 80 17:38 05.06.2022
1096 Clear 19 1018 55 10000 5.14 80 17:19 05.06.2022
1097 Clear 20 1018 52 10000 3.6 30 16:47 05.06.2022
1098 Clear 20 1018 56 10000 4.12 360 15:22 05.06.2022
1099 Clear 20 1018 48 10000 4.63 310 14:18 05.06.2022
1100 Clear 19 1018 61 10000 5.66 260 11:58 05.06.2022
1101 Clouds 19 1018 59 10000 6.17 280 10:45 05.06.2022
1102 Clouds 19 1018 62 10000 4.63 270 10:24 05.06.2022
1103 Clouds 18 1018 64 10000 5.14 240 09:29 05.06.2022
1104 Clouds 17 1018 66 10000 5.14 240 08:23 05.06.2022
1105 Clouds 13 1018 79 10000 1.54 0 05:58 05.06.2022
1106 Clouds 12 1018 81 10000 1.54 220 05:19 05.06.2022
1107 Clouds 11 1018 86 10000 1.03 0 02:43 05.06.2022
1108 Clouds 12 1019 83 10000 1.03 0 01:23 05.06.2022
1109 Clouds 12 1019 83 10000 1.03 0 01:23 05.06.2022
1110 Clouds 14 1018 73 10000 2.57 200 22:49 04.06.2022
1111 Clouds 17 1018 60 10000 2.06 230 21:30 04.06.2022
1112 Clouds 19 1018 42 10000 4.12 300 19:27 04.06.2022
1113 Clear 20 1018 45 10000 3.6 280 16:48 04.06.2022
1114 Clear 20 1016 50 10000 4.63 290 16:20 04.06.2022
1115 Clouds 19 1016 51 10000 4.63 260 15:39 04.06.2022
1116 Clouds 19 1017 61 10000 4.12 290 13:59 04.06.2022
1117 Clouds 17 1017 69 10000 2.57 320 11:41 04.06.2022
1118 Clouds 17 1016 72 10000 3.6 300 10:54 04.06.2022
1119 Clouds 16 1016 76 10000 3.09 330 09:56 04.06.2022
1120 Clouds 16 1016 75 10000 3.09 330 09:38 04.06.2022
1121 Clear 14 1016 82 10000 3.09 340 08:38 04.06.2022
1122 Clouds 12 1015 89 10000 2.57 280 06:32 04.06.2022
1123 Clouds 11 1014 91 10000 1.54 240 03:57 04.06.2022
1124 Clouds 12 1013 91 10000 3.09 240 00:22 04.06.2022
1125 Clouds 12 1013 91 10000 3.09 220 22:57 03.06.2022
1126 Clear 13 1012 88 10000 2.06 230 21:54 03.06.2022
1127 Clear 14 1012 84 10000 2.06 240 20:40 03.06.2022
1128 Clouds 14 1013 85 10000 2.57 210 19:49 03.06.2022
1129 Clouds 17 1011 69 10000 4.63 230 16:59 03.06.2022
1130 Clouds 17 1012 70 10000 5.66 220 15:57 03.06.2022
1131 Clouds 18 1011 68 10000 4.63 250 14:42 03.06.2022
1132 Clouds 16 1012 74 10000 4.63 240 12:26 03.06.2022
1133 Clouds 15 1011 80 10000 4.63 250 09:58 03.06.2022
1134 Clouds 14 1011 84 10000 4.12 250 09:29 03.06.2022
1135 Clouds 12 1011 89 10000 4.12 250 07:50 03.06.2022
1136 Clear 12 1011 90 10000 4.63 240 07:19 03.06.2022
1137 Clouds 11 1011 91 10000 4.12 240 06:29 03.06.2022
1138 Clouds 9 1010 92 10000 2.06 230 04:35 03.06.2022
1139 Clouds 11 1010 94 10000 3.09 220 00:21 03.06.2022
1140 Clouds 12 1009 93 10000 2.06 210 22:34 02.06.2022
1141 Clear 13 1009 90 10000 2.57 250 20:58 02.06.2022
1142 Clear 13 1009 90 10000 4.12 250 19:59 02.06.2022
1143 Clear 13 1009 90 10000 4.12 250 19:40 02.06.2022
1144 Clouds 12 1009 92 10000 4.63 260 18:59 02.06.2022
1145 Rain 11 1008 94 10000 6.69 270 16:30 02.06.2022
1146 Rain 11 1008 93 10000 6.17 270 15:58 02.06.2022
1147 Clouds 11 1006 93 10000 6.69 280 13:38 02.06.2022
1148 Rain 11 1006 93 7000 6.17 280 13:20 02.06.2022
1149 Rain 10 1005 92 7000 6.17 310 10:53 02.06.2022
1150 Rain 10 1005 93 10000 7.2 310 10:19 02.06.2022
1151 Rain 10 1005 93 10000 5.66 310 09:27 02.06.2022
1152 Rain 10 1005 93 6000 5.14 310 08:24 02.06.2022
1153 Rain 10 1006 93 10000 4.12 320 06:26 02.06.2022
1154 Rain 10 1007 92 10000 3.09 340 03:53 02.06.2022
1155 Rain 10 1008 90 10000 2.06 30 01:36 02.06.2022
1156 Rain 11 1009 85 10000 3.09 70 23:36 01.06.2022
1157 Clear 12 1010 75 10000 4.63 120 22:18 01.06.2022
1158 Clear 13 1010 71 10000 4.12 140 21:25 01.06.2022
1159 Clear 13 1010 67 10000 6.17 130 20:39 01.06.2022
1160 Clear 15 1012 66 10000 5.14 150 19:52 01.06.2022
1161 Clear 15 1011 65 10000 7.2 140 18:52 01.06.2022
1162 Clear 16 1011 62 10000 7.72 150 17:38 01.06.2022
1163 Clear 17 1010 58 10000 4.63 180 15:56 01.06.2022
1164 Clouds 18 1010 59 10000 4.63 190 14:51 01.06.2022
1165 Clouds 17 1010 63 10000 5.66 180 13:39 01.06.2022
1166 Clouds 16 1009 69 10000 4.12 200 11:32 01.06.2022
1167 Clouds 13 1009 89 10000 3.09 220 09:34 01.06.2022
1168 Rain 12 1009 92 10000 3.09 210 08:28 01.06.2022
1169 Rain 11 1008 93 9000 3.6 180 07:21 01.06.2022
1170 Drizzle 11 1007 93 10000 2.06 220 04:58 01.06.2022
1171 Clouds 11 1007 92 10000 2.57 230 23:56 31.05.2022
1172 Clouds 11 1006 93 10000 2.57 240 22:51 31.05.2022
1173 Clouds 11 1006 92 10000 2.57 240 22:29 31.05.2022
1174 Clouds 11 1006 91 9000 4.12 280 21:45 31.05.2022
1175 Clouds 12 1006 88 10000 3.6 280 20:44 31.05.2022
1176 Clouds 13 1006 86 10000 4.12 280 19:52 31.05.2022
1177 Drizzle 13 1005 88 10000 3.09 310 18:45 31.05.2022
1178 Drizzle 13 1006 86 9000 2.57 330 17:49 31.05.2022
1179 Rain 13 1006 86 10000 3.6 330 16:48 31.05.2022
1180 Rain 13 1007 87 10000 4.12 320 15:40 31.05.2022
1181 Rain 13 1007 88 10000 4.12 330 13:38 31.05.2022
1182 Rain 13 1007 90 10000 4.63 320 12:19 31.05.2022
1183 Rain 11 1008 91 9000 3.6 330 10:52 31.05.2022
1184 Drizzle 10 1009 92 7000 3.09 330 08:37 31.05.2022
1185 Rain 9 1009 91 10000 3.09 330 06:57 31.05.2022
1186 Drizzle 9 1010 88 10000 3.09 330 04:46 31.05.2022
1187 Clouds 10 1011 81 10000 2.06 20 23:53 30.05.2022
1188 Clouds 10 1011 81 10000 2.57 70 23:25 30.05.2022
1189 Clouds 11 1012 79 10000 3.09 60 22:44 30.05.2022
1190 Clear 12 1014 75 10000 3.6 80 21:51 30.05.2022
1191 Clear 12 1014 71 10000 3.09 90 21:32 30.05.2022
1192 Clear 14 1012 61 10000 3.6 60 19:51 30.05.2022
1193 Clouds 14 1013 60 10000 4.12 70 18:34 30.05.2022
1194 Clouds 15 1013 61 10000 3.6 70 17:23 30.05.2022
1195 Clouds 15 1013 61 10000 3.09 30 16:39 30.05.2022
1196 Clouds 14 1014 62 10000 3.09 90 13:44 30.05.2022
1197 Clouds 14 1014 67 10000 3.6 50 12:21 30.05.2022
1198 Clouds 13 1014 70 10000 3.6 110 10:40 30.05.2022
1199 Clouds 12 1014 74 10000 3.6 100 09:19 30.05.2022
1200 Clouds 8 1013 95 10000 1.54 0 06:30 30.05.2022
1201 Clouds 7 1014 98 10000 0 0 05:47 30.05.2022
1202 Clouds 6 1011 90 10000 0 0 01:33 30.05.2022
1203 Clouds 9 1010 80 10000 2.57 140 22:54 29.05.2022
1204 Clouds 9 1009 78 10000 2.57 140 22:36 29.05.2022
1205 Clear 12 1009 71 10000 3.6 120 20:53 29.05.2022
1206 Clear 14 1009 64 10000 2.06 90 19:31 29.05.2022
1207 Clouds 14 1009 62 10000 2.57 70 18:37 29.05.2022
1208 Clouds 15 1007 58 10000 1.54 0 17:31 29.05.2022
1209 Clouds 14 1007 63 10000 1.54 320 15:48 29.05.2022
1210 Clouds 13 1007 68 10000 2.06 300 14:57 29.05.2022
1211 Clouds 13 1006 69 10000 3.09 290 13:52 29.05.2022
1212 Clouds 12 1006 75 10000 3.09 320 11:41 29.05.2022
1213 Clouds 11 1005 77 10000 3.09 330 10:38 29.05.2022
1214 Clouds 9 1004 82 10000 3.09 310 08:47 29.05.2022
1215 Clouds 8 1003 88 10000 3.6 290 05:54 29.05.2022
1216 Clouds 8 1003 89 10000 2.57 300 04:44 29.05.2022
1217 Clouds 8 1003 90 10000 2.06 270 03:41 29.05.2022
1218 Clouds 9 1003 92 10000 1.54 270 23:49 28.05.2022
1219 Clouds 9 1003 92 10000 1.54 290 23:26 28.05.2022
1220 Clouds 9 1003 92 10000 1.54 290 22:35 28.05.2022
1221 Clouds 10 1002 92 10000 1.54 270 21:38 28.05.2022
1222 Drizzle 10 1001 89 10000 3.09 310 19:41 28.05.2022
1223 Rain 10 1001 91 10000 3.09 330 18:47 28.05.2022
1224 Rain 10 1001 89 10000 2.57 350 17:37 28.05.2022
1225 Rain 10 1000 89 8000 2.57 350 16:38 28.05.2022
1226 Rain 11 1000 87 10000 2.57 330 15:43 28.05.2022
1227 Rain 10 999 89 10000 3.6 320 14:23 28.05.2022
1228 Rain 10 998 90 8000 3.6 350 12:44 28.05.2022
1229 Rain 11 998 86 9000 4.12 340 12:18 28.05.2022
1230 Drizzle 11 997 88 10000 3.6 320 11:21 28.05.2022
1231 Clouds 10 996 88 10000 3.6 330 09:57 28.05.2022
1232 Clouds 10 996 89 10000 4.12 340 08:45 28.05.2022
1233 Clouds 10 995 91 10000 3.6 340 07:23 28.05.2022
1234 Clouds 9 994 94 10000 3.09 300 05:28 28.05.2022
1235 Rain 9 994 93 10000 3.09 300 02:44 28.05.2022
1236 Rain 10 994 88 10000 2.57 280 00:32 28.05.2022
1237 Clouds 10 995 87 10000 3.6 260 22:53 27.05.2022
1238 Clouds 10 994 86 10000 3.6 280 21:44 27.05.2022
1239 Clouds 10 994 87 10000 4.12 280 20:50 27.05.2022
1240 Drizzle 11 994 86 10000 3.6 290 20:24 27.05.2022
1241 Clouds 11 994 84 10000 3.6 280 19:42 27.05.2022
1242 Clouds 11 994 83 10000 4.63 260 19:24 27.05.2022
1243 Clouds 12 994 75 10000 5.66 260 17:54 27.05.2022
1244 Clouds 13 994 72 10000 7.72 280 16:38 27.05.2022
1245 Clouds 13 994 72 10000 6.69 290 15:22 27.05.2022
1246 Clouds 14 994 69 10000 5.14 280 14:25 27.05.2022
1247 Clouds 13 994 75 10000 5.14 270 12:43 27.05.2022
1248 Drizzle 12 995 82 10000 4.63 270 11:34 27.05.2022
1249 Drizzle 11 995 83 10000 4.63 280 10:55 27.05.2022
1250 Rain 11 995 84 10000 3.6 260 10:29 27.05.2022
1251 Rain 11 995 87 10000 3.6 250 09:34 27.05.2022
1252 Rain 10 995 93 10000 3.6 260 07:50 27.05.2022
1253 Drizzle 10 996 90 10000 3.6 260 05:39 27.05.2022
1254 Clouds 10 996 93 10000 3.6 240 02:26 27.05.2022
1255 Rain 11 997 90 7000 3.6 260 00:26 27.05.2022
1256 Clouds 11 998 88 10000 2.06 260 22:35 26.05.2022
1257 Clear 11 998 83 10000 2.57 270 21:37 26.05.2022
1258 Clear 13 997 81 10000 2.57 300 19:58 26.05.2022
1259 Clear 13 997 78 10000 2.57 290 19:19 26.05.2022
1260 Clouds 14 998 75 10000 3.09 260 17:37 26.05.2022
1261 Clouds 14 998 69 10000 3.09 140 16:36 26.05.2022
1262 Clear 15 998 63 10000 2.06 200 15:45 26.05.2022
1263 Clouds 15 999 66 10000 4.63 210 14:24 26.05.2022
1264 Clouds 15 999 67 10000 4.63 150 12:36 26.05.2022
1265 Clouds 16 999 62 10000 2.57 170 11:23 26.05.2022
1266 Clear 15 1000 66 10000 3.09 200 09:40 26.05.2022
1267 Clear 14 1000 68 10000 2.57 200 09:19 26.05.2022
1268 Clear 12 1001 75 10000 2.06 210 07:51 26.05.2022
1269 Clouds 7 1004 91 10000 0.51 180 03:53 26.05.2022
1270 Clear 9 1005 86 10000 1.54 220 00:33 26.05.2022
1271 Clouds 9 1005 86 10000 2.57 220 23:39 25.05.2022
1272 Clouds 12 1005 82 10000 1.03 0 21:47 25.05.2022
1273 Clouds 12 1005 80 10000 0 0 21:28 25.05.2022
1274 Clouds 13 1005 76 10000 3.09 280 20:34 25.05.2022
1275 Clouds 17 1005 63 10000 4.12 180 19:21 25.05.2022
1276 Clear 17 1005 61 10000 4.12 200 17:40 25.05.2022
1277 Clear 18 1005 59 10000 5.14 190 16:37 25.05.2022
1278 Clear 18 1005 60 10000 4.63 210 15:54 25.05.2022
1279 Clouds 18 1005 59 10000 6.17 210 14:51 25.05.2022
1280 Clouds 18 1005 62 10000 5.14 200 14:32 25.05.2022
1281 Clouds 18 1005 62 10000 5.14 200 13:42 25.05.2022
1282 Clouds 18 1005 62 10000 3.09 200 12:37 25.05.2022
1283 Clouds 17 1005 75 10000 3.09 230 10:43 25.05.2022
1284 Clouds 15 1005 82 10000 2.06 200 09:54 25.05.2022
1285 Clouds 13 1004 88 10000 0.45 203 08:23 25.05.2022
1286 Clouds 12 1004 90 10000 3.19 211 07:22 25.05.2022
1287 Clouds 12 1004 81 10000 4.12 140 03:22 25.05.2022
1288 Clouds 13 1005 66 10000 5.14 130 23:56 24.05.2022
1289 Rain 13 1005 63 10000 4.63 140 23:25 24.05.2022
1290 Clear 14 1006 59 10000 5.14 130 22:21 24.05.2022
1291 Clear 14 1006 57 10000 6.17 120 21:40 24.05.2022
1292 Clear 14 1006 56 10000 6.69 130 21:20 24.05.2022
1293 Clear 16 1005 51 10000 6.69 130 19:45 24.05.2022
1294 Clear 17 1006 53 10000 7.72 140 18:53 24.05.2022
1295 Clear 18 1006 48 10000 8.75 140 16:45 24.05.2022
1296 Clear 18 1007 48 10000 9.26 140 16:23 24.05.2022
1297 Clear 18 1007 49 10000 7.2 130 14:56 24.05.2022
1298 Clear 18 1007 47 10000 5.66 120 14:21 24.05.2022
1299 Clouds 17 1008 41 10000 5.14 100 12:49 24.05.2022
1300 Clear 16 1008 42 10000 6.17 110 11:26 24.05.2022
1301 Clear 16 1009 48 10000 6.17 120 09:44 24.05.2022
1302 Clear 14 1009 59 10000 5.14 130 08:50 24.05.2022
1303 Clear 11 1008 75 10000 2.57 120 06:57 24.05.2022
1304 Clouds 5 1011 87 10000 1.54 130 04:20 24.05.2022
1305 Clouds 6 1009 74 10000 2.57 140 01:55 24.05.2022
1306 Clouds 6 1010 74 10000 2.57 140 01:36 24.05.2022
1307 Clouds 8 1010 67 10000 3.09 140 23:31 23.05.2022
1308 Clear 11 1010 51 10000 2.06 180 21:57 23.05.2022
1309 Clear 11 1009 47 10000 2.06 180 21:39 23.05.2022
1310 Clear 13 1011 42 10000 3.09 190 20:41 23.05.2022
1311 Clear 15 1009 44 10000 4.63 200 19:33 23.05.2022
1312 Clear 16 1009 45 10000 5.66 200 18:59 23.05.2022
1313 Clear 17 1009 41 10000 5.14 200 18:31 23.05.2022
1314 Clear 17 1009 39 10000 4.63 140 17:24 23.05.2022
1315 Clear 18 1010 39 10000 3.6 140 15:37 23.05.2022
1316 Clear 17 1011 39 10000 3.6 110 13:32 23.05.2022
1317 Clear 16 1011 38 10000 2.06 130 11:34 23.05.2022
1318 Clear 16 1012 36 10000 1.54 90 10:42 23.05.2022
1319 Clear 15 1012 38 10000 2.57 130 09:39 23.05.2022
1320 Clear 12 1012 44 10000 2.57 140 08:38 23.05.2022
1321 Clear 10 1011 47 10000 0 0 06:47 23.05.2022
1322 Clouds 7 1012 62 10000 0 0 06:22 23.05.2022
1323 Clouds 3 1014 71 10000 0 0 02:35 23.05.2022
1324 Clouds 4 1013 69 10000 0.51 0 01:46 23.05.2022
1325 Clouds 4 1013 65 10000 0 0 00:44 23.05.2022
1326 Clouds 7 1012 46 10000 2.06 160 22:43 22.05.2022
1327 Clear 8 1012 45 10000 1.54 180 22:18 22.05.2022
1328 Clear 9 1012 40 10000 2.06 140 21:49 22.05.2022
1329 Clear 12 1014 19 10000 3.6 140 20:40 22.05.2022
1330 Clear 12 1012 30 10000 4.12 130 20:19 22.05.2022
1331 Clear 13 1012 28 10000 4.63 120 18:58 22.05.2022
1332 Clear 13 1012 28 10000 5.14 120 18:31 22.05.2022
1333 Clear 14 1012 34 10000 5.14 110 17:55 22.05.2022
1334 Clear 14 1012 39 10000 4.12 80 16:51 22.05.2022
1335 Clear 15 1012 41 10000 3.09 70 15:22 22.05.2022
1336 Clear 15 1012 43 10000 3.6 100 14:35 22.05.2022
1337 Clear 15 1012 42 10000 2.57 70 12:54 22.05.2022
1338 Clear 14 1012 42 10000 3.09 90 12:24 22.05.2022
1339 Clouds 13 1014 50 10000 2.06 100 10:38 22.05.2022
1340 Clouds 12 1013 55 10000 2.06 50 09:27 22.05.2022
1341 Clouds 9 1011 70 10000 1.54 0 07:44 22.05.2022
1342 Clouds 8 1011 76 10000 1.54 330 06:41 22.05.2022
1343 Clouds 5 1011 79 10000 0 0 03:53 22.05.2022
1344 Clouds 8 1011 68 10000 1.54 30 00:49 22.05.2022
1345 Clouds 8 1011 68 10000 1.54 30 00:49 22.05.2022
1346 Clouds 8 1011 65 10000 1.54 40 23:56 21.05.2022
1347 Clouds 9 1011 64 10000 2.06 40 23:27 21.05.2022
1348 Clouds 10 1010 59 10000 1.54 10 21:59 21.05.2022
1349 Clouds 11 1010 59 10000 1.54 10 21:34 21.05.2022
1350 Clouds 12 1010 52 10000 1.54 80 20:34 21.05.2022
1351 Clouds 13 1009 49 10000 2.06 60 19:53 21.05.2022
1352 Clouds 13 1009 45 10000 2.57 60 18:54 21.05.2022
1353 Clear 14 1009 43 10000 5.14 70 16:57 21.05.2022
1354 Clear 13 1009 48 10000 5.14 60 14:49 21.05.2022
1355 Clear 13 1008 52 10000 5.14 60 13:55 21.05.2022
1356 Clear 13 1008 54 10000 5.66 70 13:25 21.05.2022
1357 Clear 12 1008 57 10000 4.63 50 12:38 21.05.2022
1358 Rain 11 1008 63 10000 4.63 60 11:25 21.05.2022
1359 Clear 10 1008 66 10000 4.63 50 10:21 21.05.2022
1360 Clear 10 1008 67 10000 4.63 60 08:59 21.05.2022
1361 Clear 10 1008 67 10000 4.63 60 08:38 21.05.2022
1362 Clouds 8 1009 76 10000 0.89 45 06:20 21.05.2022
1363 Clouds 6 1011 82 10000 2.57 50 01:41 21.05.2022
1364 Clouds 7 1012 82 10000 2.57 60 23:35 20.05.2022
1365 Clouds 8 1012 82 10000 3.27 74 22:30 20.05.2022
1366 Clear 8 1013 78 10000 3.09 70 21:58 20.05.2022
1367 Clear 9 1013 74 10000 3.09 50 21:19 20.05.2022
1368 Clear 10 1013 71 10000 4.12 60 20:47 20.05.2022
1369 Clear 11 1013 69 10000 4.12 80 19:45 20.05.2022
1370 Clear 11 1013 68 10000 4.12 70 18:53 20.05.2022
1371 Clear 12 1014 68 10000 5.14 70 18:18 20.05.2022
1372 Clouds 12 1013 75 10000 5.14 60 16:23 20.05.2022
1373 Clouds 12 1013 80 10000 5.14 50 15:54 20.05.2022
1374 Clouds 12 1013 88 10000 3.6 30 14:44 20.05.2022
1375 Clouds 12 1012 88 10000 4.12 40 14:26 20.05.2022
1376 Drizzle 11 1012 90 10000 3.09 40 11:52 20.05.2022
1377 Rain 10 1012 92 10000 3.6 20 10:47 20.05.2022
1378 Rain 10 1011 92 9000 2.06 20 09:27 20.05.2022
1379 Drizzle 10 1011 91 10000 2.06 10 08:24 20.05.2022
1380 Rain 10 1011 90 10000 3.09 100 06:42 20.05.2022
1381 Clouds 10 1011 91 10000 2.57 80 05:39 20.05.2022
1382 Drizzle 11 1013 86 10000 2.06 110 01:30 20.05.2022
1383 Rain 11 1013 83 10000 2.06 130 23:47 19.05.2022
1384 Rain 12 1013 81 10000 2.57 90 22:36 19.05.2022
1385 Rain 13 1014 75 10000 2.57 80 21:50 19.05.2022
1386 Rain 13 1014 73 10000 3.6 70 21:24 19.05.2022
1387 Rain 14 1014 66 10000 4.12 70 20:47 19.05.2022
1388 Rain 15 1015 64 10000 4.63 60 19:54 19.05.2022
1389 Clear 19 1015 45 10000 4.63 120 19:00 19.05.2022
1390 Clear 20 1015 43 10000 5.14 120 17:44 19.05.2022
1391 Clear 22 1013 42 10000 1.54 0 15:51 19.05.2022
1392 Clear 21 1016 49 10000 2.57 310 14:47 19.05.2022
1393 Clear 21 1016 50 10000 1.54 310 14:20 19.05.2022
1394 Clear 19 1015 54 10000 3.09 290 11:54 19.05.2022
1395 Clear 17 1015 59 10000 3.6 240 10:30 19.05.2022
1396 Clear 14 1016 67 10000 5.66 270 08:39 19.05.2022
1397 Clear 14 1016 69 10000 5.14 270 07:18 19.05.2022
1398 Clouds 14 1016 57 10000 1.54 230 03:41 19.05.2022
1399 Clouds 14 1017 60 10000 2.06 230 00:57 19.05.2022
1400 Clouds 14 1017 55 10000 2.57 260 23:40 18.05.2022
1401 Clouds 15 1017 54 10000 4.63 260 22:43 18.05.2022
1402 Clear 16 1018 50 10000 3.09 250 21:43 18.05.2022
1403 Clear 16 1017 49 10000 4.63 250 21:23 18.05.2022
1404 Clear 18 1018 42 10000 5.14 260 20:21 18.05.2022
1405 Clear 18 1018 38 10000 6.17 270 18:56 18.05.2022
1406 Clear 19 1018 35 10000 7.2 260 17:56 18.05.2022
1407 Clear 19 1018 35 10000 7.2 260 17:36 18.05.2022
1408 Clear 20 1018 33 10000 7.72 260 17:18 18.05.2022
1409 Clear 20 1019 31 10000 7.2 280 15:52 18.05.2022
1410 Clear 20 1019 31 10000 7.72 270 15:33 18.05.2022
1411 Clear 19 1020 31 10000 6.17 260 14:21 18.05.2022
1412 Clear 17 1021 37 10000 5.66 260 12:55 18.05.2022
1413 Clear 17 1022 39 10000 5.14 250 12:24 18.05.2022
1414 Clear 16 1023 42 10000 4.63 270 11:33 18.05.2022
1415 Clear 15 1023 44 10000 4.63 240 10:43 18.05.2022
1416 Clear 11 1023 59 10000 4.12 250 08:19 18.05.2022
1417 Clear 9 1023 64 10000 3.6 240 07:27 18.05.2022
1418 Clouds 4 1025 86 10000 2.57 230 03:59 18.05.2022
1419 Clouds 5 1025 83 10000 2.57 220 00:51 18.05.2022
1420 Clouds 6 1025 81 10000 2.06 180 23:41 17.05.2022
1421 Clear 8 1025 59 10000 2.06 80 21:22 17.05.2022
1422 Clear 10 1026 43 10000 2.06 50 20:44 17.05.2022
1423 Clear 11 1026 48 10000 2.06 20 19:41 17.05.2022
1424 Clear 12 1024 45 10000 3.09 10 19:20 17.05.2022
1425 Clear 12 1024 43 10000 3.6 350 17:49 17.05.2022
1426 Clear 12 1024 44 10000 3.09 360 16:57 17.05.2022
1427 Clear 12 1024 44 10000 3.6 10 15:59 17.05.2022
1428 Clear 12 1024 45 10000 4.63 20 14:55 17.05.2022
1429 Clear 12 1024 44 10000 4.63 340 14:28 17.05.2022
1430 Clear 12 1024 43 10000 2.57 360 13:24 17.05.2022
1431 Clear 10 1024 49 10000 3.6 360 10:42 17.05.2022
1432 Clear 9 1023 61 10000 4.12 350 08:51 17.05.2022
1433 Clear 7 1023 66 10000 4.12 350 07:56 17.05.2022
1434 Clear 5 1022 70 10000 4.12 350 06:26 17.05.2022
1435 Clouds 2 1021 83 10000 1.03 280 01:34 17.05.2022
1436 Clouds 4 1021 76 10000 0.51 250 23:46 16.05.2022
1437 Clouds 6 1021 71 10000 1.03 0 22:39 16.05.2022
1438 Clear 8 1020 62 10000 3.6 160 21:31 16.05.2022
1439 Clear 9 1019 57 10000 4.63 140 20:43 16.05.2022
1440 Clear 13 1019 44 10000 4.12 340 18:53 16.05.2022
1441 Clear 13 1019 43 10000 2.57 340 17:26 16.05.2022
1442 Clear 14 1019 42 10000 4.12 310 15:35 16.05.2022
1443 Clear 13 1020 47 10000 5.66 320 13:48 16.05.2022
1444 Clouds 12 1020 48 10000 5.14 310 12:44 16.05.2022
1445 Clear 10 1020 51 10000 4.63 290 10:38 16.05.2022
1446 Clear 8 1019 55 10000 4.63 330 08:32 16.05.2022
1447 Clear 6 1018 61 10000 3.6 310 06:30 16.05.2022
1448 Clear 6 1018 61 10000 3.6 310 06:30 16.05.2022
1449 Clouds 5 1017 79 10000 1.03 0 01:44 16.05.2022
1450 Clouds 9 1015 66 10000 1.54 150 22:52 15.05.2022
1451 Clear 9 1015 65 10000 2.57 110 22:25 15.05.2022
1452 Clear 10 1015 64 10000 2.57 150 21:38 15.05.2022
1453 Clear 11 1015 59 10000 3.09 140 20:53 15.05.2022
1454 Clear 14 1014 42 10000 4.12 300 18:52 15.05.2022
1455 Clear 15 1014 39 10000 6.69 320 17:29 15.05.2022
1456 Clouds 16 1014 36 10000 8.23 280 15:26 15.05.2022
1457 Clear 15 1015 38 10000 8.23 290 13:47 15.05.2022
1458 Clear 14 1014 49 10000 5.66 290 12:21 15.05.2022
1459 Clear 13 1014 50 10000 4.12 280 11:29 15.05.2022
1460 Clear 12 1014 53 10000 3.6 340 09:58 15.05.2022
1461 Clouds 9 1013 67 10000 2.57 320 07:36 15.05.2022
1462 Clouds 7 1013 75 10000 2.57 340 06:57 15.05.2022
1463 Fog 6 1011 94 2700 1.03 0 04:26 15.05.2022
1464 Fog 6 1009 92 5000 0 0 00:47 15.05.2022
1465 Clouds 7 1009 91 7000 0 0 23:38 14.05.2022
1466 Clouds 7 1009 89 10000 1.03 200 22:41 14.05.2022
1467 Clouds 9 1008 87 10000 2.06 220 21:27 14.05.2022
1468 Clouds 11 1007 85 10000 1.03 0 20:32 14.05.2022
1469 Rain 12 1007 72 10000 1.54 10 19:21 14.05.2022
1470 Clouds 12 1006 71 10000 2.06 30 18:59 14.05.2022
1471 Clouds 12 1005 78 10000 2.57 20 17:54 14.05.2022
1472 Clouds 14 1004 66 10000 6.17 330 16:32 14.05.2022
1473 Clouds 15 1003 62 10000 6.69 290 14:56 14.05.2022
1474 Clouds 16 1003 58 10000 5.66 260 14:30 14.05.2022
1475 Clouds 14 1002 67 10000 5.14 250 12:18 14.05.2022
1476 Clouds 13 1002 78 10000 4.63 260 10:53 14.05.2022
1477 Clouds 12 1001 79 10000 4.12 270 10:20 14.05.2022
1478 Clouds 12 1001 82 10000 3.6 260 09:51 14.05.2022
1479 Clouds 10 1001 88 10000 3.09 250 08:22 14.05.2022
1480 Drizzle 9 1000 90 10000 2.57 220 05:26 14.05.2022
1481 Clouds 11 1001 73 10000 3.6 230 01:57 14.05.2022
1482 Clouds 10 1002 72 10000 2.57 220 23:31 13.05.2022
1483 Clouds 11 1002 70 10000 3.09 230 22:57 13.05.2022
1484 Clear 11 1002 66 10000 3.6 230 22:23 13.05.2022
1485 Clear 12 1002 63 10000 3.09 240 21:35 13.05.2022
1486 Clear 13 1002 56 10000 5.14 250 20:44 13.05.2022
1487 Clear 14 1002 53 10000 5.14 250 20:23 13.05.2022
1488 Clear 15 1002 49 10000 5.14 270 19:21 13.05.2022
1489 Clear 15 1003 48 10000 6.17 250 17:50 13.05.2022
1490 Clear 15 1003 48 10000 6.17 240 17:26 13.05.2022
1491 Clear 15 1003 47 10000 6.17 270 15:53 13.05.2022
1492 Clear 15 1003 45 10000 5.66 270 14:51 13.05.2022
1493 Clear 15 1003 48 10000 7.2 240 12:58 13.05.2022
1494 Clear 15 1003 52 10000 6.17 260 12:25 13.05.2022
1495 Clear 13 1003 58 10000 5.14 260 10:42 13.05.2022
1496 Clear 12 1003 69 10000 4.63 240 09:29 13.05.2022
1497 Clear 10 1003 77 10000 5.14 260 08:23 13.05.2022
1498 Clear 9 1003 80 10000 4.12 260 07:31 13.05.2022
1499 Clouds 8 1002 80 10000 4.63 250 05:58 13.05.2022
1500 Clouds 10 1002 72 10000 4.63 250 02:43 13.05.2022
1501 Clouds 11 1001 64 10000 7.72 260 23:44 12.05.2022
1502 Clouds 12 1001 60 10000 5.14 260 22:44 12.05.2022
1503 Clear 13 1000 57 10000 5.66 250 21:46 12.05.2022
1504 Clear 14 999 55 10000 7.2 260 20:23 12.05.2022
1505 Clear 16 998 50 10000 7.72 270 18:31 12.05.2022
1506 Clear 17 997 47 10000 8.23 260 16:57 12.05.2022
1507 Clear 16 996 49 10000 8.75 250 15:49 12.05.2022
1508 Clouds 15 996 55 10000 9.26 270 14:20 12.05.2022
1509 Clouds 14 995 58 10000 9.26 250 13:24 12.05.2022
1510 Clouds 12 994 71 10000 7.72 250 10:40 12.05.2022
1511 Clouds 12 994 75 10000 7.72 250 09:19 12.05.2022
1512 Clouds 11 994 78 10000 6.17 250 08:41 12.05.2022
1513 Clouds 10 994 83 10000 5.66 240 07:37 12.05.2022
1514 Clouds 9 994 91 10000 1.34 248 05:32 12.05.2022
1515 Clouds 8 995 92 10000 0.45 248 02:24 12.05.2022
1516 Clouds 9 997 91 10000 3.6 230 23:56 11.05.2022
1517 Clouds 10 998 89 10000 4.63 230 22:33 11.05.2022
1518 Rain 10 998 90 10000 2.06 150 21:33 11.05.2022
1519 Rain 10 998 89 9000 2.06 210 20:53 11.05.2022
1520 Clouds 14 999 68 10000 3.09 190 18:24 11.05.2022
1521 Clear 16 1000 55 10000 4.63 250 16:50 11.05.2022
1522 Clouds 16 1001 59 10000 4.63 270 14:51 11.05.2022
1523 Clouds 16 1001 59 10000 5.66 250 14:26 11.05.2022
1524 Clouds 16 1002 57 10000 6.17 260 13:51 11.05.2022
1525 Clouds 15 1002 64 10000 7.2 250 11:51 11.05.2022
1526 Clouds 12 1001 71 10000 6.17 240 10:27 11.05.2022
1527 Clouds 11 1002 80 10000 5.14 250 08:33 11.05.2022
1528 Clouds 9 1001 88 10000 5.14 240 05:18 11.05.2022
1529 Drizzle 10 1002 90 10000 4.63 180 00:42 11.05.2022
1530 Rain 10 1004 85 10000 4.63 160 22:30 10.05.2022
1531 Clear 11 1005 85 10000 4.12 160 21:47 10.05.2022
1532 Rain 11 1006 80 10000 4.63 170 20:54 10.05.2022
1533 Drizzle 12 1007 70 10000 4.63 190 19:26 10.05.2022
1534 Rain 14 1008 60 10000 6.69 190 17:49 10.05.2022
1535 Rain 15 1008 54 10000 7.2 190 16:49 10.05.2022
1536 Clear 16 1011 53 10000 6.69 170 14:48 10.05.2022
1537 Clear 14 1013 58 10000 5.14 150 12:39 10.05.2022
1538 Clear 13 1014 56 10000 4.12 170 11:49 10.05.2022
1539 Clear 13 1014 55 10000 4.63 180 11:18 10.05.2022
1540 Clear 13 1015 51 10000 6.17 190 10:22 10.05.2022
1541 Clear 12 1017 50 10000 5.14 200 09:25 10.05.2022
1542 Clear 9 1019 71 10000 4.12 190 06:46 10.05.2022
1543 Clouds 6 1021 79 10000 2.57 180 03:29 10.05.2022
1544 Clouds 6 1022 75 10000 1.54 160 00:34 10.05.2022
1545 Clouds 8 1022 69 10000 2.57 170 22:52 09.05.2022
1546 Clear 9 1023 62 10000 3.09 180 21:50 09.05.2022
1547 Clear 11 1023 54 10000 4.12 180 20:30 09.05.2022
1548 Clear 14 1023 42 10000 6.17 190 18:43 09.05.2022
1549 Clear 15 1024 45 10000 5.66 170 17:44 09.05.2022
1550 Clear 15 1025 48 10000 5.66 200 16:33 09.05.2022
1551 Clear 16 1026 49 10000 6.17 210 15:52 09.05.2022
1552 Clear 16 1026 48 10000 4.63 190 15:21 09.05.2022
1553 Clear 16 1027 45 10000 4.63 200 14:29 09.05.2022
1554 Clear 16 1027 42 10000 4.63 210 13:40 09.05.2022
1555 Clear 15 1028 42 10000 3.6 190 12:21 09.05.2022
1556 Clear 13 1028 44 10000 3.09 210 11:18 09.05.2022
1557 Clear 13 1029 45 10000 3.09 230 10:42 09.05.2022
1558 Clear 10 1029 70 10000 3.09 210 08:45 09.05.2022
1559 Clear 8 1029 76 10000 2.06 210 07:54 09.05.2022
1560 Clouds 3 1030 78 10000 2.06 200 03:21 09.05.2022
1561 Clouds 4 1030 66 10000 1.54 160 23:34 08.05.2022
1562 Clouds 5 1030 63 10000 2.57 170 22:55 08.05.2022
1563 Clear 6 1029 58 10000 3.09 160 21:55 08.05.2022
1564 Clear 6 1029 58 10000 3.09 160 21:55 08.05.2022
1565 Clear 7 1029 52 10000 5.14 150 20:35 08.05.2022
1566 Clear 9 1028 47 10000 5.66 140 19:44 08.05.2022
1567 Clear 10 1028 48 10000 7.72 140 18:54 08.05.2022
1568 Clear 12 1027 37 10000 2.06 290 17:59 08.05.2022
1569 Clear 12 1027 37 10000 3.6 340 16:43 08.05.2022
1570 Clear 12 1027 33 10000 4.63 320 15:31 08.05.2022
1571 Clear 11 1027 34 10000 4.63 350 14:44 08.05.2022
1572 Clear 11 1026 38 10000 6.69 290 12:27 08.05.2022
1573 Clear 10 1025 43 10000 6.17 280 10:31 08.05.2022
1574 Clouds 10 1025 44 10000 4.63 310 09:57 08.05.2022
1575 Clear 8 1023 49 10000 3.6 310 08:56 08.05.2022
1576 Clouds 6 1022 55 10000 2.06 350 06:58 08.05.2022
1577 Clouds 5 1021 70 10000 2.57 10 03:35 08.05.2022
1578 Clouds 4 1020 79 10000 2.57 30 02:45 08.05.2022
1579 Clouds 5 1019 80 10000 2.06 120 00:24 08.05.2022
1580 Clouds 6 1019 77 10000 3.09 70 23:49 07.05.2022
1581 Clouds 7 1018 77 10000 3.6 20 22:46 07.05.2022
1582 Clouds 7 1017 78 10000 1.54 250 21:59 07.05.2022
1583 Clouds 7 1017 76 10000 1.54 250 21:34 07.05.2022
1584 Clouds 10 1017 67 10000 1.54 210 20:28 07.05.2022
1585 Clouds 10 1015 64 10000 2.06 230 19:44 07.05.2022
1586 Clouds 11 1016 62 10000 3.09 320 17:35 07.05.2022
1587 Clouds 9 1016 72 10000 3.6 360 15:46 07.05.2022
1588 Drizzle 7 1014 87 7000 6.17 350 13:39 07.05.2022
1589 Clouds 11 1009 93 4000 4.12 230 10:41 07.05.2022
1590 Rain 11 1010 90 8000 3.09 210 08:57 07.05.2022
1591 Rain 11 1010 88 10000 2.57 210 07:50 07.05.2022
1592 Rain 12 1010 82 10000 3.6 230 06:43 07.05.2022
1593 Clouds 11 1010 81 10000 4.63 240 04:41 07.05.2022
1594 Clouds 9 1012 80 10000 2.06 220 01:19 07.05.2022
1595 Clouds 10 1012 72 10000 2.06 220 23:37 06.05.2022
1596 Clear 11 1012 66 10000 2.57 200 22:27 06.05.2022
1597 Clear 12 1012 62 10000 3.09 190 21:43 06.05.2022
1598 Clear 14 1011 53 10000 4.12 200 20:33 06.05.2022
1599 Clear 17 1013 51 10000 3.6 200 19:29 06.05.2022
1600 Clear 17 1013 51 10000 3.6 200 19:29 06.05.2022
1601 Clear 17 1014 51 10000 4.12 200 18:57 06.05.2022
1602 Clear 18 1015 46 10000 4.12 200 17:38 06.05.2022
1603 Clear 19 1014 45 10000 3.09 220 16:23 06.05.2022
1604 Clear 18 1014 47 10000 4.12 280 15:39 06.05.2022
1605 Clear 18 1015 50 10000 4.12 290 14:33 06.05.2022
1606 Clear 16 1015 55 10000 2.57 230 12:53 06.05.2022
1607 Clear 16 1015 56 10000 2.06 230 12:31 06.05.2022
1608 Clear 15 1016 58 10000 2.06 0 11:38 06.05.2022
1609 Clear 13 1016 64 10000 2.57 250 09:49 06.05.2022
1610 Clear 12 1016 68 10000 3.6 280 09:19 06.05.2022
1611 Clouds 10 1016 75 10000 2.57 250 07:59 06.05.2022
1612 Clear 9 1016 80 10000 2.57 240 06:39 06.05.2022
1613 Clouds 7 1016 87 10000 2.57 200 04:37 06.05.2022
1614 Clouds 7 1015 85 10000 1.54 260 02:43 06.05.2022
1615 Clouds 10 1015 75 10000 3.09 260 23:36 05.05.2022
1616 Clear 12 1014 70 10000 5.14 260 21:52 05.05.2022
1617 Clouds 13 1014 65 10000 5.14 290 20:53 05.05.2022
1618 Clear 14 1013 58 10000 3.6 210 19:49 05.05.2022
1619 Clear 17 1013 49 10000 6.17 190 16:57 05.05.2022
1620 Clear 16 1013 49 10000 5.14 200 16:18 05.05.2022
1621 Clear 17 1013 49 10000 5.14 180 14:43 05.05.2022
1622 Clear 16 1013 50 10000 5.14 190 13:20 05.05.2022
1623 Clear 15 1013 52 10000 5.66 200 12:24 05.05.2022
1624 Clear 14 1014 58 10000 3.6 190 10:33 05.05.2022
1625 Clear 12 1014 63 10000 4.12 210 09:39 05.05.2022
1626 Clear 9 1014 71 10000 3.09 200 07:24 05.05.2022
1627 Clouds 8 1014 67 10000 3.6 200 02:59 05.05.2022
1628 Clouds 8 1015 66 10000 4.12 190 01:48 05.05.2022
1629 Clouds 8 1015 64 10000 3.6 180 01:22 05.05.2022
1630 Clouds 8 1015 60 10000 4.63 180 23:31 04.05.2022
1631 Clouds 7 1015 56 10000 4.12 160 22:25 04.05.2022
1632 Clear 7 1015 50 10000 4.63 170 21:49 04.05.2022
1633 Clear 7 1015 49 10000 4.63 170 21:26 04.05.2022
1634 Clear 8 1016 40 10000 7.2 180 20:22 04.05.2022
1635 Clear 9 1016 41 10000 4.12 180 19:51 04.05.2022
1636 Clear 10 1015 42 10000 5.66 200 18:49 04.05.2022
1637 Clear 11 1016 42 10000 5.14 180 18:21 04.05.2022
1638 Clear 12 1017 33 10000 5.14 200 17:29 04.05.2022
1639 Clear 12 1017 32 10000 6.17 200 15:38 04.05.2022
1640 Clear 12 1018 33 10000 5.66 200 15:00 04.05.2022
1641 Clear 13 1018 34 10000 4.12 190 14:20 04.05.2022
1642 Clear 12 1018 36 10000 3.6 150 13:20 04.05.2022
1643 Clear 11 1019 37 10000 3.09 190 12:29 04.05.2022
1644 Clear 11 1019 37 10000 3.09 190 12:29 04.05.2022
1645 Clear 10 1019 39 10000 2.06 0 10:40 04.05.2022
1646 Clear 9 1019 45 10000 1.54 120 09:38 04.05.2022
1647 Clear 7 1019 54 10000 1.54 0 08:34 04.05.2022
1648 Clouds -1 1020 92 10000 0 0 05:53 04.05.2022
1649 Clouds 0 1019 90 10000 0.51 0 02:49 04.05.2022
1650 Clouds 3 1016 75 10000 1.54 150 23:41 03.05.2022
1651 Clouds 4 1016 68 10000 3.09 130 22:30 03.05.2022
1652 Clear 5 1015 63 10000 4.12 120 21:36 03.05.2022
1653 Clear 6 1015 54 10000 4.12 120 20:53 03.05.2022
1654 Clear 9 1015 38 10000 5.14 320 19:49 03.05.2022
1655 Clear 9 1015 36 10000 6.69 310 18:52 03.05.2022
1656 Clear 10 1014 35 10000 7.2 290 18:20 03.05.2022
1657 Clear 11 1014 30 10000 7.2 290 16:37 03.05.2022
1658 Clear 11 1013 31 10000 6.69 300 15:35 03.05.2022
1659 Clear 9 1013 33 10000 7.2 300 12:47 03.05.2022
1660 Clear 9 1013 33 10000 7.2 300 12:27 03.05.2022
1661 Clear 8 1013 36 10000 6.17 330 10:57 03.05.2022
1662 Clear 7 1012 41 10000 7.2 310 09:29 03.05.2022
1663 Clear 5 1010 52 10000 6.17 300 06:46 03.05.2022
1664 Clouds 4 1010 53 10000 5.14 310 05:58 03.05.2022
1665 Clouds 10 1005 35 10000 4.12 330 00:32 03.05.2022
1666 Clouds 12 1006 37 10000 3.6 310 22:36 02.05.2022
1667 Clouds 12 1006 47 10000 3.09 290 21:52 02.05.2022
1668 Clear 13 1005 41 10000 4.12 260 20:51 02.05.2022
1669 Clear 14 1004 47 10000 6.69 250 18:40 02.05.2022
1670 Clear 14 1004 47 10000 7.2 260 18:21 02.05.2022
1671 Clear 15 1004 45 10000 6.17 250 17:37 02.05.2022
1672 Clear 15 1005 44 10000 8.23 260 16:22 02.05.2022
1673 Clear 15 1005 42 10000 9.26 280 15:30 02.05.2022
1674 Clear 15 1005 42 10000 9.26 280 15:30 02.05.2022
1675 Clear 16 1006 40 10000 8.75 260 13:50 02.05.2022
1676 Clear 15 1007 44 10000 9.77 240 12:19 02.05.2022
1677 Clear 13 1009 46 10000 7.2 240 10:47 02.05.2022
1678 Clear 11 1010 51 10000 4.63 250 09:20 02.05.2022
1679 Clear 8 1012 61 10000 3.6 220 07:51 02.05.2022
1680 Clouds 4 1015 77 10000 2.06 200 03:48 02.05.2022
1681 Clouds 5 1017 72 10000 3.09 210 00:24 02.05.2022
1682 Clouds 5 1018 70 10000 2.57 210 23:48 01.05.2022
1683 Clear 6 1018 64 10000 2.57 180 22:25 01.05.2022
1684 Clear 8 1019 60 10000 3.09 180 21:19 01.05.2022
1685 Clear 11 1017 45 10000 4.12 240 19:51 01.05.2022
1686 Clear 11 1018 44 10000 4.63 280 18:57 01.05.2022
1687 Clear 12 1019 41 10000 3.09 230 18:28 01.05.2022
1688 Clear 13 1019 37 10000 3.6 290 17:26 01.05.2022
1689 Clear 12 1019 40 10000 3.09 360 16:23 01.05.2022
1690 Clear 12 1019 44 10000 3.6 320 15:25 01.05.2022
1691 Clear 12 1020 39 10000 4.12 320 13:42 01.05.2022
1692 Clouds 11 1021 46 10000 3.6 310 11:18 01.05.2022
1693 Clouds 9 1021 55 10000 2.57 360 08:53 01.05.2022
1694 Clouds 8 1020 61 10000 2.57 350 07:55 01.05.2022
1695 Clouds 6 1019 80 10000 0 0 03:35 01.05.2022
1696 Clouds 7 1020 76 10000 1.03 230 00:18 01.05.2022
1697 Clouds 8 1020 70 10000 1.03 0 21:47 30.04.2022
1698 Clouds 8 1020 68 10000 2.06 210 20:58 30.04.2022
1699 Clouds 9 1020 65 10000 3.09 220 19:41 30.04.2022
1700 Clouds 10 1020 61 10000 4.63 210 18:21 30.04.2022
1701 Clear 12 1021 53 10000 3.6 190 16:44 30.04.2022
1702 Clear 11 1021 53 10000 4.12 240 15:46 30.04.2022
1703 Clear 11 1022 50 10000 3.09 270 14:44 30.04.2022
1704 Clear 12 1022 45 10000 4.63 210 12:42 30.04.2022
1705 Clear 12 1023 48 10000 3.6 200 11:34 30.04.2022
1706 Clear 11 1023 53 10000 3.6 220 10:44 30.04.2022
1707 Clear 9 1024 59 10000 2.57 230 09:25 30.04.2022
1708 Clouds 3 1023 84 10000 0 0 06:43 30.04.2022
1709 Clouds 2 1025 75 10000 1.03 0 02:36 30.04.2022
1710 Clouds 3 1025 70 10000 2.06 210 23:37 29.04.2022
1711 Clear 4 1027 65 10000 2.06 170 22:31 29.04.2022
1712 Clear 4 1026 61 10000 3.09 160 21:39 29.04.2022
1713 Clear 5 1024 55 10000 5.14 150 20:49 29.04.2022
1714 Clouds 6 1021 53 10000 1.34 135 19:45 29.04.2022
1715 Clear 10 1025 36 10000 4.12 250 17:55 29.04.2022
1716 Clear 10 1025 35 10000 1.54 0 17:23 29.04.2022
1717 Clear 10 1026 37 10000 3.09 320 15:49 29.04.2022
1718 Clear 9 1026 37 10000 4.12 340 14:22 29.04.2022
1719 Clear 9 1026 38 10000 4.12 330 13:21 29.04.2022
1720 Clear 8 1026 39 10000 4.12 340 11:49 29.04.2022
1721 Clear 5 1028 56 10000 3.6 340 08:51 29.04.2022
1722 Clear 3 1028 68 10000 2.57 350 07:28 29.04.2022
1723 Clear 2 1027 73 10000 2.06 340 06:39 29.04.2022
1724 Clouds -1 1027 84 10000 1.54 320 04:53 29.04.2022
1725 Clouds 2 1026 76 10000 1.03 280 00:45 29.04.2022
1726 Clouds 2 1025 67 10000 0 0 23:28 28.04.2022
1727 Clouds 4 1025 60 10000 0 0 22:41 28.04.2022
1728 Clear 6 1024 53 10000 2.57 30 21:47 28.04.2022
1729 Clear 7 1024 49 10000 3.09 20 21:19 28.04.2022
1730 Clear 8 1024 47 10000 3.09 10 20:35 28.04.2022
1731 Clouds 9 1023 45 10000 2.57 10 19:45 28.04.2022
1732 Clear 10 1022 42 10000 4.12 360 19:22 28.04.2022
1733 Clear 11 1022 37 10000 6.69 330 18:36 28.04.2022
1734 Clear 12 1021 33 10000 8.75 280 17:24 28.04.2022
1735 Clear 12 1021 34 10000 6.17 280 16:40 28.04.2022
1736 Clear 13 1021 35 10000 6.69 280 16:18 28.04.2022
1737 Clear 12 1021 39 10000 7.72 280 15:28 28.04.2022
1738 Clear 12 1022 43 10000 7.72 290 14:19 28.04.2022
1739 Clear 11 1022 49 10000 5.14 260 12:44 28.04.2022
1740 Clear 10 1022 50 10000 4.12 260 11:59 28.04.2022
1741 Clear 8 1023 55 10000 4.12 240 10:46 28.04.2022
1742 Clear 8 1023 57 10000 3.6 240 09:56 28.04.2022
1743 Clear 5 1024 73 10000 3.09 260 08:31 28.04.2022
1744 Clear 3 1024 86 10000 2.06 230 07:19 28.04.2022
1745 Fog 0 1024 88 10000 1.54 200 05:56 28.04.2022
1746 Fog 0 1024 92 10000 1.54 200 05:38 28.04.2022
1747 Clouds 0 1024 94 10000 0.51 170 04:40 28.04.2022
1748 Clouds 1 1026 71 10000 3.6 140 00:30 28.04.2022
1749 Clouds 2 1026 64 10000 4.12 130 22:40 27.04.2022
1750 Clear 2 1026 62 10000 5.14 120 21:55 27.04.2022
1751 Clear 3 1026 61 10000 5.66 110 21:18 27.04.2022
1752 Clear 3 1026 59 10000 4.63 110 20:37 27.04.2022
1753 Clear 5 1025 58 10000 6.17 100 19:38 27.04.2022
1754 Clear 5 1025 57 10000 5.66 100 19:18 27.04.2022
1755 Clear 6 1025 55 10000 4.63 90 18:22 27.04.2022
1756 Clear 6 1025 55 10000 4.63 90 18:22 27.04.2022
1757 Clear 6 1025 55 10000 4.63 90 18:22 27.04.2022
1758 Clear 8 1025 51 10000 3.09 0 17:24 27.04.2022
1759 Clear 9 1026 36 10000 5.14 270 15:21 27.04.2022
1760 Clear 8 1026 40 10000 3.6 270 12:25 27.04.2022
1761 Clear 7 1026 48 10000 3.6 320 11:20 27.04.2022
1762 Clear 6 1026 55 10000 2.06 360 09:45 27.04.2022
1763 Clear 2 1025 75 10000 3.09 290 07:19 27.04.2022
1764 Clouds -1 1024 81 10000 0 0 04:45 27.04.2022
1765 Clouds 1 1023 61 10000 0.51 250 01:35 27.04.2022
1766 Clouds 2 1023 56 10000 0 0 00:38 27.04.2022
1767 Clouds 2 1023 56 10000 0 0 00:38 27.04.2022
1768 Clouds 2 1022 51 10000 0 0 23:40 26.04.2022
1769 Clouds 3 1022 51 10000 1.03 0 23:22 26.04.2022
1770 Clouds 4 1022 49 10000 2.57 80 22:41 26.04.2022
1771 Clear 5 1021 48 10000 2.57 30 21:37 26.04.2022
1772 Clear 6 1020 50 10000 3.09 20 20:53 26.04.2022
1773 Clear 6 1020 49 10000 3.09 20 20:33 26.04.2022
1774 Clear 7 1019 47 10000 3.6 350 19:32 26.04.2022
1775 Clear 8 1018 47 10000 3.6 350 18:45 26.04.2022
1776 Clouds 8 1018 48 10000 5.14 350 17:59 26.04.2022
1777 Clear 9 1018 47 10000 3.09 50 16:58 26.04.2022
1778 Clear 10 1017 42 10000 4.12 340 14:28 26.04.2022
1779 Clear 10 1016 43 10000 5.14 340 13:33 26.04.2022
1780 Clouds 9 1016 48 10000 4.12 330 11:57 26.04.2022
1781 Clear 8 1015 55 10000 4.63 340 10:37 26.04.2022
1782 Clear 7 1015 57 10000 4.12 350 09:25 26.04.2022
1783 Clear 6 1013 61 10000 4.63 350 07:38 26.04.2022
1784 Clouds 6 1012 62 10000 4.12 350 04:33 26.04.2022
1785 Clouds 5 1010 73 10000 1.03 270 01:30 26.04.2022
1786 Clouds 5 1010 72 10000 0.51 0 00:26 26.04.2022
1787 Clouds 6 1010 66 10000 1.03 100 22:46 25.04.2022
1788 Clear 7 1009 63 10000 2.06 130 21:43 25.04.2022
1789 Clear 9 1009 59 10000 5.14 60 20:40 25.04.2022
1790 Clear 13 1007 39 10000 3.6 260 18:58 25.04.2022
1791 Clear 14 1008 40 10000 3.6 300 17:54 25.04.2022
1792 Clear 14 1008 38 10000 2.57 280 17:23 25.04.2022
1793 Clear 13 1009 43 10000 5.14 280 15:29 25.04.2022
1794 Clear 13 1009 44 10000 4.63 270 14:46 25.04.2022
1795 Clear 12 1009 46 10000 4.12 280 13:35 25.04.2022
1796 Clear 10 1009 52 10000 2.57 320 11:43 25.04.2022
1797 Clear 9 1010 55 10000 2.06 300 10:26 25.04.2022
1798 Clear 5 1010 63 10000 3.6 350 08:46 25.04.2022
1799 Clear 1 1011 79 10000 1.54 310 06:45 25.04.2022
1800 Clear 0 1011 81 10000 1.54 330 04:27 25.04.2022
1801 Clear 2 1013 72 10000 3.09 360 00:58 25.04.2022
1802 Clear 3 1013 68 10000 2.57 350 23:51 24.04.2022
1803 Clouds 3 1013 66 10000 2.06 360 22:45 24.04.2022
1804 Clear 4 1014 64 10000 2.06 360 22:26 24.04.2022
1805 Clear 5 1014 62 10000 3.09 10 21:26 24.04.2022
1806 Clear 5 1014 60 10000 3.09 10 20:54 24.04.2022
1807 Clear 6 1014 60 10000 3.09 10 20:35 24.04.2022
1808 Clear 7 1014 56 10000 3.6 360 19:46 24.04.2022
1809 Clear 8 1014 53 10000 5.14 30 18:20 24.04.2022
1810 Clear 8 1014 50 10000 6.17 360 17:29 24.04.2022
1811 Clear 8 1014 50 10000 6.69 350 16:59 24.04.2022
1812 Clear 9 1014 49 10000 6.69 360 16:32 24.04.2022
1813 Clear 9 1014 49 10000 5.66 10 15:54 24.04.2022
1814 Clear 9 1014 49 10000 6.69 360 15:29 24.04.2022
1815 Clear 9 1015 48 10000 6.17 20 13:57 24.04.2022
1816 Clouds 9 1015 48 10000 5.66 40 13:25 24.04.2022
1817 Clouds 7 1016 53 10000 5.66 30 11:56 24.04.2022
1818 Clouds 7 1016 56 10000 5.14 20 11:28 24.04.2022
1819 Clouds 7 1016 66 10000 4.12 30 10:24 24.04.2022
1820 Clouds 6 1016 70 10000 3.6 20 09:23 24.04.2022
1821 Clouds 3 1016 78 10000 3.6 20 06:34 24.04.2022
1822 Clouds 5 1016 80 10000 3.09 20 03:43 24.04.2022
1823 Clouds 5 1016 84 10000 2.06 10 01:38 24.04.2022
1824 Clouds 5 1016 80 10000 4.12 350 00:22 24.04.2022
1825 Clouds 5 1016 78 10000 4.12 350 23:26 23.04.2022
1826 Clouds 5 1016 76 10000 4.63 350 22:55 23.04.2022
1827 Clouds 6 1016 74 10000 3.09 20 21:51 23.04.2022
1828 Clouds 6 1016 72 10000 3.09 360 21:32 23.04.2022
1829 Clouds 7 1016 69 10000 3.09 10 20:36 23.04.2022
1830 Clouds 7 1016 72 10000 3.09 20 19:46 23.04.2022
1831 Clouds 7 1016 72 10000 3.09 20 19:19 23.04.2022
1832 Clouds 7 1016 72 10000 3.09 20 18:46 23.04.2022
1833 Rain 9 1016 60 10000 6.17 20 17:50 23.04.2022
1834 Clear 10 1015 52 10000 5.66 10 16:56 23.04.2022
1835 Clear 10 1016 56 10000 6.17 10 16:23 23.04.2022
1836 Clear 11 1016 56 10000 6.17 360 14:47 23.04.2022
1837 Clear 11 1018 57 10000 6.69 20 12:35 23.04.2022
1838 Clear 10 1016 62 10000 5.14 350 10:41 23.04.2022
1839 Clear 7 1016 75 10000 5.14 360 08:55 23.04.2022
1840 Clouds 3 1016 84 10000 4.12 350 05:47 23.04.2022
1841 Clouds 3 1017 82 10000 3.6 340 03:54 23.04.2022
1842 Clouds 4 1018 74 10000 3.6 350 00:46 23.04.2022
1843 Clouds 5 1019 69 10000 3.6 360 23:27 22.04.2022
1844 Clear 6 1019 68 10000 3.6 20 22:19 22.04.2022
1845 Clear 7 1019 68 10000 4.12 360 21:41 22.04.2022
1846 Clear 9 1019 61 10000 5.14 360 20:45 22.04.2022
1847 Clear 10 1019 60 10000 4.63 360 20:25 22.04.2022
1848 Clear 13 1019 54 10000 5.66 360 19:18 22.04.2022
1849 Clear 14 1020 47 10000 4.12 20 18:35 22.04.2022
1850 Clear 14 1020 46 10000 3.6 70 17:37 22.04.2022
1851 Clear 15 1019 43 10000 3.6 80 16:30 22.04.2022
1852 Clear 15 1019 44 10000 4.12 90 15:32 22.04.2022
1853 Clear 15 1020 46 10000 3.6 70 14:43 22.04.2022
1854 Clear 15 1020 46 10000 4.63 90 13:42 22.04.2022
1855 Clear 14 1020 48 10000 4.12 90 12:55 22.04.2022
1856 Clear 13 1021 50 10000 3.6 80 11:41 22.04.2022
1857 Clear 13 1021 51 10000 4.12 80 11:18 22.04.2022
1858 Clear 12 1021 54 10000 4.63 60 10:47 22.04.2022
1859 Clear 12 1021 53 10000 4.12 60 10:25 22.04.2022
1860 Clear 11 1021 58 10000 2.57 40 09:42 22.04.2022
1861 Clear 9 1021 66 10000 2.06 20 08:49 22.04.2022
1862 Clear 5 1019 81 10000 1.54 350 06:56 22.04.2022
1863 Clear 5 1021 79 10000 1.54 0 01:49 22.04.2022
1864 Clear 7 1021 70 10000 2.57 40 23:49 21.04.2022
1865 Clear 8 1021 66 10000 2.57 20 22:59 21.04.2022
1866 Clear 10 1023 61 10000 2.57 20 21:56 21.04.2022
1867 Clear 11 1021 56 10000 2.57 10 20:34 21.04.2022
1868 Clear 12 1023 47 10000 3.6 80 19:53 21.04.2022
1869 Clear 13 1023 53 10000 5.14 80 18:35 21.04.2022
1870 Clear 13 1023 54 10000 5.66 70 17:49 21.04.2022
1871 Clear 14 1023 50 10000 4.12 70 16:28 21.04.2022
1872 Clear 14 1022 51 10000 4.63 70 15:20 21.04.2022
1873 Clear 14 1022 52 10000 4.63 70 14:38 21.04.2022
1874 Clear 14 1023 50 10000 4.12 60 13:23 21.04.2022
1875 Clear 13 1023 53 10000 4.63 60 12:36 21.04.2022
1876 Clear 12 1023 58 10000 5.14 70 10:45 21.04.2022
1877 Clear 10 1022 65 10000 4.63 60 08:54 21.04.2022
1878 Clear 7 1022 76 10000 3.09 50 06:55 21.04.2022
1879 Clear 7 1022 76 10000 3.09 50 06:55 21.04.2022
1880 Clouds 6 1022 76 10000 3.09 40 04:36 21.04.2022
1881 Clouds 6 1022 75 10000 3.09 20 03:26 21.04.2022
1882 Clouds 6 1022 73 10000 2.57 30 02:46 21.04.2022
1883 Clouds 6 1022 73 10000 2.57 30 02:46 21.04.2022
1884 Clouds 7 1022 70 10000 3.09 10 00:43 21.04.2022
1885 Clouds 7 1022 69 10000 3.09 20 23:49 20.04.2022
1886 Clouds 8 1022 67 10000 3.09 20 23:21 20.04.2022
1887 Clouds 9 1022 64 10000 3.09 50 22:45 20.04.2022
1888 Clear 9 1022 62 10000 3.09 30 22:26 20.04.2022
1889 Clear 9 1022 59 10000 1.54 360 21:24 20.04.2022
1890 Clear 11 1023 49 10000 2.57 60 20:23 20.04.2022
1891 Clear 11 1023 53 10000 2.57 60 20:23 20.04.2022
1892 Clear 12 1023 40 10000 2.57 60 19:51 20.04.2022
1893 Clear 12 1023 50 10000 3.09 50 18:55 20.04.2022
1894 Clear 12 1024 49 10000 5.14 70 17:55 20.04.2022
1895 Clear 12 1022 48 10000 6.17 70 16:40 20.04.2022
1896 Clear 12 1022 49 10000 6.69 90 16:18 20.04.2022
1897 Clear 13 1022 52 10000 5.66 70 13:50 20.04.2022
1898 Clouds 13 1022 57 10000 2.68 45 11:44 20.04.2022
1899 Clear 12 1023 57 10000 4.63 60 10:56 20.04.2022
1900 Clear 11 1023 62 10000 2.57 50 09:46 20.04.2022
1901 Clear 9 1023 69 10000 2.06 20 08:59 20.04.2022
1902 Clear 7 1023 75 10000 1.54 0 08:20 20.04.2022
1903 Clear 4 1022 86 10000 1.03 0 06:56 20.04.2022
1904 Clear 3 1024 82 10000 1.03 310 03:34 20.04.2022
1905 Clear 4 1023 76 10000 1.54 70 00:22 20.04.2022
1906 Clear 5 1023 73 10000 1.54 60 23:37 19.04.2022
1907 Clear 7 1023 69 10000 2.57 80 22:25 19.04.2022
1908 Clear 7 1022 66 10000 2.06 70 21:55 19.04.2022
1909 Clear 8 1022 63 10000 3.09 70 21:22 19.04.2022
1910 Clear 9 1021 60 10000 3.6 90 20:41 19.04.2022
1911 Clear 11 1023 50 10000 4.12 70 19:56 19.04.2022
1912 Clear 12 1023 54 10000 5.14 80 18:47 19.04.2022
1913 Clear 13 1021 52 10000 4.12 70 17:40 19.04.2022
1914 Clear 14 1021 49 10000 4.12 70 16:43 19.04.2022
1915 Clear 14 1021 48 10000 2.57 120 16:23 19.04.2022
1916 Clear 14 1021 44 10000 3.6 110 14:50 19.04.2022
1917 Clear 14 1021 41 10000 4.63 120 13:49 19.04.2022
1918 Clear 13 1021 43 10000 4.12 130 12:50 19.04.2022
1919 Clear 13 1021 45 10000 4.12 130 12:20 19.04.2022
1920 Clear 12 1021 49 10000 2.06 110 10:46 19.04.2022
1921 Clear 10 1021 53 10000 2.57 110 09:19 19.04.2022
1922 Clear 3 1019 76 10000 3.09 130 05:56 19.04.2022
1923 Clouds 4 1018 80 10000 1.03 120 03:26 19.04.2022
1924 Clouds 6 1018 79 10000 3.6 100 00:55 19.04.2022
1925 Clouds 7 1018 74 10000 0 0 23:31 18.04.2022
1926 Clear 11 1018 60 10000 2.57 70 21:30 18.04.2022
1927 Clear 11 1018 58 10000 2.06 90 20:56 18.04.2022
1928 Clear 13 1016 54 10000 3.6 100 20:32 18.04.2022
1929 Clear 15 1019 38 10000 4.12 100 19:51 18.04.2022
1930 Clear 16 1018 43 10000 4.63 100 18:57 18.04.2022
1931 Clear 17 1018 44 10000 3.6 240 17:57 18.04.2022
1932 Clear 17 1018 43 10000 3.6 240 17:34 18.04.2022
1933 Clear 18 1019 41 10000 2.57 240 16:59 18.04.2022
1934 Clear 18 1019 41 10000 2.57 240 16:32 18.04.2022
1935 Clear 17 1020 41 10000 3.09 340 14:59 18.04.2022
1936 Clear 17 1019 42 10000 2.57 250 13:39 18.04.2022
1937 Clear 15 1020 46 10000 3.09 260 12:32 18.04.2022
1938 Clear 14 1020 50 10000 2.57 260 11:35 18.04.2022
1939 Clear 12 1021 56 10000 2.57 250 10:32 18.04.2022
1940 Clear 10 1021 63 10000 2.06 230 09:31 18.04.2022
1941 Clear 6 1021 77 10000 2.06 210 08:18 18.04.2022
1942 Clouds 3 1022 86 10000 0.51 0 05:45 18.04.2022
1943 Clouds 4 1023 76 10000 1.03 160 00:50 18.04.2022
1944 Clouds 6 1024 68 10000 1.03 180 22:43 17.04.2022
1945 Clear 7 1024 64 10000 2.57 210 21:50 17.04.2022
1946 Clear 8 1024 63 10000 3.09 210 21:27 17.04.2022
1947 Clear 9 1024 61 10000 3.09 200 20:50 17.04.2022
1948 Clear 11 1025 51 10000 3.6 200 19:40 17.04.2022
1949 Clear 13 1025 50 10000 4.63 200 18:24 17.04.2022
1950 Clear 15 1025 46 10000 2.57 270 16:32 17.04.2022
1951 Clear 14 1026 45 10000 2.06 300 15:28 17.04.2022
1952 Clear 14 1026 44 10000 2.06 0 14:27 17.04.2022
1953 Clear 14 1027 46 10000 1.54 0 13:20 17.04.2022
1954 Clear 13 1027 49 10000 1.03 0 12:28 17.04.2022
1955 Clouds 12 1028 51 10000 1.54 0 10:47 17.04.2022
1956 Clouds 11 1028 51 10000 1.54 0 10:28 17.04.2022
1957 Clouds 10 1028 55 10000 1.03 0 09:37 17.04.2022
1958 Clouds 8 1028 60 10000 0.51 0 08:54 17.04.2022
1959 Clouds 6 1028 67 10000 1.03 240 07:53 17.04.2022
1960 Clouds 4 1027 65 10000 1.03 150 04:52 17.04.2022
1961 Clouds 5 1028 56 10000 1.03 0 01:39 17.04.2022
1962 Rain 5 1028 50 10000 1.54 160 23:57 16.04.2022
1963 Clouds 6 1029 47 10000 1.54 160 22:41 16.04.2022
1964 Clouds 6 1029 45 10000 2.57 170 21:42 16.04.2022
1965 Clouds 7 1029 45 10000 3.6 190 20:45 16.04.2022
1966 Clouds 9 1029 43 10000 4.12 150 19:20 16.04.2022
1967 Clouds 10 1029 41 10000 4.12 140 18:32 16.04.2022
1968 Clear 12 1028 37 10000 2.57 300 16:41 16.04.2022
1969 Clear 13 1031 35 10000 2.06 240 15:46 16.04.2022
1970 Clear 12 1030 38 10000 2.57 250 14:57 16.04.2022
1971 Clear 12 1031 38 10000 2.06 240 13:58 16.04.2022
1972 Clear 12 1031 40 10000 2.06 240 13:40 16.04.2022
1973 Clear 10 1032 41 10000 2.06 0 12:33 16.04.2022
1974 Clear 8 1032 44 10000 1.54 0 11:19 16.04.2022
1975 Clear 6 1032 49 10000 0.45 270 09:57 16.04.2022
1976 Clear 4 1032 59 10000 0 0 08:59 16.04.2022
1977 Clouds 3 1032 64 10000 0 0 08:31 16.04.2022
1978 Clouds -1 1031 79 10000 0 0 06:59 16.04.2022
1979 Clouds -2 1034 77 10000 1.54 260 03:48 16.04.2022
1980 Clouds 0 1031 69 10000 2.57 300 00:35 16.04.2022
1981 Clouds 0 1031 65 10000 2.06 300 23:34 15.04.2022
1982 Clear 1 1031 62 10000 1.03 350 22:38 15.04.2022
1983 Clear 3 1031 56 10000 2.06 30 21:59 15.04.2022
1984 Clear 4 1031 53 10000 2.06 20 21:18 15.04.2022
1985 Clear 4 1031 53 10000 2.06 20 21:18 15.04.2022
1986 Clear 4 1031 53 10000 2.06 20 21:18 15.04.2022
1987 Clear 5 1030 50 10000 3.6 360 20:31 15.04.2022
1988 Clear 7 1031 46 10000 5.14 360 19:41 15.04.2022
1989 Clear 8 1029 41 10000 5.14 10 18:55 15.04.2022
1990 Clear 8 1029 41 10000 5.66 10 18:26 15.04.2022
1991 Clear 9 1029 41 10000 6.17 20 17:49 15.04.2022
1992 Clear 9 1029 40 10000 5.14 360 17:22 15.04.2022
1993 Clouds 9 1028 42 10000 5.14 350 16:24 15.04.2022
1994 Clouds 9 1028 43 10000 5.66 20 15:37 15.04.2022
1995 Clouds 9 1028 47 10000 6.17 360 13:55 15.04.2022
1996 Clouds 8 1027 54 10000 6.17 10 12:48 15.04.2022
1997 Clouds 7 1027 61 10000 5.14 360 11:59 15.04.2022
1998 Clouds 7 1027 63 10000 5.14 360 11:40 15.04.2022
1999 Clouds 6 1027 68 10000 5.14 360 10:45 15.04.2022
2000 Clouds 4 1026 75 10000 4.63 360 09:57 15.04.2022
2001 Clouds 4 1026 78 10000 4.63 360 09:22 15.04.2022
2002 Clouds 3 1026 82 10000 4.12 360 08:37 15.04.2022
2003 Clouds 2 1024 87 10000 3.6 360 06:47 15.04.2022
2004 Clouds 2 1024 87 10000 3.6 360 06:47 15.04.2022
2005 Clouds 3 1023 85 10000 3.6 10 04:42 15.04.2022
2006 Clouds 4 1020 87 10000 3.09 20 00:32 15.04.2022
2007 Clouds 4 1020 86 10000 3.6 20 23:20 14.04.2022
2008 Clouds 4 1019 86 10000 2.57 10 22:44 14.04.2022
2009 Clouds 4 1019 88 10000 3.09 20 22:25 14.04.2022
2010 Clouds 4 1018 87 10000 3.09 20 21:39 14.04.2022
2011 Clouds 5 1017 88 10000 4.12 30 19:24 14.04.2022
2012 Clouds 6 1016 87 10000 3.6 60 18:38 14.04.2022
2013 Clouds 6 1016 89 10000 2.57 50 17:45 14.04.2022
2014 Clouds 6 1016 91 10000 2.57 70 16:49 14.04.2022
2015 Clouds 5 1015 92 10000 2.57 80 15:50 14.04.2022
2016 Mist 5 1015 92 5000 2.57 50 13:53 14.04.2022
2017 Mist 5 1015 92 4000 2.57 70 13:20 14.04.2022
2018 Mist 5 1015 92 3000 2.57 50 12:32 14.04.2022
2019 Mist 5 1014 92 3000 2.57 60 11:37 14.04.2022
2020 Mist 5 1014 92 3300 2.57 90 10:58 14.04.2022
2021 Mist 4 1014 93 3500 2.57 110 10:31 14.04.2022
2022 Clouds 4 1014 92 7000 3.09 0 09:28 14.04.2022
2023 Clouds 4 1013 91 10000 3.09 100 07:54 14.04.2022
2024 Rain 4 1014 89 10000 4.12 110 05:52 14.04.2022
2025 Rain 4 1019 81 10000 2.06 160 00:29 14.04.2022
2026 Rain 5 1019 78 10000 3.09 140 22:37 13.04.2022
2027 Clear 5 1019 76 10000 2.57 130 21:42 13.04.2022
2028 Clear 5 1020 74 10000 3.09 130 20:39 13.04.2022
2029 Clear 6 1020 72 10000 2.57 150 19:48 13.04.2022
2030 Clear 7 1021 66 10000 3.6 210 18:37 13.04.2022
2031 Clear 8 1021 60 10000 3.6 150 17:25 13.04.2022
2032 Clear 8 1021 59 10000 4.12 130 16:52 13.04.2022
2033 Clear 9 1022 51 10000 4.12 150 15:47 13.04.2022
2034 Clear 9 1022 50 10000 4.63 160 15:27 13.04.2022
2035 Clear 10 1022 48 10000 4.63 140 14:40 13.04.2022
2036 Clear 10 1022 44 10000 4.63 140 13:38 13.04.2022
2037 Clear 11 1022 43 10000 4.63 180 12:51 13.04.2022
2038 Clear 9 1023 46 10000 3.6 150 11:32 13.04.2022
2039 Clear 8 1023 51 10000 2.06 160 10:27 13.04.2022
2040 Clear 5 1022 68 10000 1.54 150 08:45 13.04.2022
2041 Clear 4 1022 73 10000 1.03 160 07:57 13.04.2022
2042 Clear 2 1023 79 10000 1.03 140 06:48 13.04.2022
2043 Clouds 2 1023 79 10000 1.03 150 06:24 13.04.2022
2044 Clouds 2 1023 73 10000 0 0 01:51 13.04.2022
2045 Clouds 2 1023 71 10000 0 0 00:19 13.04.2022
2046 Clouds 3 1022 65 10000 1.03 0 22:33 12.04.2022
2047 Clear 4 1021 64 10000 0 0 21:51 12.04.2022
2048 Clear 6 1020 57 10000 1.54 0 20:48 12.04.2022
2049 Clear 7 1020 55 10000 1.54 250 20:20 12.04.2022
2050 Clear 9 1020 49 10000 2.06 250 19:40 12.04.2022
2051 Clear 10 1020 47 10000 2.06 260 18:56 12.04.2022
2052 Clear 11 1019 44 10000 2.57 220 17:39 12.04.2022
2053 Clear 10 1019 45 10000 3.6 260 16:46 12.04.2022
2054 Clear 10 1019 48 10000 2.57 290 15:34 12.04.2022
2055 Clear 10 1019 47 10000 2.57 300 14:48 12.04.2022
2056 Clear 9 1019 51 10000 3.6 310 13:45 12.04.2022
2057 Clear 9 1019 49 10000 3.6 280 13:24 12.04.2022
2058 Clear 8 1019 50 10000 3.09 250 11:57 12.04.2022
2059 Clear 8 1019 52 10000 3.09 250 11:32 12.04.2022
2060 Clear 5 1018 60 10000 1.54 310 09:47 12.04.2022
2061 Clouds 3 1017 71 10000 2.27 299 08:38 12.04.2022
2062 Clear -1 1018 79 10000 0 0 06:47 12.04.2022
2063 Clouds -1 1018 77 10000 2.23 305 05:40 12.04.2022
2064 Clear -1 1017 71 10000 2.33 309 02:37 12.04.2022
2065 Clouds 1 1014 65 10000 0 0 23:20 11.04.2022
2066 Clear 1 1014 61 10000 0 0 22:32 11.04.2022
2067 Clear 3 1012 56 10000 0 0 21:22 11.04.2022
2068 Clear 5 1012 49 10000 1.03 0 20:34 11.04.2022
2069 Clear 7 1010 41 10000 3.6 280 19:59 11.04.2022
2070 Clear 8 1012 41 10000 3.6 280 19:26 11.04.2022
2071 Clear 9 1012 41 10000 4.12 270 18:53 11.04.2022
2072 Clear 9 1011 40 10000 6.17 280 17:58 11.04.2022
2073 Clear 9 1010 38 10000 5.66 280 17:38 11.04.2022
2074 Clear 10 1010 38 10000 5.66 290 16:33 11.04.2022
2075 Clear 9 1009 40 10000 5.14 260 14:49 11.04.2022
2076 Clear 9 1009 42 10000 5.66 250 13:34 11.04.2022
2077 Clear 9 1009 45 10000 5.14 270 12:38 11.04.2022
2078 Clear 8 1009 46 10000 4.12 280 12:19 11.04.2022
2079 Clear 7 1008 51 10000 4.63 300 10:36 11.04.2022
2080 Clear 6 1008 56 10000 3.6 300 09:49 11.04.2022
2081 Clear 3 1007 70 10000 2.06 240 07:58 11.04.2022
2082 Clouds 2 1005 73 10000 2.06 260 04:18 11.04.2022
2083 Clouds 5 1001 63 10000 4.12 240 23:27 10.04.2022
2084 Clear 6 1001 61 10000 4.63 240 22:26 10.04.2022
2085 Clear 6 1000 61 10000 4.12 240 21:43 10.04.2022
2086 Clear 6 1000 60 10000 3.6 240 20:50 10.04.2022
2087 Clear 7 999 60 10000 4.12 240 19:54 10.04.2022
2088 Clear 7 999 60 10000 4.12 240 19:33 10.04.2022
2089 Clear 8 998 60 10000 4.12 250 18:46 10.04.2022
2090 Clear 8 998 60 10000 4.63 260 18:20 10.04.2022
2091 Clouds 8 998 59 10000 6.17 250 17:41 10.04.2022
2092 Clouds 8 997 58 10000 6.69 260 16:47 10.04.2022
2093 Clouds 8 997 58 10000 7.72 260 15:37 10.04.2022
2094 Clouds 8 996 61 10000 5.66 250 14:37 10.04.2022
2095 Clouds 7 995 63 10000 6.69 250 12:50 10.04.2022
2096 Clouds 6 994 66 10000 5.14 260 12:26 10.04.2022
2097 Clouds 5 993 71 10000 5.14 260 11:29 10.04.2022
2098 Clouds 5 993 73 10000 4.63 280 10:57 10.04.2022
2099 Clouds 4 993 74 10000 5.14 270 10:20 10.04.2022
2100 Clouds 3 992 76 10000 5.14 270 09:40 10.04.2022
2101 Clouds 2 991 82 10000 4.12 260 08:25 10.04.2022
2102 Clouds 1 991 84 10000 2.57 260 07:47 10.04.2022
2103 Clouds 0 989 89 10000 3.09 240 06:19 10.04.2022
2104 Clouds 1 988 89 10000 3.09 230 02:37 10.04.2022
2105 Clouds 1 987 89 10000 4.12 240 00:51 10.04.2022
2106 Clouds 0 987 90 10000 3.6 240 23:50 09.04.2022
2107 Clouds 1 986 91 10000 3.09 230 22:50 09.04.2022
2108 Clouds 1 986 91 10000 3.09 220 21:48 09.04.2022
2109 Clouds 1 986 87 10000 3.09 230 20:57 09.04.2022
2110 Clouds 1 986 87 10000 3.6 240 20:26 09.04.2022
2111 Clouds 2 985 85 10000 3.6 240 19:42 09.04.2022
2112 Clouds 2 985 86 10000 4.63 240 19:18 09.04.2022
2113 Clouds 2 985 86 10000 4.63 240 19:18 09.04.2022
2114 Clouds 3 984 87 10000 4.63 240 18:21 09.04.2022
2115 Clouds 3 984 87 10000 5.14 250 17:39 09.04.2022
2116 Clouds 2 983 89 9000 5.66 250 16:53 09.04.2022
2117 Clouds 2 983 89 5000 5.66 240 15:59 09.04.2022
2118 Clouds 1 983 91 4100 5.66 240 15:41 09.04.2022
2119 Clouds 1 983 93 5000 4.63 230 14:44 09.04.2022
2120 Clouds 1 982 92 1500 4.12 230 14:23 09.04.2022
2121 Clouds 1 981 92 2400 4.63 210 13:20 09.04.2022
2122 Clouds 1 981 89 2400 4.63 220 12:50 09.04.2022
2123 Clouds 1 981 83 4000 5.14 230 11:40 09.04.2022
2124 Clouds 1 980 73 10000 5.66 230 10:21 09.04.2022
2125 Clouds 1 980 72 10000 5.66 230 09:47 09.04.2022
2126 Clouds 0 978 73 10000 5.14 220 08:56 09.04.2022
2127 Clouds -2 977 80 10000 4.63 220 07:29 09.04.2022
2128 Clouds -2 976 82 10000 5.14 230 02:58 09.04.2022
2129 Clouds -2 976 86 10000 5.66 250 00:25 09.04.2022
2130 Clouds -1 976 91 7000 7.2 260 22:57 08.04.2022
2131 Clouds -1 975 93 2000 7.72 250 21:32 08.04.2022
2132 Clouds 0 974 91 2100 6.17 250 20:40 08.04.2022
2133 Clouds 0 973 90 3100 6.69 240 19:39 08.04.2022
2134 Clouds 0 973 82 10000 6.17 240 18:31 08.04.2022
2135 Clouds 0 972 80 10000 6.17 240 17:53 08.04.2022
2136 Clouds 1 972 81 10000 6.69 240 17:26 08.04.2022
2137 Clouds 1 971 80 10000 7.2 250 16:51 08.04.2022
2138 Clouds 0 970 84 10000 8.23 250 15:59 08.04.2022
2139 Clouds 0 970 85 10000 8.23 250 15:27 08.04.2022
2140 Clouds 0 969 86 10000 8.23 250 14:39 08.04.2022
2141 Clouds 1 968 88 10000 7.72 240 13:55 08.04.2022
2142 Snow 1 968 90 7000 8.75 240 13:29 08.04.2022
2143 Clouds 1 966 91 2400 5.14 210 12:32 08.04.2022
2144 Snow 1 964 91 7000 5.14 210 10:38 08.04.2022
2145 Snow 1 964 92 85 0.45 225 09:39 08.04.2022
2146 Snow 1 965 94 5000 3.09 260 08:58 08.04.2022
2147 Rain 4 964 93 7000 3.6 140 07:38 08.04.2022
2148 Clouds 4 964 93 10000 3.09 140 06:38 08.04.2022
2149 Clouds 4 965 92 10000 5.14 180 01:45 08.04.2022
2150 Clouds 4 965 93 10000 5.66 150 00:26 08.04.2022
2151 Clouds 4 966 94 10000 7.72 140 23:38 07.04.2022
2152 Rain 3 967 95 3600 6.69 70 22:40 07.04.2022
2153 Rain 3 968 94 6000 7.2 50 22:22 07.04.2022
2154 Rain 2 969 95 8000 6.17 50 21:56 07.04.2022
2155 Rain 2 971 93 6000 6.17 60 21:19 07.04.2022
2156 Rain 1 972 94 10000 6.17 70 20:41 07.04.2022
2157 Snow 1 975 92 1700 5.66 70 18:54 07.04.2022
2158 Snow 1 977 92 6000 5.66 70 17:27 07.04.2022
2159 Rain 2 978 91 8000 6.17 70 16:45 07.04.2022
2160 Rain 2 978 91 6000 5.66 70 16:25 07.04.2022
2161 Snow 2 978 92 5000 4.63 80 15:37 07.04.2022
2162 Clouds 2 979 87 10000 5.14 80 13:51 07.04.2022
2163 Clouds 2 980 86 10000 5.14 70 13:23 07.04.2022
2164 Clouds 2 980 88 10000 5.14 70 11:49 07.04.2022
2165 Clouds 2 982 90 8000 4.12 80 10:30 07.04.2022
2166 Clouds 1 982 90 10000 3.6 70 08:40 07.04.2022
2167 Clouds 0 984 88 10000 2.57 70 06:58 07.04.2022
2168 Clouds 0 985 87 10000 2.57 70 04:26 07.04.2022
2169 Clouds -1 986 86 10000 1.54 60 02:29 07.04.2022
2170 Clouds -1 987 84 10000 0 0 00:42 07.04.2022
2171 Clouds 0 987 83 10000 1.54 160 23:21 06.04.2022
2172 Clouds 1 988 80 10000 1.54 160 22:44 06.04.2022
2173 Clear 2 988 75 10000 3.09 180 21:47 06.04.2022
2174 Clear 2 988 74 10000 3.09 180 20:43 06.04.2022
2175 Clear 3 988 65 10000 3.09 190 19:59 06.04.2022
2176 Clear 4 988 59 10000 4.12 190 19:19 06.04.2022
2177 Clear 5 988 53 10000 4.63 200 18:47 06.04.2022
2178 Clear 6 989 45 10000 4.12 240 17:35 06.04.2022
2179 Clear 6 989 42 10000 5.14 210 16:39 06.04.2022
2180 Clear 6 990 43 10000 4.63 250 15:57 06.04.2022
2181 Clear 6 990 42 10000 5.14 270 15:39 06.04.2022
2182 Clear 4 990 49 10000 6.17 250 13:31 06.04.2022
2183 Clear 3 991 54 10000 5.66 250 12:28 06.04.2022
2184 Clear 2 991 57 10000 4.63 260 10:57 06.04.2022
2185 Clear 2 991 57 10000 5.14 270 10:32 06.04.2022
2186 Clear 1 991 60 10000 5.14 280 09:46 06.04.2022
2187 Clear -1 991 66 10000 5.14 270 08:39 06.04.2022
2188 Clear -2 990 68 10000 3.6 260 07:57 06.04.2022
2189 Clouds -3 990 72 10000 4.12 260 05:23 06.04.2022
2190 Clouds -2 989 69 10000 4.63 270 23:58 05.04.2022
2191 Clouds -3 989 78 10000 3.6 250 23:33 05.04.2022
2192 Clear -2 989 77 10000 4.63 270 21:48 05.04.2022
2193 Clear -2 989 77 10000 4.63 270 21:48 05.04.2022
2194 Clear -2 989 77 10000 4.63 270 21:48 05.04.2022
2195 Clouds -2 988 85 10000 4.12 260 20:58 05.04.2022
2196 Clouds -2 988 87 10000 4.12 270 20:23 05.04.2022
2197 Clouds 0 988 66 10000 7.72 300 18:28 05.04.2022
2198 Clouds 1 988 57 10000 8.23 290 17:20 05.04.2022
2199 Clouds 2 988 58 10000 8.75 280 16:42 05.04.2022
2200 Clouds 1 988 65 10000 8.23 280 15:50 05.04.2022
2201 Clouds 1 988 68 10000 6.69 280 15:30 05.04.2022
2202 Clouds 1 987 65 10000 9.26 290 13:46 05.04.2022
2203 Clouds 0 986 67 10000 8.23 300 12:29 05.04.2022
2204 Clouds -1 986 70 10000 8.23 310 11:43 05.04.2022
2205 Clouds -1 985 72 10000 6.69 310 11:24 05.04.2022
2206 Clouds -3 984 82 10000 8.75 310 09:31 05.04.2022
2207 Clouds -2 983 83 10000 8.75 310 08:27 05.04.2022
2208 Clouds -1 978 92 4400 7.2 330 03:38 05.04.2022
2209 Snow 0 976 92 2000 6.17 350 23:42 04.04.2022
2210 Snow 0 975 94 2500 5.14 360 22:37 04.04.2022
2211 Snow 1 976 92 4000 2.57 360 21:48 04.04.2022
2212 Snow 0 976 92 5000 2.57 20 21:19 04.04.2022
2213 Rain 1 976 94 6000 2.06 50 20:47 04.04.2022
2214 Rain 2 978 91 8000 2.06 120 19:28 04.04.2022
2215 Rain 2 979 91 8000 2.57 150 18:43 04.04.2022
2216 Rain 3 980 91 9000 3.6 160 17:20 04.04.2022
2217 Rain 3 982 90 9000 4.63 170 16:31 04.04.2022
2218 Rain 4 982 91 9000 3.09 170 15:34 04.04.2022
2219 Rain 4 984 90 9000 2.57 190 14:46 04.04.2022
2220 Drizzle 4 984 89 10000 2.57 190 14:28 04.04.2022
2221 Drizzle 4 986 90 10000 3.09 170 12:59 04.04.2022
2222 Rain 4 988 88 10000 3.09 210 11:29 04.04.2022
2223 Rain 4 989 86 10000 3.09 210 10:29 04.04.2022
2224 Rain 1 992 84 5000 2.06 180 06:58 04.04.2022
2225 Clouds 2 996 68 10000 2.57 210 03:18 04.04.2022
2226 Clouds 0 999 61 10000 2.57 220 23:47 03.04.2022
2227 Clear 0 1000 58 10000 1.54 190 22:24 03.04.2022
2228 Clear 2 1001 54 10000 2.06 230 21:32 03.04.2022
2229 Clear 3 1001 50 10000 2.57 240 20:35 03.04.2022
2230 Clear 5 1002 45 10000 5.14 250 19:29 03.04.2022
2231 Clear 7 1003 42 10000 5.14 260 18:26 03.04.2022
2232 Clear 7 1003 42 10000 4.12 240 17:41 03.04.2022
2233 Clear 7 1004 41 10000 5.14 240 16:50 03.04.2022
2234 Clear 7 1005 41 10000 5.14 270 15:59 03.04.2022
2235 Clear 7 1006 43 10000 6.17 250 14:27 03.04.2022
2236 Clear 7 1006 45 10000 4.63 260 13:38 03.04.2022
2237 Clear 5 1008 53 10000 5.66 250 12:19 03.04.2022
2238 Clouds 3 1009 63 10000 3.6 280 10:32 03.04.2022
2239 Clouds 2 1009 67 10000 2.06 260 09:23 03.04.2022
2240 Clouds -3 1010 78 10000 1.03 220 07:24 03.04.2022
2241 Clouds -3 1011 72 10000 1.03 250 03:46 03.04.2022
2242 Clouds -1 1012 61 10000 1.54 280 00:36 03.04.2022
2243 Clouds -1 1012 62 10000 2.06 230 22:54 02.04.2022
2244 Clouds -1 1013 60 10000 2.06 230 21:57 02.04.2022
2245 Clouds -1 1013 58 10000 2.06 230 21:33 02.04.2022
2246 Clear 0 1013 56 10000 2.06 230 20:51 02.04.2022
2247 Clouds 4 1013 46 10000 4.12 270 18:57 02.04.2022
2248 Clouds 4 1013 45 10000 4.12 270 18:20 02.04.2022
2249 Clouds 4 1013 45 10000 4.12 270 18:20 02.04.2022
2250 Clouds 4 1013 46 10000 4.63 290 17:47 02.04.2022
2251 Clouds 4 1015 46 10000 3.18 284 16:22 02.04.2022
2252 Clear 4 1015 44 10000 4.63 270 15:21 02.04.2022
2253 Clouds 4 1016 48 10000 3.29 281 14:43 02.04.2022
2254 Clear 3 1016 52 10000 3.6 270 13:34 02.04.2022
2255 Clouds 2 1017 54 10000 2.57 240 12:37 02.04.2022
2256 Clear 1 1018 66 10000 1.03 0 10:56 02.04.2022
2257 Clear -2 1018 79 10000 0 0 08:49 02.04.2022
2258 Clear -9 1018 92 10000 0 0 06:49 02.04.2022
2259 Clear -6 1018 89 10000 0.51 280 03:39 02.04.2022
2260 Clear -5 1019 82 10000 1.03 290 23:55 01.04.2022
2261 Clear -4 1019 81 10000 1.03 290 23:18 01.04.2022
2262 Clear -2 1019 72 10000 2.57 70 21:33 01.04.2022
2263 Clouds -1 1018 69 10000 3.6 60 20:51 01.04.2022
2264 Clouds -1 1018 74 10000 2.06 80 19:57 01.04.2022
2265 Clouds 0 1018 78 10000 0.51 0 19:31 01.04.2022
2266 Clouds 0 1018 75 10000 2.12 90 18:45 01.04.2022
2267 Clouds 1 1018 73 10000 3.6 320 17:46 01.04.2022
2268 Clouds 1 1018 67 10000 3.09 60 16:48 01.04.2022
2269 Clouds 2 1018 64 10000 1.54 50 15:36 01.04.2022
2270 Clouds 2 1018 62 10000 2.06 110 14:20 01.04.2022
2271 Clouds 2 1018 70 10000 1.54 50 13:33 01.04.2022
2272 Clouds 1 1018 75 10000 4.63 90 12:32 01.04.2022
2273 Clouds 1 1018 75 10000 4.63 90 12:32 01.04.2022
2274 Clouds 1 1018 71 10000 3.09 70 11:40 01.04.2022
2275 Clouds 1 1017 78 10000 2.57 70 10:19 01.04.2022
2276 Clouds -2 1017 85 10000 0 0 08:47 01.04.2022
2277 Clouds -5 1016 91 10000 1.54 340 06:54 01.04.2022
2278 Clouds -4 1016 86 10000 1.03 0 04:50 01.04.2022
2279 Clouds -5 1016 88 10000 1.03 300 04:31 01.04.2022
2280 Clouds -5 1015 90 10000 0 0 01:56 01.04.2022
2281 Clouds -3 1014 79 10000 1.03 270 22:58 31.03.2022
2282 Clear -3 1014 77 10000 1.03 0 21:51 31.03.2022
2283 Clouds -2 1014 76 10000 1.54 140 21:32 31.03.2022
2284 Clouds -1 1013 72 10000 1.54 110 20:29 31.03.2022
2285 Clouds 0 1013 69 10000 2.57 60 19:49 31.03.2022
2286 Clouds 1 1012 65 10000 1.54 110 18:46 31.03.2022
2287 Clouds 2 1010 57 10000 3.09 160 17:50 31.03.2022
2288 Clouds 2 1010 56 10000 4.12 170 16:38 31.03.2022
2289 Clouds 3 1010 49 10000 3.09 70 15:45 31.03.2022
2290 Clouds 3 1010 45 10000 2.57 30 15:19 31.03.2022
2291 Clouds 3 1009 43 10000 3.6 20 14:36 31.03.2022
2292 Clouds 3 1009 44 10000 2.57 330 12:19 31.03.2022
2293 Clouds 2 1009 48 10000 1.54 0 11:22 31.03.2022
2294 Clear 1 1009 64 10000 0 0 09:45 31.03.2022
2295 Clear 1 1009 64 10000 0 0 09:45 31.03.2022
2296 Clear -3 1008 85 10000 0 0 08:20 31.03.2022
2297 Clouds -7 1009 89 10000 0 0 05:42 31.03.2022
2298 Clouds -5 1008 80 10000 0 0 23:58 30.03.2022
2299 Clouds -4 1008 72 10000 0 0 22:43 30.03.2022
2300 Clear -3 1006 68 10000 0 0 21:39 30.03.2022
2301 Clear -2 1006 64 10000 1.54 260 20:54 30.03.2022
2302 Clear -1 1006 61 10000 3.09 310 20:20 30.03.2022
2303 Clear 0 1006 54 10000 2.06 300 19:28 30.03.2022
2304 Clouds 1 1005 50 10000 4.63 330 18:19 30.03.2022
2305 Clear 2 1005 46 10000 3.09 340 17:45 30.03.2022
2306 Clear 2 1005 43 10000 4.63 320 16:56 30.03.2022
2307 Clear 2 1005 42 10000 4.63 330 16:32 30.03.2022
2308 Clear 2 1005 39 10000 6.69 290 14:59 30.03.2022
2309 Clear 2 1005 46 10000 4.63 290 13:42 30.03.2022
2310 Clear 1 1005 49 10000 7.2 280 12:47 30.03.2022
2311 Clear -1 1005 53 10000 3.6 310 10:58 30.03.2022
2312 Clear -2 1005 54 10000 4.12 290 09:59 30.03.2022
2313 Clear -3 1005 56 10000 4.63 290 09:23 30.03.2022
2314 Clear -5 1005 68 10000 3.09 260 07:32 30.03.2022
2315 Clear -6 1006 69 10000 3.09 260 05:40 30.03.2022
2316 Clear -7 1008 79 10000 1.03 0 03:39 30.03.2022
2317 Clear -8 1008 79 10000 0 0 00:31 30.03.2022
2318 Clear -6 1008 68 10000 1.03 270 22:20 29.03.2022
2319 Clear -5 1007 68 10000 2.06 350 21:44 29.03.2022
2320 Clouds -4 1007 63 10000 2.06 40 20:52 29.03.2022
2321 Clear -2 1007 58 10000 3.09 340 19:53 29.03.2022
2322 Clear -1 1006 49 10000 3.6 340 18:55 29.03.2022
2323 Clear -1 1006 44 10000 3.6 350 18:19 29.03.2022
2324 Clouds -1 1006 47 10000 5.14 340 17:21 29.03.2022
2325 Clouds 0 1006 50 10000 5.14 320 16:56 29.03.2022
2326 Clouds 0 1006 53 10000 5.66 320 15:57 29.03.2022
2327 Clouds -1 1006 66 10000 5.14 340 14:48 29.03.2022
2328 Clouds -1 1006 72 10000 4.12 320 13:53 29.03.2022
2329 Clouds -1 1006 71 3300 5.66 350 12:47 29.03.2022
2330 Clouds 0 1006 64 10000 3.6 340 11:31 29.03.2022
2331 Clouds -1 1006 74 10000 3.6 360 10:27 29.03.2022
2332 Clouds -2 1005 73 10000 3.6 340 09:23 29.03.2022
2333 Clouds -2 1004 78 10000 3.6 350 06:55 29.03.2022
2334 Clouds -2 1004 80 10000 2.57 310 03:49 29.03.2022
2335 Clouds 0 1003 72 10000 4.12 350 23:54 28.03.2022
2336 Clouds 1 1003 69 10000 4.63 340 23:19 28.03.2022
2337 Clouds 2 1003 66 10000 5.66 340 22:47 28.03.2022
2338 Clear 2 1002 63 10000 5.14 340 22:22 28.03.2022
2339 Clear 6 1002 33 10000 8.23 310 20:53 28.03.2022
2340 Clear 7 1002 33 10000 7.2 320 19:59 28.03.2022
2341 Clear 7 1002 33 10000 7.2 320 19:40 28.03.2022
2342 Clear 7 999 35 10000 11.32 310 18:52 28.03.2022
2343 Clear 8 1000 39 10000 9.26 310 18:19 28.03.2022
2344 Clouds 9 998 41 10000 4.92 293 17:30 28.03.2022
2345 Clear 11 997 33 10000 12.35 300 15:54 28.03.2022
2346 Clear 11 997 33 10000 10.8 290 14:27 28.03.2022
2347 Clear 11 998 37 10000 12.86 300 13:35 28.03.2022
2348 Clear 9 998 59 10000 9.26 280 11:57 28.03.2022
2349 Clear 8 998 60 10000 8.75 280 10:49 28.03.2022
2350 Clear 8 999 59 10000 8.75 280 09:38 28.03.2022
2351 Clear 8 1001 60 10000 8.75 270 08:49 28.03.2022
2352 Clear 8 1001 61 10000 8.75 270 08:21 28.03.2022
2353 Clear 7 1002 63 10000 7.72 270 07:27 28.03.2022
2354 Clouds 8 1006 63 10000 7.2 280 02:48 28.03.2022
2355 Clouds 8 1010 65 10000 6.17 260 22:59 27.03.2022
2356 Clear 8 1011 64 10000 6.69 260 22:22 27.03.2022
2357 Clear 8 1011 61 10000 6.69 260 21:40 27.03.2022
2358 Clear 7 1012 64 10000 6.17 260 20:53 27.03.2022
2359 Clear 7 1013 60 10000 4.12 240 19:44 27.03.2022
2360 Clouds 7 1015 60 10000 5.41 259 18:47 27.03.2022
2361 Clouds 7 1015 60 10000 5.4 259 18:47 27.03.2022
2362 Clear 7 1015 56 10000 4.12 250 18:25 27.03.2022
2363 Clear 7 1016 54 10000 5.66 250 17:37 27.03.2022
2364 Clear 7 1019 48 10000 5.66 240 15:57 27.03.2022
2365 Clear 8 1021 51 10000 4.12 210 14:22 27.03.2022
2366 Clear 7 1022 50 10000 4.12 190 13:42 27.03.2022
2367 Clear 5 1025 63 10000 3.09 190 11:46 27.03.2022
2368 Clouds 3 1026 69 10000 3.09 200 10:23 27.03.2022
2369 Clouds 0 1028 69 10000 1.03 0 07:55 27.03.2022
2370 Clouds -2 1029 72 10000 1.03 190 05:19 27.03.2022
2371 Clouds -2 1030 70 10000 1.03 260 00:37 27.03.2022
2372 Clouds -2 1030 65 10000 1.03 250 22:58 26.03.2022
2373 Clouds -2 1030 63 10000 0.51 0 22:27 26.03.2022
2374 Clouds -1 1029 59 10000 2.06 20 21:31 26.03.2022
2375 Clouds 1 1029 55 10000 3.09 10 19:45 26.03.2022
2376 Clouds 3 1028 54 10000 4.63 350 18:56 26.03.2022
2377 Clouds 4 1027 51 10000 4.63 20 17:44 26.03.2022
2378 Clouds 4 1027 52 10000 4.63 20 17:44 26.03.2022
2379 Clear 6 1025 46 10000 6.69 350 16:47 26.03.2022
2380 Clear 7 1024 41 10000 7.72 330 15:52 26.03.2022
2381 Clear 7 1023 39 10000 9.77 330 14:21 26.03.2022
2382 Clear 7 1022 38 10000 9.77 320 13:51 26.03.2022
2383 Clear 7 1021 37 10000 10.8 330 12:36 26.03.2022
2384 Clear 7 1020 37 10000 11.32 320 11:18 26.03.2022
2385 Clear 6 1018 44 10000 12.35 310 09:22 26.03.2022
2386 Clear 5 1016 55 10000 9.77 300 07:36 26.03.2022
2387 Clouds 4 1015 56 10000 8.75 290 05:52 26.03.2022
2388 Clouds 5 1013 47 10000 9.26 310 03:32 26.03.2022
2389 Clouds 8 1010 68 10000 7.2 280 22:57 25.03.2022
2390 Clear 9 1011 65 10000 5.66 270 20:58 25.03.2022
2391 Clear 10 1011 64 10000 5.66 270 20:37 25.03.2022
2392 Clear 10 1012 63 10000 6.17 270 19:21 25.03.2022
2393 Clear 10 1012 65 10000 6.69 260 18:37 25.03.2022
2394 Clear 10 1012 63 10000 5.66 260 17:34 25.03.2022
2395 Clear 10 1012 63 10000 5.66 260 17:34 25.03.2022
2396 Clear 11 1013 61 10000 5.66 260 16:38 25.03.2022
2397 Clear 11 1014 60 10000 5.14 260 15:46 25.03.2022
2398 Clear 12 1015 57 10000 6.69 270 13:32 25.03.2022
2399 Clear 11 1015 61 10000 5.66 260 11:49 25.03.2022
2400 Clear 7 1017 74 10000 3.6 260 09:46 25.03.2022
2401 Clear 6 1017 79 10000 2.57 260 08:59 25.03.2022
2402 Clear 5 1017 85 10000 3.09 250 07:47 25.03.2022
2403 Clear 4 1018 87 10000 3.6 240 07:20 25.03.2022
2404 Clouds 3 1019 88 10000 1.54 240 03:58 25.03.2022
2405 Clouds 5 1021 77 10000 1.54 250 23:54 24.03.2022
2406 Clear 7 1021 72 10000 2.06 260 22:24 24.03.2022
2407 Clear 8 1021 69 10000 3.09 250 21:29 24.03.2022
2408 Clear 9 1021 63 10000 2.06 250 19:50 24.03.2022
2409 Clear 10 1021 62 10000 2.57 270 18:46 24.03.2022
2410 Clear 12 1021 58 10000 2.57 270 17:38 24.03.2022
2411 Clear 13 1021 54 10000 4.12 280 16:39 24.03.2022
2412 Clear 12 1022 54 10000 4.63 260 14:58 24.03.2022
2413 Clear 12 1022 54 10000 4.63 260 14:39 24.03.2022
2414 Clear 12 1022 54 10000 4.12 260 13:36 24.03.2022
2415 Clear 11 1023 55 10000 4.63 270 12:35 24.03.2022
2416 Clear 8 1023 61 10000 4.12 250 11:31 24.03.2022
2417 Clear 6 1023 64 10000 5.14 260 09:34 24.03.2022
2418 Clear 4 1023 70 10000 3.6 260 08:39 24.03.2022
2419 Clear 1 1025 81 10000 3.6 264 05:45 24.03.2022
2420 Clear 3 1025 73 10000 1.54 240 00:47 24.03.2022
2421 Clear 4 1026 68 10000 1.54 260 22:23 23.03.2022
2422 Clear 5 1026 64 10000 2.57 260 21:24 23.03.2022
2423 Clear 5 1026 62 10000 2.57 250 20:45 23.03.2022
2424 Clear 6 1026 57 10000 2.06 240 19:33 23.03.2022
2425 Clear 9 1026 50 10000 2.57 280 18:19 23.03.2022
2426 Clear 10 1026 47 10000 5.66 290 17:26 23.03.2022
2427 Clear 11 1026 46 10000 5.66 300 16:18 23.03.2022
2428 Clear 10 1027 47 10000 6.69 290 14:49 23.03.2022
2429 Clear 9 1026 48 10000 6.69 290 13:34 23.03.2022
2430 Clear 8 1027 61 10000 7.2 290 11:38 23.03.2022
2431 Clear 4 1027 76 10000 5.66 280 08:49 23.03.2022
2432 Clouds 1 1027 83 10000 4.63 270 06:26 23.03.2022
2433 Clouds 2 1027 81 10000 3.6 270 03:52 23.03.2022
2434 Clouds 3 1028 75 10000 3.6 250 00:28 23.03.2022
2435 Clear 4 1028 67 10000 3.09 250 21:56 22.03.2022
2436 Clear 5 1028 66 10000 3.6 260 21:26 22.03.2022
2437 Clouds 5 1028 63 10000 0.45 270 20:30 22.03.2022
2438 Clear 6 1028 59 10000 2.57 250 19:27 22.03.2022
2439 Clear 7 1028 57 10000 3.09 260 18:54 22.03.2022
2440 Clear 9 1030 49 10000 4.63 280 17:44 22.03.2022
2441 Clear 11 1028 46 10000 3.6 260 17:18 22.03.2022
2442 Clear 11 1029 42 10000 3.6 210 15:49 22.03.2022
2443 Clear 12 1029 42 10000 3.09 190 15:21 22.03.2022
2444 Clear 11 1029 44 10000 3.6 210 14:45 22.03.2022
2445 Clear 11 1030 45 10000 3.6 190 14:24 22.03.2022
2446 Clear 10 1031 46 10000 3.6 190 12:41 22.03.2022
2447 Clear 9 1032 48 10000 3.09 170 11:26 22.03.2022
2448 Clear 6 1033 56 10000 2.57 170 09:55 22.03.2022
2449 Clear 1 1035 76 10000 1.54 140 07:48 22.03.2022
2450 Clear -2 1036 84 10000 1.03 150 05:19 22.03.2022
2451 Clear -1 1036 82 10000 1.03 130 03:38 22.03.2022
2452 Clear 1 1037 74 10000 1.54 210 23:40 21.03.2022
2453 Clear 2 1036 67 10000 2.06 200 21:51 21.03.2022
2454 Clear 2 1036 67 10000 2.06 200 21:51 21.03.2022
2455 Clear 3 1036 60 10000 2.57 190 20:45 21.03.2022
2456 Clear 3 1036 58 10000 2.57 180 20:26 21.03.2022
2457 Clear 4 1036 56 10000 2.06 160 19:53 21.03.2022
2458 Clear 5 1036 54 10000 2.06 160 19:23 21.03.2022
2459 Clear 8 1036 44 10000 4.12 190 17:45 21.03.2022
2460 Clear 9 1037 41 10000 4.12 200 17:18 21.03.2022
2461 Clear 10 1038 41 10000 5.14 200 16:37 21.03.2022
2462 Clear 11 1037 40 10000 5.14 190 15:46 21.03.2022
2463 Clear 11 1038 42 10000 3.6 190 14:48 21.03.2022
2464 Clear 11 1038 43 10000 2.57 210 13:43 21.03.2022
2465 Clear 10 1039 43 10000 2.57 200 12:33 21.03.2022
2466 Clear 9 1039 46 10000 3.09 260 11:44 21.03.2022
2467 Clear 7 1040 52 10000 3.09 190 10:20 21.03.2022
2468 Clear 3 1040 76 10000 2.57 220 08:26 21.03.2022
2469 Clear 0 1040 86 10000 1.54 220 06:31 21.03.2022
2470 Clear 0 1040 84 10000 1.03 200 02:40 21.03.2022
2471 Clear 3 1041 73 10000 1.54 210 23:40 20.03.2022
2472 Clear 3 1041 65 10000 1.03 0 22:43 20.03.2022
2473 Clear 3 1041 59 10000 1.54 170 21:50 20.03.2022
2474 Clear 4 1041 55 10000 1.54 160 21:20 20.03.2022
2475 Clear 4 1041 53 10000 1.03 0 20:43 20.03.2022
2476 Clear 6 1041 53 10000 1.54 190 19:57 20.03.2022
2477 Clear 7 1041 52 10000 2.06 190 19:26 20.03.2022
2478 Clear 10 1041 48 10000 3.09 210 17:52 20.03.2022
2479 Clear 11 1043 47 10000 3.6 200 17:30 20.03.2022
2480 Clear 13 1043 41 10000 3.6 210 16:52 20.03.2022
2481 Clear 14 1044 44 10000 2.06 190 15:28 20.03.2022
2482 Clear 13 1044 45 10000 2.06 250 14:23 20.03.2022
2483 Clear 12 1044 48 10000 1.54 240 12:29 20.03.2022
2484 Clouds 10 1044 53 10000 3.09 270 10:55 20.03.2022
2485 Clouds 6 1044 61 10000 0 0 08:59 20.03.2022
2486 Clouds 0 1046 80 10000 0 0 07:26 20.03.2022
2487 Clouds 0 1045 79 10000 0 0 04:23 20.03.2022
2488 Clouds 1 1046 73 10000 0 0 01:29 20.03.2022
2489 Clear 2 1046 71 10000 0 0 00:39 20.03.2022
2490 Clouds 2 1046 69 10000 0 0 23:19 19.03.2022
2491 Clouds 3 1045 67 10000 1.03 0 21:27 19.03.2022
2492 Clouds 4 1045 64 10000 1.54 230 20:39 19.03.2022
2493 Clear 7 1044 53 10000 2.06 260 18:58 19.03.2022
2494 Clear 8 1044 49 10000 2.06 250 18:23 19.03.2022
2495 Clear 10 1045 45 10000 3.09 260 17:35 19.03.2022
2496 Clear 12 1044 42 10000 5.14 270 15:44 19.03.2022
2497 Clear 11 1045 42 10000 5.14 250 14:44 19.03.2022
2498 Clear 11 1046 45 10000 5.14 250 13:19 19.03.2022
2499 Clear 10 1046 46 10000 5.14 240 12:40 19.03.2022
2500 Clear 10 1047 48 10000 3.6 230 11:54 19.03.2022
2501 Clear 10 1047 48 10000 3.6 230 11:54 19.03.2022
2502 Clear 8 1047 63 10000 2.57 230 10:47 19.03.2022
2503 Clear -3 1048 93 10000 0 0 06:51 19.03.2022
2504 Clear -1 1047 89 10000 0 0 03:24 19.03.2022
2505 Clear -1 1046 86 10000 0 0 02:29 19.03.2022
2506 Clouds 1 1044 81 10000 2.06 300 23:45 18.03.2022
2507 Clear 3 1043 79 10000 3.09 300 22:28 18.03.2022
2508 Clear 4 1042 77 10000 3.09 290 21:45 18.03.2022
2509 Clouds 5 1040 78 10000 3.09 300 19:52 18.03.2022
2510 Clouds 5 1040 78 10000 3.09 300 19:52 18.03.2022
2511 Clouds 5 1039 77 10000 4.12 290 19:21 18.03.2022
2512 Clouds 6 1037 75 10000 5.66 280 17:52 18.03.2022
2513 Clouds 6 1036 78 10000 5.14 300 16:49 18.03.2022
2514 Clouds 7 1035 81 10000 4.63 250 15:32 18.03.2022
2515 Drizzle 7 1035 82 9000 4.63 240 14:23 18.03.2022
2516 Clouds 8 1034 74 10000 6.17 240 12:36 18.03.2022
2517 Clouds 7 1034 77 10000 5.14 250 10:53 18.03.2022
2518 Clouds 7 1033 75 10000 6.17 240 09:30 18.03.2022
2519 Clear 6 1033 80 10000 5.66 240 08:42 18.03.2022
2520 Clouds 5 1031 85 10000 3.6 220 06:37 18.03.2022
2521 Clouds 5 1030 79 10000 4.63 180 03:19 18.03.2022
2522 Clouds 5 1031 68 10000 4.63 150 00:39 18.03.2022
2523 Clouds 4 1031 67 10000 5.14 150 23:38 17.03.2022
2524 Clear 4 1032 71 10000 5.66 150 22:25 17.03.2022
2525 Clear 3 1032 72 10000 5.66 150 21:48 17.03.2022
2526 Clear 3 1032 72 10000 5.14 160 21:26 17.03.2022
2527 Clear 3 1032 73 10000 5.14 150 20:45 17.03.2022
2528 Clear 3 1032 73 10000 5.66 140 19:50 17.03.2022
2529 Clear 3 1032 72 10000 4.63 130 19:29 17.03.2022
2530 Clear 4 1033 72 10000 4.63 140 18:46 17.03.2022
2531 Clear 5 1033 71 10000 5.14 140 17:18 17.03.2022
2532 Clear 6 1033 70 10000 5.66 130 15:44 17.03.2022
2533 Clear 6 1034 70 10000 6.17 130 15:26 17.03.2022
2534 Clear 7 1034 69 10000 6.17 140 14:38 17.03.2022
2535 Clear 8 1034 65 10000 5.66 140 12:55 17.03.2022
2536 Clear 7 1034 67 10000 4.63 130 12:25 17.03.2022
2537 Clear 5 1035 76 10000 4.12 120 11:29 17.03.2022
2538 Clear 4 1035 80 10000 3.09 120 10:32 17.03.2022
2539 Clouds -1 1035 100 7000 2.57 130 08:40 17.03.2022
2540 Mist -2 1035 93 3000 1.54 170 07:36 17.03.2022
2541 Fog -3 1034 93 800 1.54 130 05:47 17.03.2022
2542 Clear -2 1034 91 9000 1.54 160 01:37 17.03.2022
2543 Clear -1 1034 92 9000 1.54 140 23:56 16.03.2022
2544 Clear -1 1034 87 10000 1.54 140 22:50 16.03.2022
2545 Clear -1 1034 87 10000 1.03 150 22:32 16.03.2022
2546 Clear 1 1033 84 10000 1.54 0 21:42 16.03.2022
2547 Clear 2 1033 80 10000 1.54 0 20:26 16.03.2022
2548 Clear 3 1032 75 10000 1.54 150 19:21 16.03.2022
2549 Clear 4 1032 73 10000 1.03 0 18:38 16.03.2022
2550 Clear 6 1032 69 10000 1.03 0 17:43 16.03.2022
2551 Clear 7 1032 67 10000 1.54 230 17:20 16.03.2022
2552 Clear 8 1031 65 10000 1.54 0 15:55 16.03.2022
2553 Clear 8 1031 67 10000 2.57 250 14:28 16.03.2022
2554 Clear 7 1031 69 10000 2.06 260 13:32 16.03.2022
2555 Clear 6 1031 73 10000 2.06 240 11:57 16.03.2022
2556 Clear 6 1030 75 10000 1.54 0 11:21 16.03.2022
2557 Clear 4 1030 81 10000 0.51 0 10:23 16.03.2022
2558 Clear 3 1029 86 7000 0 0 08:53 16.03.2022
2559 Mist -3 1028 94 4400 0.51 290 06:27 16.03.2022
2560 Mist -1 1027 92 5000 0.51 150 01:56 16.03.2022
2561 Clear 0 1026 87 8000 1.54 100 22:41 15.03.2022
2562 Clear 0 1026 86 8000 2.06 120 22:18 15.03.2022
2563 Clear 1 1026 83 10000 2.57 130 20:33 15.03.2022
2564 Clear 3 1026 74 10000 4.12 130 18:58 15.03.2022
2565 Clear 6 1026 61 10000 3.6 150 17:24 15.03.2022
2566 Clear 8 1026 52 10000 3.6 120 16:32 15.03.2022
2567 Clear 8 1026 50 10000 4.12 130 15:21 15.03.2022
2568 Clear 9 1026 51 10000 4.12 130 14:45 15.03.2022
2569 Clear 8 1026 54 10000 3.09 140 13:46 15.03.2022
2570 Clear 7 1027 59 10000 4.63 160 12:24 15.03.2022
2571 Clear 6 1028 71 10000 5.14 140 11:31 15.03.2022
2572 Clear 4 1028 80 9000 3.6 140 09:46 15.03.2022
2573 Clear 2 1028 88 8000 2.57 130 08:42 15.03.2022
2574 Clear 0 1028 96 7000 1.03 0 07:52 15.03.2022
2575 Clear -1 1028 96 7000 1.03 0 07:34 15.03.2022
2576 Mist -3 1029 94 3800 0 0 04:20 15.03.2022
2577 Clear -1 1030 88 10000 1.03 130 23:57 14.03.2022
2578 Clear 0 1030 86 10000 1.54 130 23:24 14.03.2022
2579 Clear 0 1030 79 10000 2.06 140 22:30 14.03.2022
2580 Clear 0 1030 75 10000 1.03 130 21:30 14.03.2022
2581 Clear 1 1030 73 10000 1.54 150 20:48 14.03.2022
2582 Clear 2 1030 70 10000 1.54 150 20:20 14.03.2022
2583 Clear 4 1030 62 10000 2.06 150 18:55 14.03.2022
2584 Clear 6 1030 54 10000 2.57 200 17:54 14.03.2022
2585 Clear 7 1030 54 10000 3.09 220 17:23 14.03.2022
2586 Clear 9 1030 46 10000 3.09 200 15:56 14.03.2022
2587 Clear 10 1030 46 10000 4.12 200 14:40 14.03.2022
2588 Clear 9 1031 44 10000 3.6 170 12:29 14.03.2022
2589 Clear 7 1031 46 10000 2.57 130 10:54 14.03.2022
2590 Clear 4 1031 53 10000 1.54 120 09:52 14.03.2022
2591 Clear 3 1031 53 10000 1.03 0 09:22 14.03.2022
2592 Clear 2 1031 68 10000 0.51 0 08:55 14.03.2022
2593 Clear -2 1031 83 10000 0 0 07:32 14.03.2022
2594 Clouds -3 1031 84 10000 0 0 05:45 14.03.2022
2595 Clouds -3 1030 77 10000 0 0 01:55 14.03.2022
2596 Clouds -2 1030 74 10000 1.03 120 01:28 14.03.2022
2597 Clouds -1 1030 60 10000 1.03 140 22:44 13.03.2022
2598 Clear 0 1030 49 10000 1.54 130 21:31 13.03.2022
2599 Clear 1 1030 44 10000 1.54 130 20:56 13.03.2022
2600 Clear 1 1029 38 10000 1.54 160 20:31 13.03.2022
2601 Clear 2 1029 37 10000 2.06 180 19:49 13.03.2022
2602 Clear 3 1029 35 10000 2.06 160 19:28 13.03.2022
2603 Clear 4 1029 34 10000 2.06 180 18:59 13.03.2022
2604 Clear 4 1029 35 10000 2.06 180 18:35 13.03.2022
2605 Clear 7 1029 31 10000 2.06 180 17:46 13.03.2022
2606 Clear 8 1029 29 10000 2.06 200 17:19 13.03.2022
2607 Clear 10 1029 33 10000 2.57 200 16:30 13.03.2022
2608 Clear 10 1029 33 10000 2.57 170 15:47 13.03.2022
2609 Clear 10 1029 32 10000 3.09 200 14:56 13.03.2022
2610 Clear 10 1029 34 10000 1.54 180 13:45 13.03.2022
2611 Clear 9 1029 40 10000 2.57 240 12:55 13.03.2022
2612 Clouds 8 1029 48 10000 1.03 0 11:53 13.03.2022
2613 Clouds 7 1029 50 10000 1.54 250 11:32 13.03.2022
2614 Clouds 6 1029 58 10000 1.03 0 10:47 13.03.2022
2615 Clouds 5 1029 63 10000 1.54 260 10:24 13.03.2022
2616 Clouds 4 1029 63 10000 0.51 0 09:41 13.03.2022
2617 Clouds 2 1029 75 10000 1.03 0 08:46 13.03.2022
2618 Clouds -2 1028 90 9000 0.51 120 07:42 13.03.2022
2619 Clouds -4 1028 95 7000 0 0 05:41 13.03.2022
2620 Clouds -3 1028 88 10000 1.03 130 02:43 13.03.2022
2621 Clouds -2 1028 78 10000 0 0 23:59 12.03.2022
2622 Clouds -1 1028 67 10000 0 0 22:31 12.03.2022
2623 Clouds 0 1028 58 10000 0.51 0 20:48 12.03.2022
2624 Clouds 2 1028 52 10000 2.06 200 19:48 12.03.2022
2625 Clouds 2 1027 52 10000 1.54 200 19:27 12.03.2022
2626 Clouds 4 1027 44 10000 1.54 210 18:23 12.03.2022
2627 Clear 6 1028 39 10000 1.03 230 17:31 12.03.2022
2628 Clear 8 1028 34 10000 1.54 0 16:24 12.03.2022
2629 Clear 9 1028 34 10000 1.54 0 15:23 12.03.2022
2630 Clear 9 1028 34 10000 2.06 260 14:40 12.03.2022
2631 Clear 7 1027 37 10000 2.57 280 12:56 12.03.2022
2632 Clear 6 1027 40 10000 3.09 250 11:56 12.03.2022
2633 Clear 6 1028 39 10000 3.09 250 11:35 12.03.2022
2634 Clear 5 1028 42 10000 3.09 280 10:58 12.03.2022
2635 Clear 3 1028 54 10000 2.06 250 09:45 12.03.2022
2636 Clear 1 1028 64 10000 0.45 293 08:56 12.03.2022
2637 Clouds -3 1029 85 10000 0 0 07:20 12.03.2022
2638 Clouds -3 1029 87 10000 0 0 02:36 12.03.2022
2639 Clouds -2 1028 84 10000 0 0 23:56 11.03.2022
2640 Clouds -2 1028 84 10000 0 0 23:56 11.03.2022
2641 Clouds -2 1028 86 10000 0.51 190 23:18 11.03.2022
2642 Clear -1 1028 82 10000 1.03 220 21:35 11.03.2022
2643 Clear 0 1028 79 10000 1.03 170 20:55 11.03.2022
2644 Clear 0 1028 79 10000 1.03 170 20:34 11.03.2022
2645 Clear 0 1028 77 10000 1.54 220 19:49 11.03.2022
2646 Clear 1 1028 74 10000 2.57 220 19:22 11.03.2022
2647 Clear 5 1028 60 10000 3.09 200 17:30 11.03.2022
2648 Clouds 6 1028 53 10000 0.89 248 16:27 11.03.2022
2649 Clear 6 1029 47 10000 4.63 250 15:53 11.03.2022
2650 Clear 6 1029 49 10000 4.12 230 14:19 11.03.2022
2651 Clear 5 1030 61 10000 4.63 240 12:44 11.03.2022
2652 Clear 5 1030 67 10000 4.12 240 12:21 11.03.2022
2653 Clear 4 1030 70 10000 4.63 250 11:51 11.03.2022
2654 Clear 1 1031 79 10000 3.09 240 09:50 11.03.2022
2655 Clear 0 1031 82 10000 3.6 240 08:56 11.03.2022
2656 Clear -1 1031 82 10000 3.6 230 08:24 11.03.2022
2657 Clear -2 1031 85 10000 2.57 230 07:45 11.03.2022
2658 Clouds -2 1031 84 10000 3.09 210 05:44 11.03.2022
2659 Clouds -2 1031 83 10000 3.6 220 03:41 11.03.2022
2660 Clouds 0 1031 86 10000 3.6 210 23:36 10.03.2022
2661 Clear 0 1032 87 10000 3.09 200 22:30 10.03.2022
2662 Clear 0 1032 86 10000 3.6 190 21:27 10.03.2022
2663 Clear 0 1032 86 10000 3.09 190 20:55 10.03.2022
2664 Clear 0 1032 84 10000 2.57 190 19:43 10.03.2022
2665 Clear 1 1032 83 10000 2.57 190 18:40 10.03.2022
2666 Clouds 2 1031 78 10000 4.12 190 17:19 10.03.2022
2667 Clouds 3 1032 75 10000 5.14 180 15:50 10.03.2022
2668 Clouds 3 1032 73 10000 5.66 190 14:39 10.03.2022
2669 Clouds 3 1033 75 10000 5.14 180 13:19 10.03.2022
2670 Clouds 3 1033 77 10000 5.14 190 11:57 10.03.2022
2671 Clouds 3 1032 76 10000 3.6 200 10:50 10.03.2022
2672 Clouds 3 1033 80 10000 3.6 180 08:55 10.03.2022
2673 Clouds 2 1033 87 10000 2.57 170 06:58 10.03.2022
2674 Clouds 1 1033 88 10000 2.57 160 04:18 10.03.2022
2675 Clouds 2 1033 85 10000 3.6 160 01:40 10.03.2022
2676 Clouds 2 1031 89 10000 3.09 160 22:46 09.03.2022
2677 Clouds 2 1031 87 10000 4.12 140 21:49 09.03.2022
2678 Clouds 2 1031 88 10000 5.14 140 21:27 09.03.2022
2679 Clouds 2 1030 88 10000 5.66 120 19:43 09.03.2022
2680 Clouds 2 1030 88 10000 4.12 120 18:29 09.03.2022
2681 Clouds 2 1028 88 10000 4.63 110 17:26 09.03.2022
2682 Clouds 2 1028 88 10000 4.63 110 17:26 09.03.2022
2683 Clouds 2 1028 88 10000 4.63 110 17:26 09.03.2022
2684 Clouds 3 1029 86 10000 5.14 130 16:30 09.03.2022
2685 Clear 3 1028 83 10000 4.63 110 14:59 09.03.2022
2686 Clear 5 1028 76 10000 3.6 60 13:53 09.03.2022
2687 Clear 6 1029 72 10000 2.06 80 12:45 09.03.2022
2688 Clear 7 1027 64 10000 1.03 0 11:53 09.03.2022
2689 Clear 6 1027 66 10000 1.03 0 11:35 09.03.2022
2690 Clear 3 1025 76 10000 1.54 290 09:50 09.03.2022
2691 Clear 0 1027 83 10000 0 0 08:49 09.03.2022
2692 Clear -3 1026 90 10000 1.03 270 07:27 09.03.2022
2693 Clear -2 1024 87 10000 0 0 02:42 09.03.2022
2694 Clouds -2 1024 89 10000 0 0 00:28 09.03.2022
2695 Clouds -1 1024 87 10000 1.03 260 22:47 08.03.2022
2696 Clear -1 1023 81 10000 0 0 21:55 08.03.2022
2697 Clear -1 1023 82 10000 0 0 21:22 08.03.2022
2698 Clear 0 1023 80 10000 1.03 290 20:29 08.03.2022
2699 Clear 1 1021 76 10000 2.06 290 19:30 08.03.2022
2700 Clear 3 1021 72 10000 2.06 280 18:41 08.03.2022
2701 Clear 5 1020 64 10000 3.6 280 17:26 08.03.2022
2702 Clear 7 1020 59 10000 3.09 270 15:19 08.03.2022
2703 Clear 7 1020 59 10000 3.09 290 14:18 08.03.2022
2704 Clear 6 1020 64 10000 2.57 260 12:41 08.03.2022
2705 Clear 5 1020 67 10000 3.6 270 11:44 08.03.2022
2706 Clear 4 1020 71 10000 2.57 290 10:41 08.03.2022
2707 Clear 2 1020 75 10000 2.06 260 09:37 08.03.2022
2708 Clear -2 1020 89 10000 1.03 260 06:34 08.03.2022
2709 Clouds -1 1021 87 10000 1.03 250 04:25 08.03.2022
2710 Clouds 2 1019 78 10000 1.03 0 23:36 07.03.2022
2711 Clear 3 1020 76 10000 2.06 260 21:50 07.03.2022
2712 Clear 3 1019 76 10000 0 0 21:31 07.03.2022
2713 Clear 3 1019 75 10000 1.03 260 20:39 07.03.2022
2714 Clouds 4 1019 75 10000 2.57 240 19:55 07.03.2022
2715 Clouds 4 1020 74 10000 1.54 240 19:29 07.03.2022
2716 Clouds 4 1019 71 10000 1.03 0 18:40 07.03.2022
2717 Clouds 5 1019 68 10000 1.54 240 17:41 07.03.2022
2718 Clouds 6 1019 66 10000 4.12 280 16:55 07.03.2022
2719 Clouds 6 1020 66 10000 4.63 290 15:27 07.03.2022
2720 Clear 6 1020 63 10000 2.06 280 12:54 07.03.2022
2721 Clear 6 1020 62 10000 3.6 330 12:21 07.03.2022
2722 Clear 4 1020 68 10000 3.09 340 10:36 07.03.2022
2723 Clear 1 1020 80 10000 3.09 310 08:39 07.03.2022
2724 Clouds 0 1018 78 10000 0.45 270 03:41 07.03.2022
2725 Clear 1 1017 72 10000 0.89 270 00:22 07.03.2022
2726 Clear 1 1017 70 10000 0.89 270 23:29 06.03.2022
2727 Clear 2 1017 67 10000 2.57 260 22:37 06.03.2022
2728 Clear 2 1017 65 10000 3.09 260 21:45 06.03.2022
2729 Clear 2 1016 66 10000 0.89 248 20:30 06.03.2022
2730 Clear 3 1016 64 10000 0.45 248 19:51 06.03.2022
2731 Clear 3 1017 61 10000 3.09 260 18:51 06.03.2022
2732 Clouds 4 1016 60 10000 0.45 270 17:57 06.03.2022
2733 Clear 5 1017 57 10000 5.14 290 17:21 06.03.2022
2734 Clear 5 1017 54 10000 7.2 290 16:41 06.03.2022
2735 Clear 6 1018 53 10000 7.2 300 15:45 06.03.2022
2736 Clear 6 1018 54 10000 5.14 290 14:49 06.03.2022
2737 Clear 5 1018 55 10000 7.2 290 14:30 06.03.2022
2738 Clear 5 1018 59 10000 5.66 270 12:44 06.03.2022
2739 Clear 4 1019 64 10000 4.63 270 11:56 06.03.2022
2740 Clear 2 1019 69 10000 4.63 280 10:52 06.03.2022
2741 Clear 1 1019 74 10000 4.12 300 09:43 06.03.2022
2742 Clear -1 1019 80 10000 2.57 280 08:29 06.03.2022
2743 Clear -2 1019 83 10000 2.57 280 07:34 06.03.2022
2744 Clouds -1 1019 85 10000 2.06 270 04:46 06.03.2022
2745 Clouds -1 1019 86 10000 2.57 270 00:44 06.03.2022
2746 Clouds -1 1019 86 10000 1.54 280 00:25 06.03.2022
2747 Clouds -1 1019 85 10000 1.54 260 23:20 05.03.2022
2748 Clouds -1 1019 82 10000 2.06 250 22:43 05.03.2022
2749 Clouds 0 1019 79 10000 2.57 240 21:45 05.03.2022
2750 Clouds 0 1020 77 10000 2.06 240 21:19 05.03.2022
2751 Clouds 1 1020 68 10000 3.09 240 19:24 05.03.2022
2752 Clouds 1 1020 65 10000 3.6 250 18:51 05.03.2022
2753 Clouds 2 1021 60 10000 2.06 240 17:43 05.03.2022
2754 Clear 4 1021 53 10000 5.66 270 16:20 05.03.2022
2755 Clear 4 1021 53 10000 5.14 240 15:30 05.03.2022
2756 Clear 4 1021 54 10000 5.66 250 14:44 05.03.2022
2757 Clear 4 1021 55 10000 6.17 260 14:24 05.03.2022
2758 Clear 4 1022 56 10000 6.17 240 12:59 05.03.2022
2759 Clear 3 1023 62 10000 3.6 220 11:43 05.03.2022
2760 Clear 2 1023 67 10000 3.6 240 11:18 05.03.2022
2761 Clear 0 1024 77 10000 3.09 240 09:58 05.03.2022
2762 Clear -2 1023 80 10000 2.06 220 08:49 05.03.2022
2763 Clouds -4 1023 87 10000 2.57 220 07:37 05.03.2022
2764 Clouds -5 1024 86 10000 1.03 0 05:42 05.03.2022
2765 Clouds -5 1027 80 10000 1.03 200 01:30 05.03.2022
2766 Clear -4 1026 79 10000 1.54 220 23:35 04.03.2022
2767 Clear -4 1026 78 10000 1.54 200 22:41 04.03.2022
2768 Clear -3 1026 78 10000 1.54 210 21:47 04.03.2022
2769 Clear -3 1026 75 10000 0 0 20:51 04.03.2022
2770 Clear -3 1026 74 10000 1.03 0 20:21 04.03.2022
2771 Clear -2 1026 71 10000 0 0 19:35 04.03.2022
2772 Clear -1 1026 68 10000 0 0 18:37 04.03.2022
2773 Clear 1 1026 59 10000 2.06 280 17:30 04.03.2022
2774 Clear 3 1028 53 10000 2.06 280 16:43 04.03.2022
2775 Clear 4 1026 52 10000 1.03 0 15:28 04.03.2022
2776 Clear 4 1027 53 10000 1.54 0 13:53 04.03.2022
2777 Clear 3 1027 58 10000 1.03 0 12:54 04.03.2022
2778 Clear 2 1027 63 10000 1.54 80 11:38 04.03.2022
2779 Clear 1 1027 70 10000 1.54 60 10:42 04.03.2022
2780 Clear -1 1027 86 10000 1.03 0 09:28 04.03.2022
2781 Clear -3 1027 89 10000 1.03 340 08:31 04.03.2022
2782 Clear -5 1027 92 10000 1.54 360 06:59 04.03.2022
2783 Clear -4 1026 89 10000 2.06 350 03:43 04.03.2022
2784 Clear -2 1026 83 10000 2.06 330 00:22 04.03.2022
2785 Clear -2 1024 80 10000 2.57 340 22:21 03.03.2022
2786 Clear -2 1024 77 10000 2.06 350 21:39 03.03.2022
2787 Clear -1 1023 76 10000 2.57 350 20:59 03.03.2022
2788 Clear 0 1023 71 10000 2.57 340 19:48 03.03.2022
2789 Clear 1 1023 68 10000 3.6 350 18:51 03.03.2022
2790 Clear 1 1022 68 10000 3.6 360 18:22 03.03.2022
2791 Clear 2 1022 66 10000 4.12 350 17:27 03.03.2022
2792 Clouds 4 1022 62 10000 5.14 350 15:48 03.03.2022
2793 Clouds 4 1021 61 10000 6.17 330 14:59 03.03.2022
2794 Clouds 5 1021 61 10000 6.17 330 14:33 03.03.2022
2795 Clouds 5 1021 64 10000 5.66 340 13:18 03.03.2022
2796 Clouds 5 1021 64 10000 5.66 340 13:18 03.03.2022
2797 Clouds 5 1021 64 10000 5.66 340 13:18 03.03.2022
2798 Clear 4 1021 70 10000 5.14 350 11:45 03.03.2022
2799 Clear 3 1021 73 10000 5.14 350 10:41 03.03.2022
2800 Clouds 2 1020 79 10000 4.63 350 08:52 03.03.2022
2801 Clouds 0 1020 85 10000 3.6 330 07:25 03.03.2022
2802 Clear -1 1019 84 10000 2.57 320 06:34 03.03.2022
2803 Clouds 0 1019 79 10000 2.57 290 01:45 03.03.2022
2804 Clouds 1 1019 77 10000 3.09 300 23:29 02.03.2022
2805 Clouds 1 1019 80 10000 2.57 290 22:50 02.03.2022
2806 Clouds 1 1019 80 10000 2.57 290 22:50 02.03.2022
2807 Clear 0 1019 84 10000 1.54 290 21:29 02.03.2022
2808 Clear 1 1019 81 10000 2.57 290 20:45 02.03.2022
2809 Clear 1 1019 81 10000 1.54 280 20:22 02.03.2022
2810 Clear 1 1019 81 10000 2.57 260 19:34 02.03.2022
2811 Clear 1 1019 80 10000 1.54 250 18:44 02.03.2022
2812 Clear 3 1019 74 10000 2.57 280 17:59 02.03.2022
2813 Clear 4 1019 72 10000 3.09 280 17:23 02.03.2022
2814 Clear 4 1020 68 10000 4.12 280 16:45 02.03.2022
2815 Clear 4 1020 68 10000 4.12 280 16:45 02.03.2022
2816 Clear 5 1019 69 10000 4.12 290 14:44 02.03.2022
2817 Clear 5 1020 72 10000 5.14 290 13:24 02.03.2022
2818 Clear 4 1020 74 10000 4.63 280 12:42 02.03.2022
2819 Clouds 3 1021 80 10000 5.14 280 11:40 02.03.2022
2820 Clouds 2 1021 83 10000 3.6 280 11:22 02.03.2022
2821 Clouds 1 1021 89 10000 4.12 270 09:42 02.03.2022
2822 Clouds 1 1021 90 10000 3.6 270 08:55 02.03.2022
2823 Clouds 0 1021 91 10000 2.57 260 07:38 02.03.2022
2824 Clear -1 1021 91 10000 3.09 230 06:51 02.03.2022
2825 Clouds 1 1023 85 10000 2.06 230 02:35 02.03.2022
2826 Clouds 2 1024 83 10000 4.12 250 23:55 01.03.2022
2827 Clouds 3 1024 81 10000 4.63 260 22:46 01.03.2022
2828 Clouds 3 1024 80 10000 3.6 250 22:19 01.03.2022
2829 Clouds 3 1024 78 10000 3.09 250 21:25 01.03.2022
2830 Clouds 3 1024 76 10000 2.57 210 20:30 01.03.2022
2831 Clouds 3 1024 76 10000 2.57 210 20:30 01.03.2022
2832 Clouds 3 1024 76 10000 2.57 210 20:30 01.03.2022
2833 Clouds 3 1024 76 10000 2.57 210 20:30 01.03.2022
2834 Clouds 3 1024 76 10000 2.57 210 19:38 01.03.2022
2835 Clouds 3 1024 74 10000 3.09 200 18:49 01.03.2022
2836 Clouds 3 1024 74 10000 3.09 200 18:20 01.03.2022
2837 Rain 4 1024 69 10000 4.12 210 17:30 01.03.2022
2838 Clear 4 1025 64 10000 3.09 220 16:34 01.03.2022
2839 Clear 5 1025 59 10000 3.09 190 15:41 01.03.2022
2840 Clear 6 1025 53 10000 4.63 240 14:39 01.03.2022
2841 Clear 6 1025 51 10000 5.66 230 13:58 01.03.2022
2842 Clear 6 1025 49 10000 5.14 220 13:25 01.03.2022
2843 Clear 6 1025 49 10000 5.14 250 12:33 01.03.2022
2844 Clear 4 1026 61 10000 5.14 200 10:37 01.03.2022
2845 Clear 1 1027 68 10000 3.6 210 08:45 01.03.2022
2846 Clear 0 1027 70 10000 3.6 210 07:54 01.03.2022
2847 Clouds -1 1027 70 10000 2.57 200 06:20 01.03.2022
2848 Clouds 0 1028 75 10000 3.09 210 02:44 01.03.2022
2849 Clouds 0 1029 73 10000 4.63 210 00:36 01.03.2022
2850 Clouds 1 1029 72 10000 4.12 210 23:31 28.02.2022
2851 Clear 1 1029 76 10000 2.57 210 22:18 28.02.2022
2852 Clear 0 1030 80 10000 2.06 210 21:39 28.02.2022
2853 Clear 1 1030 81 10000 2.06 180 19:59 28.02.2022
2854 Clear 1 1030 80 10000 2.06 180 19:40 28.02.2022
2855 Clear 1 1030 78 10000 2.06 170 18:44 28.02.2022
2856 Clear 2 1030 74 10000 3.09 220 17:33 28.02.2022
2857 Clear 3 1030 70 10000 3.09 220 16:43 28.02.2022
2858 Clear 4 1033 67 10000 4.12 230 15:27 28.02.2022
2859 Clear 3 1033 67 10000 4.63 240 14:32 28.02.2022
2860 Clear 4 1033 64 10000 4.63 240 13:48 28.02.2022
2861 Clear 3 1034 66 10000 3.6 250 12:50 28.02.2022
2862 Clear 3 1034 67 10000 3.6 230 11:58 28.02.2022
2863 Clear 2 1034 73 10000 4.63 230 11:18 28.02.2022
2864 Clear 1 1033 74 10000 3.6 220 10:21 28.02.2022
2865 Clear 0 1033 76 10000 3.6 230 09:36 28.02.2022
2866 Clear -1 1033 77 10000 2.57 220 08:44 28.02.2022
2867 Clear -2 1033 80 10000 3.09 220 07:43 28.02.2022
2868 Clear -2 1033 79 10000 2.06 140 05:25 28.02.2022
2869 Clear -1 1033 78 10000 1.54 220 04:27 28.02.2022
2870 Clouds 2 1033 74 10000 4.12 250 23:45 27.02.2022
2871 Clouds 2 1033 73 10000 4.63 250 22:36 27.02.2022
2872 Clear 3 1033 73 10000 4.63 230 21:52 27.02.2022
2873 Clear 2 1033 73 10000 4.63 230 21:27 27.02.2022
2874 Clear 2 1034 73 10000 3.6 230 20:37 27.02.2022
2875 Clear 3 1034 73 10000 3.09 240 19:58 27.02.2022
2876 Clear 3 1034 70 10000 3.09 240 19:27 27.02.2022
2877 Clear 3 1034 70 10000 3.09 240 19:27 27.02.2022
2878 Clear 4 1034 70 10000 2.57 240 18:48 27.02.2022
2879 Clear 4 1034 70 10000 3.09 220 17:57 27.02.2022
2880 Clear 5 1033 67 10000 2.57 230 17:20 27.02.2022
2881 Clear 6 1034 63 10000 3.6 230 16:22 27.02.2022
2882 Clear 6 1034 62 10000 5.14 230 13:40 27.02.2022
2883 Clouds 5 1035 74 10000 4.9 233 12:33 27.02.2022
2884 Clouds 4 1034 70 10000 6.17 250 11:28 27.02.2022
2885 Clouds 4 1034 67 10000 5.14 260 10:24 27.02.2022
2886 Clouds 3 1035 69 10000 5.14 250 09:51 27.02.2022
2887 Clouds 2 1034 68 10000 5.14 240 09:21 27.02.2022
2888 Clouds 2 1034 69 10000 3.09 230 08:31 27.02.2022
2889 Clouds 1 1034 70 10000 4.12 230 05:41 27.02.2022
2890 Clouds 0 1034 71 10000 3.09 220 02:45 27.02.2022
2891 Clouds -1 1035 75 10000 3.09 190 23:36 26.02.2022
2892 Clouds -1 1035 75 10000 2.57 210 22:34 26.02.2022
2893 Clouds -1 1034 74 10000 3.09 190 21:19 26.02.2022
2894 Clouds -1 1034 72 10000 2.06 170 20:37 26.02.2022
2895 Clouds -2 1034 72 10000 1.54 180 19:52 26.02.2022
2896 Clouds -2 1034 74 10000 1.54 180 19:33 26.02.2022
2897 Clouds -1 1033 66 10000 1.03 160 17:58 26.02.2022
2898 Clear 1 1033 60 10000 1.03 230 17:30 26.02.2022
2899 Clear 2 1033 61 10000 2.06 240 16:36 26.02.2022
2900 Clear 3 1032 58 10000 1.54 250 15:27 26.02.2022
2901 Clear 2 1032 60 10000 2.06 290 14:58 26.02.2022
2902 Clear 2 1032 60 10000 2.06 290 14:39 26.02.2022
2903 Clear 2 1032 59 10000 2.57 250 13:46 26.02.2022
2904 Clear 1 1032 62 10000 2.06 260 12:53 26.02.2022
2905 Clear 1 1031 65 10000 2.57 270 11:45 26.02.2022
2906 Clear 1 1031 66 10000 2.06 290 11:24 26.02.2022
2907 Clear -1 1029 71 10000 3.09 300 09:28 26.02.2022
2908 Clear -2 1027 74 10000 3.09 290 08:21 26.02.2022
2909 Clear -2 1022 75 10000 3.6 310 04:22 26.02.2022
2910 Clouds 0 1014 78 10000 3.6 300 23:35 25.02.2022
2911 Clear 0 1012 78 10000 2.57 300 22:31 25.02.2022
2912 Clear 1 1011 76 10000 3.6 290 21:30 25.02.2022
2913 Clear 1 1009 79 10000 2.57 280 20:34 25.02.2022
2914 Clear 1 1008 80 10000 3.6 270 19:56 25.02.2022
2915 Clear 2 1004 78 10000 4.12 270 17:54 25.02.2022
2916 Clear 3 1002 76 10000 5.14 280 16:47 25.02.2022
2917 Clear 4 999 77 10000 6.69 280 15:50 25.02.2022
2918 Clouds 4 998 78 10000 5.66 270 15:23 25.02.2022
2919 Clouds 3 998 81 10000 4.12 270 14:50 25.02.2022
2920 Clouds 3 997 84 10000 5.14 270 14:19 25.02.2022
2921 Clouds 2 996 87 10000 4.63 260 13:23 25.02.2022
2922 Rain 1 995 90 10000 5.14 260 11:56 25.02.2022
2923 Clouds 1 994 91 10000 5.66 260 11:20 25.02.2022
2924 Clouds 1 993 91 10000 5.14 260 10:23 25.02.2022
2925 Clouds 1 993 93 10000 5.14 270 09:42 25.02.2022
2926 Clouds 0 991 94 10000 4.63 280 07:53 25.02.2022
2927 Clouds 0 990 95 10000 3.09 280 06:54 25.02.2022
2928 Clouds 0 989 95 10000 2.06 290 05:41 25.02.2022
2929 Snow 0 989 95 1100 1.03 310 02:43 25.02.2022
2930 Rain 1 992 93 5000 2.06 150 22:37 24.02.2022
2931 Rain 2 993 93 10000 2.06 160 21:50 24.02.2022
2932 Drizzle 2 993 93 10000 2.57 150 21:30 24.02.2022
2933 Rain 2 993 92 10000 2.57 160 20:44 24.02.2022
2934 Drizzle 3 994 91 10000 4.12 190 19:31 24.02.2022
2935 Clouds 3 994 92 10000 1.54 190 18:20 24.02.2022
2936 Clouds 3 995 93 10000 2.57 210 17:54 24.02.2022
2937 Clouds 3 995 92 10000 3.09 210 17:20 24.02.2022
2938 Rain 3 995 92 9000 4.12 180 16:28 24.02.2022
2939 Drizzle 3 996 91 10000 3.09 200 15:43 24.02.2022
2940 Drizzle 4 996 87 10000 4.12 220 14:45 24.02.2022
2941 Clouds 4 995 87 10000 5.14 190 13:59 24.02.2022
2942 Clouds 4 997 85 10000 5.14 190 13:38 24.02.2022
2943 Clouds 4 997 85 10000 6.69 190 11:41 24.02.2022
2944 Clouds 5 997 83 10000 7.72 190 10:32 24.02.2022
2945 Clouds 4 996 82 10000 7.2 190 08:43 24.02.2022
2946 Clouds 4 996 83 10000 7.2 200 07:22 24.02.2022
2947 Clouds 4 997 84 10000 7.72 200 05:43 24.02.2022
2948 Clouds 2 1002 89 10000 4.63 200 00:32 24.02.2022
2949 Clear 2 1004 91 10000 4.63 190 22:25 23.02.2022
2950 Clouds 1 1005 93 10000 3.6 190 20:48 23.02.2022
2951 Clouds 1 1006 93 10000 4.63 190 20:28 23.02.2022
2952 Clouds 0 1006 92 10000 4.12 190 19:35 23.02.2022
2953 Clear 0 1007 89 10000 2.57 180 18:27 23.02.2022
2954 Clouds 1 1007 87 10000 3.6 240 16:33 23.02.2022
2955 Clouds 1 1006 86 10000 3.6 210 14:33 23.02.2022
2956 Clouds 1 1006 87 10000 3.6 220 12:37 23.02.2022
2957 Clouds 0 1006 87 8000 2.06 190 11:23 23.02.2022
2958 Clouds -2 1005 90 4700 1.03 0 10:24 23.02.2022
2959 Clear -3 1004 89 10000 1.03 150 08:56 23.02.2022
2960 Clear -4 1003 90 10000 0 0 07:56 23.02.2022
2961 Clouds -9 1003 100 10000 0 0 03:47 23.02.2022
2962 Clouds -7 1004 92 10000 0 0 00:19 23.02.2022
2963 Clouds -7 1002 92 10000 1.03 150 23:34 22.02.2022
2964 Clear -7 1002 91 10000 1.54 0 22:28 22.02.2022
2965 Clear -8 1002 91 10000 0.51 150 21:48 22.02.2022
2966 Clear -8 1002 91 10000 0 0 21:25 22.02.2022
2967 Clear -7 1002 91 10000 1.03 100 20:49 22.02.2022
2968 Clear -8 1002 91 10000 0 0 20:29 22.02.2022
2969 Clear -8 1002 90 10000 0 0 19:34 22.02.2022
2970 Clear -7 1003 89 10000 0 0 18:58 22.02.2022
2971 Clear -6 1002 84 10000 1.54 0 17:40 22.02.2022
2972 Clear -5 1002 82 10000 1.54 290 17:19 22.02.2022
2973 Clear -4 1002 81 10000 2.57 300 16:36 22.02.2022
2974 Clouds -4 1002 80 10000 3.09 310 15:37 22.02.2022
2975 Clouds -4 1001 83 10000 5.66 290 14:42 22.02.2022
2976 Clouds -4 1000 85 10000 5.66 310 11:54 22.02.2022
2977 Clouds -4 999 83 10000 6.17 320 10:24 22.02.2022
2978 Clouds -4 996 86 10000 6.17 340 07:47 22.02.2022
2979 Clouds -4 995 85 10000 6.69 340 07:25 22.02.2022
2980 Clouds -4 995 85 10000 6.69 340 07:25 22.02.2022
2981 Clouds -2 988 90 8000 8.75 340 02:52 22.02.2022
2982 Clouds -2 984 91 5000 8.75 340 00:48 22.02.2022
2983 Snow -1 980 94 9000 9.26 350 22:38 21.02.2022
2984 Clouds -1 977 96 4200 9.77 350 21:25 21.02.2022
2985 Clouds -1 974 96 2000 8.23 360 20:29 21.02.2022
2986 Snow -1 971 96 1200 7.2 360 18:41 21.02.2022
2987 Drizzle 1 967 94 3000 5.14 20 16:48 21.02.2022
2988 Rain 2 964 96 1900 3.6 50 14:24 21.02.2022
2989 Mist 2 964 96 2700 4.12 40 13:59 21.02.2022
2990 Mist 2 964 96 2500 4.12 50 12:59 21.02.2022
2991 Drizzle 1 964 96 2500 5.66 60 12:22 21.02.2022
2992 Rain 1 964 96 3500 5.66 70 10:45 21.02.2022
2993 Snow 0 969 96 2500 6.17 90 08:44 21.02.2022
2994 Clouds 1 978 93 10000 6.69 110 02:58 21.02.2022
2995 Clouds -1 984 91 10000 3.09 120 23:29 20.02.2022
2996 Clear -2 986 92 10000 2.57 130 22:19 20.02.2022
2997 Clear -2 987 90 10000 2.57 150 21:41 20.02.2022
2998 Clear -3 988 92 10000 2.06 140 20:52 20.02.2022
2999 Clear -3 988 90 10000 1.54 150 20:22 20.02.2022
3000 Clear -3 989 89 10000 2.57 190 19:29 20.02.2022
3001 Clear -3 989 89 10000 2.06 190 18:49 20.02.2022
3002 Clear -3 990 89 10000 1.54 170 18:31 20.02.2022
3003 Clear -2 990 87 10000 1.54 160 17:34 20.02.2022
3004 Clear 0 991 80 10000 3.09 240 15:30 20.02.2022
3005 Clear 0 991 81 10000 3.6 240 14:39 20.02.2022
3006 Clouds 0 992 84 10000 3.6 240 13:22 20.02.2022
3007 Clouds -1 992 89 10000 4.12 260 12:20 20.02.2022
3008 Clouds -3 992 94 10000 4.12 260 10:21 20.02.2022
3009 Clouds -3 992 94 10000 3.6 250 09:53 20.02.2022
3010 Clouds -3 991 95 10000 3.09 270 06:46 20.02.2022
3011 Clouds -4 992 94 10000 3.09 220 00:34 20.02.2022
3012 Clouds -3 992 92 10000 3.09 210 23:42 19.02.2022
3013 Clouds -3 992 93 10000 3.09 230 22:25 19.02.2022
3014 Clouds -3 992 92 10000 2.57 230 21:54 19.02.2022
3015 Clear -2 992 91 10000 3.09 240 20:48 19.02.2022
3016 Clear -2 991 93 10000 3.09 240 19:41 19.02.2022
3017 Clouds -2 991 92 10000 2.06 240 18:41 19.02.2022
3018 Clouds -1 991 92 10000 3.6 240 18:19 19.02.2022
3019 Clouds -1 990 91 10000 3.6 260 17:33 19.02.2022
3020 Clear 0 989 86 10000 4.12 270 16:21 19.02.2022
3021 Clouds 0 987 88 10000 4.63 280 14:56 19.02.2022
3022 Clouds 0 985 91 10000 4.63 300 13:59 19.02.2022
3023 Clouds 0 982 93 10000 4.12 320 11:59 19.02.2022
3024 Clouds 1 981 93 10000 4.12 320 11:36 19.02.2022
3025 Clouds 0 977 95 10000 4.12 330 09:34 19.02.2022
3026 Snow 0 974 95 1200 2.57 350 06:52 19.02.2022
3027 Snow 1 975 89 10000 1.54 100 01:39 19.02.2022
3028 Clouds 1 978 86 10000 2.06 140 22:54 18.02.2022
3029 Clear 0 980 84 10000 1.54 150 21:28 18.02.2022
3030 Clear -1 980 82 10000 0 0 20:31 18.02.2022
3031 Clear 0 982 81 10000 1.54 170 19:51 18.02.2022
3032 Clear 1 983 76 10000 2.06 220 18:39 18.02.2022
3033 Clear 1 984 74 10000 2.06 220 18:19 18.02.2022
3034 Clear 2 983 73 10000 2.57 240 17:21 18.02.2022
3035 Clear 4 984 68 10000 6.17 250 14:39 18.02.2022
3036 Clear 4 984 68 10000 6.69 260 13:47 18.02.2022
3037 Clear 3 984 73 10000 6.17 260 12:51 18.02.2022
3038 Clear 2 984 75 10000 7.2 270 11:58 18.02.2022
3039 Clear 1 983 82 10000 6.17 250 10:58 18.02.2022
3040 Clear 0 983 86 10000 4.63 250 09:29 18.02.2022
3041 Clear -2 981 89 10000 4.12 240 06:50 18.02.2022
3042 Clouds -2 981 89 10000 3.09 260 05:36 18.02.2022
3043 Clouds 0 977 83 10000 5.66 290 22:43 17.02.2022
3044 Clouds 0 976 82 10000 5.66 290 21:42 17.02.2022
3045 Clear 0 976 82 10000 5.66 290 20:52 17.02.2022
3046 Clear 0 976 82 10000 5.66 290 20:33 17.02.2022
3047 Clear 0 975 81 10000 5.14 290 19:43 17.02.2022
3048 Clear 0 975 84 10000 5.14 280 18:34 17.02.2022
3049 Clear 0 974 83 10000 6.17 290 17:46 17.02.2022
3050 Clouds 1 973 85 10000 7.72 290 16:20 17.02.2022
3051 Clouds 1 972 86 10000 6.17 310 14:39 17.02.2022
3052 Clouds 1 971 87 10000 7.2 310 13:47 17.02.2022
3053 Clouds 1 968 91 10000 7.72 320 11:57 17.02.2022
3054 Drizzle 1 968 93 9000 6.69 320 11:21 17.02.2022
3055 Clouds 0 966 94 3500 4.63 360 08:37 17.02.2022
3056 Rain 1 971 94 9000 3.09 60 00:20 17.02.2022
3057 Drizzle 2 972 93 10000 3.6 90 22:38 16.02.2022
3058 Clouds 2 977 91 10000 3.09 140 20:32 16.02.2022
3059 Clouds 2 979 89 10000 2.57 160 19:27 16.02.2022
3060 Clouds 2 981 86 10000 3.09 160 18:35 16.02.2022
3061 Clouds 3 981 87 10000 3.97 190 17:27 16.02.2022
3062 Clouds 4 983 85 10000 3.6 190 15:24 16.02.2022
3063 Clouds 4 984 86 10000 4.12 190 14:29 16.02.2022
3064 Clouds 3 985 89 10000 4.63 220 12:31 16.02.2022
3065 Clouds 3 985 92 10000 4.12 220 11:46 16.02.2022
3066 Drizzle 3 986 93 10000 4.12 210 10:35 16.02.2022
3067 Drizzle 3 986 94 8000 3.6 190 09:54 16.02.2022
3068 Rain 3 989 91 8000 5.14 170 06:44 16.02.2022
3069 Clouds 3 993 85 10000 4.12 160 03:41 16.02.2022
3070 Clouds 2 996 82 10000 4.63 220 22:35 15.02.2022
3071 Clear 2 996 80 10000 4.63 220 21:52 15.02.2022
3072 Clear 2 996 79 10000 2.06 190 21:31 15.02.2022
3073 Clouds 3 996 77 10000 3.6 230 20:58 15.02.2022
3074 Clouds 3 995 77 10000 3.6 230 20:38 15.02.2022
3075 Clouds 3 994 83 10000 0.45 248 19:48 15.02.2022
3076 Clouds 3 995 83 10000 6.69 240 18:28 15.02.2022
3077 Clouds 4 995 84 10000 3.6 210 17:57 15.02.2022
3078 Rain 4 994 84 10000 3.6 210 17:38 15.02.2022
3079 Clouds 4 993 87 10000 4.12 200 16:20 15.02.2022
3080 Drizzle 5 993 87 10000 5.14 190 14:35 15.02.2022
3081 Clouds 5 992 86 10000 5.14 190 13:26 15.02.2022
3082 Clouds 5 994 87 10000 4.12 140 11:43 15.02.2022
3083 Clouds 5 995 90 10000 3.09 140 10:32 15.02.2022
3084 Clouds 4 995 92 10000 3.09 140 09:23 15.02.2022
3085 Clouds 3 996 91 10000 2.57 160 06:47 15.02.2022
3086 Clouds 3 996 93 10000 3.09 200 00:26 15.02.2022
3087 Clouds 3 996 94 10000 2.57 170 21:59 14.02.2022
3088 Mist 3 996 95 4600 2.06 170 20:57 14.02.2022
3089 Drizzle 3 996 95 4500 1.54 160 20:19 14.02.2022
3090 Drizzle 3 996 95 5000 2.06 150 19:30 14.02.2022
3091 Clouds 3 995 93 8000 1.54 160 18:24 14.02.2022
3092 Drizzle 3 995 93 8000 1.54 160 17:37 14.02.2022
3093 Mist 3 995 93 6000 1.54 170 17:18 14.02.2022
3094 Rain 3 995 93 7000 1.54 170 15:52 14.02.2022
3095 Rain 3 995 93 10000 2.57 210 13:37 14.02.2022
3096 Drizzle 3 995 93 10000 2.57 200 12:59 14.02.2022
3097 Clouds 2 995 93 7000 3.09 200 12:32 14.02.2022
3098 Rain 2 995 93 8000 4.12 190 11:43 14.02.2022
3099 Rain 1 995 94 7000 3.09 170 10:22 14.02.2022
3100 Rain 1 995 91 8000 3.6 170 08:32 14.02.2022
3101 Snow 2 996 92 10000 2.57 170 07:26 14.02.2022
3102 Clouds 3 998 86 10000 0.89 225 23:19 13.02.2022
3103 Clouds 3 998 86 10000 0.89 270 22:41 13.02.2022
3104 Clouds 4 998 85 10000 5.14 210 22:22 13.02.2022
3105 Clouds 4 999 86 10000 4.63 210 21:24 13.02.2022
3106 Clouds 4 999 86 10000 5.66 210 20:30 13.02.2022
3107 Clouds 4 999 86 10000 6.69 220 19:23 13.02.2022
3108 Clouds 4 999 85 10000 5.66 220 18:41 13.02.2022
3109 Clouds 4 998 85 10000 6.17 210 17:52 13.02.2022
3110 Clouds 4 999 81 10000 5.66 220 15:53 13.02.2022
3111 Clouds 4 999 79 10000 5.66 220 14:57 13.02.2022
3112 Clouds 4 1000 78 10000 5.14 220 13:42 13.02.2022
3113 Clouds 4 1000 77 10000 5.66 210 12:49 13.02.2022
3114 Clouds 3 1000 77 10000 4.63 220 11:24 13.02.2022
3115 Clouds 2 1001 77 10000 5.66 210 10:28 13.02.2022
3116 Clouds 2 1001 77 10000 6.17 210 09:36 13.02.2022
3117 Clouds 1 1003 79 10000 6.17 200 06:22 13.02.2022
3118 Clouds 2 1009 80 10000 5.14 210 00:35 13.02.2022
3119 Clouds 2 1010 82 10000 5.14 220 22:59 12.02.2022
3120 Clouds 2 1010 81 10000 5.14 220 22:33 12.02.2022
3121 Clouds 2 1010 74 10000 5.14 220 21:19 12.02.2022
3122 Clouds 3 1011 74 10000 5.66 220 20:32 12.02.2022
3123 Clouds 3 1012 74 10000 5.66 220 19:21 12.02.2022
3124 Clouds 3 1012 74 10000 5.66 220 18:50 12.02.2022
3125 Clouds 3 1012 75 10000 6.17 230 18:32 12.02.2022
3126 Clouds 3 1011 76 10000 2.24 248 16:55 12.02.2022
3127 Clouds 4 1012 73 10000 6.17 240 16:25 12.02.2022
3128 Clouds 4 1013 73 10000 6.17 240 15:50 12.02.2022
3129 Clouds 4 1013 72 10000 5.66 250 14:31 12.02.2022
3130 Clouds 5 1013 70 10000 7.72 260 12:55 12.02.2022
3131 Clear 3 1014 77 10000 7.72 240 10:40 12.02.2022
3132 Clear 2 1013 82 10000 3.09 230 09:39 12.02.2022
3133 Clear 1 1013 84 10000 4.63 220 08:50 12.02.2022
3134 Clouds 0 1013 85 10000 4.63 230 07:53 12.02.2022
3135 Clouds -1 1013 78 10000 4.12 230 05:33 12.02.2022
3136 Clouds -2 1014 75 10000 5.66 240 04:27 12.02.2022
3137 Clouds -2 1014 68 10000 5.66 240 02:18 12.02.2022
3138 Clear -2 1016 63 10000 3.6 250 22:28 11.02.2022
3139 Clear -2 1016 62 10000 3.6 260 21:51 11.02.2022
3140 Clear -2 1016 62 10000 3.09 250 20:40 11.02.2022
3141 Clear -2 1015 63 10000 4.12 260 19:46 11.02.2022
3142 Clear -2 1015 65 10000 3.09 270 19:27 11.02.2022
3143 Clear -1 1014 65 10000 2.57 270 17:55 11.02.2022
3144 Clear -1 1014 63 10000 4.63 280 17:25 11.02.2022
3145 Clear 0 1013 61 10000 5.14 280 16:22 11.02.2022
3146 Clear 1 1012 60 10000 6.69 280 14:43 11.02.2022
3147 Clear 1 1011 61 10000 5.14 280 14:21 11.02.2022
3148 Clear 0 1011 63 10000 5.14 270 13:59 11.02.2022
3149 Clear 0 1011 64 10000 5.66 290 13:39 11.02.2022
3150 Clear -1 1010 68 10000 4.12 310 11:42 11.02.2022
3151 Clear -2 1007 74 10000 3.6 270 09:58 11.02.2022
3152 Clear -3 1006 82 10000 0.89 270 08:49 11.02.2022
3153 Clear -3 1007 82 10000 2.57 280 08:26 11.02.2022
3154 Clear -3 1006 85 10000 2.06 270 07:18 11.02.2022
3155 Clouds -2 1003 88 10000 1.03 0 02:26 11.02.2022
3156 Clouds -1 1003 86 10000 3.6 260 00:52 11.02.2022
3157 Clouds 1 1002 81 10000 3.09 260 22:53 10.02.2022
3158 Clear 1 1001 79 10000 4.12 240 21:50 10.02.2022
3159 Clear 1 1001 77 10000 4.12 240 21:18 10.02.2022
3160 Clear 2 1001 76 10000 4.12 240 20:38 10.02.2022
3161 Clear 2 1000 73 10000 5.14 260 19:26 10.02.2022
3162 Clear 2 1000 73 10000 5.14 260 18:46 10.02.2022
3163 Clear 3 1000 70 10000 5.14 260 17:26 10.02.2022
3164 Clear 4 1000 68 10000 4.63 250 16:50 10.02.2022
3165 Clear 4 1000 65 10000 6.17 250 15:51 10.02.2022
3166 Clear 5 1000 65 10000 5.66 270 15:30 10.02.2022
3167 Clear 5 1000 64 10000 6.69 260 14:48 10.02.2022
3168 Clear 5 1000 64 10000 6.17 260 14:24 10.02.2022
3169 Clear 5 1000 63 10000 7.72 260 13:29 10.02.2022
3170 Clear 5 999 65 10000 8.75 250 12:50 10.02.2022
3171 Clear 4 1000 71 10000 7.72 250 11:34 10.02.2022
3172 Clear 4 999 73 10000 7.72 240 10:55 10.02.2022
3173 Clear 3 1000 76 10000 7.72 250 09:59 10.02.2022
3174 Clear 3 999 77 10000 6.69 250 09:24 10.02.2022
3175 Clear 2 999 78 10000 7.72 250 07:36 10.02.2022
3176 Clouds 2 999 77 10000 6.69 250 04:58 10.02.2022
3177 Clear 2 1000 73 10000 5.66 260 01:51 10.02.2022
3178 Clear 2 1000 72 10000 7.2 260 00:49 10.02.2022
3179 Clear 2 1000 71 10000 6.69 260 00:28 10.02.2022
3180 Clear 3 999 73 10000 6.69 260 23:24 09.02.2022
3181 Clear 3 999 74 10000 7.2 260 22:36 09.02.2022
3182 Clear 3 999 73 10000 7.2 250 21:52 09.02.2022
3183 Clear 3 999 72 10000 8.75 250 21:29 09.02.2022
3184 Clear 3 998 72 10000 7.2 260 20:48 09.02.2022
3185 Clear 4 998 73 10000 7.2 260 20:29 09.02.2022
3186 Clear 4 997 73 10000 6.17 260 19:54 09.02.2022
3187 Clear 4 997 74 10000 6.69 250 19:31 09.02.2022
3188 Clouds 5 997 80 10000 5.14 240 17:37 09.02.2022
3189 Clouds 5 996 80 10000 6.17 240 16:52 09.02.2022
3190 Clouds 6 996 79 10000 5.66 240 15:51 09.02.2022
3191 Clouds 6 997 78 10000 6.69 240 14:42 09.02.2022
3192 Clouds 5 999 82 10000 4.12 230 12:28 09.02.2022
3193 Clouds 3 1000 85 10000 5.14 220 10:54 09.02.2022
3194 Clouds 3 1000 87 10000 4.63 230 10:30 09.02.2022
3195 Clear 2 1001 89 10000 4.63 230 09:40 09.02.2022
3196 Clear 2 1001 90 10000 4.63 230 09:19 09.02.2022
3197 Clear 0 1002 92 10000 3.6 220 07:55 09.02.2022
3198 Clouds 0 1003 89 10000 4.63 220 05:30 09.02.2022
3199 Clouds 0 1004 87 10000 3.09 230 03:50 09.02.2022
3200 Clear 1 1003 85 10000 3.6 240 00:44 09.02.2022
3201 Clear 1 1003 84 10000 2.57 240 23:33 08.02.2022
3202 Clear 1 1003 83 10000 3.09 250 22:46 08.02.2022
3203 Clear 1 1003 85 10000 2.57 250 22:21 08.02.2022
3204 Clear 1 1002 86 10000 1.54 250 21:42 08.02.2022
3205 Clear 1 1002 87 10000 2.06 230 21:21 08.02.2022
3206 Clear 2 1002 85 10000 2.57 250 20:44 08.02.2022
3207 Clear 2 1001 87 10000 2.57 240 19:46 08.02.2022
3208 Clear 2 1000 86 10000 4.63 250 18:38 08.02.2022
3209 Clear 3 999 87 10000 3.09 260 17:42 08.02.2022
3210 Clear 4 998 87 10000 5.14 290 16:30 08.02.2022
3211 Clouds 4 997 87 10000 7.2 280 15:30 08.02.2022
3212 Clouds 4 997 87 10000 7.2 280 15:30 08.02.2022
3213 Clouds 4 996 89 10000 6.69 280 14:36 08.02.2022
3214 Clouds 4 995 92 10000 4.63 270 13:20 08.02.2022
3215 Clouds 2 994 95 3900 4.12 230 11:33 08.02.2022
3216 Mist 1 995 94 3800 4.12 220 10:23 08.02.2022
3217 Mist 1 995 93 5000 3.6 200 09:44 08.02.2022
3218 Snow 1 997 91 10000 4.12 190 07:53 08.02.2022
3219 Clouds 0 1000 80 10000 4.12 190 05:41 08.02.2022
3220 Clouds -1 1002 81 10000 3.6 200 04:39 08.02.2022
3221 Clouds -1 1002 82 10000 1.54 180 04:21 08.02.2022
3222 Clouds -2 1003 86 10000 2.06 190 03:36 08.02.2022
3223 Clouds -3 1003 87 10000 2.06 190 03:18 08.02.2022
3224 Clouds -3 1004 87 10000 2.06 180 02:58 08.02.2022
3225 Clouds -4 1004 87 10000 2.06 180 02:36 08.02.2022
3226 Clouds -4 1005 86 10000 2.06 220 02:18 08.02.2022
3227 Clouds -3 1005 86 10000 1.54 210 01:44 08.02.2022
3228 Clouds -3 1005 85 10000 1.54 220 01:24 08.02.2022
3229 Clouds -2 1005 83 10000 2.57 260 00:54 08.02.2022
3230 Clear -2 1005 84 10000 2.57 260 23:55 07.02.2022
3231 Clear -2 1005 84 10000 2.57 260 23:37 07.02.2022
3232 Clear -2 1005 84 10000 1.03 0 23:18 07.02.2022
3233 Clear -2 1004 81 10000 3.09 270 22:20 07.02.2022
3234 Clear -1 1004 80 10000 3.6 280 21:55 07.02.2022
3235 Clear -1 1004 81 10000 3.09 290 21:29 07.02.2022
3236 Clear -1 1004 80 10000 3.09 290 20:59 07.02.2022
3237 Clear -1 1003 80 10000 3.09 290 20:40 07.02.2022
3238 Clear -1 1003 78 10000 3.6 280 19:51 07.02.2022
3239 Clear -1 1003 78 10000 3.6 280 19:33 07.02.2022
3240 Clear -1 1002 78 10000 3.6 290 18:18 07.02.2022
3241 Clouds 0 999 77 10000 0.45 293 16:53 07.02.2022
3242 Clouds 1 997 75 10000 5.14 330 15:49 07.02.2022
3243 Clear 2 995 72 10000 6.69 320 14:56 07.02.2022
3244 Clear 1 992 72 10000 6.17 290 13:28 07.02.2022
3245 Clear 1 992 73 10000 4.63 290 12:52 07.02.2022
3246 Clear 1 991 75 10000 5.66 270 11:58 07.02.2022
3247 Clear 0 990 76 10000 5.66 270 11:36 07.02.2022
3248 Clear 0 989 81 10000 4.63 270 10:51 07.02.2022
3249 Clear 0 989 83 10000 4.12 260 10:31 07.02.2022
3250 Clear -1 988 88 10000 2.57 260 09:53 07.02.2022
3251 Clear -2 988 90 10000 3.6 260 09:18 07.02.2022
3252 Clear -2 987 92 10000 2.57 260 08:38 07.02.2022
3253 Clear -2 985 92 10000 3.09 260 06:58 07.02.2022
3254 Clear -2 985 92 10000 3.09 260 06:34 07.02.2022
3255 Clouds -2 982 91 10000 2.06 200 02:59 07.02.2022
3256 Clouds 0 981 87 10000 2.06 240 00:45 07.02.2022
3257 Clouds 0 980 87 10000 2.06 240 23:48 06.02.2022
3258 Clouds 0 980 87 10000 1.54 230 22:48 06.02.2022
3259 Clear 0 980 87 10000 2.57 190 21:56 06.02.2022
3260 Clear 0 979 87 10000 2.57 190 21:35 06.02.2022
3261 Clear 0 979 83 10000 3.09 210 20:55 06.02.2022
3262 Clear 0 979 83 10000 3.09 210 20:55 06.02.2022
3263 Clear 0 979 83 10000 3.09 220 20:31 06.02.2022
3264 Clear 1 979 83 10000 3.09 200 19:38 06.02.2022
3265 Clear 1 979 80 10000 3.09 220 18:40 06.02.2022
3266 Clouds 2 979 79 10000 2.06 210 17:56 06.02.2022
3267 Clouds 2 979 79 10000 2.57 230 17:21 06.02.2022
3268 Clouds 2 979 78 10000 4.12 220 16:47 06.02.2022
3269 Clouds 3 979 75 10000 5.14 230 15:49 06.02.2022
3270 Clouds 3 979 75 10000 4.12 230 15:27 06.02.2022
3271 Clouds 3 979 75 10000 5.14 240 14:46 06.02.2022
3272 Clouds 4 979 76 10000 5.66 240 13:28 06.02.2022
3273 Clouds 3 979 77 10000 5.66 240 12:58 06.02.2022
3274 Clouds 3 980 81 10000 6.17 240 11:35 06.02.2022
3275 Clouds 3 980 81 10000 4.63 240 10:31 06.02.2022
3276 Clouds 3 980 84 10000 5.14 230 09:25 06.02.2022
3277 Drizzle 2 980 88 10000 4.63 230 08:30 06.02.2022
3278 Clouds 2 980 92 10000 5.14 190 05:33 06.02.2022
3279 Rain 2 984 92 8000 5.66 170 03:18 06.02.2022
3280 Rain 2 985 91 10000 5.14 180 02:24 06.02.2022
3281 Clouds 1 988 89 10000 4.12 190 00:29 06.02.2022
3282 Clouds 0 991 89 10000 2.06 190 22:36 05.02.2022
3283 Clouds 0 991 88 10000 2.06 210 21:32 05.02.2022
3284 Clouds 0 992 86 10000 2.06 220 20:25 05.02.2022
3285 Clouds 1 992 86 10000 3.6 230 19:48 05.02.2022
3286 Clear 1 992 85 10000 2.57 230 18:59 05.02.2022
3287 Clear 1 992 82 10000 2.06 230 17:45 05.02.2022
3288 Clear 2 992 82 10000 3.09 240 17:25 05.02.2022
3289 Clear 3 992 76 10000 5.14 250 15:40 05.02.2022
3290 Clear 3 991 76 10000 4.63 250 15:21 05.02.2022
3291 Clear 3 990 82 10000 6.17 260 12:54 05.02.2022
3292 Clear 2 990 84 10000 6.17 250 12:31 05.02.2022
3293 Clouds 1 990 89 10000 4.63 240 10:52 05.02.2022
3294 Clouds 1 990 91 10000 4.12 240 10:22 05.02.2022
3295 Clouds 0 989 91 10000 4.12 230 09:44 05.02.2022
3296 Clouds 0 988 93 10000 4.12 240 07:54 05.02.2022
3297 Clouds 0 988 91 10000 5.14 250 06:57 05.02.2022
3298 Clouds 1 987 94 10000 3.09 230 04:30 05.02.2022
3299 Clouds 1 987 96 10000 2.06 220 01:19 05.02.2022
3300 Clouds 1 987 96 10000 1.54 220 00:53 05.02.2022
3301 Clouds 1 987 96 10000 2.57 210 23:46 04.02.2022
3302 Clouds 1 988 95 10000 2.06 190 23:28 04.02.2022
3303 Snow 2 989 93 6000 1.54 230 21:59 04.02.2022
3304 Snow 2 989 93 6000 1.54 230 21:36 04.02.2022
3305 Snow 2 989 94 8000 2.57 250 21:18 04.02.2022
3306 Rain 3 989 95 7000 3.09 200 20:20 04.02.2022
3307 Rain 3 989 95 10000 0.89 248 17:43 04.02.2022
3308 Clouds 3 992 94 10000 4.63 170 15:42 04.02.2022
3309 Drizzle 3 992 93 10000 5.66 170 14:55 04.02.2022
3310 Clouds 3 993 94 10000 5.14 170 13:39 04.02.2022
3311 Clouds 3 994 94 10000 5.14 150 12:43 04.02.2022
3312 Clouds 3 995 96 10000 3.6 180 11:42 04.02.2022
3313 Clouds 3 995 96 10000 3.6 180 11:42 04.02.2022
3314 Clouds 3 996 96 10000 5.14 150 10:36 04.02.2022
3315 Mist 2 997 94 4500 5.66 150 08:42 04.02.2022
3316 Clouds 2 999 94 5000 6.17 150 06:57 04.02.2022
3317 Clouds 1 1002 92 7000 5.14 140 02:46 04.02.2022
3318 Clouds 1 1003 92 10000 5.66 140 01:56 04.02.2022
3319 Clouds 0 1005 87 10000 4.63 120 23:29 03.02.2022
3320 Clouds -1 1006 86 10000 4.12 120 22:40 03.02.2022
3321 Clouds -1 1006 86 10000 3.6 130 21:49 03.02.2022
3322 Clouds -2 1007 88 10000 2.57 120 20:39 03.02.2022
3323 Clouds -3 1007 87 10000 3.09 120 20:19 03.02.2022
3324 Clouds -3 1008 88 10000 4.12 110 19:32 03.02.2022
3325 Clouds -3 1008 88 10000 3.6 120 18:38 03.02.2022
3326 Clouds -3 1009 86 10000 3.6 140 17:35 03.02.2022
3327 Clouds -4 1009 87 10000 3.09 120 16:35 03.02.2022
3328 Clouds -3 1009 84 10000 1.54 90 14:49 03.02.2022
3329 Clouds -3 1010 86 10000 1.54 0 12:58 03.02.2022
3330 Clouds -3 1010 85 10000 1.03 0 11:23 03.02.2022
3331 Clouds -4 1009 92 10000 1.03 0 08:37 03.02.2022
3332 Clouds -4 1007 91 10000 0 0 05:26 03.02.2022
3333 Clouds -5 1007 86 10000 1.03 210 00:32 03.02.2022
3334 Clouds -6 1007 86 10000 1.54 170 23:43 02.02.2022
3335 Clouds -7 1007 90 10000 1.03 150 22:19 02.02.2022
3336 Clouds -7 1008 87 10000 0.51 0 21:34 02.02.2022
3337 Clouds -8 1007 88 10000 0 0 20:49 02.02.2022
3338 Clear -7 1007 85 10000 1.03 0 19:58 02.02.2022
3339 Clear -6 1007 83 10000 1.03 240 19:27 02.02.2022
3340 Clear -6 1007 82 10000 1.54 280 18:45 02.02.2022
3341 Clear -6 1006 81 10000 2.06 280 17:57 02.02.2022
3342 Clear -6 1006 79 10000 3.09 270 17:19 02.02.2022
3343 Clear -5 1005 77 10000 3.6 300 16:42 02.02.2022
3344 Clouds -4 1003 85 10000 4.12 320 13:28 02.02.2022
3345 Clouds -4 1002 86 10000 4.12 330 12:20 02.02.2022
3346 Clouds -5 1002 88 10000 3.09 330 11:34 02.02.2022
3347 Clouds -5 1001 89 8000 2.57 320 10:22 02.02.2022
3348 Clouds -6 998 92 10000 3.09 320 07:35 02.02.2022
3349 Clouds -6 995 88 10000 2.06 10 22:52 01.02.2022
3350 Clouds -5 995 89 10000 1.03 0 21:50 01.02.2022
3351 Clouds -6 994 89 10000 1.54 50 20:35 01.02.2022
3352 Clear -7 993 85 10000 1.54 30 17:44 01.02.2022
3353 Clear -5 995 82 10000 1.54 0 16:39 01.02.2022
3354 Clear -5 995 82 10000 1.54 0 16:39 01.02.2022
3355 Clear -3 994 77 10000 1.54 0 14:24 01.02.2022
3356 Clear -4 996 80 10000 0 0 12:45 01.02.2022
3357 Clouds -5 997 85 10000 1.54 300 11:30 01.02.2022
3358 Clouds -5 1000 84 10000 3.09 300 04:53 01.02.2022
3359 Clouds -4 1002 81 10000 4.63 310 23:42 31.01.2022
3360 Clouds -4 1002 81 10000 4.63 310 23:42 31.01.2022
3361 Clouds -4 1002 81 10000 4.63 300 23:21 31.01.2022
3362 Clouds -4 1002 80 10000 4.12 300 21:42 31.01.2022
3363 Clouds -4 1003 80 10000 4.63 300 21:19 31.01.2022
3364 Clouds -4 1003 79 10000 5.14 300 20:32 31.01.2022
3365 Clouds -4 1003 78 10000 4.63 320 19:35 31.01.2022
3366 Clouds -3 1003 76 10000 4.12 350 18:26 31.01.2022
3367 Clouds -3 1003 76 10000 4.63 340 17:41 31.01.2022
3368 Clouds -3 1003 76 10000 4.63 340 16:38 31.01.2022
3369 Clouds -3 1002 75 10000 5.66 340 15:41 31.01.2022
3370 Clouds -2 1002 75 10000 4.63 350 14:22 31.01.2022
3371 Clouds -2 1001 76 10000 5.66 340 12:39 31.01.2022
3372 Clouds -2 1001 76 10000 5.66 340 11:56 31.01.2022
3373 Clouds -2 1001 77 10000 4.63 350 10:50 31.01.2022
3374 Clouds -2 1001 79 10000 4.63 330 10:30 31.01.2022
3375 Clouds -2 1001 81 10000 4.12 310 09:26 31.01.2022
3376 Clouds -3 1001 83 10000 3.6 300 08:50 31.01.2022
3377 Clouds -2 1001 82 10000 4.12 320 08:20 31.01.2022
3378 Clouds -2 1001 82 10000 3.6 310 06:18 31.01.2022
3379 Clouds -1 1001 79 10000 6.17 320 02:18 31.01.2022
3380 Clouds 0 1001 77 10000 6.17 320 23:18 30.01.2022
3381 Clouds 0 1001 78 10000 7.2 320 22:29 30.01.2022
3382 Clouds 0 1001 78 10000 6.69 320 21:42 30.01.2022
3383 Clouds 0 1001 78 10000 7.2 320 21:19 30.01.2022
3384 Clouds 0 1001 79 10000 8.23 320 20:47 30.01.2022
3385 Clouds 0 1001 81 10000 7.72 320 20:28 30.01.2022
3386 Clouds -1 1000 81 10000 7.72 320 19:52 30.01.2022
3387 Clear -2 1000 79 10000 7.72 320 18:44 30.01.2022
3388 Clouds -2 1000 78 10000 8.75 330 18:20 30.01.2022
3389 Clouds -1 999 83 10000 8.75 330 17:27 30.01.2022
3390 Clouds -2 998 83 8000 9.26 330 16:40 30.01.2022
3391 Snow -2 998 85 6000 8.75 330 16:22 30.01.2022
3392 Clouds -2 997 84 10000 10.29 330 15:50 30.01.2022
3393 Snow -2 996 83 10000 9.26 330 15:32 30.01.2022
3394 Clouds -2 996 84 10000 9.26 320 14:46 30.01.2022
3395 Clouds -1 992 85 10000 8.23 340 12:47 30.01.2022
3396 Clouds -1 991 85 10000 8.75 330 12:25 30.01.2022
3397 Clouds -1 987 85 10000 9.77 330 10:36 30.01.2022
3398 Clouds -1 986 88 10000 9.77 330 09:56 30.01.2022
3399 Clouds -1 984 89 7000 12.35 330 08:58 30.01.2022
3400 Clouds 0 981 89 7000 10.8 330 07:55 30.01.2022
3401 Rain 1 966 93 2400 9.26 300 02:29 30.01.2022
3402 Rain 2 965 93 3900 8.23 310 01:39 30.01.2022
3403 Clouds 5 962 92 10000 5.66 260 23:21 29.01.2022
3404 Clouds 5 962 95 7000 5.14 260 21:59 29.01.2022
3405 Rain 5 962 96 3600 5.14 240 21:26 29.01.2022
3406 Rain 5 964 95 7000 4.12 210 20:36 29.01.2022
3407 Rain 5 966 94 4400 4.63 210 19:36 29.01.2022
3408 Rain 5 967 95 9000 3.6 190 18:59 29.01.2022
3409 Drizzle 5 968 95 3500 4.63 210 18:30 29.01.2022
3410 Drizzle 4 970 94 6000 4.12 180 17:41 29.01.2022
3411 Clouds 3 975 96 3000 4.63 160 16:38 29.01.2022
3412 Rain 2 980 95 6000 4.12 190 14:33 29.01.2022
3413 Rain 2 982 95 7000 4.12 180 13:45 29.01.2022
3414 Rain 2 984 93 6000 4.12 180 13:25 29.01.2022
3415 Rain 2 986 93 6000 4.63 180 12:36 29.01.2022
3416 Rain 2 988 93 5000 5.14 180 11:38 29.01.2022
3417 Snow 1 992 92 6000 5.66 180 10:21 29.01.2022
3418 Clouds 1 999 86 10000 6.17 190 06:57 29.01.2022
3419 Clouds -1 1010 72 10000 3.6 220 00:50 29.01.2022
3420 Clouds -1 1010 73 10000 3.09 210 00:31 29.01.2022
3421 Clouds -1 1012 76 10000 2.57 240 22:52 28.01.2022
3422 Clear -2 1013 76 10000 2.57 230 22:27 28.01.2022
3423 Clear -2 1013 76 10000 3.09 240 21:53 28.01.2022
3424 Clear -1 1014 74 10000 4.12 290 20:31 28.01.2022
3425 Clear -1 1014 74 10000 5.14 290 19:44 28.01.2022
3426 Clear 0 1015 73 10000 6.17 290 18:48 28.01.2022
3427 Clear 0 1015 70 10000 6.17 290 17:43 28.01.2022
3428 Clear 1 1014 66 10000 6.17 310 15:28 28.01.2022
3429 Clear 2 1013 64 10000 5.66 320 13:59 28.01.2022
3430 Clear 2 1012 64 10000 8.23 330 12:32 28.01.2022
3431 Clear 1 1011 68 10000 7.72 330 11:36 28.01.2022
3432 Clouds 1 1009 76 10000 7.72 320 09:59 28.01.2022
3433 Clouds 1 1007 81 10000 7.2 320 08:41 28.01.2022
3434 Clouds 1 1005 82 10000 6.69 320 07:36 28.01.2022
3435 Clouds 1 1002 89 10000 7.2 320 05:23 28.01.2022
3436 Clouds 1 999 90 10000 6.17 320 03:45 28.01.2022
3437 Clouds 0 998 92 9000 6.17 340 02:22 28.01.2022
3438 Clouds 0 997 94 6000 5.14 330 01:33 28.01.2022
3439 Clouds 1 992 93 8000 5.66 340 23:30 27.01.2022
3440 Drizzle 1 990 93 9000 6.17 350 21:49 27.01.2022
3441 Drizzle 1 989 93 10000 5.14 340 21:29 27.01.2022
3442 Clouds 1 988 95 8000 5.66 330 20:44 27.01.2022
3443 Clouds 2 985 93 10000 4.63 350 18:55 27.01.2022
3444 Drizzle 3 984 95 8000 3.6 350 17:56 27.01.2022
3445 Clouds 4 985 93 10000 1.54 230 15:18 27.01.2022
3446 Rain 4 984 94 10000 2.06 190 13:36 27.01.2022
3447 Drizzle 4 985 93 10000 2.06 180 12:45 27.01.2022
3448 Clouds 3 988 93 10000 3.09 160 10:24 27.01.2022
3449 Rain 2 992 91 10000 3.09 180 08:57 27.01.2022
3450 Clouds 2 992 90 10000 3.09 180 08:34 27.01.2022
3451 Clouds 2 996 90 10000 3.09 210 05:59 27.01.2022
3452 Clouds 0 998 88 10000 2.57 220 02:43 27.01.2022
3453 Clouds 0 1001 89 10000 1.54 230 23:32 26.01.2022
3454 Clear 1 1002 87 10000 2.06 250 21:59 26.01.2022
3455 Clear 1 1002 87 10000 2.06 250 21:35 26.01.2022
3456 Clear 2 1002 88 10000 4.63 260 20:36 26.01.2022
3457 Clear 2 1002 88 10000 4.63 260 20:36 26.01.2022
3458 Clear 2 1003 88 10000 2.57 240 19:59 26.01.2022
3459 Clouds 3 1002 88 10000 2.57 260 19:20 26.01.2022
3460 Clouds 3 1002 87 10000 3.6 270 18:45 26.01.2022
3461 Clouds 3 1002 90 10000 3.09 260 17:50 26.01.2022
3462 Clouds 3 1002 91 10000 2.57 260 17:22 26.01.2022
3463 Clouds 3 1002 93 10000 2.06 210 16:31 26.01.2022
3464 Clouds 3 1002 93 10000 2.57 220 15:49 26.01.2022
3465 Clouds 3 1003 93 10000 1.54 0 13:58 26.01.2022
3466 Clouds 2 1005 95 10000 3.09 200 11:48 26.01.2022
3467 Clouds 1 1006 95 7000 4.12 210 10:28 26.01.2022
3468 Mist 1 1007 95 4300 3.6 190 09:46 26.01.2022
3469 Clouds 0 1009 91 7000 4.12 190 07:44 26.01.2022
3470 Clouds -3 1015 89 10000 1.54 180 01:54 26.01.2022
3471 Clouds -4 1020 91 10000 1.54 190 23:56 25.01.2022
3472 Clouds -4 1021 91 10000 0 0 22:56 25.01.2022
3473 Clear -5 1022 95 10000 1.03 0 22:21 25.01.2022
3474 Clear -4 1022 93 10000 0 0 21:52 25.01.2022
3475 Clear -4 1023 91 10000 0 0 20:46 25.01.2022
3476 Clear -4 1023 91 10000 0 0 20:46 25.01.2022
3477 Clear -4 1023 90 10000 0 0 20:23 25.01.2022
3478 Clear -4 1023 90 10000 0 0 19:50 25.01.2022
3479 Clear -3 1024 88 10000 1.03 0 18:32 25.01.2022
3480 Clear -3 1022 86 10000 1.03 240 17:43 25.01.2022
3481 Clear -1 1022 81 10000 1.54 260 16:35 25.01.2022
3482 Clear 0 1022 78 10000 2.57 290 15:49 25.01.2022
3483 Clear 0 1022 76 10000 3.09 290 15:31 25.01.2022
3484 Clear 1 1022 75 10000 3.6 290 14:57 25.01.2022
3485 Clear 1 1022 76 10000 4.12 300 13:40 25.01.2022
3486 Clear 0 1021 89 10000 2.06 290 10:39 25.01.2022
3487 Clear -2 1021 96 10000 1.03 290 08:37 25.01.2022
3488 Clear -1 1020 96 10000 1.54 250 07:29 25.01.2022
3489 Clear -1 1020 96 10000 2.06 300 06:47 25.01.2022
3490 Fog -1 1019 95 250 1.03 280 05:22 25.01.2022
3491 Clouds 2 1017 92 10000 3.09 260 23:37 24.01.2022
3492 Clouds 2 1017 91 10000 4.12 270 23:18 24.01.2022
3493 Clouds 2 1017 91 10000 4.12 260 22:59 24.01.2022
3494 Clouds 2 1017 91 10000 4.12 260 22:41 24.01.2022
3495 Clouds 2 1017 90 10000 2.57 260 21:52 24.01.2022
3496 Clouds 2 1017 90 10000 2.57 270 21:28 24.01.2022
3497 Clear 3 1017 88 10000 4.12 260 20:29 24.01.2022
3498 Clear 3 1017 87 10000 4.12 270 19:44 24.01.2022
3499 Clear 3 1016 87 10000 4.12 270 19:24 24.01.2022
3500 Clear 4 1016 85 10000 4.63 260 17:45 24.01.2022
3501 Clear 4 1016 85 10000 5.14 270 17:23 24.01.2022
3502 Clear 4 1016 83 10000 5.66 260 16:41 24.01.2022
3503 Clear 4 1016 83 10000 5.66 250 16:18 24.01.2022
3504 Clear 5 1015 82 10000 4.12 250 14:35 24.01.2022
3505 Clouds 5 1016 83 10000 5.14 260 12:40 24.01.2022
3506 Clouds 5 1016 83 10000 5.14 260 12:22 24.01.2022
3507 Clouds 4 1017 87 10000 6.17 260 10:27 24.01.2022
3508 Clouds 4 1017 87 10000 5.66 260 09:48 24.01.2022
3509 Clouds 4 1017 89 10000 5.14 250 08:30 24.01.2022
3510 Mist 2 1019 96 5000 3.6 240 04:50 24.01.2022
3511 Mist 1 1020 94 5000 4.12 240 01:30 24.01.2022
3512 Clouds 1 1020 94 8000 3.6 240 00:35 24.01.2022
3513 Clouds 0 1019 95 7000 3.6 240 23:49 23.01.2022
3514 Clouds 0 1021 95 5000 4.12 240 22:28 23.01.2022
3515 Clouds 0 1021 95 5000 4.63 250 21:46 23.01.2022
3516 Clouds 0 1021 95 6000 3.09 240 21:25 23.01.2022
3517 Clouds 0 1021 95 6000 2.06 230 20:44 23.01.2022
3518 Mist 0 1022 95 3000 2.06 230 19:43 23.01.2022
3519 Fog 0 1022 93 900 3.09 240 18:50 23.01.2022
3520 Mist 0 1021 92 3000 3.09 250 17:34 23.01.2022
3521 Clear 0 1022 91 10000 1.54 220 16:45 23.01.2022
3522 Clear 1 1022 88 10000 2.57 250 14:59 23.01.2022
3523 Clear 1 1022 87 10000 2.57 270 14:25 23.01.2022
3524 Clear 1 1022 88 10000 3.6 270 12:54 23.01.2022
3525 Clear 1 1022 91 10000 2.57 250 12:22 23.01.2022
3526 Clouds 1 1022 92 10000 2.57 260 11:52 23.01.2022
3527 Clouds 0 1022 91 10000 2.57 250 11:18 23.01.2022
3528 Clouds 0 1022 92 10000 3.6 250 10:27 23.01.2022
3529 Clouds 0 1022 92 10000 3.09 240 09:51 23.01.2022
3530 Clouds -1 1022 92 10000 3.09 240 08:53 23.01.2022
3531 Clouds -2 1021 88 10000 2.57 240 05:56 23.01.2022
3532 Clouds -4 1021 87 10000 1.54 190 01:52 23.01.2022
3533 Clouds -4 1023 85 10000 1.54 210 01:26 23.01.2022
3534 Clouds -5 1022 80 10000 2.06 240 00:23 23.01.2022
3535 Clouds -5 1022 80 10000 1.54 230 23:44 22.01.2022
3536 Clouds -6 1022 79 10000 1.03 0 22:40 22.01.2022
3537 Clouds -5 1022 74 10000 0.51 200 21:36 22.01.2022
3538 Clouds -3 1021 68 10000 1.54 210 19:51 22.01.2022
3539 Clouds -3 1021 70 10000 2.06 230 18:49 22.01.2022
3540 Clouds -3 1021 70 10000 2.57 190 18:18 22.01.2022
3541 Clouds -3 1020 71 10000 2.06 170 17:40 22.01.2022
3542 Clouds -3 1021 72 10000 2.06 220 16:56 22.01.2022
3543 Clouds -3 1022 74 10000 1.54 230 15:50 22.01.2022
3544 Clouds -3 1022 75 10000 2.57 250 15:26 22.01.2022
3545 Clouds -3 1022 75 10000 1.54 250 13:46 22.01.2022
3546 Clear -3 1022 77 10000 2.06 280 12:52 22.01.2022
3547 Clear -4 1022 78 10000 1.54 280 12:29 22.01.2022
3548 Clear -4 1022 77 10000 1.54 270 11:31 22.01.2022
3549 Clear -6 1022 80 10000 2.06 310 10:29 22.01.2022
3550 Clear -6 1022 80 10000 3.09 310 09:59 22.01.2022
3551 Clear -6 1021 82 10000 2.57 290 08:53 22.01.2022
3552 Clouds -6 1021 83 10000 3.09 280 07:39 22.01.2022
3553 Clouds -5 1020 74 10000 3.6 320 04:53 22.01.2022
3554 Clouds -5 1018 71 10000 4.63 320 01:49 22.01.2022
3555 Clear -4 1016 67 10000 5.14 320 23:46 21.01.2022
3556 Clear -4 1017 70 10000 4.12 310 22:36 21.01.2022
3557 Clear -4 1015 71 10000 4.63 320 20:32 21.01.2022
3558 Clear -3 1014 69 10000 6.17 320 18:40 21.01.2022
3559 Clear -3 1014 68 10000 6.17 320 17:41 21.01.2022
3560 Clear -3 1012 65 10000 6.17 330 15:44 21.01.2022
3561 Clear -2 1011 65 10000 6.17 320 13:55 21.01.2022
3562 Clear -2 1013 65 10000 7.72 310 12:39 21.01.2022
3563 Clear -3 1011 66 10000 5.66 300 11:28 21.01.2022
3564 Clear -4 1010 71 10000 5.66 300 10:20 21.01.2022
3565 Clear -3 1009 71 10000 4.63 310 08:25 21.01.2022
3566 Clear -4 1009 71 10000 5.14 310 07:19 21.01.2022
3567 Clouds -2 1004 70 10000 7.2 310 23:54 20.01.2022
3568 Clouds -1 1003 73 10000 6.69 310 22:44 20.01.2022
3569 Clear -1 1002 75 10000 6.69 310 21:47 20.01.2022
3570 Clouds -1 1002 77 10000 6.17 310 20:56 20.01.2022
3571 Clear -2 999 75 10000 6.69 310 19:21 20.01.2022
3572 Clear -2 999 73 10000 7.2 310 18:51 20.01.2022
3573 Clear -3 998 75 10000 7.72 310 17:31 20.01.2022
3574 Clear -3 997 71 10000 9.26 310 15:46 20.01.2022
3575 Clear -3 997 71 10000 9.26 310 15:25 20.01.2022
3576 Clear -2 996 73 10000 9.77 320 13:42 20.01.2022
3577 Clear -2 994 76 10000 10.29 310 12:43 20.01.2022
3578 Clouds -2 994 77 10000 9.26 310 12:21 20.01.2022
3579 Clouds -3 992 80 10000 9.26 310 10:55 20.01.2022
3580 Clouds -3 991 85 10000 8.75 310 09:43 20.01.2022
3581 Clouds -3 989 87 10000 7.72 310 08:35 20.01.2022
3582 Clouds -3 989 87 10000 7.72 310 08:35 20.01.2022
3583 Clouds -4 988 94 1200 8.75 310 06:18 20.01.2022
3584 Rain 2 983 92 4300 3.6 210 23:52 19.01.2022
3585 Rain 3 984 91 10000 4.12 200 22:37 19.01.2022
3586 Rain 4 986 89 10000 5.14 190 21:24 19.01.2022
3587 Drizzle 4 987 88 10000 5.14 210 20:53 19.01.2022
3588 Drizzle 5 988 88 10000 5.14 210 20:22 19.01.2022
3589 Clouds 5 990 84 10000 6.17 230 18:49 19.01.2022
3590 Clouds 5 990 84 10000 6.17 230 18:49 19.01.2022
3591 Clouds 6 992 83 10000 6.17 230 17:50 19.01.2022
3592 Clouds 6 993 83 10000 7.2 240 16:59 19.01.2022
3593 Clouds 6 996 84 10000 7.72 250 14:43 19.01.2022
3594 Clouds 5 999 84 10000 6.17 240 12:53 19.01.2022
3595 Clouds 5 1000 84 10000 7.2 230 11:54 19.01.2022
3596 Clouds 5 1003 84 10000 6.17 240 10:52 19.01.2022
3597 Clear 4 1004 87 10000 4.12 230 09:35 19.01.2022
3598 Clear 3 1006 87 10000 7.2 240 07:34 19.01.2022
3599 Clouds 3 1009 90 10000 4.63 240 05:19 19.01.2022
3600 Clouds 1 1013 89 10000 3.09 230 23:53 18.01.2022
3601 Clouds 1 1014 90 10000 3.6 250 23:18 18.01.2022
3602 Clear 1 1015 89 10000 2.57 260 21:43 18.01.2022
3603 Clear 1 1016 87 10000 3.6 250 20:21 18.01.2022
3604 Clear 1 1017 84 10000 3.6 260 19:39 18.01.2022
3605 Clear 1 1017 84 10000 4.12 260 19:21 18.01.2022
3606 Clear 2 1017 80 10000 4.63 260 18:18 18.01.2022
3607 Clear 1 1018 76 10000 5.14 250 17:29 18.01.2022
3608 Clear 2 1018 70 10000 4.12 240 15:56 18.01.2022
3609 Clear 2 1019 67 10000 4.63 250 15:24 18.01.2022
3610 Clear 2 1019 62 10000 2.57 240 14:18 18.01.2022
3611 Clear 0 1022 70 10000 5.14 250 11:20 18.01.2022
3612 Clear -1 1023 75 10000 3.09 240 09:58 18.01.2022
3613 Clouds -1 1022 78 10000 0.45 248 08:29 18.01.2022
3614 Clear -1 1023 76 10000 2.57 270 07:42 18.01.2022
3615 Clouds 0 1019 72 10000 4.63 310 00:38 18.01.2022
3616 Clouds 1 1017 73 10000 5.66 310 22:39 17.01.2022
3617 Clear 1 1015 72 10000 6.17 310 21:41 17.01.2022
3618 Clear 1 1014 71 10000 4.63 290 20:39 17.01.2022
3619 Clear 0 1013 70 10000 5.14 290 18:46 17.01.2022
3620 Clear 0 1012 69 10000 4.63 290 18:24 17.01.2022
3621 Clear 0 1011 67 10000 5.14 280 17:19 17.01.2022
3622 Clear 0 1010 59 10000 4.63 290 15:47 17.01.2022
3623 Clear 1 1009 56 10000 5.14 320 14:58 17.01.2022
3624 Clear 1 1008 56 10000 6.69 320 14:22 17.01.2022
3625 Clear 1 1006 60 10000 7.72 320 13:18 17.01.2022
3626 Clouds 1 1002 62 10000 8.23 330 11:51 17.01.2022
3627 Clear 1 1000 61 10000 7.2 330 10:47 17.01.2022
3628 Clouds 1 997 63 10000 8.75 320 09:35 17.01.2022
3629 Clouds 0 994 68 10000 8.23 310 08:43 17.01.2022
3630 Clouds 0 990 61 10000 11.83 310 07:20 17.01.2022
3631 Clouds 4 984 69 10000 9.77 270 00:58 17.01.2022
3632 Rain 3 985 82 10000 5.14 230 23:27 16.01.2022
3633 Clear 2 991 89 10000 5.14 250 20:50 16.01.2022
3634 Clear 3 992 90 10000 4.63 250 19:55 16.01.2022
3635 Clear 3 994 91 10000 4.12 260 18:45 16.01.2022
3636 Clear 4 994 90 10000 4.12 260 17:46 16.01.2022
3637 Clouds 4 994 90 10000 6.69 260 16:52 16.01.2022
3638 Clouds 4 994 92 10000 5.14 240 15:39 16.01.2022
3639 Clouds 4 995 92 5000 6.17 250 14:29 16.01.2022
3640 Clouds 4 995 92 5000 6.17 250 14:29 16.01.2022
3641 Clouds 5 996 86 10000 6.17 240 12:57 16.01.2022
3642 Clouds 5 997 87 10000 5.66 230 11:49 16.01.2022
3643 Clouds 4 998 87 10000 6.69 230 11:27 16.01.2022
3644 Clouds 4 999 89 10000 6.17 240 10:27 16.01.2022
3645 Clouds 4 999 88 10000 5.66 240 09:57 16.01.2022
3646 Clouds 4 1000 89 10000 5.66 230 09:23 16.01.2022
3647 Clouds 4 1001 89 10000 5.14 230 08:52 16.01.2022
3648 Clouds 1 1005 89 10000 3.09 210 05:35 16.01.2022
3649 Clouds -1 1012 81 10000 2.57 230 23:51 15.01.2022
3650 Clouds -1 1013 79 10000 2.57 230 22:37 15.01.2022
3651 Clouds -1 1013 77 10000 2.06 220 21:21 15.01.2022
3652 Clouds -2 1014 76 10000 3.09 220 20:43 15.01.2022
3653 Clouds -2 1015 80 10000 1.03 230 19:52 15.01.2022
3654 Clouds -2 1016 78 10000 1.54 230 19:19 15.01.2022
3655 Clouds -1 1017 76 10000 2.57 230 17:35 15.01.2022
3656 Clear -1 1018 76 10000 2.57 230 16:37 15.01.2022
3657 Clear 1 1019 68 10000 4.63 290 13:57 15.01.2022
3658 Clear 1 1019 68 10000 6.17 290 12:20 15.01.2022
3659 Clear 0 1019 72 10000 5.14 280 10:43 15.01.2022
3660 Clear 0 1018 72 10000 5.14 300 08:32 15.01.2022
3661 Clear 2 1015 66 10000 6.69 270 00:35 15.01.2022
3662 Clear 3 1013 63 10000 7.2 280 21:56 14.01.2022
3663 Clear 3 1012 62 10000 7.2 280 20:41 14.01.2022
3664 Clear 3 1012 61 10000 7.72 290 20:21 14.01.2022
3665 Clear 3 1011 61 10000 7.72 290 18:49 14.01.2022
3666 Clear 3 1010 59 10000 9.26 290 18:20 14.01.2022
3667 Clear 3 1009 58 10000 9.26 300 16:50 14.01.2022
3668 Clear 4 1008 57 10000 8.75 300 15:39 14.01.2022
3669 Clear 4 1007 57 10000 10.29 300 14:42 14.01.2022
3670 Clear 4 1006 55 10000 11.83 290 13:36 14.01.2022
3671 Clear 4 1005 56 10000 11.83 300 12:28 14.01.2022
3672 Clear 3 1004 56 10000 10.8 300 10:56 14.01.2022
3673 Clear 3 1002 57 10000 10.8 290 09:44 14.01.2022
3674 Clear 3 1002 59 10000 10.8 300 08:44 14.01.2022
3675 Clouds 3 1000 68 10000 9.77 300 06:45 14.01.2022
3676 Clouds 7 997 78 10000 6.17 250 01:20 14.01.2022
3677 Clouds 7 1001 78 10000 6.17 260 22:52 13.01.2022
3678 Clear 6 1003 79 10000 8.23 260 21:31 13.01.2022
3679 Clear 6 1003 79 10000 9.77 270 20:57 13.01.2022
3680 Clear 6 1002 79 10000 9.26 260 19:40 13.01.2022
3681 Clear 6 1003 79 10000 9.26 260 19:22 13.01.2022
3682 Clear 6 1004 79 10000 6.69 260 17:52 13.01.2022
3683 Clear 7 1004 78 10000 7.72 270 16:21 13.01.2022
3684 Clear 7 1005 78 10000 8.23 270 15:37 13.01.2022
3685 Clear 7 1005 76 10000 6.69 260 14:46 13.01.2022
3686 Clear 7 1006 78 10000 6.17 260 12:44 13.01.2022
3687 Clear 6 1008 80 10000 6.69 260 10:25 13.01.2022
3688 Clear 7 1008 80 10000 7.72 260 08:58 13.01.2022
3689 Clear 6 1009 81 10000 6.17 260 08:26 13.01.2022
3690 Clear 6 1008 81 10000 7.2 260 07:23 13.01.2022
3691 Clouds 6 1009 85 10000 8.23 260 05:59 13.01.2022
3692 Clouds 6 1009 86 10000 7.72 270 05:19 13.01.2022
3693 Clouds 5 1010 90 10000 5.66 250 01:58 13.01.2022
3694 Clouds 5 1010 91 10000 5.14 260 00:54 13.01.2022
3695 Clouds 5 1011 92 10000 5.14 270 23:49 12.01.2022
3696 Clouds 5 1011 92 10000 5.14 250 23:19 12.01.2022
3697 Clouds 4 1012 93 10000 3.6 250 21:57 12.01.2022
3698 Clouds 4 1013 93 10000 4.63 240 21:22 12.01.2022
3699 Clouds 4 1013 93 10000 4.63 240 21:22 12.01.2022
3700 Clouds 4 1013 92 10000 5.14 240 20:56 12.01.2022
3701 Clouds 4 1014 92 10000 5.66 240 19:43 12.01.2022
3702 Clouds 4 1015 92 10000 4.63 250 18:42 12.01.2022
3703 Clouds 3 1016 93 10000 4.63 240 17:21 12.01.2022
3704 Clouds 3 1016 92 10000 3.6 230 16:32 12.01.2022
3705 Clouds 2 1018 92 10000 4.12 230 14:48 12.01.2022
3706 Rain 2 1018 92 10000 3.6 230 13:24 12.01.2022
3707 Clouds 1 1021 93 10000 4.12 220 10:56 12.01.2022
3708 Mist 1 1022 94 3600 4.12 220 08:43 12.01.2022
3709 Clouds 1 1022 94 7000 3.09 190 07:50 12.01.2022
3710 Clouds 1 1023 94 7000 3.09 210 07:31 12.01.2022
3711 Clouds 0 1026 92 3500 3.09 200 23:53 11.01.2022
3712 Snow 0 1026 90 2100 3.6 210 22:56 11.01.2022
3713 Snow 0 1027 90 10000 4.12 210 22:23 11.01.2022
3714 Clouds 0 1027 89 10000 3.6 210 21:25 11.01.2022
3715 Clouds 0 1027 88 10000 5.14 210 20:21 11.01.2022
3716 Clouds 0 1028 87 10000 5.14 190 18:43 11.01.2022
3717 Clouds 0 1028 87 10000 3.6 210 17:35 11.01.2022
3718 Clear 0 1028 88 10000 5.14 180 16:38 11.01.2022
3719 Clear -1 1029 88 10000 4.12 190 15:56 11.01.2022
3720 Clear 0 1029 86 10000 4.12 190 14:43 11.01.2022
3721 Clear 0 1029 85 10000 3.6 180 13:56 11.01.2022
3722 Clear 0 1030 85 10000 3.6 180 13:36 11.01.2022
3723 Clouds 0 1030 85 10000 3.09 190 12:51 11.01.2022
3724 Clouds 0 1030 87 10000 3.6 190 12:20 11.01.2022
3725 Clouds -1 1032 88 10000 3.09 170 09:58 11.01.2022
3726 Clouds -2 1032 91 10000 2.06 150 07:18 11.01.2022
3727 Fog -7 1034 100 1200 1.03 110 00:43 11.01.2022
3728 Clouds -6 1034 97 2900 1.03 130 00:21 11.01.2022
3729 Clouds -4 1034 93 10000 1.54 120 23:28 10.01.2022
3730 Clouds -3 1033 89 10000 1.03 80 22:19 10.01.2022
3731 Clouds -3 1033 88 10000 1.54 80 21:54 10.01.2022
3732 Clouds -3 1033 88 10000 1.03 0 21:31 10.01.2022
3733 Clouds -2 1032 87 10000 1.54 300 20:58 10.01.2022
3734 Clouds -2 1032 87 10000 1.03 0 20:29 10.01.2022
3735 Clouds -2 1032 88 10000 1.54 0 19:45 10.01.2022
3736 Clouds -2 1031 89 10000 1.03 360 19:21 10.01.2022
3737 Clouds -2 1031 89 10000 1.54 20 18:50 10.01.2022
3738 Clouds -2 1031 89 10000 0.51 20 18:31 10.01.2022
3739 Clouds -2 1030 90 10000 1.54 320 16:42 10.01.2022
3740 Clouds -2 1029 90 10000 1.54 0 15:50 10.01.2022
3741 Clouds -2 1028 89 10000 2.06 20 14:39 10.01.2022
3742 Clouds -2 1027 91 10000 3.09 20 12:31 10.01.2022
3743 Clouds -1 1026 90 10000 2.57 20 11:25 10.01.2022
3744 Clouds -1 1026 91 10000 2.06 20 10:21 10.01.2022
3745 Clouds -1 1024 91 10000 2.06 20 08:22 10.01.2022
3746 Clouds -1 1021 91 10000 2.57 360 05:50 10.01.2022
3747 Clouds -1 1017 91 10000 2.57 30 01:33 10.01.2022
3748 Clouds -1 1017 91 10000 2.57 30 01:33 10.01.2022
3749 Clouds -1 1016 92 10000 2.57 40 00:33 10.01.2022
3750 Clouds -1 1015 92 10000 1.54 50 23:54 09.01.2022
3751 Clouds -1 1014 92 10000 1.54 0 22:43 09.01.2022
3752 Clouds -2 1013 92 10000 1.54 0 21:47 09.01.2022
3753 Clouds -2 1013 91 10000 1.54 20 21:25 09.01.2022
3754 Clouds -1 1012 91 10000 1.54 50 20:55 09.01.2022
3755 Clouds -1 1011 91 10000 1.54 50 20:37 09.01.2022
3756 Clouds -1 1011 91 10000 3.6 60 20:18 09.01.2022
3757 Clouds -1 1012 87 10000 3.09 30 19:37 09.01.2022
3758 Clouds -1 1009 90 10000 2.57 50 19:18 09.01.2022
3759 Clouds -1 1008 91 10000 3.6 60 18:37 09.01.2022
3760 Clouds -1 1009 91 10000 4.12 30 17:48 09.01.2022
3761 Clouds -1 1008 91 10000 3.09 30 17:26 09.01.2022
3762 Clouds 0 1008 92 10000 3.09 20 16:40 09.01.2022
3763 Clouds 0 1007 93 10000 2.06 50 15:40 09.01.2022
3764 Clouds 0 1006 94 10000 3.09 50 14:50 09.01.2022
3765 Clouds 0 1005 95 10000 4.63 60 14:23 09.01.2022
3766 Clouds 0 1005 96 9000 4.63 50 13:48 09.01.2022
3767 Clouds 0 1003 96 1900 2.57 30 11:56 09.01.2022
3768 Mist 0 1003 96 600 2.06 50 11:26 09.01.2022
3769 Clouds -1 1002 96 8000 1.03 0 09:55 09.01.2022
3770 Clouds -1 1002 96 6000 1.54 10 08:59 09.01.2022
3771 Fog -1 999 96 250 2.06 70 06:56 09.01.2022
3772 Clouds 0 998 96 10000 0.51 0 01:29 09.01.2022
3773 Clouds 0 998 96 10000 1.54 0 00:37 09.01.2022
3774 Mist 0 998 96 3100 0 0 23:31 08.01.2022
3775 Mist 0 998 96 4100 0 0 22:48 08.01.2022
3776 Clouds 0 998 96 2800 0.51 0 21:28 08.01.2022
3777 Fog 0 998 96 450 1.03 110 20:43 08.01.2022
3778 Mist 0 998 96 2200 0 0 20:22 08.01.2022
3779 Mist 0 998 96 4400 1.54 140 19:22 08.01.2022
3780 Clouds 0 999 96 6000 1.03 0 17:31 08.01.2022
3781 Clouds 0 999 96 7000 1.03 0 16:42 08.01.2022
3782 Clouds 0 999 96 6000 1.03 0 15:28 08.01.2022
3783 Clouds 0 999 96 7000 1.54 220 13:58 08.01.2022
3784 Clouds 0 1000 96 9000 2.06 210 11:40 08.01.2022
3785 Clouds 0 1001 96 10000 1.03 0 10:33 08.01.2022
3786 Clouds 0 1001 96 10000 1.54 160 09:57 08.01.2022
3787 Clouds 0 1001 96 10000 1.54 160 09:33 08.01.2022
3788 Snow 0 1002 96 2400 3.6 100 05:51 08.01.2022
3789 Snow -1 1004 94 2900 4.63 80 01:24 08.01.2022
3790 Snow -2 1005 93 3500 5.14 90 23:30 07.01.2022
3791 Snow -2 1006 89 4800 4.12 100 21:47 07.01.2022
3792 Snow -3 1006 86 9000 4.12 80 20:32 07.01.2022
3793 Snow -4 1006 86 10000 4.12 100 19:27 07.01.2022
3794 Clouds -4 1006 87 10000 4.12 90 18:49 07.01.2022
3795 Clouds -4 1006 87 10000 3.6 100 18:21 07.01.2022
3796 Clouds -5 1007 87 10000 3.09 90 17:23 07.01.2022
3797 Clear -6 1007 86 10000 1.54 70 14:55 07.01.2022
3798 Clear -7 1007 87 10000 1.54 40 13:52 07.01.2022
3799 Clear -7 1009 87 10000 0 0 12:51 07.01.2022
3800 Clear -8 1009 92 10000 1.03 0 11:22 07.01.2022
3801 Clear -10 1008 92 10000 0 0 04:25 07.01.2022
3802 Clear -8 1008 86 10000 3.6 270 02:46 07.01.2022
3803 Clear -8 1008 79 10000 2.57 280 01:48 07.01.2022
3804 Clear -8 1008 79 10000 2.57 280 01:48 07.01.2022
3805 Clear -8 1009 86 10000 3.09 270 01:25 07.01.2022
3806 Clear -8 1008 86 10000 3.6 260 00:30 07.01.2022
3807 Clear -8 1008 86 10000 3.6 260 00:30 07.01.2022
3808 Clear -7 1006 85 10000 5.14 260 22:33 06.01.2022
3809 Clear -7 1006 83 10000 3.6 250 20:51 06.01.2022
3810 Clear -7 1005 82 10000 3.6 260 20:18 06.01.2022
3811 Clear -6 1006 84 10000 3.09 260 19:36 06.01.2022
3812 Clear -6 1005 81 10000 3.09 270 17:51 06.01.2022
3813 Clear -6 1005 80 10000 2.57 280 17:27 06.01.2022
3814 Clear -6 1005 82 10000 4.63 290 16:38 06.01.2022
3815 Clear -6 1005 81 10000 3.6 300 15:44 06.01.2022
3816 Clear -6 1004 80 10000 5.14 290 15:22 06.01.2022
3817 Clear -6 1005 80 10000 5.14 290 14:20 06.01.2022
3818 Clear -6 1004 80 10000 4.63 290 13:39 06.01.2022
3819 Clear -6 1003 80 10000 5.14 300 12:21 06.01.2022
3820 Clear -6 1003 82 10000 4.12 300 11:30 06.01.2022
3821 Clear -7 1005 81 10000 4.12 290 10:50 06.01.2022
3822 Clear -7 999 83 10000 4.12 300 06:38 06.01.2022
3823 Snow -5 994 90 10000 5.14 320 00:34 06.01.2022
3824 Clouds -5 993 90 10000 5.66 320 23:33 05.01.2022
3825 Clouds -5 992 89 10000 5.14 310 22:48 05.01.2022
3826 Snow -5 992 90 10000 6.17 310 22:26 05.01.2022
3827 Snow -5 991 91 10000 4.12 310 21:28 05.01.2022
3828 Snow -5 990 91 10000 5.14 320 20:30 05.01.2022
3829 Snow -5 989 91 10000 5.66 320 19:42 05.01.2022
3830 Snow -4 987 94 2000 4.12 320 18:22 05.01.2022
3831 Snow -3 986 94 1800 4.12 320 16:57 05.01.2022
3832 Snow -2 985 94 1500 5.14 340 16:19 05.01.2022
3833 Snow 0 984 93 4500 2.57 330 15:19 05.01.2022
3834 Clouds 0 983 93 10000 2.57 320 13:34 05.01.2022
3835 Clouds 0 982 94 10000 3.09 300 12:30 05.01.2022
3836 Clouds -1 981 93 10000 2.06 170 08:46 05.01.2022
3837 Clouds -1 980 93 10000 2.57 200 06:46 05.01.2022
3838 Clouds -1 981 93 10000 2.06 180 01:49 05.01.2022
3839 Clouds -1 981 91 10000 2.06 190 23:44 04.01.2022
3840 Clouds -1 981 91 10000 2.57 190 23:25 04.01.2022
3841 Clouds -1 982 90 10000 3.09 200 21:50 04.01.2022
3842 Clear -1 982 89 10000 2.57 190 20:45 04.01.2022
3843 Clear 0 982 90 10000 3.6 200 18:44 04.01.2022
3844 Clear 0 982 90 10000 2.57 210 17:34 04.01.2022
3845 Clouds 0 983 89 10000 2.57 220 16:39 04.01.2022
3846 Clear 0 983 88 10000 3.09 210 16:20 04.01.2022
3847 Clear 1 983 87 10000 3.6 220 14:42 04.01.2022
3848 Clear 1 983 86 10000 4.12 250 13:57 04.01.2022
3849 Clear 1 983 87 10000 3.09 230 12:24 04.01.2022
3850 Clear 0 983 88 10000 5.66 240 10:24 04.01.2022
3851 Clear 0 983 90 10000 5.14 230 08:59 04.01.2022
3852 Clouds 1 983 89 10000 4.12 240 06:46 04.01.2022
3853 Clouds 4 984 93 10000 3.6 180 00:44 04.01.2022
3854 Clouds 4 984 93 10000 3.6 170 23:56 03.01.2022
3855 Clouds 4 985 96 10000 3.09 190 22:28 03.01.2022
3856 Clouds 4 986 96 10000 3.09 200 21:41 03.01.2022
3857 Clouds 4 986 94 10000 2.57 180 20:42 03.01.2022
3858 Clouds 4 987 94 6000 2.57 160 19:43 03.01.2022
3859 Rain 4 987 94 10000 2.06 160 18:31 03.01.2022
3860 Clouds 4 988 94 10000 2.06 170 17:34 03.01.2022
3861 Clouds 4 988 94 10000 2.06 180 16:56 03.01.2022
3862 Clouds 4 989 96 6000 2.06 220 14:33 03.01.2022
3863 Drizzle 4 989 95 4000 2.06 200 13:25 03.01.2022
3864 Clouds 4 989 94 10000 1.54 0 12:28 03.01.2022
3865 Clouds 4 990 94 10000 2.06 240 11:30 03.01.2022
3866 Clouds 3 990 92 10000 3.6 270 09:41 03.01.2022
3867 Clouds 4 990 94 10000 3.09 240 08:18 03.01.2022
3868 Clouds 4 990 96 10000 2.57 230 05:21 03.01.2022
3869 Mist 4 993 96 2700 1.54 210 23:44 02.01.2022
3870 Clouds 4 993 96 6000 1.54 200 22:57 02.01.2022
3871 Clouds 4 993 96 6000 1.54 200 22:37 02.01.2022
3872 Mist 4 994 96 5000 2.06 220 21:26 02.01.2022
3873 Mist 4 994 96 4000 2.57 210 20:30 02.01.2022
3874 Mist 4 994 96 4000 2.57 210 19:49 02.01.2022
3875 Mist 4 994 96 6000 2.06 190 19:25 02.01.2022
3876 Drizzle 4 995 96 4000 1.54 180 18:31 02.01.2022
3877 Clouds 3 996 96 3000 1.54 170 17:43 02.01.2022
3878 Drizzle 3 996 96 1100 2.06 180 17:21 02.01.2022
3879 Fog 3 996 96 400 2.06 160 16:33 02.01.2022
3880 Fog 3 995 96 400 1.54 160 15:49 02.01.2022
3881 Fog 3 995 96 400 1.54 160 15:49 02.01.2022
3882 Clouds 3 996 96 4700 2.06 180 13:57 02.01.2022
3883 Mist 2 998 96 4000 2.06 190 12:33 02.01.2022
3884 Clouds 2 998 96 4000 1.54 190 11:56 02.01.2022
3885 Mist 2 999 96 3300 2.06 200 10:56 02.01.2022
3886 Mist 2 1000 96 3600 1.54 170 10:22 02.01.2022
3887 Mist 1 1001 96 3800 3.09 140 07:45 02.01.2022
3888 Snow 0 1010 95 1400 4.63 140 02:58 02.01.2022
3889 Snow -1 1015 87 10000 3.6 120 23:55 01.01.2022
3890 Snow -2 1015 87 10000 3.6 120 23:36 01.01.2022
3891 Snow -2 1016 86 10000 2.57 140 22:41 01.01.2022
3892 Clouds -2 1017 86 10000 2.57 130 22:18 01.01.2022
3893 Clouds -2 1018 86 10000 2.06 140 21:42 01.01.2022
3894 Clouds -2 1019 86 10000 1.03 160 20:51 01.01.2022
3895 Clouds -2 1020 86 10000 0 0 19:55 01.01.2022
3896 Clouds -2 1020 85 10000 0 0 18:53 01.01.2022
3897 Clouds -2 1020 84 10000 1.54 0 17:46 01.01.2022
3898 Clouds -1 1019 81 10000 2.06 240 16:35 01.01.2022
3899 Clouds -2 1019 80 10000 1.03 0 15:57 01.01.2022
3900 Clouds -1 1020 82 10000 2.06 350 14:56 01.01.2022
3901 Clouds -1 1019 82 10000 2.57 360 13:42 01.01.2022
3902 Clouds -1 1019 83 10000 2.57 10 12:43 01.01.2022
3903 Clouds -2 1018 85 10000 3.6 10 11:47 01.01.2022
3904 Clouds -1 1017 83 10000 4.63 350 11:19 01.01.2022
3905 Clouds -1 1016 86 8000 4.12 350 09:49 01.01.2022
3906 Clouds -1 1015 85 10000 4.63 340 09:20 01.01.2022
3907 Clouds -1 1013 86 10000 4.63 350 08:22 01.01.2022
3908 Clouds -1 1012 87 10000 5.14 340 07:41 01.01.2022
3909 Clouds 0 1011 87 10000 5.66 350 06:45 01.01.2022
3910 Clouds 0 1009 92 10000 5.66 340 05:25 01.01.2022
3911 Snow 1 1008 91 10000 4.63 350 04:37 01.01.2022
3912 Mist 1 1003 93 3900 4.63 330 00:37 01.01.2022
3913 Clouds 2 1001 95 10000 4.63 310 22:40 31.12.2021
3914 Clouds 3 1000 93 9000 4.12 300 21:51 31.12.2021
3915 Clouds 3 999 92 10000 4.12 280 20:28 31.12.2021
3916 Clouds 4 999 92 10000 3.6 280 19:28 31.12.2021
3917 Clouds 4 999 100 10000 2.57 280 18:30 31.12.2021
3918 Clouds 4 997 95 9000 4.12 280 17:37 31.12.2021
3919 Clouds 4 997 95 10000 3.09 270 17:18 31.12.2021
3920 Clouds 4 997 95 10000 3.09 250 16:19 31.12.2021
3921 Clouds 4 997 95 10000 3.09 250 15:53 31.12.2021
3922 Clouds 4 997 95 10000 3.09 240 15:28 31.12.2021
3923 Clouds 4 997 91 10000 4.63 260 14:41 31.12.2021
3924 Clouds 5 997 93 10000 3.6 240 13:58 31.12.2021
3925 Clouds 4 997 93 10000 3.6 240 13:35 31.12.2021
3926 Clouds 4 997 94 6000 2.06 230 12:44 31.12.2021
3927 Clouds 4 998 95 10000 2.57 230 11:43 31.12.2021
3928 Clouds 3 998 96 10000 3.09 220 11:20 31.12.2021
3929 Mist 3 997 96 2500 1.54 190 10:30 31.12.2021
3930 Clouds 2 998 96 10000 1.54 200 09:35 31.12.2021
3931 Clouds 1 998 96 10000 0 0 08:56 31.12.2021
3932 Clouds 1 998 93 10000 1.54 240 08:25 31.12.2021
3933 Fog 0 998 95 1100 0 0 07:30 31.12.2021
3934 Mist 5 994 95 4400 4.12 260 23:23 30.12.2021
3935 Clouds 5 994 94 9000 4.12 250 22:33 30.12.2021
3936 Drizzle 5 994 93 3500 4.12 260 21:51 30.12.2021
3937 Clouds 5 994 94 10000 4.12 240 21:33 30.12.2021
3938 Clouds 5 993 94 8000 4.12 230 20:44 30.12.2021
3939 Clouds 5 993 94 10000 4.12 240 20:24 30.12.2021
3940 Clouds 5 993 95 10000 5.14 240 19:43 30.12.2021
3941 Clouds 4 993 95 10000 4.63 230 18:29 30.12.2021
3942 Clouds 4 993 94 10000 4.63 230 17:45 30.12.2021
3943 Mist 3 994 94 5000 3.6 200 15:58 30.12.2021
3944 Mist 3 994 94 5000 3.6 200 15:39 30.12.2021
3945 Clouds 3 994 94 8000 4.12 190 14:37 30.12.2021
3946 Clouds 3 995 94 6000 4.63 190 13:33 30.12.2021
3947 Drizzle 3 996 94 6000 5.14 180 12:29 30.12.2021
3948 Rain 2 998 96 10000 4.12 170 10:58 30.12.2021
3949 Rain 2 998 94 9000 4.12 160 09:58 30.12.2021
3950 Snow 1 999 94 10000 2.57 150 08:56 30.12.2021
3951 Mist 0 1001 95 4500 2.57 160 06:52 30.12.2021
3952 Mist 0 1003 95 3000 2.06 220 03:42 30.12.2021
3953 Mist 0 1003 95 1600 1.03 100 02:47 30.12.2021
3954 Mist 0 1003 95 2600 0 0 23:43 29.12.2021
3955 Drizzle 0 1003 95 1000 0 0 23:22 29.12.2021
3956 Mist 0 1003 95 1700 1.54 300 22:21 29.12.2021
3957 Clouds 0 1004 95 3000 1.03 280 21:33 29.12.2021
3958 Mist 0 1004 95 2300 1.03 250 20:39 29.12.2021
3959 Mist 0 1003 95 3000 0 0 19:48 29.12.2021
3960 Snow 0 1003 95 3400 0.51 280 18:54 29.12.2021
3961 Snow 0 1003 95 3400 0.51 0 17:56 29.12.2021
3962 Snow 0 1003 95 3100 0 0 17:28 29.12.2021
3963 Snow 0 1003 95 3000 0 0 16:41 29.12.2021
3964 Snow 0 1003 95 2000 0 0 15:59 29.12.2021
3965 Snow 1 1003 95 1600 1.03 0 14:24 29.12.2021
3966 Snow 1 1002 95 700 0.51 0 12:42 29.12.2021
3967 Snow 1 1002 95 1500 1.03 160 11:49 29.12.2021
3968 Snow 0 1002 95 2500 1.03 0 09:59 29.12.2021
3969 Snow 0 1001 94 1100 1.03 150 07:52 29.12.2021
3970 Snow 0 1001 94 1100 1.03 150 07:52 29.12.2021
3971 Snow 0 1001 94 1800 1.03 140 06:43 29.12.2021
3972 Snow 0 1001 94 1600 1.03 140 06:23 29.12.2021
3973 Snow 0 1001 94 1100 1.03 140 05:40 29.12.2021
3974 Snow 1 1001 92 3800 2.06 160 03:18 29.12.2021
3975 Clouds 1 1000 91 10000 5.14 160 00:24 29.12.2021
3976 Clouds 1 1001 91 10000 5.14 160 23:45 28.12.2021
3977 Clouds 1 1000 88 10000 3.09 150 22:42 28.12.2021
3978 Clouds 1 1000 87 10000 4.12 140 22:24 28.12.2021
3979 Clouds 1 1000 86 10000 4.12 150 21:52 28.12.2021
3980 Clouds 1 1001 85 10000 3.6 150 20:40 28.12.2021
3981 Clouds 1 1001 85 10000 4.12 160 19:39 28.12.2021
3982 Clouds 1 1001 84 10000 5.14 150 18:44 28.12.2021
3983 Clouds 1 1001 84 10000 5.14 140 18:19 28.12.2021
3984 Clouds 1 1002 84 10000 5.66 150 16:35 28.12.2021
3985 Rain 1 1002 83 10000 5.66 140 15:51 28.12.2021
3986 Clouds 1 1003 82 10000 5.66 140 15:23 28.12.2021
3987 Clouds 1 1003 81 10000 6.17 150 14:50 28.12.2021
3988 Clouds 1 1003 79 10000 5.66 150 14:21 28.12.2021
3989 Clouds 1 1003 79 10000 5.66 150 14:21 28.12.2021
3990 Clouds 1 1004 78 10000 6.69 150 13:51 28.12.2021
3991 Clouds 1 1004 78 10000 5.66 150 13:27 28.12.2021
3992 Clouds 1 1004 78 10000 6.17 150 12:49 28.12.2021
3993 Clouds 1 1005 76 10000 7.2 150 11:51 28.12.2021
3994 Clear -1 1007 83 10000 4.12 150 09:27 28.12.2021
3995 Clear -2 1008 89 10000 2.06 140 07:28 28.12.2021
3996 Clouds -6 1013 89 8000 1.03 100 00:59 28.12.2021
3997 Clouds -5 1014 91 8000 2.06 170 23:26 27.12.2021
3998 Clouds -4 1012 92 10000 2.06 160 21:54 27.12.2021
3999 Clouds -5 1011 83 10000 2.06 200 21:26 27.12.2021
4000 Clouds -5 1011 83 10000 2.57 190 20:24 27.12.2021
4001 Clouds -5 1011 80 10000 1.54 0 19:43 27.12.2021
4002 Clouds -3 1014 93 10000 2.06 230 18:54 27.12.2021
4003 Clouds -3 1014 86 10000 2.06 230 17:50 27.12.2021
4004 Clouds -4 1013 93 10000 2.57 230 17:18 27.12.2021
4005 Clouds -4 1011 93 10000 3.09 250 15:53 27.12.2021
4006 Clouds -4 1010 90 10000 2.57 250 14:34 27.12.2021
4007 Clouds -3 1010 92 10000 3.09 260 13:58 27.12.2021
4008 Clouds -4 1011 92 10000 3.09 240 12:47 27.12.2021
4009 Clouds -4 1010 93 10000 2.57 270 10:36 27.12.2021
4010 Clouds -4 1010 94 10000 3.09 270 10:18 27.12.2021
4011 Clouds -5 1009 93 10000 4.12 270 08:41 27.12.2021
4012 Clouds -6 1009 93 10000 2.06 250 07:33 27.12.2021
4013 Clouds -7 1008 91 10000 2.06 230 02:26 27.12.2021
4014 Clouds -7 1008 91 10000 1.54 200 00:29 27.12.2021
4015 Clouds -7 1008 91 10000 1.54 210 23:42 26.12.2021
4016 Clouds -8 1008 91 10000 1.54 230 22:49 26.12.2021
4017 Clear -8 1010 90 10000 0.51 0 21:30 26.12.2021
4018 Clear -8 1008 91 10000 1.03 220 19:52 26.12.2021
4019 Clear -7 1008 90 10000 1.54 230 18:29 26.12.2021
4020 Clear -7 1008 89 10000 0 0 17:51 26.12.2021
4021 Clear -6 1008 86 10000 2.57 230 15:31 26.12.2021
4022 Clear -5 1007 85 10000 1.54 260 13:43 26.12.2021
4023 Clear -5 1007 85 10000 1.54 270 13:21 26.12.2021
4024 Clear -5 1007 85 10000 2.57 250 12:35 26.12.2021
4025 Clear -6 1007 86 10000 2.06 280 11:18 26.12.2021
4026 Clear -8 1006 88 9000 1.54 270 09:30 26.12.2021
4027 Clear -8 1006 88 10000 1.54 280 08:45 26.12.2021
4028 Clear -7 1006 89 10000 2.06 270 08:23 26.12.2021
4029 Clouds -4 1001 80 10000 4.63 300 01:45 26.12.2021
4030 Clouds -3 1000 80 10000 5.66 290 00:39 26.12.2021
4031 Clouds -4 999 79 10000 5.14 290 23:35 25.12.2021
4032 Clouds -4 999 79 10000 5.14 290 22:29 25.12.2021
4033 Clouds -4 998 81 10000 4.12 290 21:30 25.12.2021
4034 Clouds -4 998 80 10000 6.69 280 20:18 25.12.2021
4035 Clouds -4 998 81 10000 5.66 280 19:18 25.12.2021
4036 Clouds -4 998 81 10000 5.66 280 18:37 25.12.2021
4037 Clouds -5 997 81 10000 5.14 290 16:50 25.12.2021
4038 Clouds -5 997 79 10000 5.14 290 15:34 25.12.2021
4039 Clouds -5 997 78 10000 6.17 280 14:23 25.12.2021
4040 Clouds -6 997 80 10000 5.14 260 12:21 25.12.2021
4041 Clouds -8 998 82 10000 4.12 260 10:46 25.12.2021
4042 Clouds -8 998 84 10000 4.63 260 09:49 25.12.2021
4043 Clear -8 998 77 10000 3.09 270 07:27 25.12.2021
4044 Clear -9 997 76 10000 4.63 300 01:43 25.12.2021
4045 Clouds -9 996 72 10000 5.14 290 00:22 25.12.2021
4046 Clouds -9 996 72 10000 5.14 310 21:59 24.12.2021
4047 Clear -9 994 65 10000 5.66 300 19:27 24.12.2021
4048 Clear -9 994 65 10000 6.17 310 18:56 24.12.2021
4049 Clear -9 993 66 10000 5.14 300 16:49 24.12.2021
4050 Clear -9 993 68 10000 6.17 300 15:52 24.12.2021
4051 Clear -9 993 68 10000 5.66 310 15:32 24.12.2021
4052 Clouds -9 994 70 10000 6.17 310 14:35 24.12.2021
4053 Clouds -9 994 71 10000 5.14 300 13:59 24.12.2021
4054 Clouds -9 994 71 10000 5.14 300 13:32 24.12.2021
4055 Clouds -9 994 71 10000 4.63 300 12:47 24.12.2021
4056 Clouds -9 994 71 10000 5.14 290 11:46 24.12.2021
4057 Clouds -9 994 71 10000 5.66 300 11:24 24.12.2021
4058 Clouds -10 994 72 10000 4.63 310 10:36 24.12.2021
4059 Clear -11 994 74 10000 4.12 300 09:25 24.12.2021
4060 Clouds -10 994 73 10000 5.14 310 08:19 24.12.2021
4061 Clouds -10 994 75 10000 5.14 320 07:44 24.12.2021
4062 Snow -3 992 92 1100 4.12 310 00:48 24.12.2021
4063 Snow -3 992 92 1100 4.63 280 23:54 23.12.2021
4064 Snow -3 992 89 4300 5.66 280 22:54 23.12.2021
4065 Snow -3 992 89 10000 5.66 270 22:26 23.12.2021
4066 Snow -3 993 89 10000 5.66 260 21:50 23.12.2021
4067 Clouds -2 993 88 10000 4.63 250 20:54 23.12.2021
4068 Clouds -2 994 89 10000 5.14 260 19:31 23.12.2021
4069 Clouds -2 995 89 10000 5.66 250 18:32 23.12.2021
4070 Clouds -2 996 88 10000 5.66 260 17:47 23.12.2021
4071 Clouds -2 997 89 10000 5.14 250 16:40 23.12.2021
4072 Clouds -2 997 89 10000 4.63 250 16:20 23.12.2021
4073 Clouds -2 998 89 10000 6.17 250 15:31 23.12.2021
4074 Clouds -1 1000 89 10000 6.17 250 14:42 23.12.2021
4075 Clouds -1 1000 89 10000 5.14 260 14:19 23.12.2021
4076 Clouds -2 1002 89 10000 5.66 260 12:48 23.12.2021
4077 Clouds -2 1005 91 10000 5.14 240 10:43 23.12.2021
4078 Clouds -2 1006 90 8000 4.12 250 09:34 23.12.2021
4079 Clouds -2 1006 89 10000 2.57 240 08:59 23.12.2021
4080 Clouds -2 1008 88 10000 3.6 240 06:48 23.12.2021
4081 Clouds -3 1012 83 10000 3.09 230 03:41 23.12.2021
4082 Clouds -4 1017 87 10000 4.63 240 22:57 22.12.2021
4083 Clear -4 1018 86 10000 3.09 220 22:32 22.12.2021
4084 Clear -4 1018 85 10000 2.06 230 21:53 22.12.2021
4085 Clear -4 1018 86 10000 1.54 0 21:28 22.12.2021
4086 Clear -5 1019 89 10000 1.54 230 20:41 22.12.2021
4087 Clear -5 1019 88 10000 1.03 0 20:20 22.12.2021
4088 Clear -5 1020 89 10000 0.51 270 19:19 22.12.2021
4089 Clear -5 1020 89 10000 1.03 150 17:39 22.12.2021
4090 Clear -5 1022 90 10000 1.03 160 16:36 22.12.2021
4091 Clear -6 1022 90 10000 0.51 160 15:36 22.12.2021
4092 Clear -6 1024 91 10000 0 0 13:23 22.12.2021
4093 Clear -7 1024 92 10000 0 0 12:19 22.12.2021
4094 Clear -12 1027 92 10000 1.03 280 09:53 22.12.2021
4095 Clear -13 1027 92 10000 0 0 09:31 22.12.2021
4096 Clear -13 1026 92 10000 0 0 07:22 22.12.2021
4097 Clouds -12 1026 85 10000 0 0 05:41 22.12.2021
4098 Clouds -13 1026 85 10000 0 0 05:22 22.12.2021
4099 Clouds -12 1027 85 10000 0 0 04:45 22.12.2021
4100 Clouds -12 1027 85 10000 0 0 04:19 22.12.2021
4101 Clouds -13 1026 92 10000 0 0 03:32 22.12.2021
4102 Clouds -12 1026 92 10000 0 0 00:29 22.12.2021
4103 Clouds -9 1026 92 10000 0 0 22:51 21.12.2021
4104 Clear -9 1026 92 10000 0.51 280 22:27 21.12.2021
4105 Clear -9 1026 93 10000 0.51 0 21:43 21.12.2021
4106 Clear -8 1026 92 10000 0 0 20:53 21.12.2021
4107 Clear -8 1026 92 10000 1.03 320 20:20 21.12.2021
4108 Clear -8 1026 93 10000 0 0 19:41 21.12.2021
4109 Clouds -7 1024 91 10000 1.03 270 18:38 21.12.2021
4110 Clouds -7 1025 92 10000 1.03 270 17:59 21.12.2021
4111 Clouds -7 1025 92 10000 1.03 270 17:40 21.12.2021
4112 Snow -6 1023 88 10000 2.06 320 15:46 21.12.2021
4113 Snow -6 1023 88 10000 1.54 300 15:19 21.12.2021
4114 Snow -5 1023 85 10000 2.57 320 13:47 21.12.2021
4115 Snow -5 1023 86 10000 2.06 310 13:29 21.12.2021
4116 Clear -6 1024 86 10000 2.06 320 10:55 21.12.2021
4117 Clear -7 1024 82 10000 3.09 300 09:57 21.12.2021
4118 Clear -8 1024 87 10000 2.57 300 09:18 21.12.2021
4119 Clear -8 1023 87 10000 3.09 290 07:50 21.12.2021
4120 Clear -8 1023 87 10000 2.06 300 07:25 21.12.2021
4121 Clouds -8 1023 80 10000 3.09 300 04:56 21.12.2021
4122 Clouds -7 1021 84 10000 3.6 290 02:39 21.12.2021
4123 Clouds -6 1023 89 10000 2.06 300 23:58 20.12.2021
4124 Clouds -6 1023 90 10000 3.09 320 22:49 20.12.2021
4125 Clouds -6 1023 88 10000 2.57 310 22:28 20.12.2021
4126 Clouds -6 1024 89 10000 2.06 300 21:42 20.12.2021
4127 Clouds -6 1024 88 10000 3.09 310 21:22 20.12.2021
4128 Clear -6 1024 87 10000 2.06 320 20:41 20.12.2021
4129 Clear -5 1023 85 10000 2.06 320 19:48 20.12.2021
4130 Clear -5 1023 85 10000 2.06 340 19:29 20.12.2021
4131 Clear -5 1023 84 10000 2.57 340 18:49 20.12.2021
4132 Clear -4 1023 83 10000 2.06 320 17:52 20.12.2021
4133 Clear -4 1023 84 10000 2.57 320 16:56 20.12.2021
4134 Clear -3 1023 85 10000 2.57 320 16:36 20.12.2021
4135 Snow -3 1023 82 10000 3.09 330 15:47 20.12.2021
4136 Clouds -2 1023 74 10000 4.63 340 14:41 20.12.2021
4137 Clear -2 1022 64 10000 3.09 350 12:44 20.12.2021
4138 Clouds -2 1021 69 10000 4.63 10 10:55 20.12.2021
4139 Clouds -2 1021 81 10000 4.12 340 09:47 20.12.2021
4140 Clouds -2 1020 80 10000 4.12 340 08:57 20.12.2021
4141 Clouds -2 1020 80 10000 4.12 340 08:38 20.12.2021
4142 Snow -2 1020 77 10000 3.6 320 07:46 20.12.2021
4143 Snow -2 1019 75 10000 3.6 320 06:40 20.12.2021
4144 Clouds -1 1017 72 10000 5.14 350 03:41 20.12.2021
4145 Clouds 0 1014 83 10000 6.69 330 23:50 19.12.2021
4146 Clouds 1 1013 84 10000 7.2 350 22:44 19.12.2021
4147 Clouds 1 1012 85 10000 9.26 350 21:49 19.12.2021
4148 Clouds 1 1012 86 10000 7.72 340 21:25 19.12.2021
4149 Rain 2 1010 88 10000 6.69 330 20:29 19.12.2021
4150 Clouds 2 1010 89 10000 7.2 340 19:45 19.12.2021
4151 Rain 2 1009 88 5000 6.17 330 18:57 19.12.2021
4152 Rain 3 1008 83 10000 7.2 320 18:24 19.12.2021
4153 Rain 3 1008 75 10000 6.69 320 17:46 19.12.2021
4154 Clouds 3 1008 69 10000 4.63 300 16:55 19.12.2021
4155 Clouds 3 1007 67 10000 5.14 300 15:58 19.12.2021
4156 Clouds 3 1008 67 10000 6.17 300 15:26 19.12.2021
4157 Clouds 3 1008 67 10000 6.17 300 14:49 19.12.2021
4158 Clear 3 1008 65 10000 6.69 310 13:46 19.12.2021
4159 Clear 3 1008 67 10000 6.69 310 13:21 19.12.2021
4160 Clear 3 1008 66 10000 6.69 310 12:33 19.12.2021
4161 Clear 3 1008 68 10000 7.2 310 11:40 19.12.2021
4162 Clouds 2 1008 70 10000 5.14 310 10:52 19.12.2021
4163 Clouds 2 1008 71 10000 5.66 300 10:23 19.12.2021
4164 Clouds 2 1008 71 10000 6.17 300 09:20 19.12.2021
4165 Clouds 3 1007 70 10000 5.66 300 07:47 19.12.2021
4166 Clouds 5 1010 76 10000 8.23 310 02:35 19.12.2021
4167 Clouds 6 1010 77 10000 6.69 320 00:55 19.12.2021
4168 Clouds 5 1009 77 10000 6.17 310 23:31 18.12.2021
4169 Clouds 6 1010 78 10000 5.66 290 22:30 18.12.2021
4170 Clouds 6 1010 79 10000 5.14 290 21:54 18.12.2021
4171 Clouds 5 1010 80 10000 5.14 290 21:33 18.12.2021
4172 Clouds 5 1011 83 10000 4.63 270 20:43 18.12.2021
4173 Clouds 5 1011 85 10000 4.63 270 19:50 18.12.2021
4174 Clouds 4 1012 85 10000 3.6 260 19:19 18.12.2021
4175 Clouds 4 1013 85 10000 3.09 260 18:18 18.12.2021
4176 Clouds 4 1014 86 10000 3.09 260 17:46 18.12.2021
4177 Clear 6 1015 82 10000 2.06 260 16:22 18.12.2021
4178 Clear 7 1016 79 10000 3.6 270 15:25 18.12.2021
4179 Clear 8 1017 77 10000 5.66 270 14:19 18.12.2021
4180 Clear 8 1018 77 10000 5.14 280 12:38 18.12.2021
4181 Clear 7 1020 80 10000 5.14 280 10:43 18.12.2021
4182 Rain 6 1020 82 10000 4.63 270 09:33 18.12.2021
4183 Clear 6 1021 82 10000 3.6 280 08:37 18.12.2021
4184 Clouds 6 1021 81 10000 4.12 280 08:18 18.12.2021
4185 Clouds 3 1026 81 10000 3.6 270 01:48 18.12.2021
4186 Clouds 3 1026 81 10000 3.6 270 01:48 18.12.2021
4187 Clouds 3 1027 81 10000 4.63 260 00:23 18.12.2021
4188 Clouds 3 1027 82 10000 3.6 260 23:37 17.12.2021
4189 Clear 2 1027 85 10000 3.09 250 21:54 17.12.2021
4190 Clear 2 1027 85 10000 3.6 260 20:50 17.12.2021
4191 Clear 2 1027 85 10000 2.06 260 20:21 17.12.2021
4192 Clear 2 1028 86 10000 1.54 280 18:50 17.12.2021
4193 Clear 1 1028 87 10000 1.54 280 18:19 17.12.2021
4194 Clear 1 1028 85 10000 1.03 260 17:25 17.12.2021
4195 Clear 2 1028 84 10000 1.54 270 16:29 17.12.2021
4196 Clear 2 1028 82 10000 2.06 280 15:51 17.12.2021
4197 Clear 3 1028 82 10000 2.57 290 15:18 17.12.2021
4198 Clear 3 1027 79 10000 2.57 290 14:34 17.12.2021
4199 Clear 4 1028 79 10000 3.6 320 12:38 17.12.2021
4200 Clear 3 1027 82 10000 3.09 300 11:18 17.12.2021
4201 Clear 2 1027 84 10000 3.09 300 09:52 17.12.2021
4202 Clear 2 1027 84 10000 3.6 300 08:58 17.12.2021
4203 Clear 2 1026 83 10000 4.12 290 08:19 17.12.2021
4204 Clear 2 1025 80 10000 4.12 290 05:21 17.12.2021
4205 Clear 2 1024 78 10000 7.2 280 02:52 17.12.2021
4206 Clear 3 1022 77 10000 6.17 270 22:52 16.12.2021
4207 Clear 3 1021 77 10000 4.63 270 22:22 16.12.2021
4208 Clear 3 1021 78 10000 4.12 270 21:44 16.12.2021
4209 Clear 3 1021 77 10000 4.63 270 20:48 16.12.2021
4210 Clear 3 1020 77 10000 5.66 270 20:22 16.12.2021
4211 Clear 3 1020 77 10000 4.63 270 19:31 16.12.2021
4212 Clear 4 1020 75 10000 4.12 270 18:36 16.12.2021
4213 Clear 4 1019 75 10000 5.66 270 17:48 16.12.2021
4214 Clear 4 1018 74 10000 6.69 280 16:37 16.12.2021
4215 Clear 4 1018 74 10000 7.2 280 16:18 16.12.2021
4216 Clear 5 1017 74 10000 6.69 280 14:23 16.12.2021
4217 Clear 5 1015 74 10000 6.17 270 12:30 16.12.2021
4218 Clear 5 1015 75 10000 6.17 270 11:19 16.12.2021
4219 Clear 5 1014 76 10000 6.69 260 10:44 16.12.2021
4220 Clear 4 1014 78 10000 5.66 260 09:50 16.12.2021
4221 Clear 4 1012 80 10000 5.14 260 07:18 16.12.2021
4222 Clouds 5 1011 82 10000 5.14 260 06:18 16.12.2021
4223 Clouds 7 1008 89 10000 7.72 260 00:35 16.12.2021
4224 Clouds 7 1009 90 10000 5.66 260 23:20 15.12.2021
4225 Clouds 7 1009 91 10000 4.63 250 22:21 15.12.2021
4226 Clouds 7 1009 91 10000 5.14 250 21:45 15.12.2021
4227 Clouds 7 1009 90 10000 4.63 250 21:25 15.12.2021
4228 Clouds 7 1010 90 10000 3.6 250 19:54 15.12.2021
4229 Clouds 7 1010 90 10000 3.6 260 19:19 15.12.2021
4230 Clouds 7 1010 91 10000 3.6 260 18:24 15.12.2021
4231 Clouds 7 1010 91 10000 3.09 260 17:46 15.12.2021
4232 Clouds 7 1009 91 10000 4.12 270 17:21 15.12.2021
4233 Clouds 7 1009 91 10000 5.14 270 15:59 15.12.2021
4234 Clouds 7 1009 91 10000 5.14 270 15:41 15.12.2021
4235 Clouds 7 1008 92 10000 6.17 260 15:22 15.12.2021
4236 Clouds 7 1008 93 10000 6.69 260 13:48 15.12.2021
4237 Clouds 6 1008 96 7000 4.12 240 11:52 15.12.2021
4238 Drizzle 5 1008 96 3700 3.09 210 10:22 15.12.2021
4239 Clouds 4 1009 96 5000 3.6 210 08:27 15.12.2021
4240 Mist 4 1010 95 4500 3.6 210 05:54 15.12.2021
4241 Clouds 3 1012 93 10000 2.57 210 00:39 15.12.2021
4242 Clouds 3 1013 92 10000 2.57 220 23:32 14.12.2021
4243 Clouds 2 1013 92 10000 4.12 240 22:45 14.12.2021
4244 Clouds 2 1013 93 10000 3.09 240 21:47 14.12.2021
4245 Clouds 2 1013 94 10000 3.09 250 20:23 14.12.2021
4246 Clouds 2 1013 93 10000 3.6 250 19:37 14.12.2021
4247 Clouds 2 1013 93 10000 3.6 240 18:39 14.12.2021
4248 Clouds 3 1013 91 10000 5.66 260 17:57 14.12.2021
4249 Clouds 3 1013 91 10000 5.14 260 16:49 14.12.2021
4250 Clouds 3 1012 91 10000 4.63 260 16:30 14.12.2021
4251 Clouds 3 1012 91 10000 4.63 270 14:32 14.12.2021
4252 Clouds 4 1012 91 10000 5.14 270 13:22 14.12.2021
4253 Clouds 4 1012 94 10000 4.12 260 11:51 14.12.2021
4254 Clouds 4 1012 94 10000 4.12 260 11:22 14.12.2021
4255 Clouds 4 1011 96 9000 4.63 240 09:55 14.12.2021
4256 Clouds 4 1011 96 7000 3.6 240 09:19 14.12.2021
4257 Clouds 4 1011 96 4000 4.12 250 08:22 14.12.2021
4258 Mist 4 1011 96 3400 3.6 260 07:39 14.12.2021
4259 Drizzle 2 1014 96 2900 3.09 170 23:59 13.12.2021
4260 Clouds 2 1016 94 10000 3.09 170 22:26 13.12.2021
4261 Clouds 2 1016 94 9000 3.09 170 21:44 13.12.2021
4262 Clouds 2 1016 95 10000 3.6 190 20:58 13.12.2021
4263 Clouds 2 1017 95 10000 2.57 200 20:26 13.12.2021
4264 Clouds 2 1017 95 10000 2.06 180 19:49 13.12.2021
4265 Clouds 1 1018 95 10000 1.54 170 17:39 13.12.2021
4266 Clouds 1 1018 95 10000 1.54 180 17:18 13.12.2021
4267 Clouds 1 1018 95 10000 2.06 210 15:47 13.12.2021
4268 Clouds 0 1019 95 10000 2.57 220 14:43 13.12.2021
4269 Clouds 0 1019 95 9000 2.06 190 13:37 13.12.2021
4270 Clouds 0 1019 95 10000 3.09 200 12:40 13.12.2021
4271 Clouds 0 1020 95 10000 1.54 210 11:53 13.12.2021
4272 Clouds 0 1020 95 10000 1.54 210 11:34 13.12.2021
4273 Clouds -1 1020 95 10000 2.06 200 10:41 13.12.2021
4274 Clouds -1 1020 95 10000 2.57 230 08:45 13.12.2021
4275 Clouds -1 1019 95 10000 1.54 200 06:55 13.12.2021
4276 Fog -1 1019 95 800 1.03 0 05:19 13.12.2021
4277 Fog 0 1019 96 150 0 0 00:41 13.12.2021
4278 Fog -1 1018 96 150 0 0 21:59 12.12.2021
4279 Fog -1 1018 96 150 0.51 0 21:29 12.12.2021
4280 Fog -1 1019 96 50 0 0 19:36 12.12.2021
4281 Fog -1 1017 95 10000 0.51 0 18:23 12.12.2021
4282 Clouds 0 1017 95 7000 0 0 16:47 12.12.2021
4283 Clouds 1 1017 95 7000 0 0 16:22 12.12.2021
4284 Clouds 1 1017 95 7000 0 0 15:28 12.12.2021
4285 Clouds 1 1017 95 7000 0 0 14:54 12.12.2021
4286 Clouds 1 1017 95 7000 0 0 14:19 12.12.2021
4287 Clouds 1 1017 95 8000 0 0 12:48 12.12.2021
4288 Clouds 1 1017 95 8000 0 0 12:23 12.12.2021
4289 Clouds 1 1017 95 8000 0 0 12:23 12.12.2021
4290 Clouds 1 1018 95 7000 0.51 0 11:43 12.12.2021
4291 Mist 0 1018 97 3100 0 0 10:44 12.12.2021
4292 Mist 0 1018 97 3100 0 0 10:44 12.12.2021
4293 Mist 0 1018 97 4100 0 0 10:21 12.12.2021
4294 Fog 0 1018 97 2000 0.51 290 08:48 12.12.2021
4295 Fog -1 1018 97 100 0 0 07:28 12.12.2021
4296 Fog 0 1018 97 400 0 0 05:29 12.12.2021
4297 Fog -1 1018 97 150 0 0 04:53 12.12.2021
4298 Mist -1 1015 95 4900 0 0 01:26 12.12.2021
4299 Fog -2 1015 95 450 0.51 0 23:26 11.12.2021
4300 Fog -2 1015 95 100 0 0 22:21 11.12.2021
4301 Fog -1 1014 95 100 0 0 21:36 11.12.2021
4302 Mist 1 1014 94 400 0.51 190 20:20 11.12.2021
4303 Mist 1 1013 95 3600 0.51 210 19:21 11.12.2021
4304 Mist 1 1013 95 4000 1.03 200 18:48 11.12.2021
4305 Clouds 2 1012 95 6000 1.03 0 17:56 11.12.2021
4306 Clouds 2 1012 95 10000 0 0 16:39 11.12.2021
4307 Clouds 2 1011 95 10000 1.03 150 15:46 11.12.2021
4308 Clouds 3 1011 94 10000 1.54 130 14:46 11.12.2021
4309 Clouds 3 1009 94 10000 1.54 120 12:41 11.12.2021
4310 Clouds 2 1009 95 10000 1.03 0 10:58 11.12.2021
4311 Clouds 1 1008 95 10000 1.03 40 09:44 11.12.2021
4312 Rain 2 1006 94 10000 2.57 100 03:58 11.12.2021
4313 Rain 2 1006 95 7000 2.57 90 00:49 11.12.2021
4314 Mist 2 1006 95 4300 2.57 90 23:44 10.12.2021
4315 Mist 2 1006 94 3500 3.09 110 22:50 10.12.2021
4316 Rain 2 1006 94 8000 3.6 110 21:51 10.12.2021
4317 Clouds 2 1005 93 8000 4.63 120 20:32 10.12.2021
4318 Clouds 2 1005 95 8000 5.66 110 19:19 10.12.2021
4319 Clouds 2 1004 95 7000 5.14 120 17:50 10.12.2021
4320 Rain 3 1004 94 5000 5.14 110 16:39 10.12.2021
4321 Drizzle 2 1003 95 8000 5.14 110 15:45 10.12.2021
4322 Rain 2 1004 95 7000 5.66 110 15:27 10.12.2021
4323 Rain 2 1003 95 6000 4.63 100 14:56 10.12.2021
4324 Drizzle 2 1004 95 6000 4.12 110 13:50 10.12.2021
4325 Drizzle 2 1004 93 8000 3.6 110 13:18 10.12.2021
4326 Drizzle 2 1005 93 9000 3.6 110 11:43 10.12.2021
4327 Drizzle 1 1005 95 6000 4.12 100 11:19 10.12.2021
4328 Drizzle 1 1005 95 6000 4.12 100 11:19 10.12.2021
4329 Rain 1 1005 95 10000 3.6 110 09:53 10.12.2021
4330 Rain 1 1005 95 8000 4.63 110 08:23 10.12.2021
4331 Mist 1 1006 93 5000 3.6 110 04:58 10.12.2021
4332 Rain 1 1007 94 8000 3.09 130 02:44 10.12.2021
4333 Drizzle 1 1008 93 3500 3.6 130 23:43 09.12.2021
4334 Snow 1 1009 92 2200 4.63 120 22:44 09.12.2021
4335 Snow 1 1009 92 3400 4.12 110 22:23 09.12.2021
4336 Snow 1 1009 91 5000 4.63 100 21:40 09.12.2021
4337 Snow 1 1010 83 10000 8.75 110 20:38 09.12.2021
4338 Rain 1 1010 78 10000 7.2 110 19:46 09.12.2021
4339 Clouds 1 1010 77 10000 8.23 100 19:21 09.12.2021
4340 Clouds 1 1011 78 10000 7.2 110 18:24 09.12.2021
4341 Clouds 1 1011 80 10000 8.23 110 17:51 09.12.2021
4342 Clouds 1 1011 80 10000 7.72 110 17:25 09.12.2021
4343 Clouds 1 1011 80 10000 7.72 110 17:25 09.12.2021
4344 Snow 0 1012 82 10000 9.77 110 16:43 09.12.2021
4345 Clear 0 1013 79 10000 6.69 110 15:31 09.12.2021
4346 Clear 0 1013 79 10000 7.2 120 14:43 09.12.2021
4347 Clear 0 1014 79 10000 6.17 120 13:18 09.12.2021
4348 Clear 0 1015 79 10000 6.17 120 12:31 09.12.2021
4349 Clear 0 1015 78 10000 6.69 120 10:50 09.12.2021
4350 Clouds 0 1016 83 10000 7.72 120 08:38 09.12.2021
4351 Clouds -1 1015 84 10000 4.63 110 05:54 09.12.2021
4352 Clouds -1 1015 82 10000 3.6 130 01:52 09.12.2021
4353 Clouds -1 1015 82 10000 3.6 120 23:40 08.12.2021
4354 Clouds -1 1015 84 10000 4.12 120 23:20 08.12.2021
4355 Clouds -1 1015 83 10000 4.63 120 22:43 08.12.2021
4356 Clouds -1 1015 82 10000 4.63 110 21:39 08.12.2021
4357 Clouds -1 1015 81 10000 5.14 110 20:58 08.12.2021
4358 Clouds -1 1014 81 10000 5.66 110 19:57 08.12.2021
4359 Clouds -1 1015 81 10000 5.66 110 19:33 08.12.2021
4360 Clouds -1 1014 81 10000 6.17 120 18:30 08.12.2021
4361 Clouds -1 1015 81 10000 4.63 120 17:24 08.12.2021
4362 Clouds -1 1014 84 10000 3.6 120 15:46 08.12.2021
4363 Clouds -2 1015 84 10000 2.57 120 15:23 08.12.2021
4364 Clouds -1 1015 87 10000 2.57 100 14:26 08.12.2021
4365 Clouds -2 1015 88 10000 2.57 90 10:53 08.12.2021
4366 Clouds -3 1015 88 10000 3.6 100 10:28 08.12.2021
4367 Clouds -4 1014 89 10000 3.6 100 08:54 08.12.2021
4368 Clear -6 1015 90 10000 2.06 110 07:21 08.12.2021
4369 Clouds -13 1018 91 10000 0.51 0 01:21 08.12.2021
4370 Clouds -13 1018 86 10000 1.03 350 23:31 07.12.2021
4371 Clear -13 1018 86 10000 0 0 21:26 07.12.2021
4372 Clear -13 1018 86 10000 0.51 350 20:54 07.12.2021
4373 Clear -13 1018 87 10000 0 0 19:50 07.12.2021
4374 Clear -13 1018 87 10000 1.03 250 18:39 07.12.2021
4375 Clear -13 1018 91 10000 0 0 17:27 07.12.2021
4376 Clear -13 1018 91 10000 0 0 17:27 07.12.2021
4377 Clear -13 1018 87 10000 0.51 0 16:58 07.12.2021
4378 Clear -13 1016 91 10000 0.51 260 16:28 07.12.2021
4379 Clear -11 1016 88 10000 1.54 280 14:57 07.12.2021
4380 Clear -10 1016 89 10000 1.03 300 13:49 07.12.2021
4381 Clear -11 1016 90 10000 1.03 290 12:46 07.12.2021
4382 Clear -12 1016 89 10000 0 0 11:25 07.12.2021
4383 Clear -15 1017 87 10000 0 0 09:44 07.12.2021
4384 Clouds -16 1017 87 10000 0 0 07:55 07.12.2021
4385 Clouds -17 1017 86 10000 0 0 05:55 07.12.2021
4386 Clouds -17 1017 86 10000 0 0 05:30 07.12.2021
4387 Snow -16 1018 87 400 0.51 0 23:45 06.12.2021
4388 Clouds -15 1018 88 10000 1.03 240 22:44 06.12.2021
4389 Clouds -15 1018 87 5000 0.51 270 22:18 06.12.2021
4390 Clouds -15 1019 87 6000 1.03 250 21:42 06.12.2021
4391 Clouds -14 1019 87 5000 0 0 20:33 06.12.2021
4392 Clouds -13 1019 87 5000 1.03 340 19:27 06.12.2021
4393 Clouds -13 1019 92 10000 1.03 0 18:57 06.12.2021
4394 Clouds -14 1020 92 10000 2.06 330 17:56 06.12.2021
4395 Clouds -14 1020 91 10000 2.06 330 17:36 06.12.2021
4396 Clear -13 1020 87 10000 1.03 330 16:21 06.12.2021
4397 Clear -12 1019 84 10000 2.06 350 14:54 06.12.2021
4398 Clear -10 1019 81 10000 2.57 20 13:45 06.12.2021
4399 Clear -10 1019 81 10000 2.57 20 13:45 06.12.2021
4400 Clear -10 1019 83 10000 2.57 340 12:39 06.12.2021
4401 Clear -12 1022 81 10000 1.54 310 10:32 06.12.2021
4402 Clear -14 1023 87 10000 1.03 280 08:35 06.12.2021
4403 Clouds -12 1023 84 10000 2.06 20 04:28 06.12.2021
4404 Clouds -8 1021 81 10000 3.09 360 22:30 05.12.2021
4405 Clouds -8 1021 81 10000 2.57 360 21:26 05.12.2021
4406 Clouds -8 1021 81 10000 3.09 360 20:59 05.12.2021
4407 Clouds -7 1021 81 10000 3.09 20 20:19 05.12.2021
4408 Clouds -7 1021 83 10000 3.6 20 19:33 05.12.2021
4409 Clouds -7 1021 84 10000 3.09 360 18:41 05.12.2021
4410 Clouds -7 1020 84 10000 3.6 20 18:19 05.12.2021
4411 Clouds -6 1020 83 10000 3.09 10 17:47 05.12.2021
4412 Clouds -6 1020 84 10000 3.6 20 16:45 05.12.2021
4413 Snow -6 1019 84 10000 3.09 20 16:24 05.12.2021
4414 Snow -6 1019 83 10000 3.6 10 14:49 05.12.2021
4415 Clouds -5 1018 83 10000 4.12 360 14:30 05.12.2021
4416 Clouds -5 1018 83 10000 3.6 360 13:43 05.12.2021
4417 Clouds -5 1018 85 10000 4.12 360 12:55 05.12.2021
4418 Clouds -6 1018 87 10000 3.6 360 12:29 05.12.2021
4419 Clouds -6 1017 88 10000 3.6 350 11:49 05.12.2021
4420 Clouds -6 1018 86 10000 3.6 350 10:51 05.12.2021
4421 Clouds -7 1017 88 10000 3.6 360 09:58 05.12.2021
4422 Clouds -7 1015 87 10000 3.09 360 07:33 05.12.2021
4423 Clouds -5 1012 84 10000 3.6 30 02:25 05.12.2021
4424 Clouds -5 1010 85 10000 3.09 20 23:30 04.12.2021
4425 Clouds -6 1009 88 10000 3.09 20 21:54 04.12.2021
4426 Clouds -6 1010 89 10000 2.57 20 20:50 04.12.2021
4427 Clouds -6 1008 89 10000 2.06 10 19:54 04.12.2021
4428 Clouds -6 1008 89 10000 2.06 360 19:31 04.12.2021
4429 Clouds -7 1007 89 10000 2.06 360 17:58 04.12.2021
4430 Clouds -7 1006 89 10000 2.06 360 17:37 04.12.2021
4431 Clear -6 1006 89 10000 2.06 10 16:48 04.12.2021
4432 Clear -6 1006 89 10000 2.06 10 16:30 04.12.2021
4433 Clear -6 1006 89 10000 2.06 10 16:30 04.12.2021
4434 Clouds -4 1005 86 10000 3.09 20 14:39 04.12.2021
4435 Clouds -5 1003 90 10000 2.06 30 11:47 04.12.2021
4436 Clear -5 1003 90 10000 1.54 20 11:29 04.12.2021
4437 Clear -6 1003 91 10000 1.54 340 10:43 04.12.2021
4438 Clear -8 1004 92 10000 1.03 310 08:45 04.12.2021
4439 Clouds -7 1003 92 10000 1.54 20 06:24 04.12.2021
4440 Clouds -8 1002 91 10000 1.54 350 04:41 04.12.2021
4441 Clouds -6 1000 92 10000 0 0 23:49 03.12.2021
4442 Clouds -6 1000 92 10000 0 0 23:49 03.12.2021
4443 Clouds -6 1000 92 10000 0 0 23:49 03.12.2021
4444 Clouds -6 1000 91 10000 1.54 290 22:57 03.12.2021
4445 Clouds -6 1000 90 10000 1.54 290 22:38 03.12.2021
4446 Clouds -6 1000 92 10000 1.03 310 21:25 03.12.2021
4447 Clouds -6 1000 90 10000 1.54 320 20:46 03.12.2021
4448 Snow -6 1000 92 10000 2.06 300 19:40 03.12.2021
4449 Snow -6 999 92 6000 1.54 320 18:28 03.12.2021
4450 Snow -6 999 90 8000 1.54 320 17:59 03.12.2021
4451 Snow -6 998 89 10000 2.06 300 14:47 03.12.2021
4452 Clouds -5 998 89 10000 2.06 280 12:54 03.12.2021
4453 Clouds -5 998 90 10000 1.54 310 11:38 03.12.2021
4454 Clouds -6 998 90 10000 2.06 270 10:51 03.12.2021
4455 Clouds -7 997 91 10000 1.54 0 08:25 03.12.2021
4456 Clouds -6 997 91 10000 2.06 310 07:40 03.12.2021
4457 Clouds -4 995 91 10000 3.09 350 02:39 03.12.2021
4458 Clouds -4 994 90 10000 2.06 330 00:47 03.12.2021
4459 Clouds -5 994 91 10000 3.6 330 23:47 02.12.2021
4460 Clouds -4 994 90 10000 3.6 340 21:43 02.12.2021
4461 Clouds -4 994 90 10000 3.09 340 21:21 02.12.2021
4462 Clouds -5 993 91 10000 3.09 330 20:38 02.12.2021
4463 Clouds -4 993 90 10000 4.12 320 19:43 02.12.2021
4464 Clouds -4 992 91 10000 4.12 330 18:33 02.12.2021
4465 Clouds -4 992 91 10000 4.12 330 18:33 02.12.2021
4466 Clouds -4 990 89 10000 3.09 330 15:43 02.12.2021
4467 Clouds -4 990 89 10000 3.6 340 15:20 02.12.2021
4468 Clouds -4 990 89 10000 4.12 350 14:43 02.12.2021
4469 Clouds -3 989 88 10000 4.12 350 12:53 02.12.2021
4470 Snow -3 989 90 10000 5.14 340 12:18 02.12.2021
4471 Snow -2 988 88 10000 3.09 10 10:36 02.12.2021
4472 Clouds -2 988 87 10000 3.6 10 08:59 02.12.2021
4473 Clouds -2 986 89 10000 3.09 20 05:34 02.12.2021
4474 Snow -3 987 88 10000 3.09 20 00:53 02.12.2021
4475 Snow -4 987 89 10000 2.57 30 23:28 01.12.2021
4476 Clouds -5 988 88 10000 2.06 20 22:25 01.12.2021
4477 Clouds -5 989 86 10000 1.54 20 21:21 01.12.2021
4478 Clouds -6 989 86 10000 1.54 10 19:58 01.12.2021
4479 Clouds -6 990 87 10000 1.54 10 19:34 01.12.2021
4480 Clouds -8 991 87 10000 1.54 0 17:50 01.12.2021
4481 Clear -8 991 88 10000 0.51 0 16:58 01.12.2021
4482 Clear -8 992 88 10000 1.54 10 15:20 01.12.2021
4483 Clear -7 992 84 10000 1.54 310 13:49 01.12.2021
4484 Clear -7 993 84 10000 1.54 300 13:30 01.12.2021
4485 Clear -8 993 88 10000 1.54 320 10:43 01.12.2021
4486 Clear -9 994 89 10000 1.54 270 09:56 01.12.2021
4487 Clear -9 994 91 10000 1.54 290 08:40 01.12.2021
4488 Clouds -8 993 89 10000 2.06 290 07:38 01.12.2021
4489 Clouds -8 993 88 10000 1.54 320 07:19 01.12.2021
4490 Clouds -8 993 88 10000 1.54 320 07:19 01.12.2021
4491 Clouds -9 994 88 10000 1.03 300 03:50 01.12.2021
4492 Clouds -9 995 79 10000 1.54 270 02:34 01.12.2021
4493 Clouds -11 995 79 10000 3.09 290 23:57 30.11.2021
4494 Clouds -10 995 85 10000 3.09 300 23:28 30.11.2021
4495 Clear -8 992 84 10000 2.57 280 22:22 30.11.2021
4496 Clouds -7 992 83 10000 4.12 320 20:46 30.11.2021
4497 Clear -7 992 83 10000 4.12 310 20:23 30.11.2021
4498 Clouds -6 992 85 10000 5.14 310 19:38 30.11.2021
4499 Clouds -6 991 88 10000 4.63 300 18:51 30.11.2021
4500 Clouds -5 991 89 10000 4.12 290 17:21 30.11.2021
4501 Clouds -6 991 87 10000 2.57 280 15:54 30.11.2021
4502 Clouds -5 990 85 10000 3.09 320 14:31 30.11.2021
4503 Clear -5 990 85 10000 3.09 320 13:40 30.11.2021
4504 Clouds -5 990 85 10000 3.6 320 12:53 30.11.2021
4505 Clouds -6 990 87 10000 4.12 320 11:54 30.11.2021
4506 Clouds -6 990 88 10000 3.6 310 11:25 30.11.2021
4507 Clouds -7 991 89 10000 2.06 300 10:35 30.11.2021
4508 Clear -8 991 88 10000 2.06 300 08:55 30.11.2021
4509 Clear -8 991 90 10000 2.06 290 08:32 30.11.2021
4510 Clear -8 992 88 10000 1.54 300 07:50 30.11.2021
4511 Clear -8 992 88 10000 2.57 300 06:36 30.11.2021
4512 Clouds -7 996 85 10000 1.54 290 01:47 30.11.2021
4513 Clouds -7 996 85 10000 2.57 300 01:27 30.11.2021
4514 Clouds -6 997 81 10000 3.09 310 23:32 29.11.2021
4515 Clouds -5 997 84 10000 3.09 310 22:59 29.11.2021
4516 Clouds -5 998 84 10000 3.09 310 22:37 29.11.2021
4517 Clouds -5 999 85 10000 3.09 320 21:52 29.11.2021
4518 Clouds -4 999 83 10000 3.6 310 21:20 29.11.2021
4519 Clouds -4 999 83 10000 3.6 310 20:45 29.11.2021
4520 Clouds -4 1000 83 10000 2.57 320 19:58 29.11.2021
4521 Clouds -4 1000 83 10000 2.57 320 19:39 29.11.2021
4522 Clouds -4 1000 84 10000 2.06 310 18:59 29.11.2021
4523 Clouds -4 1002 78 10000 3.24 346 18:40 29.11.2021
4524 Clouds -4 1003 78 10000 3.64 356 17:21 29.11.2021
4525 Clouds -4 1003 78 10000 3.64 356 16:44 29.11.2021
4526 Clouds -3 1004 78 10000 3.8 354 16:22 29.11.2021
4527 Clouds -3 1004 78 10000 3.8 353 14:45 29.11.2021
4528 Clouds -2 1004 76 10000 3.7 1 13:52 29.11.2021
4529 Clouds -2 1004 75 10000 3.7 2 12:58 29.11.2021
4530 Clouds -2 1005 77 10000 3.57 3 12:19 29.11.2021
4531 Clouds -2 1005 76 10000 3.55 7 11:22 29.11.2021
4532 Clouds -3 1006 79 10000 3.45 7 09:58 29.11.2021
4533 Clouds -6 1006 80 10000 3.09 350 07:21 29.11.2021
4534 Clouds -7 1006 86 10000 2.06 350 05:48 29.11.2021
4535 Clouds -7 1006 86 10000 2.06 360 01:22 29.11.2021
4536 Clouds -7 1006 86 10000 2.06 30 23:47 28.11.2021
4537 Clouds -7 1006 86 10000 2.06 40 23:29 28.11.2021
4538 Clear -6 1006 86 10000 2.57 20 21:57 28.11.2021
4539 Clear -6 1006 86 10000 2.57 20 21:38 28.11.2021
4540 Clear -6 1006 86 10000 1.54 20 20:40 28.11.2021
4541 Clear -5 1005 80 10000 2.06 30 19:44 28.11.2021
4542 Clear -5 1005 86 10000 2.06 360 18:40 28.11.2021
4543 Clouds -4 1005 80 10000 3.09 10 17:58 28.11.2021
4544 Clouds -4 1005 80 10000 3.09 360 17:34 28.11.2021
4545 Clouds -4 1004 80 10000 2.57 10 16:47 28.11.2021
4546 Clouds -4 1004 80 10000 3.09 20 16:27 28.11.2021
4547 Clouds -4 1004 80 10000 2.57 360 15:48 28.11.2021
4548 Clouds -2 1004 80 10000 3.09 20 14:55 28.11.2021
4549 Clouds -1 1004 74 10000 3.09 20 14:28 28.11.2021
4550 Clouds -2 1003 74 10000 2.57 20 12:54 28.11.2021
4551 Clouds -3 1003 80 10000 1.54 10 11:38 28.11.2021
4552 Clouds -3 1003 80 10000 2.57 20 10:31 28.11.2021
4553 Clouds -4 1003 80 10000 2.57 20 09:46 28.11.2021
4554 Clouds -3 1003 74 10000 2.57 10 09:27 28.11.2021
4555 Clouds -3 1002 74 10000 2.57 20 00:50 28.11.2021
4556 Clouds -3 1003 74 10000 2.57 30 21:53 27.11.2021
4557 Clouds -3 1003 74 10000 3.09 20 19:50 27.11.2021
4558 Clouds -3 1003 74 10000 2.57 20 18:26 27.11.2021
4559 Clouds -2 1003 80 10000 4.12 50 16:18 27.11.2021
4560 Clouds -1 1003 74 10000 2.57 30 14:44 27.11.2021
4561 Clear -1 1003 74 10000 3.09 20 13:38 27.11.2021
4562 Clear -2 1002 80 10000 3.6 20 11:37 27.11.2021
4563 Clear -3 1002 86 10000 3.6 20 10:19 27.11.2021
4564 Clear -3 1002 80 10000 3.09 10 08:54 27.11.2021
4565 Clouds -4 1001 80 10000 2.06 20 06:59 27.11.2021
4566 Clouds -5 1001 86 10000 2.06 10 04:40 27.11.2021
4567 Clouds -7 1001 93 10000 2.06 10 00:25 27.11.2021
4568 Clouds -6 1000 86 10000 1.54 0 22:51 26.11.2021
4569 Clear -6 1000 86 10000 1.54 350 22:24 26.11.2021
4570 Clear -5 999 86 10000 1.03 0 21:31 26.11.2021
4571 Clear -5 999 80 10000 1.54 10 20:41 26.11.2021
4572 Clear -4 999 80 10000 2.57 20 19:56 26.11.2021
4573 Clear -4 999 80 10000 2.06 360 19:18 26.11.2021
4574 Clear -4 998 80 10000 1.54 20 17:46 26.11.2021
4575 Clear -4 998 80 10000 2.06 30 17:21 26.11.2021
4576 Clear -3 997 74 10000 2.06 20 15:23 26.11.2021
4577 Clear -2 995 84 10000 2.57 20 13:35 26.11.2021
4578 Clear -2 995 84 10000 2.57 20 13:35 26.11.2021
4579 Clear -3 996 86 10000 0 0 10:46 26.11.2021
4580 Clear -4 996 86 10000 0.51 0 09:55 26.11.2021
4581 Clear -6 996 93 10000 1.03 240 08:56 26.11.2021
4582 Clear -6 995 93 10000 0 0 08:21 26.11.2021
4583 Clear -5 994 87 10000 1.54 320 06:48 26.11.2021
4584 Clouds -5 994 91 10000 2.57 340 06:24 26.11.2021
4585 Clouds -3 994 87 10000 2.06 300 03:54 26.11.2021
4586 Clouds -3 994 88 10000 1.54 290 01:27 26.11.2021
4587 Clouds -3 994 88 10000 1.54 290 01:27 26.11.2021
4588 Clouds -2 994 83 10000 2.57 330 22:43 25.11.2021
4589 Clear -1 995 83 10000 3.6 340 21:21 25.11.2021
4590 Clear 0 995 83 10000 3.6 350 19:55 25.11.2021
4591 Clouds 2 993 84 10000 4.63 350 18:45 25.11.2021
4592 Clouds 3 993 87 10000 3.09 320 17:41 25.11.2021
4593 Clouds 3 993 87 10000 3.6 310 17:18 25.11.2021
4594 Clouds 3 993 85 10000 3.09 300 16:30 25.11.2021
4595 Clouds 5 994 83 10000 3.6 280 14:59 25.11.2021
4596 Clouds 6 995 83 10000 4.12 260 13:25 25.11.2021
4597 Clouds 6 995 85 10000 4.63 260 12:23 25.11.2021
4598 Clouds 6 995 87 10000 5.14 250 11:48 25.11.2021
4599 Clouds 7 996 85 10000 4.12 240 09:25 25.11.2021
4600 Clouds 7 998 86 10000 5.14 230 05:27 25.11.2021
4601 Clouds 7 999 87 10000 4.63 240 02:48 25.11.2021
4602 Clouds 6 1002 92 10000 3.6 210 22:55 24.11.2021
4603 Clouds 5 1002 93 10000 3.6 210 22:23 24.11.2021
4604 Clouds 5 1003 93 10000 2.57 210 21:29 24.11.2021
4605 Clouds 4 1003 95 10000 2.06 210 20:50 24.11.2021
4606 Clouds 4 1004 93 10000 2.57 210 20:19 24.11.2021
4607 Clouds 3 1005 94 10000 1.54 210 18:30 24.11.2021
4608 Clouds 2 1005 94 10000 1.54 220 17:53 24.11.2021
4609 Clear 3 1006 89 10000 1.54 200 15:23 24.11.2021
4610 Clear 4 1006 88 10000 1.54 230 14:47 24.11.2021
4611 Clear 4 1007 87 10000 1.03 200 14:20 24.11.2021
4612 Clear 5 1007 84 10000 1.54 260 12:34 24.11.2021
4613 Clear 5 1008 85 10000 2.57 280 11:21 24.11.2021
4614 Clear 5 1007 86 10000 2.57 280 10:48 24.11.2021
4615 Clear 4 1008 85 10000 2.06 270 10:22 24.11.2021
4616 Clear 4 1007 86 10000 3.09 240 07:54 24.11.2021
4617 Clear 4 1006 86 10000 3.6 260 06:54 24.11.2021
4618 Clouds 4 1006 87 10000 1.34 270 03:51 24.11.2021
4619 Clouds 4 1006 86 10000 1.34 270 00:52 24.11.2021
4620 Clear 3 1008 86 10000 4.12 240 22:40 23.11.2021
4621 Clear 3 1008 85 10000 4.12 240 22:20 23.11.2021
4622 Clear 3 1009 83 10000 3.09 240 21:44 23.11.2021
4623 Clear 3 1010 79 10000 3.6 230 19:43 23.11.2021
4624 Clear 2 1011 80 10000 2.57 230 18:43 23.11.2021
4625 Clear 2 1011 80 10000 3.09 230 18:21 23.11.2021
4626 Clear 1 1012 83 10000 2.57 220 16:58 23.11.2021
4627 Clear 1 1012 82 10000 2.06 220 16:20 23.11.2021
4628 Clouds 2 1013 78 10000 2.57 250 15:22 23.11.2021
4629 Clouds 3 1014 77 10000 3.6 240 14:22 23.11.2021
4630 Clear 2 1015 83 10000 2.57 270 11:43 23.11.2021
4631 Clear 0 1015 85 10000 1.54 290 10:19 23.11.2021
4632 Clear -1 1014 87 10000 1.54 280 09:18 23.11.2021
4633 Clear -1 1013 86 10000 2.57 310 06:45 23.11.2021
4634 Clouds 1 1012 81 10000 5.14 330 03:52 23.11.2021
4635 Clouds 2 1010 76 10000 6.17 310 01:49 23.11.2021
4636 Clouds 2 1008 79 10000 6.69 290 23:21 22.11.2021
4637 Clouds 2 1008 83 10000 5.66 280 22:47 22.11.2021
4638 Clear 2 1008 86 10000 4.63 270 22:25 22.11.2021
4639 Clear 2 1008 86 10000 4.63 270 22:25 22.11.2021
4640 Clear 1 1008 87 10000 4.63 270 21:41 22.11.2021
4641 Clouds 1 1008 89 10000 5.14 250 20:52 22.11.2021
4642 Clouds 1 1008 88 10000 4.63 240 19:56 22.11.2021
4643 Snow 1 1008 89 10000 4.63 220 19:19 22.11.2021
4644 Snow 1 1008 88 5000 4.12 220 18:39 22.11.2021
4645 Snow 1 1010 79 10000 4.63 230 17:38 22.11.2021
4646 Clear 1 1011 81 10000 4.12 210 16:19 22.11.2021
4647 Clear 0 1012 78 10000 3.09 220 14:18 22.11.2021
4648 Clear -1 1015 81 10000 2.57 230 12:18 22.11.2021
4649 Clear -2 1017 85 10000 3.6 240 10:43 22.11.2021
4650 Clear -4 1016 90 10000 2.06 220 09:43 22.11.2021
4651 Clear -5 1017 92 10000 2.06 230 08:40 22.11.2021
4652 Clouds -6 1017 92 10000 1.03 130 06:22 22.11.2021
4653 Clear -3 1014 84 10000 2.57 300 23:28 21.11.2021
4654 Clear -2 1014 83 10000 2.57 300 22:49 21.11.2021
4655 Clear -2 1013 84 10000 3.6 320 21:53 21.11.2021
4656 Clear -1 1012 84 10000 3.6 330 20:42 21.11.2021
4657 Clear -1 1011 82 10000 4.12 330 19:58 21.11.2021
4658 Clear 0 1010 84 10000 4.12 340 18:25 21.11.2021
4659 Clear 0 1009 87 10000 3.6 330 17:39 21.11.2021
4660 Clouds 1 1007 87 10000 5.14 330 15:53 21.11.2021
4661 Clouds 2 1005 86 10000 4.63 330 14:45 21.11.2021
4662 Rain 3 1004 83 10000 4.63 340 13:47 21.11.2021
4663 Clouds 2 1003 84 10000 4.63 320 12:37 21.11.2021
4664 Clouds 2 1002 83 10000 4.12 310 11:53 21.11.2021
4665 Clouds 1 1002 83 10000 4.12 310 11:35 21.11.2021
4666 Clouds 1 1001 84 10000 3.6 280 10:18 21.11.2021
4667 Clouds 0 999 87 10000 2.06 310 08:45 21.11.2021
4668 Clouds 0 999 87 10000 2.57 310 08:25 21.11.2021
4669 Clouds 0 999 89 10000 2.06 300 07:48 21.11.2021
4670 Clouds 0 998 88 10000 3.09 320 05:55 21.11.2021
4671 Clouds 0 997 87 10000 2.57 320 05:25 21.11.2021
4672 Clouds 0 997 86 10000 2.06 300 03:19 21.11.2021
4673 Clouds 0 997 86 10000 2.06 330 02:52 21.11.2021
4674 Clouds 1 997 82 10000 1.54 290 00:59 21.11.2021
4675 Clouds 2 997 82 10000 2.06 250 23:56 20.11.2021
4676 Clouds 4 997 81 10000 3.09 290 21:46 20.11.2021
4677 Clouds 4 997 81 10000 3.6 270 21:27 20.11.2021
4678 Clouds 4 997 84 10000 3.09 260 19:22 20.11.2021
4679 Clouds 4 997 83 10000 2.57 240 18:45 20.11.2021
4680 Clouds 4 997 83 10000 3.09 260 18:18 20.11.2021
4681 Clear 5 998 78 10000 2.06 230 16:59 20.11.2021
4682 Clear 6 1000 72 10000 4.63 250 14:48 20.11.2021
4683 Clear 6 1000 70 10000 4.12 250 14:27 20.11.2021
4684 Clear 7 1002 62 10000 5.14 260 12:23 20.11.2021
4685 Clear 7 1002 62 10000 5.14 260 12:23 20.11.2021
4686 Clear 7 1003 63 10000 5.14 260 11:18 20.11.2021
4687 Clear 6 1003 67 10000 5.14 260 09:51 20.11.2021
4688 Clouds 6 1004 65 10000 5.66 280 07:47 20.11.2021
4689 Clouds 6 1004 63 10000 8.75 290 05:28 20.11.2021
4690 Clouds 6 1003 64 10000 8.23 290 04:50 20.11.2021
4691 Clouds 6 1003 67 10000 8.23 290 03:24 20.11.2021
4692 Clouds 8 999 64 10000 11.32 310 00:41 20.11.2021
4693 Clouds 9 996 59 10000 11.32 290 23:43 19.11.2021
4694 Clouds 10 994 59 10000 11.32 280 22:52 19.11.2021
4695 Clear 10 993 66 10000 8.23 270 21:21 19.11.2021
4696 Clear 10 992 69 10000 8.75 270 20:37 19.11.2021
4697 Clear 11 992 70 10000 8.75 270 19:56 19.11.2021
4698 Clear 11 992 70 10000 8.75 270 19:34 19.11.2021
4699 Clear 11 991 73 10000 7.72 270 18:43 19.11.2021
4700 Clear 11 991 78 10000 6.17 270 17:38 19.11.2021
4701 Clear 11 991 81 10000 8.23 270 15:58 19.11.2021
4702 Clouds 9 991 93 10000 5.14 250 13:58 19.11.2021
4703 Clouds 4 996 94 10000 2.06 190 10:52 19.11.2021
4704 Clouds 4 997 94 10000 1.54 190 10:23 19.11.2021
4705 Clouds 3 999 93 10000 2.06 220 08:32 19.11.2021
4706 Clouds 4 1001 95 10000 2.06 250 04:55 19.11.2021
4707 Clouds 2 1001 94 8000 0 0 03:00 19.11.2021
4708 Clouds 2 1003 96 10000 0 0 23:53 18.11.2021
4709 Clouds 2 1001 92 10000 1.03 0 22:43 18.11.2021
4710 Clouds 3 1002 92 10000 2.06 220 20:56 18.11.2021
4711 Clouds 3 1002 92 10000 2.06 220 20:37 18.11.2021
4712 Drizzle 3 1002 91 10000 1.54 210 20:18 18.11.2021
4713 Rain 3 1002 89 10000 2.06 230 19:36 18.11.2021
4714 Drizzle 3 1002 85 10000 2.57 250 18:35 18.11.2021
4715 Clear 3 1003 86 10000 3.6 230 17:52 18.11.2021
4716 Clear 2 1003 88 10000 1.54 220 16:46 18.11.2021
4717 Clear 2 1003 88 10000 2.57 240 15:52 18.11.2021
4718 Clear 4 1004 84 10000 4.12 250 14:40 18.11.2021
4719 Clouds 3 1004 85 10000 5.14 270 12:55 18.11.2021
4720 Clouds 3 1004 85 10000 3.6 270 11:44 18.11.2021
4721 Clouds 3 1004 87 10000 5.14 270 11:25 18.11.2021
4722 Clouds 3 1004 89 10000 3.09 270 10:22 18.11.2021
4723 Clear 2 1004 90 10000 3.09 260 08:26 18.11.2021
4724 Clear 3 1003 90 10000 3.6 270 06:39 18.11.2021
4725 Clouds 3 1002 90 10000 4.63 260 05:43 18.11.2021
4726 Clouds 6 1001 91 10000 4.12 240 01:25 18.11.2021
4727 Clouds 5 1001 93 10000 3.6 210 23:30 17.11.2021
4728 Clouds 5 1002 93 10000 4.12 220 22:39 17.11.2021
4729 Clouds 5 1002 93 10000 4.12 220 22:19 17.11.2021
4730 Clouds 5 1002 92 10000 3.09 200 21:35 17.11.2021
4731 Rain 5 1003 89 10000 4.12 190 19:42 17.11.2021
4732 Clouds 5 1004 88 10000 3.09 180 17:35 17.11.2021
4733 Clouds 5 1004 88 10000 3.09 180 17:35 17.11.2021
4734 Clouds 5 1005 89 10000 2.57 210 15:56 17.11.2021
4735 Clouds 6 1007 82 10000 3.09 190 13:19 17.11.2021
4736 Clouds 5 1008 83 10000 3.6 190 12:37 17.11.2021
4737 Clouds 5 1009 84 10000 4.12 230 10:54 17.11.2021
4738 Clouds 4 1010 88 10000 2.57 220 09:38 17.11.2021
4739 Clouds 4 1011 89 10000 3.09 210 07:56 17.11.2021
4740 Clouds 3 1011 89 10000 3.09 210 07:37 17.11.2021
4741 Clouds 5 1015 85 10000 4.12 210 02:49 17.11.2021
4742 Clouds 5 1016 87 10000 3.6 210 00:35 17.11.2021
4743 Clouds 6 1017 86 10000 3.6 200 22:32 16.11.2021
4744 Clouds 6 1018 86 10000 4.12 200 20:19 16.11.2021
4745 Clouds 6 1018 86 10000 3.6 190 19:41 16.11.2021
4746 Clouds 6 1019 86 10000 4.12 190 18:52 16.11.2021
4747 Clouds 6 1019 86 10000 4.63 190 18:29 16.11.2021
4748 Clouds 6 1020 86 10000 4.12 190 17:26 16.11.2021
4749 Clouds 6 1020 86 10000 3.6 210 16:20 16.11.2021
4750 Clouds 6 1019 87 10000 3.6 200 15:44 16.11.2021
4751 Clouds 6 1020 86 10000 4.12 210 13:49 16.11.2021
4752 -273 0 0 0 0 0 10:39 16.11.2021
4753 Clouds 6 1022 83 10000 3.09 220 09:42 16.11.2021
4754 Clouds 5 1023 85 10000 4.12 210 08:23 16.11.2021
4755 Clouds 5 1023 85 10000 3.6 200 07:29 16.11.2021
4756 Clouds 5 1026 81 10000 3.6 220 23:54 15.11.2021
4757 Clouds 5 1026 81 10000 4.12 210 22:43 15.11.2021
4758 Clouds 5 1027 81 10000 3.6 210 22:20 15.11.2021
4759 Clouds 5 1027 81 10000 4.12 220 21:46 15.11.2021
4760 Clouds 5 1027 80 10000 4.12 210 21:21 15.11.2021
4761 Clouds 5 1028 80 10000 3.6 200 19:41 15.11.2021
4762 Clouds 5 1029 80 10000 4.12 240 17:50 15.11.2021
4763 Clouds 5 1029 79 10000 3.6 210 16:19 15.11.2021
4764 Clouds 5 1029 79 10000 3.09 240 15:39 15.11.2021
4765 Clouds 5 1029 79 10000 4.63 210 15:19 15.11.2021
4766 Clouds 6 1031 80 10000 4.63 230 12:43 15.11.2021
4767 Clouds 6 1031 83 10000 3.6 210 10:53 15.11.2021
4768 Clouds 5 1032 91 10000 1.54 0 09:24 15.11.2021
4769 Clouds 3 1032 95 9000 1.03 0 07:45 15.11.2021
4770 Clouds 3 1033 94 10000 0 0 04:45 15.11.2021
4771 Clouds 4 1034 92 10000 0.51 0 22:47 14.11.2021
4772 Clouds 4 1034 92 10000 1.03 0 22:28 14.11.2021
4773 Clouds 4 1034 92 10000 2.06 20 19:51 14.11.2021
4774 Clouds 4 1034 92 10000 1.54 20 19:18 14.11.2021
4775 Clouds 4 1034 92 10000 1.54 0 18:54 14.11.2021
4776 Clouds 4 1033 92 10000 1.54 0 18:36 14.11.2021
4777 Clouds 4 1033 92 10000 1.54 360 18:18 14.11.2021
4778 Clouds 4 1033 92 10000 1.54 0 17:54 14.11.2021
4779 Clouds 4 1033 92 10000 1.54 0 17:36 14.11.2021
4780 Clouds 4 1033 91 10000 1.54 10 17:18 14.11.2021
4781 Clouds 4 1033 91 10000 1.54 0 16:45 14.11.2021
4782 Clouds 4 1033 91 10000 2.06 360 16:19 14.11.2021
4783 Clouds 5 1032 90 10000 2.06 10 15:22 14.11.2021
4784 Clouds 5 1032 89 10000 2.06 10 14:45 14.11.2021
4785 Clouds 5 1032 90 10000 2.06 20 14:26 14.11.2021
4786 Clouds 6 1031 90 10000 2.57 20 13:53 14.11.2021
4787 Clouds 6 1031 91 10000 2.57 360 13:35 14.11.2021
4788 Clouds 6 1031 92 10000 2.06 360 12:27 14.11.2021
4789 Clouds 5 1031 93 10000 1.54 350 11:40 14.11.2021
4790 Clouds 4 1030 95 10000 1.54 350 10:40 14.11.2021
4791 Clouds 4 1030 95 10000 2.06 340 09:42 14.11.2021
4792 Clouds 4 1029 96 10000 1.54 350 08:52 14.11.2021
4793 Fog 3 1028 96 200 1.03 0 06:54 14.11.2021
4794 Clouds 3 1024 95 10000 1.03 20 23:34 13.11.2021
4795 Clouds 5 1024 93 10000 1.54 0 22:22 13.11.2021
4796 Clouds 5 1024 93 10000 2.06 10 21:50 13.11.2021
4797 Clouds 5 1023 94 10000 1.54 0 21:20 13.11.2021
4798 Clouds 6 1022 93 10000 2.06 50 19:38 13.11.2021
4799 Clouds 6 1022 93 10000 2.06 50 18:33 13.11.2021
4800 Clouds 6 1022 93 10000 2.06 50 18:33 13.11.2021
4801 Clouds 6 1022 93 10000 2.06 80 17:50 13.11.2021
4802 Clear 6 1021 92 10000 2.57 70 16:37 13.11.2021
4803 Clouds 6 1021 92 10000 2.06 70 15:20 13.11.2021
4804 Clouds 7 1023 90 10000 1.54 80 14:20 13.11.2021
4805 Clouds 6 1023 90 10000 2.06 70 12:56 13.11.2021
4806 Clouds 5 1023 92 10000 1.54 60 12:22 13.11.2021
4807 Clouds 5 1023 92 10000 1.54 0 11:33 13.11.2021
4808 Clouds 4 1022 94 10000 1.54 0 10:44 13.11.2021
4809 Clear 4 1022 96 10000 1.54 40 09:56 13.11.2021
4810 Clear 3 1022 97 10000 1.54 40 09:34 13.11.2021
4811 Clear 3 1022 94 10000 1.03 50 08:56 13.11.2021
4812 Clouds 2 1022 96 10000 1.03 0 08:23 13.11.2021
4813 Clouds 0 1020 96 10000 0.51 0 04:47 13.11.2021
4814 Clouds 0 1020 96 10000 0 0 04:28 13.11.2021
4815 Clouds 0 1020 96 10000 0.51 270 01:30 13.11.2021
4816 Clouds 0 1020 95 10000 0 0 22:46 12.11.2021
4817 Clear 0 1019 95 10000 0.51 0 21:45 12.11.2021
4818 Clear 0 1019 95 10000 0.51 0 21:45 12.11.2021
4819 Clear 1 1019 95 10000 0 0 19:54 12.11.2021
4820 Clear 1 1019 92 10000 0.51 260 19:27 12.11.2021
4821 Clear 1 1018 91 10000 0 0 18:29 12.11.2021
4822 Clear 2 1016 83 10000 0.51 260 16:34 12.11.2021
4823 Clear 5 1016 75 10000 2.06 260 15:32 12.11.2021
4824 Clear 6 1017 71 10000 3.6 290 11:54 12.11.2021
4825 Clear 5 1016 72 10000 4.12 290 10:51 12.11.2021
4826 Clear 5 1016 77 10000 3.09 280 09:44 12.11.2021
4827 Clear 4 1015 80 10000 3.09 270 08:38 12.11.2021
4828 Clear 5 1010 72 10000 6.17 270 02:32 12.11.2021
4829 Clear 6 1008 75 10000 5.66 260 23:42 11.11.2021
4830 Clear 6 1007 75 10000 6.17 260 22:36 11.11.2021
4831 Clear 7 1006 77 10000 5.66 260 21:27 11.11.2021
4832 Clear 7 1006 78 10000 6.17 260 20:42 11.11.2021
4833 Clear 8 1005 80 10000 5.66 260 19:24 11.11.2021
4834 Clouds 8 1004 86 10000 5.14 250 17:44 11.11.2021
4835 Clouds 7 1004 87 10000 5.14 230 16:58 11.11.2021
4836 Clouds 7 1005 86 10000 4.63 220 14:58 11.11.2021
4837 Clouds 7 1006 86 10000 4.63 220 14:29 11.11.2021
4838 Clouds 7 1009 86 10000 4.63 210 13:40 11.11.2021
4839 Clouds 7 1010 86 10000 5.66 230 12:50 11.11.2021
4840 Clear 6 1012 92 10000 4.12 220 10:58 11.11.2021
4841 Clear 5 1013 94 10000 3.6 220 09:39 11.11.2021
4842 Clear 3 1014 93 10000 3.09 220 07:59 11.11.2021
4843 Clouds 3 1015 97 10000 3.09 220 05:55 11.11.2021
4844 Clouds 6 1014 87 10000 1.54 250 00:34 11.11.2021
4845 Clear 7 1014 86 10000 4.63 260 22:32 10.11.2021
4846 Clear 8 1014 85 10000 5.14 270 21:33 10.11.2021
4847 Clear 8 1013 86 10000 5.66 260 20:47 10.11.2021
4848 Clear 8 1013 86 10000 5.66 260 20:47 10.11.2021
4849 Clear 9 1012 85 10000 5.66 260 19:47 10.11.2021
4850 Clear 9 1012 85 10000 5.66 260 19:47 10.11.2021
4851 Clouds 9 1012 83 10000 5.14 260 19:27 10.11.2021
4852 Clouds 11 1011 80 10000 6.17 260 16:38 10.11.2021
4853 Clouds 11 1010 82 10000 4.63 260 15:44 10.11.2021
4854 Clouds 12 1009 83 10000 6.17 240 13:52 10.11.2021
4855 Clouds 11 1010 85 10000 4.63 240 13:26 10.11.2021
4856 Clouds 11 1009 90 10000 5.66 230 11:36 10.11.2021
4857 Clouds 11 1010 91 10000 4.63 230 08:59 10.11.2021
4858 Clouds 11 1010 91 10000 4.63 230 08:39 10.11.2021
4859 Clouds 11 1010 92 10000 5.14 230 06:41 10.11.2021
4860 Clouds 10 1011 92 10000 4.63 230 05:52 10.11.2021
4861 Clouds 9 1012 94 10000 3.6 210 01:24 10.11.2021
4862 Clouds 7 1013 94 10000 5.14 210 21:55 09.11.2021
4863 Clouds 7 1013 93 10000 4.12 190 20:32 09.11.2021
4864 Clouds 7 1013 93 10000 4.12 190 20:32 09.11.2021
4865 Clouds 6 1014 94 10000 4.63 190 19:26 09.11.2021
4866 Clouds 6 1014 94 10000 5.14 190 18:38 09.11.2021
4867 Rain 5 1015 94 10000 5.66 190 16:26 09.11.2021
4868 Rain 5 1017 93 10000 5.66 190 14:58 09.11.2021
4869 Rain 3 1018 93 6000 6.17 180 13:21 09.11.2021
4870 Rain 3 1019 94 8000 5.66 180 12:22 09.11.2021
4871 Rain 2 1021 91 9000 5.66 220 10:46 09.11.2021
4872 Rain 2 1021 90 10000 5.14 210 09:42 09.11.2021
4873 Snow 1 1021 95 10000 2.57 200 08:37 09.11.2021
4874 Clouds -2 1024 97 10000 1.54 160 05:58 09.11.2021
4875 Fog -2 1023 95 100 1.03 0 02:28 09.11.2021
4876 Fog -2 1023 95 50 0.51 80 01:48 09.11.2021
4877 Fog -3 1022 97 50 0 0 00:19 09.11.2021
4878 Clouds -3 1023 96 9000 0 0 23:20 08.11.2021
4879 Clear -2 1023 95 10000 0 0 22:32 08.11.2021
4880 Clear -2 1023 94 9000 1.54 290 21:21 08.11.2021
4881 Clear -2 1022 94 10000 1.03 290 20:31 08.11.2021
4882 Clear -1 1021 95 10000 1.54 310 18:57 08.11.2021
4883 Clear 0 1020 91 10000 2.57 310 17:23 08.11.2021
4884 Clouds 1 1019 87 10000 3.6 320 15:31 08.11.2021
4885 Clouds 2 1019 87 10000 3.09 320 14:53 08.11.2021
4886 Clouds 2 1018 87 10000 4.63 310 13:59 08.11.2021
4887 Clouds 2 1017 87 10000 4.63 330 12:44 08.11.2021
4888 Clouds 2 1016 90 10000 4.12 320 11:28 08.11.2021
4889 Clouds 1 1015 92 10000 4.12 320 10:18 08.11.2021
4890 Clouds 1 1014 92 10000 5.14 320 08:56 08.11.2021
4891 Snow 1 1012 92 9000 4.12 320 07:38 08.11.2021
4892 Clouds 1 1011 92 10000 4.63 320 06:50 08.11.2021
4893 Clouds 1 1008 92 10000 4.63 330 03:34 08.11.2021
4894 Clouds 3 1004 90 10000 4.12 350 23:51 07.11.2021
4895 Clouds 3 1003 91 10000 5.14 350 22:30 07.11.2021
4896 Clear 4 1001 91 10000 4.63 350 21:22 07.11.2021
4897 Clouds 4 1000 92 10000 3.6 350 19:55 07.11.2021
4898 Clouds 4 998 92 10000 4.12 20 18:26 07.11.2021
4899 Rain 4 997 93 10000 3.6 10 17:38 07.11.2021
4900 Rain 4 996 93 10000 4.12 20 15:55 07.11.2021
4901 Rain 5 994 91 10000 5.14 30 14:42 07.11.2021
4902 Rain 5 994 92 10000 5.14 40 13:57 07.11.2021
4903 Drizzle 5 993 93 8000 5.14 30 11:54 07.11.2021
4904 Rain 6 993 94 10000 4.12 50 10:22 07.11.2021
4905 Rain 6 994 94 10000 4.63 70 08:48 07.11.2021
4906 Clouds 3 1000 88 10000 2.57 120 02:49 07.11.2021
4907 Clouds 2 1003 89 10000 2.06 140 00:18 07.11.2021
4908 Clouds 2 1006 89 10000 1.03 100 22:54 06.11.2021
4909 Clouds 2 1006 87 10000 0.51 0 21:43 06.11.2021
4910 Clouds 2 1005 88 10000 1.03 220 20:52 06.11.2021
4911 Clouds 3 1006 84 10000 2.06 240 19:39 06.11.2021
4912 Clear 4 1006 79 10000 3.6 270 17:25 06.11.2021
4913 Clear 5 1005 73 10000 4.63 260 15:46 06.11.2021
4914 Clear 7 1005 68 10000 5.14 260 13:39 06.11.2021
4915 Clear 7 1005 68 10000 5.14 260 13:39 06.11.2021
4916 Clear 6 1004 75 10000 5.14 270 12:38 06.11.2021
4917 Clouds 5 1003 86 10000 5.14 270 09:49 06.11.2021
4918 Clouds 3 1002 92 10000 3.09 250 08:24 06.11.2021
4919 Clouds 2 1004 92 10000 2.06 240 03:20 06.11.2021
4920 Clouds 3 1004 88 10000 3.6 280 23:40 05.11.2021
4921 Clouds 4 1004 87 10000 3.6 270 22:52 05.11.2021
4922 Clouds 5 1003 85 10000 4.12 260 21:55 05.11.2021
4923 Clouds 6 1003 83 10000 5.14 270 20:20 05.11.2021
4924 Clouds 6 1003 85 10000 4.12 240 19:49 05.11.2021
4925 Clouds 6 1003 85 10000 3.09 220 18:41 05.11.2021
4926 Clouds 6 1003 84 10000 2.57 230 17:34 05.11.2021
4927 Clouds 7 1001 79 10000 4.12 270 15:48 05.11.2021
4928 Clouds 7 1001 82 10000 5.66 290 13:58 05.11.2021
4929 Clouds 6 1000 87 10000 4.63 300 11:43 05.11.2021
4930 Clouds 5 1000 92 10000 4.12 320 08:57 05.11.2021
4931 Clouds 5 1000 90 10000 4.63 310 07:45 05.11.2021
4932 Clouds 5 1000 89 10000 3.09 350 05:33 05.11.2021
4933 Clouds 5 1001 89 10000 2.57 10 02:27 05.11.2021
4934 Clouds 6 1002 90 10000 2.57 20 00:53 05.11.2021
4935 Clouds 6 1003 90 10000 2.06 20 23:26 04.11.2021
4936 Clouds 6 1003 90 10000 2.06 20 23:26 04.11.2021
4937 Clouds 6 1004 90 10000 2.57 20 22:20 04.11.2021
4938 Clouds 6 1005 90 10000 2.06 360 21:44 04.11.2021
4939 Clouds 6 1005 90 10000 2.57 10 21:19 04.11.2021
4940 Clouds 6 1006 89 10000 2.06 20 20:25 04.11.2021
4941 Clouds 6 1006 89 10000 2.06 360 19:48 04.11.2021
4942 Clouds 7 1006 91 10000 2.06 350 19:20 04.11.2021
4943 Clouds 6 1006 91 10000 1.54 340 18:21 04.11.2021
4944 Clouds 6 1007 92 10000 0 0 17:26 04.11.2021
4945 Clouds 6 1007 92 10000 0 0 17:26 04.11.2021
4946 Clouds 7 1006 88 10000 1.03 270 15:34 04.11.2021
4947 Clouds 8 1006 85 10000 2.57 240 13:45 04.11.2021
4948 Clouds 6 1006 92 10000 3.09 240 09:50 04.11.2021
4949 Clouds 6 1005 93 10000 2.57 230 08:31 04.11.2021
4950 Clouds 6 1006 91 10000 4.63 240 07:35 04.11.2021
4951 Clouds 6 1004 93 10000 3.09 240 06:22 04.11.2021
4952 Mist 8 1000 95 3900 3.6 250 22:54 03.11.2021
4953 Mist 8 999 96 4700 1.54 230 21:51 03.11.2021
4954 Mist 8 999 96 4700 1.54 230 21:33 03.11.2021
4955 Rain 8 999 96 5000 1.03 160 20:38 03.11.2021
4956 Rain 8 999 96 5000 1.03 150 20:19 03.11.2021
4957 Drizzle 8 999 96 6000 1.54 110 19:19 03.11.2021
4958 Drizzle 8 998 94 7000 2.06 100 18:26 03.11.2021
4959 Rain 8 998 94 6000 2.06 100 17:41 03.11.2021
4960 Rain 8 998 94 6000 3.09 110 16:31 03.11.2021
4961 Drizzle 8 998 94 6000 2.57 110 15:47 03.11.2021
4962 Drizzle 8 998 94 5000 3.09 110 15:28 03.11.2021
4963 Drizzle 8 998 94 5000 3.09 110 15:28 03.11.2021
4964 Rain 8 999 92 8000 3.09 110 12:33 03.11.2021
4965 Clouds 8 999 92 8000 4.12 110 11:27 03.11.2021
4966 Mist 8 999 93 5000 4.63 110 10:49 03.11.2021
4967 Clouds 8 999 94 6000 4.63 120 09:34 03.11.2021
4968 Drizzle 8 999 94 5000 5.66 120 08:37 03.11.2021
4969 Drizzle 8 999 94 5000 4.63 120 07:39 03.11.2021
4970 Rain 8 999 95 4800 5.14 110 05:44 03.11.2021
4971 Rain 8 999 92 4100 5.14 100 03:19 03.11.2021
4972 Clouds 9 1000 85 10000 4.12 120 00:54 03.11.2021
4973 Clouds 9 1000 86 10000 4.12 120 22:48 02.11.2021
4974 Clouds 8 1000 88 10000 3.09 110 21:47 02.11.2021
4975 Clouds 8 1000 87 10000 4.12 100 20:34 02.11.2021
4976 Clouds 8 1000 87 10000 3.09 120 19:55 02.11.2021
4977 Clouds 8 1000 86 10000 5.14 130 19:18 02.11.2021
4978 Clouds 8 1000 86 10000 5.14 110 18:26 02.11.2021
4979 Clouds 8 1000 86 10000 5.14 110 17:43 02.11.2021
4980 Clouds 9 1001 87 10000 4.12 110 16:33 02.11.2021
4981 Clouds 9 1001 87 10000 4.63 110 15:48 02.11.2021
4982 Clouds 9 1001 88 9000 5.14 130 14:31 02.11.2021
4983 Mist 9 1001 91 5000 4.12 120 13:28 02.11.2021
4984 Mist 9 1001 92 3900 4.12 140 12:45 02.11.2021
4985 Clouds 10 1001 92 6000 4.12 130 11:38 02.11.2021
4986 Mist 10 1002 94 4000 2.57 120 10:54 02.11.2021
4987 Mist 10 1002 94 2700 3.6 110 10:29 02.11.2021
4988 Mist 10 1002 94 3600 2.06 140 08:45 02.11.2021
4989 Mist 9 1002 95 2800 2.57 120 07:36 02.11.2021
4990 Clouds 9 1000 93 10000 2.22 158 03:51 02.11.2021
4991 Clouds 9 1001 93 10000 2.11 175 02:35 02.11.2021
4992 Clouds 10 1001 90 9000 2.57 160 23:20 01.11.2021
4993 Clouds 10 1000 88 10000 3.09 160 21:26 01.11.2021
4994 Clouds 10 1000 88 10000 3.6 160 20:39 01.11.2021
4995 Clouds 10 1000 87 10000 4.63 160 19:57 01.11.2021
4996 Clouds 10 1000 87 10000 4.63 160 19:30 01.11.2021
4997 Clouds 10 999 87 10000 4.12 150 18:22 01.11.2021
4998 Clouds 10 999 88 10000 5.14 140 17:35 01.11.2021
4999 Clouds 10 999 88 10000 5.14 150 16:50 01.11.2021
5000 Clouds 10 999 87 10000 5.66 140 15:55 01.11.2021
5001 Clouds 10 999 85 10000 5.66 150 15:26 01.11.2021
5002 Clear 11 999 84 10000 6.69 140 14:43 01.11.2021
5003 Clear 11 999 83 10000 6.69 140 14:22 01.11.2021
5004 Clear 11 999 83 10000 6.69 150 13:49 01.11.2021
5005 Clear 12 999 82 10000 6.69 140 12:27 01.11.2021
5006 Clear 11 1000 85 10000 7.72 130 10:33 01.11.2021
5007 Clouds 11 1001 88 7000 5.14 130 09:25 01.11.2021
5008 Clouds 10 1002 93 9000 5.14 110 07:49 01.11.2021
5009 Clouds 10 1002 94 7000 5.14 110 06:31 01.11.2021
5010 Mist 9 1004 96 1200 4.63 130 03:44 01.11.2021
5011 Clouds 7 1007 97 500 2.57 140 00:37 01.11.2021
5012 Fog 6 1007 94 10000 1.54 170 22:24 31.10.2021
5013 Clear 7 1007 92 10000 3.09 180 20:46 31.10.2021
5014 Clear 8 1006 91 10000 2.06 180 18:57 31.10.2021
5015 Clear 8 1006 91 10000 2.06 180 18:35 31.10.2021
5016 Clear 8 1006 91 10000 3.09 180 17:23 31.10.2021
5017 Clear 10 1005 84 10000 2.57 220 15:41 31.10.2021
5018 Clouds 11 1004 83 10000 3.6 240 13:56 31.10.2021
5019 Clouds 10 1003 88 9000 4.63 240 12:44 31.10.2021
5020 Clouds 10 1003 90 9000 3.6 210 11:38 31.10.2021
5021 Clouds 10 1002 91 9000 2.57 170 10:41 31.10.2021
5022 Clouds 9 1002 94 7000 3.09 180 09:20 31.10.2021
5023 Clouds 8 1003 96 6000 3.6 140 06:59 31.10.2021
5024 Clouds 7 1007 95 3500 3.09 120 00:48 31.10.2021
5025 Fog 7 1009 95 200 2.06 130 22:33 30.10.2021
5026 Fog 7 1009 95 200 2.06 140 21:33 30.10.2021
5027 Clouds 8 1011 94 10000 1.91 180 20:19 30.10.2021
5028 Clouds 8 1009 92 6000 1.03 0 18:33 30.10.2021
5029 Clouds 9 1008 90 9000 2.57 240 16:42 30.10.2021
5030 Clouds 10 1008 87 9000 3.6 210 14:36 30.10.2021
5031 Clouds 10 1007 87 9000 4.12 200 13:39 30.10.2021
5032 Clouds 11 1007 86 9000 3.6 180 13:20 30.10.2021
5033 Clouds 10 1007 92 9000 4.12 180 11:51 30.10.2021
5034 Clouds 9 1007 93 7000 3.09 170 11:31 30.10.2021
5035 Mist 8 1009 96 3800 3.6 160 10:24 30.10.2021
5036 Mist 7 1009 96 3400 2.57 130 08:48 30.10.2021
5037 Mist 7 1009 96 4100 3.09 150 06:26 30.10.2021
5038 Mist 7 1008 96 4100 2.57 160 05:38 30.10.2021
5039 Mist 7 1009 94 2400 1.54 150 23:52 29.10.2021
5040 Mist 7 1009 93 4400 2.57 180 22:36 29.10.2021
5041 Mist 7 1009 94 4000 2.06 180 21:23 29.10.2021
5042 Clouds 7 1009 92 6000 2.06 170 20:42 29.10.2021
5043 Clouds 9 1008 90 10000 2.06 200 19:44 29.10.2021
5044 Clouds 9 1008 90 9000 2.06 220 18:26 29.10.2021
5045 Clouds 9 1009 89 8000 3.09 200 16:50 29.10.2021
5046 Clouds 10 1010 86 10000 3.6 180 14:29 29.10.2021
5047 Clouds 9 1011 93 4700 3.6 180 10:56 29.10.2021
5048 Clouds 8 1011 93 4700 3.6 180 10:34 29.10.2021
5049 Clouds 8 1010 93 10000 3.09 200 07:25 29.10.2021
5050 Clouds 10 1010 85 10000 5.14 220 00:36 29.10.2021
5051 Clouds 12 1010 80 10000 5.14 220 22:54 28.10.2021
5052 Clouds 12 1009 82 10000 1.34 248 21:52 28.10.2021
5053 Clouds 13 1010 82 10000 5.14 220 20:25 28.10.2021
5054 Clouds 13 1009 82 10000 5.14 230 19:23 28.10.2021
5055 Clouds 13 1009 80 10000 6.69 240 18:18 28.10.2021
5056 Clouds 13 1009 84 10000 6.17 240 16:58 28.10.2021
5057 Clouds 13 1009 88 10000 5.66 240 15:20 28.10.2021
5058 Clouds 13 1009 95 10000 3.6 220 13:43 28.10.2021
5059 Clouds 12 1009 95 10000 3.09 190 13:20 28.10.2021
5060 Rain 13 1009 94 10000 3.09 190 12:39 28.10.2021
5061 Clouds 12 1009 96 10000 2.57 210 10:51 28.10.2021
5062 Clouds 12 1009 96 10000 2.06 200 09:38 28.10.2021
5063 Mist 11 1009 96 3300 2.06 190 08:37 28.10.2021
5064 Mist 10 1008 96 4500 1.54 190 07:49 28.10.2021
5065 Mist 8 1008 95 200 1.54 210 04:36 28.10.2021
5066 Clouds 9 1007 94 9000 1.54 0 23:38 27.10.2021
5067 Fog 9 1006 94 7000 1.54 240 22:30 27.10.2021
5068 Fog 9 1005 94 6000 1.03 240 21:33 27.10.2021
5069 Clouds 10 1005 96 10000 2.06 250 20:50 27.10.2021
5070 Clear 10 1003 93 10000 2.57 250 19:52 27.10.2021
5071 Clear 10 1003 93 10000 3.09 250 19:32 27.10.2021
5072 Clear 11 1002 92 10000 2.57 240 18:39 27.10.2021
5073 Clouds 12 1000 93 10000 4.63 270 16:26 27.10.2021
5074 Drizzle 11 999 95 6000 4.63 240 15:30 27.10.2021
5075 Drizzle 11 999 94 6000 3.09 230 14:39 27.10.2021
5076 Rain 8 1001 94 9000 5.66 180 11:21 27.10.2021
5077 Rain 8 1001 94 9000 4.63 170 10:58 27.10.2021
5078 Rain 7 1003 94 10000 3.6 170 09:45 27.10.2021
5079 Clouds 6 1005 92 10000 3.6 210 07:53 27.10.2021
5080 Clear 5 1006 93 10000 3.6 220 06:53 27.10.2021
5081 Clear 6 1008 88 10000 4.12 260 01:45 27.10.2021
5082 Clear 7 1008 86 10000 3.6 250 00:56 27.10.2021
5083 Clear 7 1008 88 10000 4.63 250 00:24 27.10.2021
5084 Clear 7 1008 88 10000 5.14 250 23:40 26.10.2021
5085 Clear 7 1008 86 10000 4.63 250 22:36 26.10.2021
5086 Clear 7 1007 86 10000 4.12 240 21:52 26.10.2021
5087 Clear 8 1007 86 10000 3.09 230 20:26 26.10.2021
5088 Clouds 8 1007 87 10000 2.57 220 19:26 26.10.2021
5089 Clouds 9 1007 89 10000 2.06 230 18:40 26.10.2021
5090 Clouds 9 1007 89 10000 2.06 230 18:40 26.10.2021
5091 Clouds 10 1006 88 10000 4.12 210 16:22 26.10.2021
5092 Drizzle 10 1006 87 10000 3.09 200 14:18 26.10.2021
5093 Clouds 9 1006 89 10000 3.6 210 11:34 26.10.2021
5094 Clouds 8 1007 91 10000 2.57 210 09:59 26.10.2021
5095 Clouds 7 1007 90 10000 2.57 170 07:24 26.10.2021
5096 Clouds 7 1010 88 10000 3.09 210 03:39 26.10.2021
5097 Clouds 8 1011 82 10000 3.6 220 23:50 25.10.2021
5098 Clouds 7 1011 83 10000 3.6 220 22:39 25.10.2021
5099 Clouds 7 1011 85 10000 3.6 220 22:18 25.10.2021
5100 Clear 6 1011 86 10000 2.57 220 21:26 25.10.2021
5101 Clear 6 1011 86 10000 3.6 210 19:50 25.10.2021
5102 Clear 6 1012 85 10000 3.09 200 19:25 25.10.2021
5103 Clear 6 1012 84 10000 3.09 200 18:53 25.10.2021
5104 Clouds 7 1012 81 10000 2.06 200 17:48 25.10.2021
5105 Clouds 8 1011 74 10000 4.12 230 15:41 25.10.2021
5106 Clouds 8 1012 77 10000 4.12 220 13:56 25.10.2021
5107 Clouds 9 1013 76 10000 4.63 210 12:24 25.10.2021
5108 Clear 7 1013 80 10000 4.12 210 10:18 25.10.2021
5109 Clear 5 1014 85 10000 3.09 190 08:28 25.10.2021
5110 Clouds 6 1014 84 10000 2.57 210 05:58 25.10.2021
5111 Clouds 10 1017 76 10000 5.66 230 00:53 25.10.2021
5112 Clouds 10 1017 76 10000 5.66 230 00:35 25.10.2021
5113 Clouds 10 1017 78 10000 5.14 220 23:46 24.10.2021
5114 Clouds 10 1018 81 10000 4.12 220 22:43 24.10.2021
5115 Clouds 10 1017 81 10000 5.66 210 22:21 24.10.2021
5116 Clouds 10 1018 81 10000 5.14 220 21:38 24.10.2021
5117 Clouds 10 1018 82 10000 5.14 200 20:42 24.10.2021
5118 Clouds 9 1018 82 10000 4.12 210 19:50 24.10.2021
5119 Clouds 9 1018 83 10000 3.6 200 18:49 24.10.2021
5120 Clouds 9 1019 81 10000 3.09 210 17:54 24.10.2021
5121 Clear 9 1019 78 10000 4.12 210 16:40 24.10.2021
5122 Clear 10 1018 75 10000 4.12 190 15:25 24.10.2021
5123 Clear 9 1019 74 10000 3.6 200 13:44 24.10.2021
5124 Clouds 8 1020 76 10000 3.6 200 12:40 24.10.2021
5125 Clouds 7 1020 79 10000 3.6 210 11:37 24.10.2021
5126 Clouds 6 1020 80 10000 3.6 220 10:43 24.10.2021
5127 Clouds 5 1020 79 10000 3.09 200 08:50 24.10.2021
5128 Clouds 0 1021 92 10000 0 0 03:30 24.10.2021
5129 Clouds -1 1023 91 10000 0 0 23:56 23.10.2021
5130 Clouds -1 1022 91 10000 1.03 270 22:55 23.10.2021
5131 Clouds -1 1021 90 10000 0 0 21:20 23.10.2021
5132 Clouds 0 1019 80 10000 1.54 270 19:36 23.10.2021
5133 Clouds 1 1018 76 10000 2.06 280 18:44 23.10.2021
5134 Clouds 3 1017 72 10000 2.06 290 17:46 23.10.2021
5135 Clear 3 1017 71 10000 3.09 310 17:18 23.10.2021
5136 Clouds 4 1016 69 10000 6.17 310 15:57 23.10.2021
5137 Clouds 4 1013 71 10000 6.17 310 13:35 23.10.2021
5138 Clouds 3 994 77 10000 2.06 310 00:45 23.10.2021
5139 Clouds 3 992 76 10000 2.57 310 23:36 22.10.2021
5140 Clear 4 990 71 10000 3.6 270 21:29 22.10.2021
5141 Clear 5 989 67 10000 4.63 270 19:33 22.10.2021
5142 Clear 6 988 61 10000 5.14 270 18:25 22.10.2021
5143 Clear 7 986 56 10000 6.17 270 16:30 22.10.2021
5144 Clear 8 985 54 10000 6.69 260 14:44 22.10.2021
5145 Clear 7 983 58 10000 7.72 270 12:41 22.10.2021
5146 Clear 5 982 64 10000 6.69 260 10:56 22.10.2021
5147 Clear 4 982 68 10000 6.69 260 09:57 22.10.2021
5148 Clear 4 982 69 10000 6.17 260 09:32 22.10.2021
5149 Clear 3 980 71 10000 6.69 260 07:30 22.10.2021
5150 Clear 4 980 71 10000 6.17 260 06:46 22.10.2021
5151 Clouds 6 975 73 10000 6.69 270 00:53 22.10.2021
5152 Clouds 6 974 79 10000 2.68 270 23:49 21.10.2021
5153 Clouds 6 973 78 10000 8.23 280 22:43 21.10.2021
5154 Clouds 7 971 86 10000 7.72 270 21:28 21.10.2021
5155 Clouds 8 970 91 10000 6.69 280 20:21 21.10.2021
5156 Clouds 8 970 90 10000 7.72 290 19:49 21.10.2021
5157 Clouds 9 969 92 10000 3.6 260 19:20 21.10.2021
5158 Rain 8 969 95 10000 3.09 310 18:32 21.10.2021
5159 Rain 9 969 94 10000 4.12 270 17:51 21.10.2021
5160 Rain 10 969 94 3200 3.09 270 16:47 21.10.2021
5161 Rain 10 970 94 3000 1.54 0 15:28 21.10.2021
5162 Drizzle 11 971 92 6000 1.54 150 14:51 21.10.2021
5163 Drizzle 11 973 90 10000 1.54 170 13:57 21.10.2021
5164 Clouds 11 976 85 10000 3.6 190 11:49 21.10.2021
5165 Clouds 9 978 86 10000 4.63 210 09:33 21.10.2021
5166 Clear 9 978 87 10000 3.6 200 07:46 21.10.2021
5167 Clouds 9 978 85 10000 4.63 220 06:28 21.10.2021
5168 Clouds 12 981 70 10000 9.26 240 00:35 21.10.2021
5169 Clouds 13 979 81 10000 5.66 240 22:29 20.10.2021
5170 Clouds 13 979 80 10000 6.69 230 21:47 20.10.2021
5171 Clouds 13 979 83 10000 5.66 240 20:58 20.10.2021
5172 Clouds 14 979 84 10000 5.66 240 20:38 20.10.2021
5173 Clouds 14 979 86 10000 6.17 240 20:18 20.10.2021
5174 Clouds 14 979 89 10000 5.66 230 19:20 20.10.2021
5175 Clouds 14 979 91 10000 4.12 220 18:29 20.10.2021
5176 Rain 15 981 91 10000 4.12 230 16:27 20.10.2021
5177 Rain 15 983 92 10000 4.63 210 13:46 20.10.2021
5178 Clouds 12 986 95 10000 3.6 210 09:53 20.10.2021
5179 Drizzle 10 992 94 10000 3.09 170 05:30 20.10.2021
5180 Rain 10 998 92 10000 3.6 160 01:48 20.10.2021
5181 Rain 10 1001 90 10000 4.63 160 00:33 20.10.2021
5182 Clouds 9 1005 89 10000 4.63 160 22:30 19.10.2021
5183 Clouds 9 1006 88 10000 4.63 150 21:35 19.10.2021
5184 Clouds 8 1008 87 10000 4.63 140 20:26 19.10.2021
5185 Clouds 8 1008 86 10000 5.14 140 19:56 19.10.2021
5186 Clouds 8 1009 84 10000 4.12 150 19:29 19.10.2021
5187 Clouds 8 1010 81 10000 3.6 150 18:33 19.10.2021
5188 Clouds 7 1011 81 10000 5.14 140 17:24 19.10.2021
5189 Clouds 7 1014 81 10000 3.09 150 15:28 19.10.2021
5190 Drizzle 7 1015 83 10000 4.63 150 14:33 19.10.2021
5191 Drizzle 7 1016 80 10000 3.09 160 13:50 19.10.2021
5192 Clouds 7 1017 79 10000 2.57 150 12:20 19.10.2021
5193 Clear 6 1018 83 10000 2.06 130 11:23 19.10.2021
5194 Clear 3 1021 93 10000 1.03 0 09:43 19.10.2021
5195 Clear 1 1021 96 10000 0.51 130 08:56 19.10.2021
5196 Clouds -2 1023 93 10000 0 0 00:39 19.10.2021
5197 Clouds -2 1023 100 10000 0 0 23:58 18.10.2021
5198 Clouds -2 1023 100 10000 0 0 23:39 18.10.2021
5199 Clouds -1 1023 87 10000 0 0 22:55 18.10.2021
5200 Clear 0 1023 87 10000 0 0 22:18 18.10.2021
5201 Clear 1 1022 83 10000 0 0 20:48 18.10.2021
5202 Clear 2 1022 81 10000 1.03 260 20:24 18.10.2021
5203 Clear 3 1020 77 10000 1.54 280 19:32 18.10.2021
5204 Clear 3 1020 75 10000 2.06 300 18:59 18.10.2021
5205 Clear 7 1019 62 10000 4.12 310 16:38 18.10.2021
5206 Clear 8 1018 61 10000 5.66 310 14:47 18.10.2021
5207 Clear 6 1017 63 10000 4.63 300 12:19 18.10.2021
5208 Clear 4 1016 68 10000 5.14 290 10:22 18.10.2021
5209 Clear 2 1016 77 10000 5.14 280 08:21 18.10.2021
5210 Clear 4 1013 67 10000 5.14 300 01:23 18.10.2021
5211 Clear 5 1012 63 10000 5.14 290 22:56 17.10.2021
5212 Clear 5 1011 63 10000 5.14 280 21:45 17.10.2021
5213 Clear 5 1011 65 10000 5.14 290 20:57 17.10.2021
5214 Clear 5 1010 66 10000 3.6 280 20:25 17.10.2021
5215 Clear 5 1010 64 10000 3.6 280 19:38 17.10.2021
5216 Clear 6 1009 63 10000 0.45 270 18:35 17.10.2021
5217 Clear 8 1009 53 10000 6.17 270 16:49 17.10.2021
5218 Clear 8 1008 55 10000 5.66 260 14:40 17.10.2021
5219 Clear 8 1008 56 10000 5.14 270 14:22 17.10.2021
5220 Clear 7 1008 58 10000 5.14 270 13:33 17.10.2021
5221 Clear 7 1008 60 10000 4.63 290 11:54 17.10.2021
5222 Clouds 5 1008 71 10000 3.09 290 10:19 17.10.2021
5223 Clouds 2 1008 82 10000 0.51 280 09:22 17.10.2021
5224 Clouds 2 1007 82 10000 1.54 290 06:52 17.10.2021
5225 Clouds 5 1005 67 10000 4.12 280 00:49 17.10.2021
5226 Clouds 6 1005 67 10000 4.12 270 23:33 16.10.2021
5227 Clouds 7 1003 68 10000 3.6 250 21:28 16.10.2021
5228 Clouds 8 1003 65 10000 5.14 270 20:30 16.10.2021
5229 Clear 8 1003 65 10000 5.66 260 19:42 16.10.2021
5230 Clear 8 1002 66 10000 4.63 260 19:20 16.10.2021
5231 Clear 8 1002 66 10000 4.63 260 18:46 16.10.2021
5232 Clear 8 1002 65 10000 5.14 260 18:28 16.10.2021
5233 Clear 9 1001 62 10000 6.17 260 17:52 16.10.2021
5234 Clear 10 1001 61 10000 6.17 260 17:21 16.10.2021
5235 Clear 10 1001 60 10000 6.69 260 13:54 16.10.2021
5236 Clear 7 1001 71 10000 5.66 260 11:26 16.10.2021
5237 Clear 6 1001 79 10000 4.63 250 09:48 16.10.2021
5238 Clouds 3 1001 82 10000 2.57 220 06:50 16.10.2021
5239 Clouds 5 1001 71 10000 4.12 260 01:24 16.10.2021
5240 Clouds 5 1001 71 10000 4.12 260 01:24 16.10.2021
5241 Clouds 6 1001 68 10000 5.14 270 23:40 15.10.2021
5242 Clear 7 1000 64 10000 8.23 280 22:22 15.10.2021
5243 Clear 7 999 63 10000 8.75 290 21:51 15.10.2021
5244 Clouds 7 999 64 10000 9.26 280 21:21 15.10.2021
5245 Clear 7 998 65 10000 8.75 290 20:45 15.10.2021
5246 Clear 6 999 78 10000 3.6 250 19:23 15.10.2021
5247 Clear 6 997 78 10000 2.06 250 18:38 15.10.2021
5248 Clouds 7 995 75 10000 9.26 310 16:28 15.10.2021
5249 Clouds 7 994 77 10000 8.75 290 15:22 15.10.2021
5250 Clouds 11 990 80 10000 6.69 250 12:31 15.10.2021
5251 Clouds 10 990 87 10000 5.66 240 11:20 15.10.2021
5252 Clouds 10 990 90 10000 5.14 230 10:42 15.10.2021
5253 Drizzle 10 990 93 6000 4.63 200 08:57 15.10.2021
5254 Clouds 10 992 85 10000 3.6 180 05:31 15.10.2021
5255 Clouds 10 997 89 10000 4.63 190 00:38 15.10.2021
5256 Clouds 9 998 92 10000 3.09 190 23:49 14.10.2021
5257 Clouds 9 999 91 10000 3.6 200 22:49 14.10.2021
5258 Clouds 9 1000 91 10000 4.12 190 21:43 14.10.2021
5259 Clouds 9 1000 91 10000 3.6 180 20:36 14.10.2021
5260 Clouds 9 1001 91 10000 3.6 170 20:18 14.10.2021
5261 Clouds 9 1002 89 10000 3.6 180 19:26 14.10.2021
5262 Clouds 10 1003 86 10000 4.63 180 17:26 14.10.2021
5263 Clouds 10 1003 85 10000 3.09 190 16:46 14.10.2021
5264 Clouds 10 1004 86 10000 4.63 210 15:33 14.10.2021
5265 Clouds 10 1005 88 10000 3.6 190 14:41 14.10.2021
5266 Clouds 10 1006 85 10000 4.63 210 13:35 14.10.2021
5267 Clouds 9 1007 81 10000 4.12 210 11:43 14.10.2021
5268 Clouds 8 1008 82 10000 3.6 190 09:55 14.10.2021
5269 Clouds 5 1009 88 10000 4.32 200 06:54 14.10.2021
5270 Clouds 2 1015 90 10000 2.49 223 00:57 14.10.2021
5271 Clouds 2 1015 90 10000 2.43 217 00:22 14.10.2021
5272 Clear 1 1015 91 10000 0 0 21:45 13.10.2021
5273 Clear 1 1015 91 10000 0 0 21:27 13.10.2021
5274 Clear 3 1015 87 10000 0 0 19:48 13.10.2021
5275 Clouds 4 1015 81 10000 1.54 240 18:49 13.10.2021
5276 Clouds 4 1015 81 10000 1.54 240 18:49 13.10.2021
5277 Clouds 6 1013 75 10000 3.6 280 17:49 13.10.2021
5278 Clouds 8 1013 70 10000 4.12 300 15:24 13.10.2021
5279 Clouds 8 1013 71 10000 5.14 290 14:44 13.10.2021
5280 Clear 7 1012 76 10000 4.12 300 12:58 13.10.2021
5281 Clear 6 1012 78 10000 3.09 320 11:59 13.10.2021
5282 Clear 5 1012 82 10000 3.6 310 10:39 13.10.2021
5283 Clear 2 1011 88 10000 3.09 310 08:29 13.10.2021
5284 Clear 2 1010 87 10000 3.09 300 06:41 13.10.2021
5285 Clouds 5 1009 82 10000 3.09 300 02:26 13.10.2021
5286 Rain 7 1009 81 10000 3.09 320 00:18 13.10.2021
5287 Rain 7 1009 82 10000 4.12 320 23:29 12.10.2021
5288 Clouds 7 1009 85 10000 3.6 330 22:44 12.10.2021
5289 Clouds 7 1009 86 10000 4.63 330 21:30 12.10.2021
5290 Clouds 7 1008 85 10000 4.63 320 20:34 12.10.2021
5291 Clouds 7 1008 84 10000 2.57 310 19:57 12.10.2021
5292 Clouds 8 1008 78 10000 2.06 320 18:27 12.10.2021
5293 Clouds 8 1008 78 10000 3.09 330 17:44 12.10.2021
5294 Clouds 9 1007 75 10000 5.14 350 16:38 12.10.2021
5295 Clouds 9 1007 76 10000 3.6 330 15:46 12.10.2021
5296 Clouds 9 1007 76 10000 4.12 320 14:38 12.10.2021
5297 Clouds 9 1006 78 10000 3.09 320 13:42 12.10.2021
5298 Clouds 8 1006 84 10000 3.09 330 11:37 12.10.2021
5299 Clouds 6 1006 90 10000 3.09 320 09:42 12.10.2021
5300 Clouds 5 1005 90 10000 3.09 310 08:42 12.10.2021
5301 Clouds 5 1005 90 10000 3.09 310 08:42 12.10.2021
5302 Clouds 4 1005 90 10000 2.57 300 06:56 12.10.2021
5303 Clouds 5 1005 92 10000 1.54 290 05:29 12.10.2021
5304 Clouds 5 1005 92 10000 2.06 300 04:31 12.10.2021
5305 Clouds 5 1003 97 10000 2.06 320 00:27 12.10.2021
5306 Clouds 5 1006 93 10000 1.54 300 23:40 11.10.2021
5307 Clouds 6 1004 92 10000 0 0 22:56 11.10.2021
5308 Clear 7 1004 91 10000 1.03 290 21:45 11.10.2021
5309 Clouds 8 1004 88 10000 2.06 300 20:35 11.10.2021
5310 Clouds 8 1005 88 10000 1.54 280 19:38 11.10.2021
5311 Clouds 9 1005 86 10000 1.54 240 18:25 11.10.2021
5312 Clear 11 1005 79 10000 2.57 230 16:51 11.10.2021
5313 Clouds 11 1005 80 10000 2.57 220 16:31 11.10.2021
5314 Clouds 11 1005 81 10000 2.06 240 15:46 11.10.2021
5315 Clouds 11 1005 82 10000 2.57 240 14:54 11.10.2021
5316 Clouds 11 1006 83 10000 2.57 220 14:22 11.10.2021
5317 Clouds 10 1006 82 10000 3.6 220 13:36 11.10.2021
5318 Clouds 10 1006 82 10000 3.6 220 13:36 11.10.2021
5319 Clouds 10 1007 88 10000 3.09 220 11:37 11.10.2021
5320 Clouds 9 1007 89 10000 3.09 220 10:30 11.10.2021
5321 Clouds 8 1008 91 9000 4.12 210 08:42 11.10.2021
5322 Clouds 9 1012 82 10000 4.12 200 03:49 11.10.2021
5323 Clouds 9 1014 80 10000 4.12 210 01:36 11.10.2021
5324 Clouds 10 1015 78 10000 4.12 200 00:44 11.10.2021
5325 Clouds 10 1015 75 10000 5.66 210 23:57 10.10.2021
5326 Clear 11 1017 74 10000 4.12 210 21:51 10.10.2021
5327 Rain 11 1017 74 10000 4.12 210 21:29 10.10.2021
5328 Clear 11 1017 78 10000 4.12 210 20:42 10.10.2021
5329 Clear 11 1017 78 10000 3.6 200 20:20 10.10.2021
5330 Clear 11 1017 81 10000 4.12 210 19:52 10.10.2021
5331 Clear 11 1018 81 10000 4.12 200 19:33 10.10.2021
5332 Clear 11 1018 82 10000 4.12 200 18:28 10.10.2021
5333 Clouds 12 1020 77 10000 4.12 210 15:57 10.10.2021
5334 Clouds 12 1020 77 10000 4.12 210 15:38 10.10.2021
5335 Clouds 11 1022 82 10000 4.63 220 13:42 10.10.2021
5336 Clouds 11 1022 84 10000 4.63 210 12:45 10.10.2021
5337 Rain 11 1023 84 10000 4.12 200 12:23 10.10.2021
5338 Rain 10 1023 85 10000 4.63 220 10:37 10.10.2021
5339 Rain 10 1023 86 10000 3.6 220 09:29 10.10.2021
5340 Clouds 10 1024 88 10000 3.6 210 08:52 10.10.2021
5341 Clouds 10 1024 87 10000 3.09 220 06:36 10.10.2021
5342 Clouds 11 1026 85 10000 4.63 240 02:28 10.10.2021
5343 Clouds 12 1027 86 10000 4.12 250 00:54 10.10.2021
5344 Clouds 12 1027 88 10000 3.09 250 23:52 09.10.2021
5345 Clouds 12 1027 88 10000 3.09 250 23:52 09.10.2021
5346 Clouds 12 1028 88 10000 2.57 240 22:26 09.10.2021
5347 Clouds 13 1028 88 10000 2.57 240 21:31 09.10.2021
5348 Clouds 13 1028 89 10000 2.57 240 20:59 09.10.2021
5349 Clouds 13 1028 89 10000 2.06 240 19:42 09.10.2021
5350 Clouds 13 1028 89 10000 1.54 0 18:57 09.10.2021
5351 Clouds 13 1029 87 10000 2.57 230 18:27 09.10.2021
5352 Clouds 14 1030 86 10000 2.57 240 16:28 09.10.2021
5353 Clouds 14 1030 86 10000 3.09 240 14:57 09.10.2021
5354 Clouds 13 1031 88 10000 4.12 260 13:41 09.10.2021
5355 Clouds 13 1031 88 10000 3.6 230 12:37 09.10.2021
5356 Clouds 13 1031 88 10000 3.09 240 11:33 09.10.2021
5357 Clouds 13 1031 90 10000 3.09 230 10:38 09.10.2021
5358 Clouds 12 1031 90 10000 2.57 230 09:30 09.10.2021
5359 Clouds 12 1031 90 10000 2.57 220 08:28 09.10.2021
5360 Clouds 11 1031 90 10000 2.06 230 06:54 09.10.2021
5361 Drizzle 12 1031 89 6000 2.57 220 05:27 09.10.2021
5362 Clouds 12 1032 87 10000 2.57 230 02:49 09.10.2021
5363 Clouds 12 1032 87 10000 2.57 230 00:58 09.10.2021
5364 Clouds 12 1032 89 10000 2.57 220 23:36 08.10.2021
5365 Clouds 12 1032 89 10000 2.06 210 22:53 08.10.2021
5366 Clear 12 1032 88 10000 2.57 220 21:48 08.10.2021
5367 Clear 12 1032 87 10000 2.57 210 20:31 08.10.2021
5368 Clear 13 1031 84 10000 2.57 200 18:50 08.10.2021
5369 Clear 14 1031 78 10000 3.6 210 17:27 08.10.2021
5370 Clouds 15 1030 79 10000 0.45 248 16:48 08.10.2021
5371 Clouds 15 1030 77 10000 0.45 225 16:22 08.10.2021
5372 Clouds 15 1032 72 10000 5.14 240 13:50 08.10.2021
5373 Clear 14 1032 78 10000 4.12 220 12:41 08.10.2021
5374 Clear 12 1032 89 10000 3.09 190 10:59 08.10.2021
5375 Clear 11 1032 92 10000 2.57 190 10:25 08.10.2021
5376 Clouds 8 1031 95 9000 1.54 190 06:53 08.10.2021
5377 Clouds 10 1030 91 10000 2.06 220 23:31 07.10.2021
5378 Clouds 11 1030 92 10000 2.06 220 22:57 07.10.2021
5379 Clouds 12 1029 91 10000 2.06 200 21:33 07.10.2021
5380 Clouds 11 1029 92 10000 1.54 180 20:49 07.10.2021
5381 Clouds 11 1029 91 10000 1.54 0 19:40 07.10.2021
5382 Clear 12 1028 88 10000 2.06 190 19:22 07.10.2021
5383 Clouds 14 1027 84 10000 2.57 210 17:38 07.10.2021
5384 Clouds 14 1027 83 10000 2.57 220 16:42 07.10.2021
5385 Clouds 13 1026 85 10000 2.57 240 14:58 07.10.2021
5386 Clouds 13 1026 86 10000 3.09 220 13:44 07.10.2021
5387 Clouds 13 1026 87 10000 2.57 210 13:20 07.10.2021
5388 Clouds 11 1025 90 10000 3.09 220 11:49 07.10.2021
5389 Clouds 12 1025 90 10000 3.09 230 10:48 07.10.2021
5390 Clouds 11 1025 92 10000 3.6 230 10:19 07.10.2021
5391 Clouds 11 1023 92 10000 2.06 210 08:56 07.10.2021
5392 Clear 10 1023 94 10000 2.57 200 08:25 07.10.2021
5393 Clear 9 1023 93 10000 3.09 220 07:40 07.10.2021
5394 Clear 10 1022 93 10000 2.57 200 06:48 07.10.2021
5395 Clouds 12 1020 91 10000 2.57 180 02:21 07.10.2021
5396 Clouds 13 1019 91 10000 1.54 160 23:36 06.10.2021
5397 Clouds 13 1019 91 10000 2.06 160 22:41 06.10.2021
5398 Clouds 13 1018 91 10000 1.54 180 21:45 06.10.2021
5399 Clouds 13 1018 90 10000 2.57 160 20:34 06.10.2021
5400 Clouds 13 1017 90 10000 3.6 170 19:28 06.10.2021
5401 Clouds 14 1016 88 10000 3.6 180 18:33 06.10.2021
5402 Clouds 14 1015 87 10000 3.6 180 16:52 06.10.2021
5403 Clouds 15 1013 85 10000 5.66 180 15:25 06.10.2021
5404 Clouds 14 1012 91 10000 5.14 190 13:32 06.10.2021
5405 Clouds 14 1011 92 10000 4.63 180 12:54 06.10.2021
5406 Clouds 14 1011 92 10000 5.14 170 12:30 06.10.2021
5407 Clouds 13 1010 92 9000 5.14 160 11:46 06.10.2021
5408 Clouds 12 1009 95 6000 5.14 140 09:57 06.10.2021
5409 Rain 12 1009 95 6000 5.14 140 09:38 06.10.2021
5410 Rain 12 1009 93 10000 5.14 140 08:40 06.10.2021
5411 Rain 13 1008 88 10000 6.17 140 06:47 06.10.2021
5412 Clouds 13 1008 86 10000 7.2 130 05:19 06.10.2021
5413 Clouds 12 1011 91 10000 4.12 90 00:25 06.10.2021
5414 Clouds 11 1012 95 10000 3.09 90 23:52 05.10.2021
5415 Clouds 11 1012 95 10000 3.09 90 23:52 05.10.2021
5416 Clouds 11 1012 95 9000 3.6 70 23:32 05.10.2021
5417 Rain 11 1013 95 10000 3.6 90 22:44 05.10.2021
5418 Rain 11 1013 93 10000 4.63 110 21:58 05.10.2021
5419 Rain 11 1014 93 10000 4.63 110 21:35 05.10.2021
5420 Rain 11 1014 94 10000 2.57 80 20:38 05.10.2021
5421 Rain 11 1014 93 9000 2.57 70 20:19 05.10.2021
5422 Rain 11 1015 93 10000 3.6 110 19:26 05.10.2021
5423 Drizzle 12 1015 91 10000 4.12 110 18:45 05.10.2021
5424 Rain 13 1016 86 10000 3.09 140 16:18 05.10.2021
5425 Clouds 14 1016 84 10000 4.12 150 14:29 05.10.2021
5426 Clouds 13 1016 88 10000 3.6 150 13:29 05.10.2021
5427 Clouds 13 1017 90 10000 3.6 150 12:36 05.10.2021
5428 Clouds 12 1017 93 10000 2.57 150 11:58 05.10.2021
5429 Clouds 12 1017 95 10000 1.54 160 10:39 05.10.2021
5430 Fog 10 1016 96 3500 1.03 0 08:39 05.10.2021
5431 Clouds 9 1015 95 9000 1.03 0 03:38 05.10.2021
5432 Clouds 12 1015 93 8000 2.57 130 23:52 04.10.2021
5433 Rain 13 1015 93 8000 1.54 0 21:54 04.10.2021
5434 Clouds 14 1014 92 9000 2.06 130 18:54 04.10.2021
5435 Rain 14 1013 91 10000 1.03 160 17:58 04.10.2021
5436 Clouds 15 1013 89 10000 1.54 0 16:20 04.10.2021
5437 Clouds 15 1013 90 10000 1.03 0 15:30 04.10.2021
5438 Rain 15 1013 91 10000 1.54 220 14:39 04.10.2021
5439 Clouds 14 1013 92 6000 1.03 0 13:48 04.10.2021
5440 Mist 14 1013 93 5000 1.54 230 13:23 04.10.2021
5441 Clouds 14 1012 93 6000 1.54 200 11:35 04.10.2021
5442 Drizzle 14 1012 93 4300 2.57 180 10:48 04.10.2021
5443 Clouds 13 1010 92 10000 0.45 270 09:48 04.10.2021
5444 Clouds 13 1010 92 4700 5.14 160 08:32 04.10.2021
5445 Rain 14 1009 87 10000 4.63 160 06:51 04.10.2021
5446 Rain 14 1009 85 10000 8.23 150 23:43 03.10.2021
5447 Clouds 14 1009 85 10000 7.72 150 22:33 03.10.2021
5448 Clouds 14 1009 87 10000 8.23 140 21:37 03.10.2021
5449 Drizzle 13 1009 87 10000 6.69 150 20:54 03.10.2021
5450 Drizzle 14 1009 85 10000 8.23 150 19:56 03.10.2021
5451 Clear 14 1008 84 10000 6.69 140 18:33 03.10.2021
5452 Rain 14 1008 84 10000 7.2 130 17:41 03.10.2021
5453 Rain 14 1008 85 10000 8.23 130 15:51 03.10.2021
5454 Clouds 15 1010 81 10000 7.72 140 14:42 03.10.2021
5455 Clouds 15 1010 82 10000 8.75 140 13:57 03.10.2021
5456 Clouds 14 1010 83 10000 8.75 140 13:20 03.10.2021
5457 Clouds 13 1011 87 10000 7.72 130 12:24 03.10.2021
5458 Clouds 12 1011 88 9000 7.2 120 10:35 03.10.2021
5459 Clouds 12 1012 86 10000 8.75 130 08:33 03.10.2021
5460 Clouds 13 1013 83 10000 5.14 140 00:41 03.10.2021
5461 Clouds 12 1014 83 10000 5.66 150 22:33 02.10.2021
5462 Clouds 12 1014 81 10000 6.69 140 20:55 02.10.2021
5463 Clouds 12 1015 82 10000 5.66 140 19:32 02.10.2021
5464 Clouds 12 1015 82 10000 6.17 140 18:50 02.10.2021
5465 Clouds 12 1015 81 10000 6.69 140 17:39 02.10.2021
5466 Clouds 13 1015 77 10000 7.72 140 16:54 02.10.2021
5467 Clouds 13 1015 75 10000 6.69 140 14:42 02.10.2021
5468 Clouds 11 1019 88 9000 6.69 120 15:41 30.09.2021
5469 Clouds 11 1019 88 9000 6.69 120 15:41 30.09.2021
5470 Clouds 12 1019 83 10000 6.69 110 14:46 30.09.2021
5471 Clouds 12 1020 81 10000 8.23 120 12:27 30.09.2021
5472 Clouds 12 1020 82 10000 6.69 110 11:31 30.09.2021
5473 Clouds 12 1020 83 10000 6.69 110 10:36 30.09.2021
5474 Clouds 12 1020 85 10000 6.17 110 08:55 30.09.2021
5475 Clouds 12 1020 84 10000 5.14 100 08:27 30.09.2021
5476 Clouds 11 1021 85 10000 5.14 110 05:53 30.09.2021
5477 Clouds 10 1022 85 10000 3.6 100 02:59 30.09.2021
5478 Clouds 10 1023 87 10000 3.09 100 00:40 30.09.2021
5479 Clouds 10 1023 84 10000 4.63 110 23:21 29.09.2021
5480 Clear 11 1023 82 10000 5.14 110 21:54 29.09.2021
5481 Clouds 11 1024 81 10000 5.66 120 20:42 29.09.2021
5482 Clouds 11 1024 81 10000 5.14 120 20:20 29.09.2021
5483 Clouds 12 1024 81 10000 5.66 130 19:28 29.09.2021
5484 Clouds 12 1024 80 10000 8.23 140 18:19 29.09.2021
5485 Clouds 13 1024 79 10000 5.14 140 16:56 29.09.2021
5486 Clouds 13 1024 79 10000 5.14 140 16:56 29.09.2021
5487 Clouds 13 1024 79 10000 6.69 130 16:29 29.09.2021
5488 Clouds 13 1024 78 10000 6.69 150 15:43 29.09.2021
5489 Clouds 14 1024 76 10000 7.72 130 14:38 29.09.2021
5490 Clouds 14 1024 76 10000 8.75 140 13:34 29.09.2021
5491 Clouds 14 1025 78 10000 8.23 120 12:40 29.09.2021
5492 Clouds 14 1025 80 10000 7.72 120 11:23 29.09.2021
5493 Clouds 13 1025 81 10000 6.17 130 10:32 29.09.2021
5494 Clouds 13 1025 81 10000 6.17 120 09:43 29.09.2021
5495 Clouds 12 1025 84 10000 5.14 120 08:24 29.09.2021
5496 Clear 12 1025 83 10000 5.14 120 06:53 29.09.2021
5497 Clouds 12 1026 77 10000 3.6 120 00:43 29.09.2021
5498 Clouds 12 1026 77 10000 5.14 120 23:20 28.09.2021
5499 Clouds 12 1026 77 10000 4.63 120 22:22 28.09.2021
5500 Clouds 12 1026 78 10000 4.63 120 21:24 28.09.2021
5501 Clouds 12 1025 78 10000 5.14 120 20:24 28.09.2021
5502 Clouds 12 1025 80 10000 5.66 120 19:40 28.09.2021
5503 Clouds 12 1025 79 10000 6.17 130 18:44 28.09.2021
5504 Clouds 13 1025 80 10000 5.66 140 17:30 28.09.2021
5505 Clouds 13 1024 76 10000 6.17 140 15:21 28.09.2021
5506 Clouds 13 1024 75 10000 6.69 140 13:28 28.09.2021
5507 Clouds 13 1024 75 10000 7.72 130 12:27 28.09.2021
5508 Clouds 13 1024 76 10000 7.72 140 11:55 28.09.2021
5509 Clouds 13 1024 76 10000 7.72 140 11:35 28.09.2021
5510 Clouds 13 1024 77 10000 7.2 140 10:33 28.09.2021
5511 Clouds 12 1023 78 10000 6.69 130 09:33 28.09.2021
5512 Clouds 12 1023 79 10000 6.17 130 08:44 28.09.2021
5513 Clouds 12 1023 80 10000 5.14 130 08:25 28.09.2021
5514 Clouds 12 1022 81 10000 5.66 120 06:47 28.09.2021
5515 Clouds 11 1023 84 10000 4.63 120 04:48 28.09.2021
5516 Clouds 11 1023 89 10000 4.63 120 01:22 28.09.2021
5517 Clouds 11 1024 89 10000 4.63 120 23:54 27.09.2021
5518 Clouds 11 1024 89 10000 5.14 110 23:30 27.09.2021
5519 Clouds 11 1024 89 10000 4.63 110 22:45 27.09.2021
5520 Clear 11 1024 88 10000 5.14 120 21:41 27.09.2021
5521 Clouds 11 1024 87 10000 5.66 120 20:38 27.09.2021
5522 Clouds 11 1024 87 10000 5.14 110 19:43 27.09.2021
5523 Clear 12 1024 85 10000 6.17 110 19:23 27.09.2021
5524 Clear 12 1024 79 10000 6.69 120 18:28 27.09.2021
5525 Clear 14 1024 73 10000 6.69 110 17:22 27.09.2021
5526 Clear 14 1024 69 10000 6.17 120 16:41 27.09.2021
5527 Clear 15 1024 65 10000 7.72 120 15:42 27.09.2021
5528 Clear 16 1024 64 10000 6.69 150 14:43 27.09.2021
5529 Clouds 16 1025 69 10000 6.69 140 13:30 27.09.2021
5530 Clear 15 1025 75 10000 6.17 130 11:20 27.09.2021
5531 Clear 13 1025 86 10000 5.14 120 09:53 27.09.2021
5532 Clear 11 1024 90 10000 3.6 120 08:40 27.09.2021
5533 Clouds 9 1024 92 10000 2.57 120 05:21 27.09.2021
5534 Clouds 9 1024 91 10000 1.03 130 02:59 27.09.2021
5535 Clear 10 1023 86 10000 2.06 130 22:32 26.09.2021
5536 Clear 11 1023 85 10000 2.06 130 21:49 26.09.2021
5537 Clear 11 1022 83 10000 2.06 140 20:52 26.09.2021
5538 Clear 11 1022 81 10000 2.57 140 20:20 26.09.2021
5539 Clear 12 1022 77 10000 2.06 140 19:42 26.09.2021
5540 Clouds 13 1021 76 10000 2.74 158 18:45 26.09.2021
5541 Clear 15 1023 64 10000 3.6 200 17:54 26.09.2021
5542 Clear 16 1022 61 10000 3.09 200 17:22 26.09.2021
5543 Clear 16 1022 60 10000 3.6 210 16:37 26.09.2021
5544 Clear 17 1021 58 10000 3.6 230 15:58 26.09.2021
5545 Clear 17 1021 59 10000 2.57 210 14:46 26.09.2021
5546 Clear 18 1020 55 10000 3.09 170 13:54 26.09.2021
5547 Clear 16 1020 61 10000 2.06 190 12:56 26.09.2021
5548 Clear 16 1020 63 10000 2.06 200 12:20 26.09.2021
5549 Clear 15 1020 68 10000 1.54 0 11:37 26.09.2021
5550 Clouds 13 1019 75 10000 0 0 10:23 26.09.2021
5551 Clouds 9 1018 95 10000 0 0 08:56 26.09.2021
5552 Fog 4 1019 93 10000 0 0 06:32 26.09.2021
5553 Clear 7 1014 90 10000 0 0 00:21 26.09.2021
5554 Clear 7 1013 86 10000 1.03 270 23:24 25.09.2021
5555 Clear 8 1013 81 10000 0.51 260 22:38 25.09.2021
5556 Clear 9 1012 79 10000 1.54 300 21:55 25.09.2021
5557 Clear 9 1012 76 10000 1.54 290 21:31 25.09.2021
5558 Clear 10 1010 76 10000 1.54 290 20:45 25.09.2021
5559 Clear 14 1008 62 10000 3.6 300 18:55 25.09.2021
5560 Clear 15 1007 57 10000 4.63 320 17:55 25.09.2021
5561 Clear 16 1004 57 10000 6.69 290 15:48 25.09.2021
5562 Clear 15 1003 67 10000 6.69 290 13:57 25.09.2021
5563 Clear 15 1003 68 10000 6.69 280 13:31 25.09.2021
5564 Clear 14 1002 72 10000 6.69 300 12:25 25.09.2021
5565 Clear 12 1001 80 10000 5.66 280 10:34 25.09.2021
5566 Clear 11 999 87 10000 4.63 280 09:32 25.09.2021
5567 Clouds 10 997 94 10000 2.57 260 07:56 25.09.2021
5568 Clouds 11 994 95 10000 3.09 260 05:51 25.09.2021
5569 Clouds 9 994 93 10000 3.09 210 23:51 24.09.2021
5570 Clouds 8 995 92 4500 2.57 170 21:42 24.09.2021
5571 Clouds 9 996 89 10000 3.6 220 20:34 24.09.2021
5572 Rain 9 996 89 10000 1.54 0 19:47 24.09.2021
5573 Rain 9 997 85 10000 2.57 260 18:33 24.09.2021
5574 Rain 11 997 78 10000 2.57 250 17:54 24.09.2021
5575 Rain 11 997 76 10000 3.09 250 17:36 24.09.2021
5576 Rain 11 997 76 10000 3.09 250 17:18 24.09.2021
5577 Clouds 11 998 82 10000 5.66 310 13:57 24.09.2021
5578 Clouds 10 997 85 10000 5.66 300 12:58 24.09.2021
5579 Clouds 10 997 86 10000 5.66 300 12:39 24.09.2021
5580 Clouds 10 997 87 10000 5.14 310 12:20 24.09.2021
5581 Clouds 9 995 90 10000 6.17 310 10:25 24.09.2021
5582 Clouds 9 994 90 10000 6.69 310 08:54 24.09.2021
5583 Drizzle 8 993 93 6000 7.72 310 07:34 24.09.2021
5584 Drizzle 8 991 93 6000 6.69 310 06:45 24.09.2021
5585 Mist 8 988 93 4300 7.72 310 04:54 24.09.2021
5586 Drizzle 8 985 83 10000 9.26 300 23:57 23.09.2021
5587 Clouds 10 984 77 10000 8.23 290 22:22 23.09.2021
5588 Clouds 10 984 81 10000 1.79 293 21:52 23.09.2021
5589 Clouds 10 985 90 10000 3.09 260 20:34 23.09.2021
5590 Clouds 10 985 88 10000 2.06 260 19:31 23.09.2021
5591 Clouds 12 985 84 10000 4.12 260 17:46 23.09.2021
5592 Clouds 12 987 91 10000 4.63 230 15:30 23.09.2021
5593 Rain 12 988 93 8000 5.14 240 14:59 23.09.2021
5594 Rain 13 989 96 10000 4.63 180 13:45 23.09.2021
5595 Rain 13 990 94 10000 5.66 170 13:19 23.09.2021
5596 Rain 13 991 94 10000 4.63 170 12:49 23.09.2021
5597 Clouds 13 992 94 9000 4.63 170 12:22 23.09.2021
5598 Rain 13 994 94 10000 4.63 170 11:32 23.09.2021
5599 Rain 12 996 94 8000 3.6 160 10:20 23.09.2021
5600 Drizzle 13 997 94 7000 3.6 160 09:51 23.09.2021
5601 Clouds 13 1000 90 10000 3.6 180 07:54 23.09.2021
5602 Clouds 13 1006 88 10000 2.57 170 03:31 23.09.2021
5603 Clouds 11 1011 90 10000 3.6 150 22:58 22.09.2021
5604 Clouds 11 1012 90 10000 3.6 160 22:28 22.09.2021
5605 Clouds 11 1012 89 10000 3.09 160 21:53 22.09.2021
5606 Clouds 11 1013 90 10000 3.09 160 21:33 22.09.2021
5607 Clear 11 1013 89 10000 3.09 160 20:39 22.09.2021
5608 Clear 11 1014 84 10000 3.09 190 19:29 22.09.2021
5609 Clear 12 1015 81 10000 4.12 190 18:37 22.09.2021
5610 Clouds 13 1015 80 10000 0.89 203 17:43 22.09.2021
5611 Clouds 13 1016 79 10000 0.45 135 16:37 22.09.2021
5612 Clear 13 1018 73 10000 4.12 180 15:18 22.09.2021
5613 Rain 13 1019 68 10000 4.12 200 13:48 22.09.2021
5614 Clouds 14 1020 68 10000 4.12 160 11:46 22.09.2021
5615 Clear 13 1021 73 10000 2.57 170 10:44 22.09.2021
5616 Clear 10 1021 88 10000 0.51 0 09:21 22.09.2021
5617 Clear 8 1022 91 10000 1.03 150 08:22 22.09.2021
5618 Clouds 7 1023 94 10000 1.54 160 06:57 22.09.2021
5619 Clouds 8 1021 92 10000 0 0 05:51 22.09.2021
5620 Clouds 8 1021 92 10000 0 0 05:31 22.09.2021
5621 Clouds 8 1022 89 10000 1.03 110 03:44 22.09.2021
5622 Clouds 8 1021 89 10000 1.03 290 00:21 22.09.2021
5623 Clouds 8 1021 90 10000 1.03 280 22:49 21.09.2021
5624 Clouds 8 1021 89 10000 0 0 21:31 21.09.2021
5625 Clouds 9 1020 86 10000 1.03 284 20:24 21.09.2021
5626 Clouds 10 1020 81 10000 1.54 310 19:20 21.09.2021
5627 Clouds 11 1019 74 10000 1.26 258 17:20 21.09.2021
5628 Clouds 11 1020 69 10000 1.54 240 16:34 21.09.2021
5629 Clouds 12 1020 67 10000 2.06 210 15:35 21.09.2021
5630 Clouds 12 1020 69 10000 2.57 180 14:56 21.09.2021
5631 Clouds 11 1020 75 10000 2.06 250 13:56 21.09.2021
5632 Rain 11 1021 75 10000 2.06 250 13:36 21.09.2021
5633 Clouds 10 1021 71 10000 2.06 180 11:44 21.09.2021
5634 Clouds 7 1023 87 10000 1.54 140 09:55 21.09.2021
5635 Clouds 3 1023 93 10000 0 0 07:59 21.09.2021
5636 Clouds 0 1024 100 10000 0 0 06:38 21.09.2021
5637 Clouds 1 1026 68 10000 1.35 7 23:58 20.09.2021
5638 Clear 3 1026 93 10000 0 0 22:24 20.09.2021
5639 Clear 3 1026 93 10000 0 0 21:37 20.09.2021
5640 Clear 5 1026 87 10000 0 0 20:30 20.09.2021
5641 Clear 8 1026 77 10000 1.54 30 19:29 20.09.2021
5642 Clear 10 1024 74 10000 3.09 60 17:40 20.09.2021
5643 Clouds 10 1024 71 10000 3.6 60 16:43 20.09.2021
5644 Clear 11 1024 69 10000 3.6 70 15:49 20.09.2021
5645 Clear 11 1024 67 10000 3.6 50 15:23 20.09.2021
5646 Clouds 10 1025 71 10000 3.6 20 13:45 20.09.2021
5647 Clouds 10 1025 75 10000 2.57 10 12:35 20.09.2021
5648 Clouds 10 1025 75 10000 2.57 10 12:35 20.09.2021
5649 Clouds 9 1025 77 10000 3.6 40 11:25 20.09.2021
5650 Clouds 9 1025 75 10000 3.6 20 09:59 20.09.2021
5651 Clouds 9 1025 75 10000 3.6 20 09:36 20.09.2021
5652 Clouds 9 1025 75 10000 3.09 20 09:18 20.09.2021
5653 Clouds 8 1025 77 10000 2.06 20 06:55 20.09.2021
5654 Clouds 9 1025 69 10000 2.57 40 23:49 19.09.2021
5655 Clouds 9 1024 71 10000 2.06 10 22:26 19.09.2021
5656 Clouds 9 1024 71 10000 2.06 10 22:26 19.09.2021
5657 Clouds 9 1024 70 10000 2.06 50 21:40 19.09.2021
5658 Clouds 10 1024 71 10000 3.09 40 20:43 19.09.2021
5659 Clouds 10 1024 72 10000 2.06 30 19:31 19.09.2021
5660 Clouds 10 1024 71 10000 3.09 40 18:29 19.09.2021
5661 Clouds 10 1024 67 10000 3.09 30 17:23 19.09.2021
5662 Clouds 11 1024 72 10000 2.57 40 15:55 19.09.2021
5663 Clouds 11 1024 73 10000 3.09 30 15:30 19.09.2021
5664 Clouds 10 1024 76 10000 3.09 30 14:48 19.09.2021
5665 Clouds 10 1024 76 10000 4.12 40 13:29 19.09.2021
5666 Clouds 11 1024 77 10000 3.09 40 12:51 19.09.2021
5667 Clouds 10 1024 83 10000 3.09 40 11:28 19.09.2021
5668 Clouds 10 1024 84 10000 2.57 30 10:53 19.09.2021
5669 Drizzle 9 1024 83 10000 3.6 360 09:49 19.09.2021
5670 Drizzle 9 1024 79 10000 2.57 40 08:35 19.09.2021
5671 Clouds 8 1024 80 10000 2.06 10 06:42 19.09.2021
5672 Clouds 9 1024 79 10000 1.54 20 23:53 18.09.2021
5673 Clouds 9 1024 77 10000 2.57 20 22:31 18.09.2021
5674 Clouds 10 1024 73 10000 2.06 20 20:56 18.09.2021
5675 Clouds 10 1024 72 10000 2.57 20 20:36 18.09.2021
5676 Clouds 10 1024 71 10000 2.57 30 19:40 18.09.2021
5677 Clouds 10 1023 71 10000 2.57 30 19:21 18.09.2021
5678 Clouds 11 1023 71 10000 3.09 50 18:32 18.09.2021
5679 Clouds 11 1023 71 10000 2.57 40 17:45 18.09.2021
5680 Clouds 11 1023 61 10000 4.12 50 16:24 18.09.2021
5681 Clouds 11 1022 56 10000 5.14 100 13:49 18.09.2021
5682 Clouds 11 1023 57 10000 5.14 70 13:29 18.09.2021
5683 Clouds 12 1023 60 10000 4.63 70 12:49 18.09.2021
5684 Clouds 11 1023 59 10000 5.66 90 11:41 18.09.2021
5685 Clouds 10 1023 70 10000 2.57 60 10:32 18.09.2021
5686 Clouds 10 1023 71 10000 2.57 30 09:35 18.09.2021
5687 Clouds 10 1023 71 10000 2.57 30 09:35 18.09.2021
5688 Clouds 10 1022 69 10000 2.06 80 08:59 18.09.2021
5689 Clouds 10 1021 70 10000 3.09 70 05:51 18.09.2021
5690 Clouds 10 1020 75 10000 0.45 68 00:42 18.09.2021
5691 Clouds 10 1020 76 10000 0.89 45 23:50 17.09.2021
5692 Clouds 10 1020 77 10000 1.34 45 22:38 17.09.2021
5693 Clouds 10 1021 74 10000 5.66 70 22:19 17.09.2021
5694 Clouds 11 1020 74 10000 5.14 70 20:51 17.09.2021
5695 Clouds 11 1019 73 10000 5.14 70 19:23 17.09.2021
5696 Clouds 11 1019 70 10000 5.14 70 17:25 17.09.2021
5697 Clouds 11 1019 74 10000 4.12 70 16:27 17.09.2021
5698 Clouds 11 1018 65 10000 5.14 80 13:29 17.09.2021
5699 Clouds 11 1017 74 10000 3.09 30 10:53 17.09.2021
5700 Clouds 9 1016 79 10000 3.6 30 08:46 17.09.2021
5701 Clouds 10 1016 80 10000 5.66 30 07:19 17.09.2021
5702 Rain 11 1017 75 10000 6.17 70 03:54 17.09.2021
5703 Clouds 11 1017 76 10000 4.63 80 23:25 16.09.2021
5704 Rain 11 1017 73 10000 4.63 70 22:25 16.09.2021
5705 Clouds 11 1017 71 10000 4.12 70 21:51 16.09.2021
5706 Clouds 11 1017 71 10000 4.63 70 21:24 16.09.2021
5707 Clouds 11 1017 71 10000 4.63 80 20:18 16.09.2021
5708 Clouds 11 1017 69 10000 5.14 70 18:20 16.09.2021
5709 Clouds 11 1016 68 10000 5.14 80 17:33 16.09.2021
5710 Clouds 12 1016 71 10000 6.17 90 14:58 16.09.2021
5711 Clouds 12 1016 70 10000 6.17 80 14:24 16.09.2021
5712 Clouds 12 1017 67 10000 6.17 90 12:51 16.09.2021
5713 Rain 12 1017 66 10000 6.17 110 12:28 16.09.2021
5714 Rain 12 1017 69 10000 5.66 100 11:26 16.09.2021
5715 Clouds 11 1017 72 10000 5.14 110 10:33 16.09.2021
5716 Clouds 11 1017 79 10000 2.06 30 09:57 16.09.2021
5717 Clouds 9 1017 81 10000 2.06 20 08:42 16.09.2021
5718 Clouds 9 1017 81 10000 2.06 20 08:42 16.09.2021
5719 Clouds 8 1018 86 10000 2.06 20 07:22 16.09.2021
5720 Clouds 8 1018 86 10000 1.03 0 06:46 16.09.2021
5721 Clouds 7 1018 91 10000 1.03 0 05:26 16.09.2021
5722 Clouds 6 1021 89 10000 0 0 01:40 16.09.2021
5723 Clouds 6 1019 88 10000 1.03 70 23:45 15.09.2021
5724 Clouds 8 1019 82 10000 2.57 60 22:47 15.09.2021
5725 Clear 9 1019 77 10000 2.06 60 21:44 15.09.2021
5726 Clear 9 1019 75 10000 2.57 70 21:25 15.09.2021
5727 Clouds 10 1019 72 10000 2.74 85 19:58 15.09.2021
5728 Clouds 12 1019 61 10000 4.12 90 19:21 15.09.2021
5729 Clouds 13 1019 64 10000 3.6 90 18:19 15.09.2021
5730 Clouds 14 1019 64 10000 4.63 100 16:55 15.09.2021
5731 Clear 15 1019 60 10000 3.6 90 15:46 15.09.2021
5732 Clear 15 1019 58 10000 2.57 70 14:45 15.09.2021
5733 Clear 15 1019 57 10000 2.57 100 13:52 15.09.2021
5734 Clear 15 1019 57 10000 3.09 70 13:30 15.09.2021
5735 Clear 15 1019 63 10000 3.6 60 12:48 15.09.2021
5736 Clear 14 1019 68 10000 3.09 60 11:52 15.09.2021
5737 Clear 14 1019 68 10000 3.6 60 11:31 15.09.2021
5738 Clear 14 1019 72 10000 3.6 60 10:55 15.09.2021
5739 Clear 12 1018 77 10000 3.6 60 09:29 15.09.2021
5740 Clear 10 1018 90 10000 1.54 20 07:48 15.09.2021
5741 Clouds 10 1017 92 10000 0 0 04:55 15.09.2021
5742 Clouds 11 1017 85 10000 1.54 200 23:45 14.09.2021
5743 Clear 10 1017 82 10000 1.54 180 21:41 14.09.2021
5744 Clear 11 1017 82 10000 0 0 20:39 14.09.2021
5745 Clear 11 1017 76 10000 0 0 19:42 14.09.2021
5746 Clear 15 1017 54 10000 2.57 250 17:40 14.09.2021
5747 Clear 15 1017 54 10000 2.57 250 17:40 14.09.2021
5748 Clear 15 1017 53 10000 2.57 300 16:58 14.09.2021
5749 Clear 15 1017 53 10000 4.12 280 15:33 14.09.2021
5750 Clear 15 1017 53 10000 4.63 290 14:31 14.09.2021
5751 Clear 13 1017 56 10000 3.09 310 12:39 14.09.2021
5752 Clear 12 1016 57 10000 2.57 320 10:54 14.09.2021
5753 Clear 10 1017 69 10000 2.57 300 09:50 14.09.2021
5754 Clear 8 1018 44 10000 1.03 0 08:39 14.09.2021
5755 Clouds 6 1016 72 10000 1.03 280 06:24 14.09.2021
5756 Clouds 7 1016 95 10000 0 0 23:57 13.09.2021
5757 Clouds 7 1016 63 10000 1.03 290 22:48 13.09.2021
5758 Clear 8 1016 90 10000 0.51 0 22:23 13.09.2021
5759 Clear 8 1015 58 10000 1.03 220 21:45 13.09.2021
5760 Clear 9 1014 69 10000 1.54 330 20:50 13.09.2021
5761 Clear 14 1013 63 10000 3.09 280 18:46 13.09.2021
5762 Clear 15 1014 59 10000 5.14 290 17:49 13.09.2021
5763 Rain 15 1013 59 10000 5.66 270 16:50 13.09.2021
5764 Clouds 15 1013 62 10000 4.63 310 15:30 13.09.2021
5765 Clouds 14 1012 59 10000 4.12 330 11:55 13.09.2021
5766 Clouds 12 1011 60 10000 4.12 340 10:58 13.09.2021
5767 Clear 11 1010 64 10000 4.63 320 09:36 13.09.2021
5768 Clouds 11 1008 61 10000 5.66 330 04:57 13.09.2021
5769 Clouds 16 1004 67 10000 3.09 280 23:32 12.09.2021
5770 Clouds 16 1004 67 10000 3.09 250 22:25 12.09.2021
5771 Rain 16 1004 67 8000 3.6 250 21:37 12.09.2021
5772 Drizzle 17 1003 64 10000 2.57 220 20:29 12.09.2021
5773 Clouds 17 1003 64 10000 2.57 220 19:50 12.09.2021
5774 Clouds 17 1004 64 10000 2.06 230 19:19 12.09.2021
5775 Clouds 18 1004 61 10000 2.06 230 18:20 12.09.2021
5776 Clouds 19 1004 52 10000 5.14 240 16:31 12.09.2021
5777 Clouds 18 1002 57 10000 3.6 220 14:52 12.09.2021
5778 Rain 19 1004 64 10000 4.12 200 13:19 12.09.2021
5779 Clouds 17 1004 72 10000 2.57 180 11:31 12.09.2021
5780 Mist 15 1005 74 9000 2.06 220 09:00 12.09.2021
5781 Mist 15 1005 74 9000 2.06 220 08:37 12.09.2021
5782 Mist 15 1008 65 2500 0 0 01:49 12.09.2021
5783 Rain 15 1009 64 10000 2.06 90 23:20 11.09.2021
5784 Drizzle 15 1010 51 10000 1.03 150 21:41 11.09.2021
5785 Drizzle 16 1010 59 10000 2.57 140 20:21 11.09.2021
5786 Clouds 17 1010 55 10000 2.06 120 18:35 11.09.2021
5787 Clear 18 1010 55 10000 2.06 160 17:29 11.09.2021
5788 Clear 19 1010 60 10000 1.54 0 15:43 11.09.2021
5789 Clouds 18 1010 63 10000 2.06 100 13:30 11.09.2021
5790 Clouds 17 1009 60 10000 1.03 0 12:30 11.09.2021
5791 Clouds 14 1012 54 9000 1.03 0 11:18 11.09.2021
5792 Mist 14 1012 67 2800 1.54 160 09:35 11.09.2021
5793 Clouds 13 1009 68 1700 1.03 150 07:44 11.09.2021
5794 Fog 13 1010 74 700 1.03 140 06:47 11.09.2021
5795 Mist 14 1012 74 4000 1.03 0 22:48 10.09.2021
5796 Mist 14 1012 74 4000 1.03 0 22:48 10.09.2021
5797 Mist 14 1012 73 4500 1.54 130 22:22 10.09.2021
5798 Clouds 14 1012 71 7000 1.54 150 21:46 10.09.2021
5799 Clouds 15 1012 71 10000 2.57 120 19:41 10.09.2021
5800 Clouds 16 1012 68 10000 2.57 70 18:20 10.09.2021
5801 Clouds 16 1013 66 10000 1.54 140 16:40 10.09.2021
5802 Clouds 15 1013 68 10000 2.57 110 13:54 10.09.2021
5803 Clouds 15 1013 69 10000 3.09 80 11:46 10.09.2021
5804 Clouds 14 1013 71 10000 3.09 80 08:29 10.09.2021
5805 Clouds 14 1013 72 10000 3.09 80 07:45 10.09.2021
5806 Mist 13 1011 71 7000 0 0 00:42 10.09.2021
5807 Clear 14 1011 70 10000 0 0 22:18 09.09.2021
5808 Clear 15 1011 68 10000 1.03 0 21:28 09.09.2021
5809 Clear 16 1010 65 10000 1.54 290 20:41 09.09.2021
5810 Clear 20 1009 61 10000 3.6 270 18:55 09.09.2021
5811 Clear 21 1009 61 10000 3.6 250 17:54 09.09.2021
5812 Clear 21 1009 63 10000 5.14 260 16:40 09.09.2021
5813 Clear 22 1009 70 10000 4.12 260 15:26 09.09.2021
5814 Clear 21 1009 64 10000 3.6 230 12:34 09.09.2021
5815 Clear 20 1008 53 10000 3.09 190 11:33 09.09.2021
5816 Clouds 16 1009 60 10000 4.63 240 09:39 09.09.2021
5817 Clouds 15 1010 70 10000 3.09 240 08:32 09.09.2021
5818 Clear 13 1010 74 10000 2.57 210 06:24 09.09.2021
5819 Clear 14 1011 70 10000 1.54 220 01:31 09.09.2021
5820 Clear 14 1011 70 10000 1.54 220 01:31 09.09.2021
5821 Clear 14 1011 70 10000 1.54 220 01:31 09.09.2021
5822 Clear 14 1011 70 10000 1.54 220 01:31 09.09.2021
5823 Clear 17 1011 64 10000 2.57 250 22:34 08.09.2021
5824 Clear 18 1011 61 10000 2.57 230 20:57 08.09.2021
5825 Clear 19 1011 75 10000 2.57 250 19:48 08.09.2021
5826 Clear 21 1010 70 10000 3.6 260 18:49 08.09.2021
5827 Clouds 21 1011 63 10000 5.14 260 18:27 08.09.2021
5828 Clouds 22 1010 66 10000 5.14 260 17:52 08.09.2021
5829 Clear 22 1010 58 10000 6.17 270 16:24 08.09.2021
5830 Clouds 20 1011 61 10000 5.14 270 13:53 08.09.2021
5831 Clouds 20 1011 59 10000 7.2 260 12:42 08.09.2021
5832 Clouds 19 1011 59 10000 6.69 260 12:24 08.09.2021
5833 Clouds 18 1011 64 10000 5.14 250 11:28 08.09.2021
5834 Clouds 17 1011 65 10000 5.14 240 10:32 08.09.2021
5835 Clouds 16 1013 59 10000 4.63 250 09:57 08.09.2021
5836 Clouds 15 1013 61 10000 3.09 240 07:55 08.09.2021
5837 Clouds 15 1012 69 10000 3.6 240 07:29 08.09.2021
5838 Clouds 15 1014 68 10000 3.6 250 00:33 08.09.2021
5839 Clear 15 1014 67 10000 2.57 230 22:30 07.09.2021
5840 Clear 15 1014 64 10000 2.57 230 21:38 07.09.2021
5841 Clear 17 1014 60 10000 3.6 230 19:40 07.09.2021
5842 Clear 18 1014 61 10000 5.14 240 18:39 07.09.2021
5843 Clear 18 1015 59 10000 3.6 230 17:41 07.09.2021
5844 Clouds 18 1015 62 10000 5.14 250 15:57 07.09.2021
5845 Clouds 19 1015 59 10000 5.66 230 15:33 07.09.2021
5846 Clouds 18 1016 62 10000 5.66 250 13:54 07.09.2021
5847 Clouds 17 1017 63 10000 4.63 250 12:28 07.09.2021
5848 Clouds 16 1017 64 10000 4.63 240 11:26 07.09.2021
5849 Clouds 15 1017 65 10000 4.63 240 10:37 07.09.2021
5850 Clear 11 1018 71 10000 3.09 230 07:51 07.09.2021
5851 Clear 10 1018 71 10000 2.06 230 06:43 07.09.2021
5852 Clouds 12 1018 65 10000 2.57 230 02:43 07.09.2021
5853 Clouds 12 1019 65 10000 3.09 240 02:25 07.09.2021
5854 Clouds 12 1019 66 10000 2.57 230 00:23 07.09.2021
5855 Clouds 13 1019 66 10000 2.06 220 23:31 06.09.2021
5856 Clouds 12 1019 67 10000 1.54 210 22:53 06.09.2021
5857 Clear 12 1019 63 10000 1.54 230 22:25 06.09.2021
5858 Clear 14 1019 60 10000 2.57 250 20:37 06.09.2021
5859 Clear 16 1019 63 10000 2.57 260 19:22 06.09.2021
5860 Clear 17 1019 61 10000 5.14 260 18:37 06.09.2021
5861 Clear 18 1019 60 10000 4.12 260 17:58 06.09.2021
5862 Clouds 18 1019 60 10000 5.66 260 17:24 06.09.2021
5863 Clouds 18 1019 63 10000 3.09 270 15:37 06.09.2021
5864 Clouds 17 1020 62 10000 4.63 260 13:46 06.09.2021
5865 Clouds 16 1020 62 10000 4.63 260 12:46 06.09.2021
5866 Clear 15 1020 62 10000 4.12 250 10:40 06.09.2021
5867 Clear 13 1020 69 10000 2.57 240 07:58 06.09.2021
5868 Clouds 11 1021 66 10000 2.57 260 04:43 06.09.2021
5869 Clouds 10 1022 67 10000 2.57 230 23:26 05.09.2021
5870 Clouds 10 1022 67 10000 2.06 220 22:34 05.09.2021
5871 Clear 11 1022 63 10000 2.57 200 21:57 05.09.2021
5872 Clear 12 1022 60 10000 2.06 190 21:29 05.09.2021
5873 Clear 14 1023 62 10000 2.06 210 19:48 05.09.2021
5874 Clouds 16 1023 57 10000 3.6 250 18:38 05.09.2021
5875 Clear 17 1024 49 10000 4.63 260 17:22 05.09.2021
5876 Clear 16 1025 47 10000 4.12 260 15:27 05.09.2021
5877 Clear 15 1024 52 10000 3.09 240 13:40 05.09.2021
5878 Clear 14 1025 60 10000 3.09 200 11:57 05.09.2021
5879 Clouds 12 1025 63 10000 1.54 160 10:47 05.09.2021
5880 Clouds 11 1025 66 10000 2.06 170 10:22 05.09.2021
5881 Clouds 8 1026 47 10000 0 0 08:37 05.09.2021
5882 Clouds 1 1026 100 10000 0 0 06:45 05.09.2021
5883 Clouds 4 1025 87 10000 1.03 270 00:46 05.09.2021
5884 Clouds 5 1025 60 10000 1.03 270 23:59 04.09.2021
5885 Clouds 5 1024 62 10000 1.03 270 23:29 04.09.2021
5886 Clouds 6 1023 73 10000 0.51 20 22:35 04.09.2021
5887 Clear 8 1022 70 10000 1.54 30 21:44 04.09.2021
5888 Clouds 11 1022 59 10000 2.57 20 19:40 04.09.2021
5889 Clouds 13 1022 50 10000 4.12 350 17:43 04.09.2021
5890 Clear 14 1021 49 10000 4.12 320 15:52 04.09.2021
5891 Clouds 12 1019 61 10000 4.63 310 11:54 04.09.2021
5892 Clear 12 1019 65 10000 4.12 310 11:18 04.09.2021
5893 Clear 9 1018 70 10000 3.09 310 08:46 04.09.2021
5894 Clouds 5 1018 63 10000 1.03 270 01:59 04.09.2021
5895 Clouds 6 1018 62 10000 0.51 290 00:23 04.09.2021
5896 Clouds 7 1018 60 10000 1.03 290 23:23 03.09.2021
5897 Clear 7 1017 68 10000 1.03 290 21:43 03.09.2021
5898 Clear 8 1017 67 10000 0 0 21:24 03.09.2021
5899 Clear 10 1015 65 10000 1.54 10 20:35 03.09.2021
5900 Clear 12 1015 56 10000 3.6 340 19:45 03.09.2021
5901 Clear 13 1015 51 10000 4.12 350 18:37 03.09.2021
5902 Clear 14 1015 48 10000 4.63 320 17:32 03.09.2021
5903 Clear 15 1014 45 10000 4.63 320 16:22 03.09.2021
5904 Clear 14 1014 49 10000 5.14 330 14:47 03.09.2021
5905 Clouds 13 1013 59 10000 7.2 340 11:47 03.09.2021
5906 Clouds 13 1013 61 10000 6.69 340 10:21 03.09.2021
5907 Clouds 12 1011 67 10000 7.2 340 08:22 03.09.2021
5908 Clouds 12 1011 69 10000 6.17 350 07:34 03.09.2021
5909 Clouds 15 1012 66 10000 2.57 300 23:59 02.09.2021
5910 Clear 15 1012 68 10000 2.06 280 22:22 02.09.2021
5911 Clear 14 1012 71 10000 2.57 220 21:18 02.09.2021
5912 Clear 18 1014 54 10000 4.63 300 18:57 02.09.2021
5913 Clear 19 1015 55 10000 5.66 280 17:22 02.09.2021
5914 Clear 18 1016 60 10000 6.17 270 15:43 02.09.2021
5915 Clouds 17 1018 65 10000 7.2 290 13:43 02.09.2021
5916 Clear 15 1019 64 10000 5.66 260 11:46 02.09.2021
5917 Clear 14 1019 63 10000 5.66 260 11:27 02.09.2021
5918 Clear 11 1020 65 10000 4.63 300 09:21 02.09.2021
5919 Clear 9 1020 71 10000 4.12 300 07:40 02.09.2021
5920 Clear 8 1020 71 10000 2.57 300 06:47 02.09.2021
5921 Clouds 9 1020 71 10000 3.6 320 02:38 02.09.2021
5922 Clouds 10 1019 69 10000 4.12 320 01:53 02.09.2021
5923 Clouds 11 1019 66 10000 3.09 310 00:24 02.09.2021
5924 Clouds 11 1019 61 10000 2.57 320 23:28 01.09.2021
5925 Clear 12 1018 58 10000 4.12 330 22:31 01.09.2021
5926 Clear 13 1017 61 10000 2.57 310 21:33 01.09.2021
5927 Clouds 14 1016 64 10000 4.12 290 19:38 01.09.2021
5928 Clouds 16 1016 71 10000 4.63 260 17:58 01.09.2021
5929 Clouds 17 1016 65 10000 5.14 270 17:18 01.09.2021
5930 Clouds 16 1017 64 10000 5.14 280 16:46 01.09.2021
5931 Clouds 16 1018 62 10000 5.66 290 15:23 01.09.2021
5932 Clouds 15 1018 58 10000 6.17 320 11:48 01.09.2021
5933 Clear 14 1019 61 10000 5.14 310 10:42 01.09.2021
5934 Clear 13 1019 66 10000 5.14 320 08:46 01.09.2021
5935 Clear 12 1019 68 10000 4.12 310 07:50 01.09.2021
5936 Clouds 10 1019 90 10000 1.54 290 23:41 31.08.2021
5937 Clear 11 1019 68 10000 1.03 250 22:24 31.08.2021
5938 Clear 13 1018 65 10000 2.06 350 20:34 31.08.2021
5939 Clear 16 1018 61 10000 3.6 350 19:43 31.08.2021
5940 Clear 18 1018 57 10000 5.14 340 17:53 31.08.2021
5941 Clear 17 1018 58 10000 5.66 340 17:27 31.08.2021
5942 Clear 18 1018 57 10000 6.17 340 16:41 31.08.2021
5943 Clear 18 1018 58 10000 5.66 320 15:56 31.08.2021
5944 Rain 17 1019 60 10000 4.12 330 12:54 31.08.2021
5945 Clear 16 1019 61 10000 5.14 340 11:20 31.08.2021
5946 Clear 16 1019 62 10000 4.12 360 10:43 31.08.2021
5947 Clear 15 1019 83 10000 4.63 360 09:42 31.08.2021
5948 Clear 12 1020 91 10000 3.09 350 07:57 31.08.2021
5949 Mist 8 1020 96 9000 1.03 260 05:57 31.08.2021
5950 Clear 12 1020 88 10000 1.54 0 23:37 30.08.2021
5951 Clear 13 1020 86 10000 1.54 20 22:52 30.08.2021
5952 Clear 14 1020 66 10000 1.54 350 21:41 30.08.2021
5953 Clear 15 1020 75 10000 2.57 20 20:42 30.08.2021
5954 Clear 17 1021 68 10000 2.57 20 19:54 30.08.2021
5955 Clear 17 1021 68 10000 2.57 20 19:54 30.08.2021
5956 Clear 18 1020 67 10000 2.57 30 19:24 30.08.2021
5957 Clouds 20 1020 63 10000 4.12 40 17:51 30.08.2021
5958 Clouds 20 1020 59 10000 3.6 80 16:29 30.08.2021
5959 Clouds 20 1019 57 10000 3.6 60 15:45 30.08.2021
5960 Clouds 20 1020 63 10000 3.09 360 14:24 30.08.2021
5961 Clouds 19 1022 66 10000 3.09 10 13:21 30.08.2021
5962 Clear 17 1019 58 10000 3.09 340 11:29 30.08.2021
5963 Clear 10 1021 97 10000 1.54 300 04:57 30.08.2021
5964 Clear 14 1022 87 10000 3.6 350 21:58 29.08.2021
5965 Clouds 15 1021 86 10000 2.57 350 21:19 29.08.2021
5966 Clouds 17 1019 81 10000 3.09 350 19:31 29.08.2021
5967 Clouds 18 1019 59 10000 3.6 20 18:28 29.08.2021
5968 Clouds 19 1018 63 10000 4.12 360 15:58 29.08.2021
5969 Clouds 19 1018 60 10000 4.63 20 14:29 29.08.2021
5970 Clouds 19 1018 60 10000 4.63 10 13:55 29.08.2021
5971 Clouds 18 1018 82 10000 4.63 360 12:58 29.08.2021
5972 Clouds 18 1018 63 10000 5.14 350 12:18 29.08.2021
5973 Clouds 18 1018 86 10000 4.12 360 11:40 29.08.2021
5974 Clouds 17 1018 90 10000 3.6 350 10:47 29.08.2021
5975 Clouds 16 1018 88 10000 4.12 350 10:28 29.08.2021
5976 Clouds 15 1018 92 10000 3.6 360 09:32 29.08.2021
5977 Clouds 14 1018 95 10000 3.6 350 04:19 29.08.2021
5978 Rain 14 1018 92 10000 3.09 360 22:57 28.08.2021
5979 Rain 15 1018 92 10000 3.09 10 20:31 28.08.2021
5980 Rain 15 1018 92 10000 3.6 10 19:29 28.08.2021
5981 Clouds 15 1019 92 10000 3.6 20 18:24 28.08.2021
5982 Clouds 15 1018 91 10000 4.12 20 17:46 28.08.2021
5983 Clouds 15 1019 92 10000 3.6 20 16:32 28.08.2021
5984 Clouds 15 1019 92 10000 5.14 40 14:52 28.08.2021
5985 Clouds 15 1019 92 10000 5.14 40 13:58 28.08.2021
5986 Clouds 15 1019 92 10000 5.14 40 13:39 28.08.2021
5987 Clouds 15 1018 94 10000 3.6 20 12:30 28.08.2021
5988 Clouds 14 1019 95 7000 4.12 20 10:47 28.08.2021
5989 Clouds 14 1019 95 10000 4.12 20 09:34 28.08.2021
5990 Clouds 13 1019 95 10000 4.63 20 07:34 28.08.2021
5991 Clouds 14 1020 93 10000 3.09 360 23:45 27.08.2021
5992 Clouds 13 1021 93 10000 3.09 20 21:26 27.08.2021
5993 Clouds 13 1021 95 10000 3.6 20 20:52 27.08.2021
5994 Drizzle 13 1021 97 5000 3.09 20 19:32 27.08.2021
5995 Drizzle 13 1020 96 4000 3.09 20 18:38 27.08.2021
5996 Rain 13 1020 95 8000 3.6 30 17:45 27.08.2021
5997 Clouds 14 1020 95 6000 3.09 40 16:31 27.08.2021
5998 Rain 14 1020 94 9000 4.63 50 14:44 27.08.2021
5999 Clouds 14 1019 94 10000 4.63 40 12:57 27.08.2021
6000 Clouds 14 1019 94 10000 4.63 40 11:43 27.08.2021
6001 Clouds 14 1019 95 10000 3.09 40 10:49 27.08.2021
6002 Drizzle 14 1018 95 9000 2.57 30 09:58 27.08.2021
6003 Clouds 14 1018 95 10000 3.09 40 08:57 27.08.2021
6004 Clouds 14 1018 95 10000 3.09 40 08:35 27.08.2021
6005 Rain 13 1017 95 7000 4.63 40 05:35 27.08.2021
6006 Rain 14 1015 93 10000 6.69 60 00:40 27.08.2021
6007 Rain 14 1014 93 9000 7.72 70 00:18 27.08.2021
6008 Clouds 13 1013 95 10000 3.6 40 22:25 26.08.2021
6009 Drizzle 13 1013 95 10000 4.12 30 21:36 26.08.2021
6010 Rain 13 1011 91 10000 6.17 60 19:30 26.08.2021
6011 Rain 14 1009 93 10000 5.14 40 17:50 26.08.2021
6012 Clouds 14 1009 93 10000 6.69 50 17:25 26.08.2021
6013 Rain 14 1008 93 10000 6.69 70 16:26 26.08.2021
6014 Rain 14 1005 96 6000 4.12 20 14:20 26.08.2021
6015 Rain 15 1005 93 10000 4.63 20 13:20 26.08.2021
6016 Drizzle 15 1005 93 6000 4.63 10 12:32 26.08.2021
6017 Clouds 14 1005 95 10000 4.12 10 11:22 26.08.2021
6018 Rain 13 1004 93 10000 3.09 20 08:35 26.08.2021
6019 Clouds 12 1004 95 10000 2.57 20 07:52 26.08.2021
6020 Drizzle 10 1002 96 10000 4.12 300 23:25 25.08.2021
6021 Rain 10 1002 94 10000 4.12 290 22:37 25.08.2021
6022 Rain 11 1002 92 10000 4.12 300 22:18 25.08.2021
6023 Rain 11 1002 93 10000 4.12 320 20:57 25.08.2021
6024 Rain 11 1002 90 10000 3.6 330 20:29 25.08.2021
6025 Rain 13 1002 88 6000 5.14 290 18:46 25.08.2021
6026 Clouds 13 1001 89 10000 3.09 340 17:52 25.08.2021
6027 Clouds 15 1001 75 10000 6.69 320 15:51 25.08.2021
6028 Clouds 14 1001 61 10000 5.14 320 15:24 25.08.2021
6029 Clouds 14 1001 88 10000 5.14 300 14:43 25.08.2021
6030 Clouds 15 1001 66 10000 6.69 320 13:31 25.08.2021
6031 Clouds 17 1004 58 10000 6.69 300 11:36 25.08.2021
6032 Clouds 17 1004 57 10000 6.69 290 10:56 25.08.2021
6033 Clouds 16 1003 90 10000 4.63 180 09:59 25.08.2021
6034 Clouds 15 1004 93 10000 4.63 260 09:30 25.08.2021
6035 Clouds 15 1004 94 10000 4.12 260 08:33 25.08.2021
6036 Rain 13 1006 93 6000 4.63 150 05:55 25.08.2021
6037 Clouds 14 1014 89 10000 4.12 210 00:55 25.08.2021
6038 Drizzle 14 1018 69 10000 4.63 90 22:51 24.08.2021
6039 Clear 14 1020 67 10000 4.12 90 20:53 24.08.2021
6040 Clear 15 1021 62 10000 4.12 90 19:53 24.08.2021
6041 Clear 16 1022 62 10000 3.6 110 18:51 24.08.2021
6042 Clear 17 1022 62 10000 3.6 60 17:52 24.08.2021
6043 Clear 17 1023 60 10000 2.06 60 17:20 24.08.2021
6044 Clear 17 1025 57 10000 2.57 300 14:45 24.08.2021
6045 Clouds 17 1026 56 10000 0.51 0 13:29 24.08.2021
6046 Clouds 17 1026 56 10000 0.51 0 13:29 24.08.2021
6047 Clouds 16 1027 59 10000 1.54 0 12:36 24.08.2021
6048 Clear 15 1027 63 10000 1.54 0 11:19 24.08.2021
6049 Clear 15 1027 64 10000 2.57 0 10:45 24.08.2021
6050 Clear 14 1028 66 10000 2.06 10 09:23 24.08.2021
6051 Clear 10 1028 72 10000 0 0 07:28 24.08.2021
6052 Clouds 7 1029 93 10000 0 0 05:37 24.08.2021
6053 Clouds 8 1027 92 10000 0 0 02:40 24.08.2021
6054 Clouds 12 1027 66 10000 1.03 0 23:28 23.08.2021
6055 Clouds 12 1026 69 10000 1.54 40 22:42 23.08.2021
6056 Clear 13 1026 65 10000 2.06 40 20:58 23.08.2021
6057 Clear 15 1025 62 10000 3.6 30 19:30 23.08.2021
6058 Clouds 17 1026 56 10000 4.12 350 17:23 23.08.2021
6059 Rain 17 1024 54 10000 3.6 320 15:32 23.08.2021
6060 Clouds 17 1024 57 10000 4.12 340 13:53 23.08.2021
6061 Clouds 16 1025 60 10000 4.12 330 12:31 23.08.2021
6062 Clear 15 1023 62 10000 4.63 320 10:46 23.08.2021
6063 Clear 14 1023 63 10000 4.12 310 09:52 23.08.2021
6064 Clear 13 1023 61 10000 2.57 310 08:34 23.08.2021
6065 Clear 10 1023 94 10000 2.06 290 06:59 23.08.2021
6066 Clear 9 1023 94 10000 2.06 290 06:39 23.08.2021
6067 Clouds 12 1021 66 10000 0.51 0 00:59 23.08.2021
6068 Clouds 13 1021 72 10000 1.03 0 23:39 22.08.2021
6069 Clouds 14 1021 68 10000 2.06 20 22:42 22.08.2021
6070 Clear 15 1020 65 10000 2.57 10 20:46 22.08.2021
6071 Clear 15 1019 63 10000 3.6 10 20:18 22.08.2021
6072 Clear 17 1018 54 10000 3.09 330 18:29 22.08.2021
6073 Clear 18 1018 49 10000 5.14 280 15:48 22.08.2021
6074 Clear 17 1018 50 10000 3.6 310 14:53 22.08.2021
6075 Clear 17 1018 51 10000 3.09 300 13:38 22.08.2021
6076 Clear 17 1018 51 10000 4.12 300 13:19 22.08.2021
6077 Clear 17 1018 51 10000 4.12 300 13:19 22.08.2021
6078 Clouds 16 1018 53 10000 4.12 300 12:29 22.08.2021
6079 Clouds 16 1017 55 10000 5.14 300 11:43 22.08.2021
6080 Clear 15 1017 62 10000 3.6 310 10:53 22.08.2021
6081 Clear 12 1016 63 10000 2.57 300 08:41 22.08.2021
6082 Clear 8 1017 96 10000 1.03 280 06:59 22.08.2021
6083 Clouds 9 1017 89 10000 1.03 280 00:32 22.08.2021
6084 Clouds 11 1016 66 10000 1.03 280 22:36 21.08.2021
6085 Clouds 12 1016 71 10000 1.03 280 21:34 21.08.2021
6086 Clouds 16 1014 60 10000 4.12 310 18:47 21.08.2021
6087 Clouds 17 1014 58 10000 3.6 320 18:21 21.08.2021
6088 Clear 17 1013 55 10000 6.17 320 16:58 21.08.2021
6089 Clear 17 1013 54 10000 6.17 270 16:29 21.08.2021
6090 Clear 18 1013 52 10000 6.69 280 15:38 21.08.2021
6091 Clear 18 1013 52 10000 6.69 280 15:38 21.08.2021
6092 Clear 17 1013 54 10000 7.2 280 15:20 21.08.2021
6093 Clouds 17 1013 56 10000 6.17 270 13:35 21.08.2021
6094 Clouds 17 1012 59 10000 5.14 270 12:39 21.08.2021
6095 Clear 15 1012 64 10000 3.6 280 10:39 21.08.2021
6096 Clouds 13 1011 63 10000 3.6 310 07:50 21.08.2021
6097 Clouds 13 1011 63 10000 3.6 310 07:50 21.08.2021
6098 Clouds 12 1008 92 10000 1.54 230 23:51 20.08.2021
6099 Clear 13 1008 88 10000 2.57 220 21:54 20.08.2021
6100 Clear 15 1007 84 10000 2.57 160 18:43 20.08.2021
6101 Rain 18 1006 63 10000 4.12 270 16:29 20.08.2021
6102 Clouds 19 1005 58 10000 3.09 250 13:54 20.08.2021
6103 Clear 18 1005 58 10000 3.6 260 11:54 20.08.2021
6104 Clear 17 1005 59 10000 3.6 250 11:26 20.08.2021
6105 Clear 16 1005 64 10000 3.09 250 09:45 20.08.2021
6106 Clear 15 1004 69 10000 2.57 250 08:54 20.08.2021
6107 Clear 14 1004 71 10000 2.57 250 08:35 20.08.2021
6108 Clouds 10 1002 91 10000 2.57 230 04:38 20.08.2021
6109 Clouds 11 1002 89 10000 2.06 240 04:19 20.08.2021
6110 Clouds 13 1001 70 10000 2.57 240 23:26 19.08.2021
6111 Clouds 14 1000 70 10000 2.06 240 22:37 19.08.2021
6112 Clear 15 999 66 10000 2.57 260 21:33 19.08.2021
6113 Clear 17 998 63 10000 5.14 260 19:55 19.08.2021
6114 Clear 17 997 61 10000 6.69 270 17:29 19.08.2021
6115 Clouds 18 996 59 10000 7.72 250 16:41 19.08.2021
6116 Clouds 16 996 59 10000 7.72 270 14:25 19.08.2021
6117 Clouds 15 995 71 10000 6.69 270 12:40 19.08.2021
6118 Clouds 15 995 63 10000 7.2 260 12:18 19.08.2021
6119 Drizzle 14 992 69 10000 5.14 270 10:42 19.08.2021
6120 Drizzle 13 992 68 10000 6.17 270 09:48 19.08.2021
6121 Clouds 13 991 66 10000 5.14 260 09:24 19.08.2021
6122 Clouds 13 991 66 10000 5.66 260 08:24 19.08.2021
6123 Clouds 12 989 93 10000 3.6 230 02:53 19.08.2021
6124 Clouds 12 989 93 10000 3.09 230 01:58 19.08.2021
6125 Clouds 14 990 91 10000 2.57 220 23:21 18.08.2021
6126 Clear 14 990 89 10000 3.09 190 21:44 18.08.2021
6127 Clear 15 990 91 10000 3.09 200 20:39 18.08.2021
6128 Clear 15 989 89 10000 2.57 190 20:18 18.08.2021
6129 Clear 15 989 89 10000 2.57 190 20:18 18.08.2021
6130 Clear 16 991 89 10000 3.09 220 18:57 18.08.2021
6131 Clouds 15 991 94 10000 3.6 230 18:33 18.08.2021
6132 Clouds 15 990 92 10000 6.17 240 16:41 18.08.2021
6133 Clouds 14 990 95 8000 7.2 260 15:40 18.08.2021
6134 Drizzle 14 990 94 10000 6.69 260 15:21 18.08.2021
6135 Drizzle 14 987 95 2700 5.66 240 12:44 18.08.2021
6136 Drizzle 14 987 96 3000 4.63 200 12:26 18.08.2021
6137 Rain 13 987 94 8000 4.63 190 11:22 18.08.2021
6138 Rain 13 989 95 10000 3.09 180 07:53 18.08.2021
6139 Mist 11 992 97 6000 1.03 280 00:59 18.08.2021
6140 Fog 11 993 95 250 0 0 22:38 17.08.2021
6141 Fog 12 994 96 10000 0 0 21:46 17.08.2021
6142 Clouds 13 995 93 10000 1.54 30 20:47 17.08.2021
6143 Clouds 14 997 91 10000 1.54 50 19:20 17.08.2021
6144 Clouds 14 996 92 10000 2.06 110 17:47 17.08.2021
6145 Rain 14 997 92 10000 2.06 130 17:21 17.08.2021
6146 Drizzle 15 997 92 10000 4.12 120 15:41 17.08.2021
6147 Rain 15 997 92 10000 2.57 80 14:47 17.08.2021
6148 Drizzle 16 998 93 10000 3.6 140 12:37 17.08.2021
6149 Rain 16 998 93 10000 5.14 90 09:27 17.08.2021
6150 Rain 16 998 93 10000 3.09 100 08:36 17.08.2021
6151 Clouds 16 998 97 9000 1.54 60 06:55 17.08.2021
6152 Clouds 15 1000 93 10000 1.54 80 23:24 16.08.2021
6153 Clouds 15 1000 93 10000 2.06 70 22:52 16.08.2021
6154 Clouds 15 1000 92 10000 2.06 70 22:34 16.08.2021
6155 Clouds 16 1000 92 10000 2.57 70 21:38 16.08.2021
6156 Clouds 16 1000 89 10000 3.09 70 20:51 16.08.2021
6157 Clouds 17 999 86 10000 4.12 90 19:27 16.08.2021
6158 Clouds 18 999 82 10000 3.6 70 18:25 16.08.2021
6159 Clouds 18 999 59 10000 3.6 60 17:53 16.08.2021
6160 Clouds 18 999 66 10000 3.09 90 16:25 16.08.2021
6161 Clouds 17 1000 68 10000 2.57 40 15:18 16.08.2021
6162 Clouds 17 1000 69 10000 4.12 60 13:41 16.08.2021
6163 Clouds 16 1001 89 10000 3.6 60 12:59 16.08.2021
6164 Clouds 14 1001 92 6000 1.54 110 11:31 16.08.2021
6165 Rain 14 1001 93 9000 1.54 120 09:22 16.08.2021
6166 Rain 13 1001 91 9000 1.54 150 08:41 16.08.2021
6167 Rain 13 1001 69 10000 1.03 120 07:29 16.08.2021
6168 Clouds 11 1001 93 10000 0 0 05:54 16.08.2021
6169 Clouds 16 1001 69 10000 4.63 240 23:54 15.08.2021
6170 Clear 17 1001 65 10000 4.63 240 21:21 15.08.2021
6171 Clouds 17 1000 70 10000 5.14 250 19:27 15.08.2021
6172 Rain 17 1000 66 10000 5.14 280 18:39 15.08.2021
6173 Clouds 17 999 64 10000 5.66 260 17:48 15.08.2021
6174 Clouds 18 999 61 10000 7.2 270 16:30 15.08.2021
6175 Clouds 18 999 61 10000 8.75 270 15:34 15.08.2021
6176 Clouds 18 998 60 10000 8.23 250 14:32 15.08.2021
6177 Clouds 18 997 61 10000 7.72 250 12:39 15.08.2021
6178 Clouds 17 997 70 10000 7.72 240 09:57 15.08.2021
6179 Clouds 14 997 73 10000 5.14 220 06:53 15.08.2021
6180 Rain 14 999 75 10000 4.12 220 01:21 15.08.2021
6181 Clouds 15 999 76 10000 4.63 220 00:28 15.08.2021
6182 Clouds 16 1001 71 10000 4.63 200 21:21 14.08.2021
6183 Clouds 18 1002 63 10000 5.66 210 19:45 14.08.2021
6184 Clouds 18 1002 63 10000 6.69 190 19:25 14.08.2021
6185 Clouds 19 1003 63 10000 5.14 220 17:33 14.08.2021
6186 Clouds 19 1004 63 10000 5.14 250 16:38 14.08.2021
6187 Clouds 20 1004 56 10000 5.66 230 15:33 14.08.2021
6188 Clouds 20 1005 58 10000 7.72 240 13:32 14.08.2021
6189 Clouds 18 1006 67 10000 6.69 230 10:56 14.08.2021
6190 Clouds 17 1006 71 10000 5.66 230 08:53 14.08.2021
6191 Clouds 18 1008 91 10000 1.03 180 23:56 13.08.2021
6192 Clouds 18 1009 91 10000 1.03 180 23:38 13.08.2021
6193 Clear 19 1010 88 10000 2.06 170 21:49 13.08.2021
6194 Clear 21 1010 72 10000 3.6 200 19:29 13.08.2021
6195 Clouds 21 1011 71 10000 3.09 200 18:35 13.08.2021
6196 Clouds 23 1012 63 10000 4.63 170 16:51 13.08.2021
6197 Clouds 24 1012 61 10000 5.14 190 15:41 13.08.2021
6198 Clear 21 1015 68 10000 4.12 200 11:21 13.08.2021
6199 Clear 21 1015 71 10000 3.6 230 10:39 13.08.2021
6200 Clear 19 1015 72 10000 3.09 230 08:39 13.08.2021
6201 Clear 17 1015 70 10000 2.06 230 07:48 13.08.2021
6202 Clouds 14 1015 96 10000 2.06 230 06:31 13.08.2021
6203 Clouds 15 1015 71 10000 2.57 230 00:18 13.08.2021
6204 Clear 18 1015 64 10000 2.57 250 21:43 12.08.2021
6205 Clear 21 1015 59 10000 4.63 260 20:26 12.08.2021
6206 Clear 22 1016 49 10000 3.6 270 19:49 12.08.2021
6207 Clouds 23 1015 56 10000 5.66 260 17:56 12.08.2021
6208 Clouds 24 1014 55 10000 5.66 290 16:50 12.08.2021
6209 Clouds 23 1014 58 10000 3.09 250 15:35 12.08.2021
6210 Clouds 23 1014 61 10000 4.63 260 13:46 12.08.2021
6211 Clear 21 1015 69 10000 4.12 250 11:34 12.08.2021
6212 Clear 18 1014 88 10000 3.09 250 08:53 12.08.2021
6213 Clear 14 1014 97 10000 0 0 07:18 12.08.2021
6214 Clouds 14 1013 93 10000 0 0 23:21 11.08.2021
6215 Clear 16 1012 70 10000 1.54 200 21:37 11.08.2021
6216 Clouds 21 1011 65 10000 3.6 210 18:53 11.08.2021
6217 Clouds 21 1011 61 10000 3.6 210 18:24 11.08.2021
6218 Clouds 20 1011 67 10000 1.54 220 15:21 11.08.2021
6219 Clouds 20 1011 72 10000 2.06 210 14:37 11.08.2021
6220 Clouds 20 1011 58 10000 1.54 180 12:47 11.08.2021
6221 Clouds 21 1011 57 10000 1.03 0 12:29 11.08.2021
6222 Clouds 21 1011 64 10000 2.06 230 11:40 11.08.2021
6223 Clouds 21 1011 64 10000 1.54 0 11:18 11.08.2021
6224 Clear 17 1011 92 10000 1.54 190 08:53 11.08.2021
6225 Clouds 13 1011 95 10000 0 0 03:29 11.08.2021
6226 Clear 14 1011 93 10000 1.54 160 22:33 10.08.2021
6227 Clear 15 1011 90 10000 1.54 150 21:44 10.08.2021
6228 Clear 17 1011 65 10000 2.06 200 20:51 10.08.2021
6229 Clouds 19 1011 65 10000 3.09 210 19:25 10.08.2021
6230 Clouds 19 1011 63 10000 3.09 240 17:30 10.08.2021
6231 Rain 17 1011 91 10000 0 0 15:22 10.08.2021
6232 Rain 17 1012 91 10000 2.57 300 14:39 10.08.2021
6233 Clouds 19 1012 79 10000 2.57 190 10:53 10.08.2021
6234 Clouds 18 1012 69 10000 2.06 220 09:26 10.08.2021
6235 Clouds 14 1011 94 10000 2.06 200 05:27 10.08.2021
6236 Clouds 15 1011 94 10000 1.54 130 00:38 10.08.2021
6237 Clouds 16 1011 93 10000 1.54 160 23:25 09.08.2021
6238 Clear 16 1011 91 10000 1.54 160 21:53 09.08.2021
6239 Clear 16 1011 91 10000 2.06 160 21:25 09.08.2021
6240 Rain 19 1012 78 10000 5.14 200 18:47 09.08.2021
6241 Clouds 21 1010 68 10000 3.6 260 16:36 09.08.2021
6242 Clouds 21 1009 64 10000 3.6 240 14:37 09.08.2021
6243 Clouds 21 1009 67 10000 4.12 230 13:30 09.08.2021
6244 Clouds 20 1009 71 10000 3.6 200 11:48 09.08.2021
6245 Clouds 20 1009 70 10000 3.6 200 11:48 09.08.2021
6246 Clouds 18 1009 87 10000 2.57 180 09:41 09.08.2021
6247 Clouds 17 1008 90 10000 2.06 180 08:22 09.08.2021
6248 Clear 16 1005 92 10000 1.54 150 21:32 08.08.2021
6249 Clear 17 1005 88 10000 2.06 200 20:54 08.08.2021
6250 Clouds 19 1004 80 10000 2.06 160 17:43 08.08.2021
6251 Clouds 18 1003 90 10000 3.6 140 16:38 08.08.2021
6252 Rain 16 1004 89 8000 1.54 0 14:34 08.08.2021
6253 Rain 18 1004 65 10000 2.57 160 12:47 08.08.2021
6254 Rain 19 1003 86 10000 3.09 200 10:37 08.08.2021
6255 Clouds 13 1003 95 10000 1.54 0 06:42 08.08.2021
6256 Clouds 14 1002 95 10000 3.09 220 03:40 08.08.2021
6257 Clouds 15 1000 95 10000 5.66 230 00:25 08.08.2021
6258 Drizzle 17 1000 95 10000 2.06 90 21:47 07.08.2021
6259 Drizzle 17 1000 95 10000 2.06 90 21:47 07.08.2021
6260 Drizzle 17 1000 95 10000 2.06 90 21:47 07.08.2021
6261 Drizzle 17 1000 95 10000 2.06 90 21:47 07.08.2021
6262 Drizzle 17 1000 95 10000 2.06 90 21:47 07.08.2021
6263 Drizzle 17 1000 95 10000 2.57 90 21:19 07.08.2021
6264 Rain 16 1000 97 4400 3.6 50 18:29 07.08.2021
6265 Rain 15 1001 95 3500 3.6 20 16:52 07.08.2021
6266 Mist 15 1001 95 6000 3.6 10 15:37 07.08.2021
6267 Rain 15 1003 94 9000 4.12 30 13:53 07.08.2021
6268 Rain 16 1003 85 10000 2.57 50 11:37 07.08.2021
6269 Clouds 16 1005 75 10000 3.09 10 07:52 07.08.2021
6270 Clouds 13 1006 70 10000 2.06 360 04:45 07.08.2021
6271 Clouds 16 1009 64 10000 2.06 20 22:51 06.08.2021
6272 Clear 19 1009 50 10000 3.09 60 20:39 06.08.2021
6273 Clear 19 1010 50 10000 2.57 70 20:18 06.08.2021
6274 Clear 20 1010 47 10000 3.09 50 19:45 06.08.2021
6275 Clear 21 1010 49 10000 5.14 70 17:51 06.08.2021
6276 Clear 21 1011 50 10000 5.14 60 13:33 06.08.2021
6277 Clear 20 1012 61 10000 4.12 50 09:57 06.08.2021
6278 Clear 17 1012 75 10000 3.09 50 08:29 06.08.2021
6279 Clear 12 1015 69 10000 0 0 00:33 06.08.2021
6280 Clear 14 1013 74 10000 1.54 160 22:33 05.08.2021
6281 Clear 18 1012 66 10000 3.09 150 20:48 05.08.2021
6282 Clear 19 1013 60 10000 3.6 130 19:49 05.08.2021
6283 Clear 20 1013 54 10000 3.6 130 18:25 05.08.2021
6284 Clear 21 1013 48 10000 3.6 150 15:35 05.08.2021
6285 Clouds 21 1014 54 10000 3.09 160 12:39 05.08.2021
6286 Clear 18 1014 73 10000 2.57 160 08:52 05.08.2021
6287 Clear 17 1013 72 10000 1.03 160 07:38 05.08.2021
6288 Clouds 12 1014 71 10000 2.06 130 00:55 05.08.2021
6289 Clouds 14 1013 74 10000 1.54 130 22:21 04.08.2021
6290 Clear 16 1013 72 10000 2.06 200 21:25 04.08.2021
6291 Clear 19 1013 58 10000 5.14 190 19:19 04.08.2021
6292 Clear 20 1012 50 10000 1.54 10 16:59 04.08.2021
6293 Clear 21 1012 45 10000 3.6 270 14:45 04.08.2021
6294 Clear 21 1012 45 10000 1.54 300 12:21 04.08.2021
6295 Clouds 11 1013 64 10000 0 0 06:23 04.08.2021
6296 Clear 16 1009 56 10000 1.54 260 20:53 03.08.2021
6297 Clear 17 1009 51 10000 3.09 280 20:25 03.08.2021
6298 Clear 19 1009 44 10000 3.6 290 18:37 03.08.2021
6299 Clear 19 1008 43 10000 4.12 290 16:47 03.08.2021
6300 Clear 19 1008 45 10000 4.12 300 13:56 03.08.2021
6301 Clear 17 1007 53 10000 4.63 300 10:57 03.08.2021
6302 Clear 13 1006 75 10000 3.09 310 07:51 03.08.2021
6303 Clouds 15 1001 73 10000 5.14 320 19:24 02.08.2021
6304 Clouds 16 1000 68 10000 5.14 320 16:39 02.08.2021
6305 Rain 15 1000 69 10000 2.06 290 15:30 02.08.2021
6306 Clouds 18 999 70 10000 3.6 340 11:59 02.08.2021
6307 Clouds 18 999 68 10000 3.6 340 11:39 02.08.2021
6308 Clouds 18 999 71 10000 2.57 280 09:50 02.08.2021
6309 Clouds 13 999 80 10000 1.54 230 04:26 02.08.2021
6310 Clear 21 997 51 10000 4.12 220 18:26 01.08.2021
6311 Clouds 20 997 55 10000 5.14 230 15:30 01.08.2021
6312 Clouds 20 996 70 10000 3.6 230 11:38 01.08.2021
6313 Clouds 17 996 70 10000 2.57 220 09:36 01.08.2021
6314 Clouds 14 994 78 10000 1.03 190 03:48 01.08.2021
6315 Clouds 17 995 75 10000 2.57 150 22:52 31.07.2021
6316 Clouds 18 996 72 10000 3.6 150 20:54 31.07.2021
6317 Rain 20 996 75 10000 5.14 180 17:49 31.07.2021
6318 Clouds 21 996 70 10000 3.6 190 16:36 31.07.2021
6319 Rain 21 998 70 10000 3.09 200 12:50 31.07.2021
6320 Rain 21 998 70 10000 3.09 200 12:50 31.07.2021
6321 Clouds 19 996 77 10000 3.09 280 08:53 31.07.2021
6322 Clouds 15 994 78 10000 2.06 220 02:29 31.07.2021
6323 Clear 19 992 65 10000 4.12 270 20:31 30.07.2021
6324 Clouds 20 992 62 10000 5.14 270 19:58 30.07.2021
6325 Clouds 15 990 78 10000 4.12 160 09:38 30.07.2021
6326 Clouds 22 996 59 10000 4.12 200 17:34 29.07.2021
6327 Clear 17 1000 81 10000 2.57 230 06:38 29.07.2021
6328 Clouds 17 1001 80 10000 1.54 220 04:29 29.07.2021
6329 Clouds 20 1003 79 10000 0 0 21:22 28.07.2021
6330 Clouds 21 1004 78 10000 1.54 200 17:22 28.07.2021
6331 Rain 20 1005 77 9000 1.03 0 15:52 28.07.2021
6332 Clouds 20 1005 81 10000 1.03 0 08:24 28.07.2021
6333 Clouds 22 1008 78 10000 3.09 80 23:31 27.07.2021
6334 Clear 23 1008 74 10000 3.6 100 21:28 27.07.2021
6335 Clear 29 1010 47 10000 8.23 120 14:53 27.07.2021
6336 Clear 27 1011 58 10000 5.14 60 11:19 27.07.2021
6337 Clear 26 1011 66 10000 4.63 100 09:49 27.07.2021
6338 Clear 25 1016 53 10000 4.63 120 17:54 26.07.2021
6339 Clear 26 1016 47 10000 5.14 110 15:31 26.07.2021
6340 Clouds 14 1019 77 10000 0 0 04:52 26.07.2021
6341 Clear 22 1017 51 10000 4.12 140 20:56 25.07.2021
6342 Clear 25 1016 44 10000 4.63 140 18:25 25.07.2021
6343 Clear 27 1016 45 10000 4.12 210 15:46 25.07.2021
6344 Clear 25 1016 49 10000 2.57 180 10:56 25.07.2021
6345 Clouds 21 1016 67 10000 1.03 0 08:19 25.07.2021
6346 Clouds 21 1016 67 10000 2.06 140 21:37 24.07.2021
6347 Clouds 22 1014 61 10000 3.6 110 20:19 24.07.2021
6348 Clear 26 1015 41 10000 1.54 0 15:44 24.07.2021
6349 Clear 12 1015 83 10000 0 0 04:20 24.07.2021
6350 Clear 21 1014 48 10000 3.6 30 14:38 23.07.2021
6351 Clear 19 1015 51 10000 3.09 340 12:41 23.07.2021
6352 Clouds 15 1014 72 10000 3.09 340 06:18 23.07.2021
6353 Clear 24 1011 41 10000 3.6 260 20:33 22.07.2021
6354 Clear 24 1013 49 10000 5.14 240 11:28 22.07.2021
6355 Clear 20 1014 68 10000 3.6 250 08:54 22.07.2021
6356 Clear 12 1015 85 10000 1.54 260 03:42 22.07.2021
6357 Clear 17 1015 53 10000 1.03 0 21:45 21.07.2021
6358 Clear 19 1016 50 10000 1.54 270 21:27 21.07.2021
6359 Clear 20 1017 44 10000 4.63 270 14:42 21.07.2021
6360 Clear 17 1017 57 10000 3.09 340 09:49 21.07.2021
6361 Clear 15 1016 65 10000 4.63 340 07:59 21.07.2021
6362 Clouds 15 1012 76 10000 0 0 23:46 20.07.2021
6363 Clear 21 1009 51 10000 5.14 340 17:22 20.07.2021
6364 Clouds 21 1008 53 10000 4.12 330 16:25 20.07.2021
6365 Clouds 21 1008 59 10000 5.14 340 15:25 20.07.2021
6366 Clouds 20 1008 63 10000 5.14 260 10:22 20.07.2021
6367 Clouds 14 1009 77 10000 1.54 210 04:48 20.07.2021
6368 Clear 15 1010 68 10000 1.54 220 22:25 19.07.2021
6369 Clear 19 1014 51 10000 0.45 265 12:53 19.07.2021
6370 Clouds 17 1014 57 10000 2.06 330 10:29 19.07.2021
6371 Rain 19 1008 61 10000 4.12 120 19:38 18.07.2021
6372 Clear 22 1007 53 10000 3.6 50 13:49 18.07.2021
6373 Clear 23 1006 53 10000 4.12 290 10:18 18.07.2021
6374 Clear 21 1008 79 10000 1.54 180 22:25 17.07.2021
6375 Clear 22 1008 75 10000 2.06 200 21:53 17.07.2021
6376 Clear 23 1008 74 10000 2.06 200 21:34 17.07.2021
6377 Clouds 26 1014 63 10000 3.09 210 12:28 17.07.2021
6378 Clear 21 1016 71 10000 2.06 0 08:55 17.07.2021
6379 Clear 13 1017 84 10000 0 0 04:46 17.07.2021
6380 Clear 23 1017 51 10000 0.45 10 14:22 16.07.2021
6381 Clear 20 1016 69 10000 4.63 10 07:33 16.07.2021
6382 Clouds 22 1012 78 10000 0.51 0 00:41 16.07.2021
6383 Clear 30 1009 51 10000 3.09 240 13:53 15.07.2021
6384 Clear 29 1009 55 10000 4.47 12 12:25 15.07.2021
6385 Clear 22 1009 89 10000 1.03 0 07:27 15.07.2021
6386 Clear 26 1011 64 10000 4.63 120 19:39 14.07.2021
6387 Clear 29 1012 51 10000 4.63 40 15:56 14.07.2021
6388 Clear 27 1013 59 10000 4.12 70 09:52 14.07.2021
6389 Clear 21 1014 80 10000 2.57 70 23:20 13.07.2021
6390 Clear 25 1014 67 10000 5.14 60 19:57 13.07.2021
6391 Clear 25 1014 66 10000 5.14 60 19:37 13.07.2021
6392 Clear 25 1014 65 10000 4.63 60 19:18 13.07.2021
6393 Clear 25 1014 64 10000 4.63 50 18:42 13.07.2021
6394 Clear 26 1014 63 10000 4.63 50 18:23 13.07.2021
6395 Clear 26 1015 61 10000 4.12 70 13:21 13.07.2021
6396 Clouds 21 1016 82 10000 3.09 70 08:50 13.07.2021
6397 Clear 23 1016 62 10000 0.45 146 20:24 12.07.2021
6398 Clouds 25 1016 57 10000 3.09 140 16:46 12.07.2021
6399 Clear 23 1018 65 10000 1.03 0 12:21 12.07.2021
6400 Clear 23 1018 65 10000 1.03 0 12:21 12.07.2021
6401 Clear 18 1017 83 10000 2.06 190 23:21 11.07.2021
6402 Clear 23 1016 65 10000 4.12 200 19:56 11.07.2021
6403 Clouds 23 1014 64 10000 4.12 200 12:41 11.07.2021
6404 Clouds 20 1009 82 10000 1.34 18 23:48 10.07.2021
6405 Clouds 25 1010 71 10000 7.2 140 14:28 10.07.2021
6406 Clouds 20 1010 88 10000 3.09 90 07:49 10.07.2021
6407 Clouds 18 1014 87 10000 3.58 16 01:27 10.07.2021
6408 Rain 21 1018 69 10000 0.89 41 18:20 09.07.2021
6409 Clear 24 1021 43 10000 4.12 70 14:49 09.07.2021
6410 Clear 21 1020 76 10000 0 0 08:41 09.07.2021
6411 Clouds 18 1021 79 10000 1.03 150 23:51 08.07.2021
6412 Clouds 19 1021 76 10000 1.03 170 22:35 08.07.2021
6413 Clear 24 1020 61 10000 3.09 210 18:56 08.07.2021
6414 Clear 24 1020 61 10000 0.89 194 17:42 08.07.2021
6415 Clouds 24 1020 56 10000 4.12 260 13:31 08.07.2021
6416 Clouds 23 1021 60 10000 4.12 250 12:43 08.07.2021
6417 Clouds 22 1020 62 10000 2.57 230 11:32 08.07.2021
6418 Clear 21 1020 70 10000 4.12 280 09:52 08.07.2021
6419 Fog 15 1018 92 250 0 0 04:42 08.07.2021
6420 Fog 16 1017 91 1500 1.54 180 00:47 08.07.2021
6421 Clouds 18 1016 90 10000 1.54 170 22:56 07.07.2021
6422 Rain 18 1015 89 10000 1.54 0 22:18 07.07.2021
6423 Clear 19 1015 88 10000 0.89 192 21:41 07.07.2021
6424 Rain 19 1016 89 10000 0.45 186 21:22 07.07.2021
6425 Clear 19 1015 90 10000 0.89 188 19:56 07.07.2021
6426 Clear 19 1015 89 10000 1.54 220 19:28 07.07.2021
6427 Rain 20 1013 90 10000 0.89 154 17:36 07.07.2021
6428 Drizzle 21 1012 88 10000 0.45 203 15:30 07.07.2021
6429 Clouds 21 1013 83 10000 4.63 130 12:24 07.07.2021
6430 Clouds 21 1013 83 10000 4.63 130 12:24 07.07.2021
6431 Rain 19 1012 90 5000 1.54 120 07:56 07.07.2021
6432 Clouds 20 1011 86 9000 0.45 184 06:43 07.07.2021
6433 Clouds 20 1011 86 10000 0.45 190 05:42 07.07.2021
6434 Clear 21 1009 78 10000 3.6 150 21:29 06.07.2021
6435 Clear 23 1009 67 10000 5.66 150 19:29 06.07.2021
6436 Clear 24 1009 68 10000 6.17 160 18:47 06.07.2021
6437 Clear 24 1009 69 10000 6.17 150 18:27 06.07.2021
6438 Clouds 25 1008 65 10000 4.12 170 13:45 06.07.2021
6439 Clouds 23 1008 74 10000 4.12 190 10:57 06.07.2021
6440 Clouds 22 1007 78 10000 0.45 188 09:41 06.07.2021
6441 Clouds 21 1006 85 10000 3.6 150 08:33 06.07.2021
6442 Clouds 20 1006 89 10000 3.6 120 06:30 06.07.2021
6443 Clouds 20 1006 89 10000 3.6 120 06:30 06.07.2021
6444 Rain 20 1009 80 10000 0.45 126 00:59 06.07.2021
6445 Clouds 21 1009 75 10000 4.12 100 22:39 05.07.2021
6446 Clouds 24 1009 65 10000 6.17 110 18:35 05.07.2021
6447 Clouds 26 1010 55 10000 7.2 100 14:29 05.07.2021
6448 Clear 21 1011 81 10000 3.6 60 07:21 05.07.2021
6449 Clouds 19 1012 86 10000 3.6 60 05:45 05.07.2021
6450 Clouds 17 1013 86 10000 2.06 60 04:40 05.07.2021
6451 Clear 19 1014 80 10000 2.06 120 23:18 04.07.2021
6452 Clear 24 1013 53 10000 5.66 100 18:52 04.07.2021
6453 Clear 26 1013 48 10000 4.12 160 16:51 04.07.2021
6454 Clear 26 1012 50 10000 1.54 100 12:58 04.07.2021
6455 Clouds 23 1013 59 10000 2.06 30 09:24 04.07.2021
6456 Clouds 17 1013 79 10000 2.06 110 23:33 03.07.2021
6457 Clouds 18 1012 76 10000 2.06 140 22:40 03.07.2021
6458 Clear 25 1014 55 10000 0.89 77 14:57 03.07.2021
6459 Clear 25 1014 54 10000 0.45 35 12:38 03.07.2021
6460 Clear 23 1014 60 10000 3.6 60 09:30 03.07.2021
6461 Clear 23 1014 60 10000 3.6 60 09:30 03.07.2021
6462 Clear 22 1014 62 10000 2.57 70 08:46 03.07.2021
6463 Clear 18 1015 73 10000 1.03 0 07:29 03.07.2021
6464 Clear 25 1013 44 10000 4.12 40 17:21 02.07.2021
6465 Clear 18 1013 75 10000 2.06 360 07:41 02.07.2021
6466 Clouds 15 1013 80 10000 2.92 25 05:44 02.07.2021
6467 Clouds 18 1014 62 10000 4.12 20 22:55 01.07.2021
6468 Clear 19 1015 57 10000 4.63 30 21:55 01.07.2021
6469 Clear 19 1014 56 10000 4.12 10 21:20 01.07.2021
6470 Clear 22 1013 53 10000 5.14 40 19:36 01.07.2021
6471 Clear 22 1013 53 10000 5.66 40 19:18 01.07.2021
6472 Clear 23 1013 53 10000 5.66 30 18:33 01.07.2021
6473 Clear 24 1013 54 10000 5.66 50 17:19 01.07.2021
6474 Clear 24 1013 54 10000 7.2 60 15:31 01.07.2021
6475 Clear 23 1013 55 10000 7.72 60 14:24 01.07.2021
6476 Clear 21 1012 63 10000 5.14 40 10:56 01.07.2021
6477 Clear 17 1012 75 10000 4.63 30 07:39 01.07.2021
6478 Clouds 16 1012 70 10000 4.63 350 23:23 30.06.2021
6479 Clear 16 1012 71 10000 3.6 350 22:20 30.06.2021
6480 Clear 16 1012 70 10000 4.12 10 21:23 30.06.2021
6481 Clear 17 1012 67 10000 4.63 20 20:28 30.06.2021
6482 Clear 18 1011 65 10000 5.14 350 19:19 30.06.2021
6483 Clouds 21 1011 65 10000 3.6 20 14:31 30.06.2021
6484 Clear 20 1010 67 10000 4.63 10 13:24 30.06.2021
6485 Clouds 16 1009 79 10000 4.63 350 08:24 30.06.2021
6486 Clear 21 1007 73 10000 1.03 0 21:50 29.06.2021
6487 Clear 24 1006 55 10000 2.57 160 18:45 29.06.2021
6488 Clear 24 1007 62 10000 4.12 150 17:43 29.06.2021
6489 Clear 25 1007 60 10000 3.6 150 17:22 29.06.2021
6490 Clear 26 1008 51 10000 3.6 150 15:50 29.06.2021
6491 Clear 25 1009 56 10000 1.03 0 14:54 29.06.2021
6492 Clear 25 1008 55 10000 2.06 150 13:19 29.06.2021
6493 Clouds 16 1010 89 10000 0 0 01:24 29.06.2021
6494 Clear 20 1010 71 10000 1.54 0 21:48 28.06.2021
6495 Clear 24 1011 61 10000 2.06 230 19:53 28.06.2021
6496 Clear 25 1009 57 10000 3.6 270 17:32 28.06.2021
6497 Clear 24 1010 56 10000 4.12 280 15:23 28.06.2021
6498 Clouds 24 1010 59 10000 3.6 270 14:24 28.06.2021
6499 Clear 22 1012 69 10000 4.12 250 10:50 28.06.2021
6500 Clouds 18 1012 86 10000 2.06 200 23:47 27.06.2021
6501 Clear 19 1011 84 10000 1.03 0 22:31 27.06.2021
6502 Clear 22 1011 72 10000 4.12 250 19:43 27.06.2021
6503 Clouds 22 1012 67 10000 4.12 50 16:55 27.06.2021
6504 Clouds 24 1012 59 10000 1.34 271 14:30 27.06.2021
6505 Clouds 22 1011 69 10000 2.06 230 09:33 27.06.2021
6506 Clouds 15 1013 84 10000 0 0 23:57 26.06.2021
6507 Clouds 19 1014 72 10000 1.54 0 21:26 26.06.2021
6508 Clouds 20 1014 69 10000 2.06 350 20:47 26.06.2021
6509 Clouds 21 1014 67 10000 2.57 20 19:26 26.06.2021
6510 Clouds 22 1013 67 10000 1.34 6 15:39 26.06.2021
6511 Clouds 19 1015 68 10000 4.63 340 13:52 26.06.2021
6512 Clouds 18 1015 85 10000 2.57 330 09:58 26.06.2021
6513 Clouds 17 1013 87 10000 1.03 340 06:23 26.06.2021
6514 Clouds 19 1012 81 10000 1.54 200 21:23 25.06.2021
6515 Clouds 19 1009 79 10000 0.45 248 20:20 25.06.2021
6516 Clouds 22 1013 60 10000 3.09 100 17:58 25.06.2021
6517 Clouds 21 1012 61 10000 2.06 90 16:57 25.06.2021
6518 Clear 21 1012 64 10000 0.89 1 15:51 25.06.2021
6519 Clouds 20 1013 77 10000 1.34 9 13:27 25.06.2021
6520 Rain 17 1012 92 2700 0 0 09:51 25.06.2021
6521 Clouds 17 1012 91 8000 0.51 120 07:22 25.06.2021
6522 Mist 15 1012 92 7000 0 0 03:58 25.06.2021
6523 Clouds 17 1013 87 10000 2.57 150 23:40 24.06.2021
6524 Clear 18 1013 83 10000 2.57 140 21:48 24.06.2021
6525 Clear 19 1013 77 10000 2.57 140 20:41 24.06.2021
6526 Clear 20 1013 76 10000 3.6 130 19:39 24.06.2021
6527 Clouds 20 1015 74 10000 4.12 150 17:29 24.06.2021
6528 Clouds 21 1015 71 10000 2.24 130 15:23 24.06.2021
6529 Clouds 22 1015 69 10000 2.06 140 14:51 24.06.2021
6530 Clear 21 1016 70 10000 2.24 83 12:54 24.06.2021
6531 Clouds 19 1018 80 10000 1.03 0 09:46 24.06.2021
6532 Clouds 18 1018 84 10000 0.45 338 08:28 24.06.2021
6533 Clouds 17 1016 88 10000 1.03 170 06:39 24.06.2021
6534 Clouds 17 1017 82 10000 2.06 10 23:33 23.06.2021
6535 Clouds 18 1016 82 10000 1.54 50 22:25 23.06.2021
6536 Clouds 19 1016 80 10000 2.57 330 20:59 23.06.2021
6537 Clouds 20 1016 79 10000 0.45 161 19:55 23.06.2021
6538 Clouds 21 1015 78 10000 3.09 250 18:29 23.06.2021
6539 Clouds 20 1015 82 10000 1.54 0 16:52 23.06.2021
6540 Rain 20 1015 77 10000 1.79 296 14:31 23.06.2021
6541 Clouds 20 1016 73 10000 3.09 280 12:38 23.06.2021
6542 Clouds 19 1016 77 10000 3.6 290 11:22 23.06.2021
6543 Clouds 17 1014 84 10000 2.06 300 09:26 23.06.2021
6544 Clouds 16 1014 86 10000 0.89 313 08:38 23.06.2021
6545 Clouds 15 1013 88 10000 2.06 320 07:49 23.06.2021
6546 Clouds 14 1013 89 10000 0.89 341 05:33 23.06.2021
6547 Clouds 14 1013 88 10000 1.34 349 01:54 23.06.2021
6548 Clouds 15 1013 86 10000 0.45 308 23:59 22.06.2021
6549 Clouds 15 1012 86 10000 2.24 342 23:41 22.06.2021
6550 Clouds 15 1012 85 10000 3.13 328 22:38 22.06.2021
6551 Clouds 16 1012 83 10000 0.89 347 21:39 22.06.2021
6552 Clouds 17 1011 80 10000 3.13 347 20:36 22.06.2021
6553 Clouds 19 1009 76 10000 2.24 355 19:18 22.06.2021
6554 Clear 20 1009 77 10000 4.63 330 18:29 22.06.2021
6555 Clouds 22 1009 75 10000 5.66 330 17:29 22.06.2021
6556 Clouds 21 1008 74 10000 6.17 340 16:52 22.06.2021
6557 Clear 27 1007 67 10000 0.89 277 14:59 22.06.2021
6558 Clear 27 1007 63 10000 0.45 302 14:25 22.06.2021
6559 Clear 26 1008 66 10000 3.6 290 13:38 22.06.2021
6560 Clear 26 1006 67 10000 0.89 135 11:55 22.06.2021
6561 Clear 26 1006 65 10000 2.57 240 10:42 22.06.2021
6562 Clear 24 1007 68 10000 0.51 0 08:28 22.06.2021
6563 Clouds 19 1007 86 10000 2.57 110 00:51 22.06.2021
6564 Clouds 19 1007 82 10000 3.09 90 23:36 21.06.2021
6565 Clouds 19 1005 81 10000 3.14 131 22:40 21.06.2021
6566 Clear 22 1007 72 10000 1.54 150 21:29 21.06.2021
6567 Clear 23 1006 67 10000 2.57 140 20:47 21.06.2021
6568 Clear 24 1007 65 10000 1.54 120 19:55 21.06.2021
6569 Clear 24 1007 65 10000 1.54 120 19:55 21.06.2021
6570 Clear 24 1007 65 10000 3.6 130 18:58 21.06.2021
6571 Clear 23 1007 68 10000 1.34 172 17:37 21.06.2021
6572 Clear 25 1008 61 10000 3.6 200 16:47 21.06.2021
6573 Rain 26 1007 54 10000 3.6 190 16:25 21.06.2021
6574 Clear 27 1007 50 10000 3.6 210 15:46 21.06.2021
6575 Clear 27 1008 39 10000 4.63 190 14:24 21.06.2021
6576 Clear 27 1007 50 10000 4.47 2 13:35 21.06.2021
6577 Clear 26 1007 55 10000 4.02 276 12:38 21.06.2021
6578 Clear 26 1007 54 10000 3.13 345 11:56 21.06.2021
6579 Clear 26 1007 54 10000 3.13 345 11:56 21.06.2021
6580 Clear 25 1006 65 10000 3.58 355 10:31 21.06.2021
6581 Clear 24 1005 72 10000 2.24 129 09:37 21.06.2021
6582 Clear 22 1006 80 10000 0.45 183 08:24 21.06.2021
6583 Clear 21 1006 83 10000 2.57 210 07:44 21.06.2021
6584 Clouds 21 1005 74 10000 2.68 16 00:44 21.06.2021
6585 Clouds 21 1006 74 10000 2.24 56 23:36 20.06.2021
6586 Clouds 21 1006 74 10000 1.34 7 22:59 20.06.2021
6587 Clear 22 1006 74 10000 1.79 27 22:20 20.06.2021
6588 Clear 22 1006 70 10000 4.63 140 21:33 20.06.2021
6589 Clear 24 1007 67 10000 2.24 40 19:54 20.06.2021
6590 Clear 25 1007 65 10000 0.45 176 19:32 20.06.2021
6591 Clear 26 1007 63 10000 2.68 139 18:34 20.06.2021
6592 Clear 28 1008 57 10000 6.69 140 16:52 20.06.2021
6593 Clear 28 1008 58 10000 4.63 140 15:58 20.06.2021
6594 Clear 28 1009 58 10000 4.63 140 15:34 20.06.2021
6595 Clear 28 1009 59 10000 5.14 140 14:54 20.06.2021
6596 Clear 28 1009 58 10000 2.06 210 13:52 20.06.2021
6597 Clear 27 1009 60 10000 2.06 150 12:58 20.06.2021
6598 Clear 26 1009 65 10000 1.03 0 11:47 20.06.2021
6599 Clouds 25 1010 68 10000 1.03 0 10:48 20.06.2021
6600 Clouds 24 1010 72 10000 1.54 270 09:47 20.06.2021
6601 Clouds 22 1010 77 10000 3.6 290 08:22 20.06.2021
6602 Clouds 20 1009 74 10000 3.13 10 00:31 20.06.2021
6603 Clouds 20 1009 70 10000 2.68 0 23:20 19.06.2021
6604 Clouds 21 1009 69 10000 2.68 0 22:20 19.06.2021
6605 Clouds 21 1009 68 10000 0.89 108 21:43 19.06.2021
6606 Clear 25 1010 60 10000 5.66 130 18:56 19.06.2021
6607 Clear 25 1011 60 10000 6.17 130 18:31 19.06.2021
6608 Clear 26 1010 55 10000 0.89 113 17:27 19.06.2021
6609 Clear 27 1011 49 10000 5.14 170 16:51 19.06.2021
6610 Clear 27 1013 54 10000 5.14 130 15:42 19.06.2021
6611 Clear 25 1011 56 10000 2.06 120 13:36 19.06.2021
6612 Clear 24 1013 63 10000 2.57 110 12:40 19.06.2021
6613 Clear 21 1014 67 10000 2.06 50 10:49 19.06.2021
6614 Clear 21 1014 67 10000 2.06 50 10:49 19.06.2021
6615 Clear 21 1014 67 10000 2.06 50 10:49 19.06.2021
6616 Clear 21 1014 67 10000 2.06 50 10:49 19.06.2021
6617 Clear 21 1014 67 10000 2.06 50 10:49 19.06.2021
6618 Clear 21 1014 67 10000 2.06 50 10:49 19.06.2021
6619 Clear 21 1014 66 10000 2.06 60 10:27 19.06.2021
6620 Clear 20 1014 68 10000 2.06 70 09:59 19.06.2021
6621 Clear 17 1016 67 10000 3.09 40 08:26 19.06.2021
6622 Clouds 16 1014 75 10000 1.34 4 06:55 19.06.2021
6623 Clouds 15 1016 79 10000 3.09 20 04:23 19.06.2021
6624 Clouds 19 1014 76 10000 0 0 00:23 19.06.2021
6625 Clouds 19 1014 70 10000 0.89 3 23:49 18.06.2021
6626 Clear 20 1014 67 10000 3.13 356 22:56 18.06.2021
6627 Clear 20 1014 66 10000 1.79 305 22:35 18.06.2021
6628 Clear 22 1014 56 10000 2.57 160 21:51 18.06.2021
6629 Clear 22 1013 62 10000 2.24 343 21:27 18.06.2021
6630 Clear 23 1012 58 10000 2.68 336 20:28 18.06.2021
6631 Clear 25 1012 50 10000 5.36 326 18:46 18.06.2021
6632 Clear 26 1012 54 10000 6.26 339 17:55 18.06.2021
6633 Clear 27 1012 51 10000 5.36 5 16:39 18.06.2021
6634 Clear 28 1012 50 10000 7.2 200 15:48 18.06.2021
6635 Clear 28 1012 49 10000 4.47 192 14:51 18.06.2021
6636 Clear 27 1012 52 10000 4.47 199 13:56 18.06.2021
6637 Clear 28 1012 52 10000 6.69 190 13:20 18.06.2021
6638 Clear 27 1013 56 10000 6.17 190 12:42 18.06.2021
6639 Clear 26 1012 57 10000 6.69 190 11:48 18.06.2021
6640 Clear 26 1012 58 10000 5.14 170 10:59 18.06.2021
6641 Clear 25 1012 60 10000 5.14 170 10:36 18.06.2021
6642 Clear 25 1012 61 10000 4.12 170 10:18 18.06.2021
6643 Clear 23 1013 67 10000 3.6 160 09:22 18.06.2021
6644 Clear 20 1013 72 10000 4.02 0 08:34 18.06.2021
6645 Clear 19 1013 74 10000 4.63 140 07:38 18.06.2021
6646 Clear 16 1014 82 10000 2.24 1 05:51 18.06.2021
6647 Clear 16 1016 70 10000 3.6 160 00:36 18.06.2021
6648 Clear 16 1016 69 10000 3.6 170 23:31 17.06.2021
6649 Clear 17 1016 67 10000 3.6 180 22:28 17.06.2021
6650 Clear 18 1016 67 10000 1.34 0 21:59 17.06.2021
6651 Clear 18 1016 65 10000 1.34 7 21:25 17.06.2021
6652 Clear 18 1017 64 10000 3.13 1 20:45 17.06.2021
6653 Clear 19 1017 61 10000 1.34 4 20:19 17.06.2021
6654 Clear 20 1017 60 10000 3.13 12 19:32 17.06.2021
6655 Clear 21 1017 60 10000 3.13 1 17:50 17.06.2021
6656 Clear 21 1017 58 10000 3.13 2 17:24 17.06.2021
6657 Clear 21 1017 57 10000 3.13 24 16:57 17.06.2021
6658 Clear 21 1017 53 10000 3.13 10 16:23 17.06.2021
6659 Clear 21 1018 47 10000 3.13 12 14:39 17.06.2021
6660 Clear 22 1018 51 10000 2.68 354 13:56 17.06.2021
6661 Clear 23 1017 51 10000 4.12 190 12:34 17.06.2021
6662 Clear 23 1017 54 10000 4.63 210 11:52 17.06.2021
6663 Clear 23 1017 57 10000 3.09 170 10:46 17.06.2021
6